<?xml version="1.0" encoding="UTF-8" standalone="no" ?>
<gpx xmlns="http://www.topografix.com/GPX/1/1" xmlns:xsi="http://www.w3.org/2001/XMLSchema-instance" xsi:schemaLocation="http://www.topografix.com/GPX/1/1 http://www.topografix.com/GPX/1/1/gpx.xsd" version="1.1" creator="VisuGPX - https://www.visugpx.com">
  <metadata>
    <name>Egreville</name>
    <desc><![CDATA[Boucle au départ d'Egreville en traversant le bois de la Brandelle.]]></desc>
  </metadata>
  <trk>
    <name><![CDATA[Egreville]]></name>
    <trkseg>
      <trkpt lat="48.17653" lon="2.87169">
        <ele>105.97</ele>
        <time>2020-06-16T07:04:39Z</time>
      </trkpt>
      <trkpt lat="48.17651" lon="2.87162">
        <ele>105.97</ele>
        <time>2020-06-16T07:04:44Z</time>
      </trkpt>
      <trkpt lat="48.17654" lon="2.8716">
        <ele>105.97</ele>
        <time>2020-06-16T07:04:49Z</time>
      </trkpt>
      <trkpt lat="48.17656" lon="2.87159">
        <ele>105.97</ele>
        <time>2020-06-16T07:04:54Z</time>
      </trkpt>
      <trkpt lat="48.1766" lon="2.87158">
        <ele>105.97</ele>
        <time>2020-06-16T07:04:59Z</time>
      </trkpt>
      <trkpt lat="48.17663" lon="2.87155">
        <ele>105.97</ele>
        <time>2020-06-16T07:05:04Z</time>
      </trkpt>
      <trkpt lat="48.17665" lon="2.87152">
        <ele>105.97</ele>
        <time>2020-06-16T07:05:09Z</time>
      </trkpt>
      <trkpt lat="48.17666" lon="2.8715">
        <ele>105.97</ele>
        <time>2020-06-16T07:05:14Z</time>
      </trkpt>
      <trkpt lat="48.17668" lon="2.87146">
        <ele>105.97</ele>
        <time>2020-06-16T07:05:19Z</time>
      </trkpt>
      <trkpt lat="48.17674" lon="2.87141">
        <ele>105.97</ele>
        <time>2020-06-16T07:05:24Z</time>
      </trkpt>
      <trkpt lat="48.17677" lon="2.87133">
        <ele>105.66</ele>
        <time>2020-06-16T07:05:29Z</time>
      </trkpt>
      <trkpt lat="48.17677" lon="2.87128">
        <ele>103.37</ele>
        <time>2020-06-16T07:05:34Z</time>
      </trkpt>
      <trkpt lat="48.17676" lon="2.87122">
        <ele>102.93</ele>
        <time>2020-06-16T07:05:39Z</time>
      </trkpt>
      <trkpt lat="48.17676" lon="2.87117">
        <ele>102.87</ele>
        <time>2020-06-16T07:05:44Z</time>
      </trkpt>
      <trkpt lat="48.17676" lon="2.87111">
        <ele>102.93</ele>
        <time>2020-06-16T07:05:49Z</time>
      </trkpt>
      <trkpt lat="48.17675" lon="2.87107">
        <ele>102.9</ele>
        <time>2020-06-16T07:05:54Z</time>
      </trkpt>
      <trkpt lat="48.17674" lon="2.87099">
        <ele>102.88</ele>
        <time>2020-06-16T07:05:59Z</time>
      </trkpt>
      <trkpt lat="48.17675" lon="2.8709">
        <ele>102.66</ele>
        <time>2020-06-16T07:06:04Z</time>
      </trkpt>
      <trkpt lat="48.17676" lon="2.87081">
        <ele>102.3</ele>
        <time>2020-06-16T07:06:09Z</time>
      </trkpt>
      <trkpt lat="48.17676" lon="2.87075">
        <ele>102.24</ele>
        <time>2020-06-16T07:06:14Z</time>
      </trkpt>
      <trkpt lat="48.17676" lon="2.87069">
        <ele>101.99</ele>
        <time>2020-06-16T07:06:19Z</time>
      </trkpt>
      <trkpt lat="48.17674" lon="2.87061">
        <ele>101.9</ele>
        <time>2020-06-16T07:06:24Z</time>
      </trkpt>
      <trkpt lat="48.17673" lon="2.87055">
        <ele>101.99</ele>
        <time>2020-06-16T07:06:29Z</time>
      </trkpt>
      <trkpt lat="48.17673" lon="2.87049">
        <ele>101.9</ele>
        <time>2020-06-16T07:06:34Z</time>
      </trkpt>
      <trkpt lat="48.17673" lon="2.87037">
        <ele>101.91</ele>
        <time>2020-06-16T07:06:39Z</time>
      </trkpt>
      <trkpt lat="48.17672" lon="2.87025">
        <ele>101.86</ele>
        <time>2020-06-16T07:06:44Z</time>
      </trkpt>
      <trkpt lat="48.17672" lon="2.87012">
        <ele>101.69</ele>
        <time>2020-06-16T07:06:49Z</time>
      </trkpt>
      <trkpt lat="48.1767" lon="2.87004">
        <ele>101.65</ele>
        <time>2020-06-16T07:06:54Z</time>
      </trkpt>
      <trkpt lat="48.17669" lon="2.86996">
        <ele>101.72</ele>
        <time>2020-06-16T07:06:59Z</time>
      </trkpt>
      <trkpt lat="48.17668" lon="2.86989">
        <ele>101.84</ele>
        <time>2020-06-16T07:07:04Z</time>
      </trkpt>
      <trkpt lat="48.17664" lon="2.8698">
        <ele>101.87</ele>
        <time>2020-06-16T07:07:09Z</time>
      </trkpt>
      <trkpt lat="48.17664" lon="2.86971">
        <ele>101.87</ele>
        <time>2020-06-16T07:07:14Z</time>
      </trkpt>
      <trkpt lat="48.17669" lon="2.86964">
        <ele>101.59</ele>
        <time>2020-06-16T07:07:19Z</time>
      </trkpt>
      <trkpt lat="48.1767" lon="2.86952">
        <ele>101.55</ele>
        <time>2020-06-16T07:07:24Z</time>
      </trkpt>
      <trkpt lat="48.17669" lon="2.86943">
        <ele>101.52</ele>
        <time>2020-06-16T07:07:29Z</time>
      </trkpt>
      <trkpt lat="48.17668" lon="2.86937">
        <ele>101.34</ele>
        <time>2020-06-16T07:07:34Z</time>
      </trkpt>
      <trkpt lat="48.17666" lon="2.8693">
        <ele>101.47</ele>
        <time>2020-06-16T07:07:39Z</time>
      </trkpt>
      <trkpt lat="48.17666" lon="2.86928">
        <ele>101.45</ele>
        <time>2020-06-16T07:07:44Z</time>
      </trkpt>
      <trkpt lat="48.17665" lon="2.86923">
        <ele>101.34</ele>
        <time>2020-06-16T07:07:49Z</time>
      </trkpt>
      <trkpt lat="48.17661" lon="2.86915">
        <ele>101.34</ele>
        <time>2020-06-16T07:07:54Z</time>
      </trkpt>
      <trkpt lat="48.17658" lon="2.86907">
        <ele>101.34</ele>
        <time>2020-06-16T07:07:59Z</time>
      </trkpt>
      <trkpt lat="48.17657" lon="2.86898">
        <ele>101.34</ele>
        <time>2020-06-16T07:08:04Z</time>
      </trkpt>
      <trkpt lat="48.17655" lon="2.86889">
        <ele>101.22</ele>
        <time>2020-06-16T07:08:09Z</time>
      </trkpt>
      <trkpt lat="48.17655" lon="2.86879">
        <ele>100.96</ele>
        <time>2020-06-16T07:08:14Z</time>
      </trkpt>
      <trkpt lat="48.17655" lon="2.86869">
        <ele>101.05</ele>
        <time>2020-06-16T07:08:19Z</time>
      </trkpt>
      <trkpt lat="48.17655" lon="2.86861">
        <ele>101.04</ele>
        <time>2020-06-16T07:08:24Z</time>
      </trkpt>
      <trkpt lat="48.17656" lon="2.86854">
        <ele>101.16</ele>
        <time>2020-06-16T07:08:29Z</time>
      </trkpt>
      <trkpt lat="48.17656" lon="2.86849">
        <ele>101.22</ele>
        <time>2020-06-16T07:08:34Z</time>
      </trkpt>
      <trkpt lat="48.17659" lon="2.86844">
        <ele>101.22</ele>
        <time>2020-06-16T07:08:39Z</time>
      </trkpt>
      <trkpt lat="48.17661" lon="2.86838">
        <ele>101.14</ele>
        <time>2020-06-16T07:08:44Z</time>
      </trkpt>
      <trkpt lat="48.17662" lon="2.8683">
        <ele>101.07</ele>
        <time>2020-06-16T07:08:49Z</time>
      </trkpt>
      <trkpt lat="48.17662" lon="2.86825">
        <ele>101.27</ele>
        <time>2020-06-16T07:08:54Z</time>
      </trkpt>
      <trkpt lat="48.17663" lon="2.86822">
        <ele>101.7</ele>
        <time>2020-06-16T07:08:59Z</time>
      </trkpt>
      <trkpt lat="48.17661" lon="2.86821">
        <ele>101.67</ele>
        <time>2020-06-16T07:09:04Z</time>
      </trkpt>
      <trkpt lat="48.17659" lon="2.86814">
        <ele>101.44</ele>
        <time>2020-06-16T07:09:09Z</time>
      </trkpt>
      <trkpt lat="48.17661" lon="2.8681">
        <ele>101.44</ele>
        <time>2020-06-16T07:09:14Z</time>
      </trkpt>
      <trkpt lat="48.17662" lon="2.86803">
        <ele>101.33</ele>
        <time>2020-06-16T07:09:19Z</time>
      </trkpt>
      <trkpt lat="48.17664" lon="2.86795">
        <ele>101.24</ele>
        <time>2020-06-16T07:09:24Z</time>
      </trkpt>
      <trkpt lat="48.17663" lon="2.86786">
        <ele>101.27</ele>
        <time>2020-06-16T07:09:29Z</time>
      </trkpt>
      <trkpt lat="48.17661" lon="2.86776">
        <ele>101.24</ele>
        <time>2020-06-16T07:09:34Z</time>
      </trkpt>
      <trkpt lat="48.17662" lon="2.86767">
        <ele>101.19</ele>
        <time>2020-06-16T07:09:39Z</time>
      </trkpt>
      <trkpt lat="48.17664" lon="2.86764">
        <ele>100.97</ele>
        <time>2020-06-16T07:09:44Z</time>
      </trkpt>
      <trkpt lat="48.17667" lon="2.86758">
        <ele>100.93</ele>
        <time>2020-06-16T07:09:49Z</time>
      </trkpt>
      <trkpt lat="48.17669" lon="2.86752">
        <ele>100.98</ele>
        <time>2020-06-16T07:09:54Z</time>
      </trkpt>
      <trkpt lat="48.17672" lon="2.86747">
        <ele>100.95</ele>
        <time>2020-06-16T07:09:59Z</time>
      </trkpt>
      <trkpt lat="48.17674" lon="2.8674">
        <ele>101.04</ele>
        <time>2020-06-16T07:10:04Z</time>
      </trkpt>
      <trkpt lat="48.17673" lon="2.86738">
        <ele>101.35</ele>
        <time>2020-06-16T07:10:09Z</time>
      </trkpt>
      <trkpt lat="48.17673" lon="2.86738">
        <ele>101.76</ele>
        <time>2020-06-16T07:10:14Z</time>
      </trkpt>
      <trkpt lat="48.17673" lon="2.86738">
        <ele>101.76</ele>
        <time>2020-06-16T07:10:19Z</time>
      </trkpt>
      <trkpt lat="48.17673" lon="2.86738">
        <ele>101.76</ele>
        <time>2020-06-16T07:10:24Z</time>
      </trkpt>
      <trkpt lat="48.17673" lon="2.86739">
        <ele>101.76</ele>
        <time>2020-06-16T07:10:29Z</time>
      </trkpt>
      <trkpt lat="48.17673" lon="2.8674">
        <ele>101.76</ele>
        <time>2020-06-16T07:10:34Z</time>
      </trkpt>
      <trkpt lat="48.17677" lon="2.86738">
        <ele>101.76</ele>
        <time>2020-06-16T07:10:39Z</time>
      </trkpt>
      <trkpt lat="48.17682" lon="2.86737">
        <ele>101.76</ele>
        <time>2020-06-16T07:10:44Z</time>
      </trkpt>
      <trkpt lat="48.17685" lon="2.86729">
        <ele>101.76</ele>
        <time>2020-06-16T07:10:49Z</time>
      </trkpt>
      <trkpt lat="48.1769" lon="2.86725">
        <ele>101.62</ele>
        <time>2020-06-16T07:10:54Z</time>
      </trkpt>
      <trkpt lat="48.17694" lon="2.8672">
        <ele>101.66</ele>
        <time>2020-06-16T07:10:59Z</time>
      </trkpt>
      <trkpt lat="48.17699" lon="2.86716">
        <ele>101.63</ele>
        <time>2020-06-16T07:11:04Z</time>
      </trkpt>
      <trkpt lat="48.17703" lon="2.86712">
        <ele>101.63</ele>
        <time>2020-06-16T07:11:09Z</time>
      </trkpt>
      <trkpt lat="48.17706" lon="2.86706">
        <ele>101.85</ele>
        <time>2020-06-16T07:11:14Z</time>
      </trkpt>
      <trkpt lat="48.17712" lon="2.86702">
        <ele>101.92</ele>
        <time>2020-06-16T07:11:19Z</time>
      </trkpt>
      <trkpt lat="48.17716" lon="2.86701">
        <ele>101.96</ele>
        <time>2020-06-16T07:11:24Z</time>
      </trkpt>
      <trkpt lat="48.17721" lon="2.86697">
        <ele>102.07</ele>
        <time>2020-06-16T07:11:29Z</time>
      </trkpt>
      <trkpt lat="48.17726" lon="2.86692">
        <ele>102.18</ele>
        <time>2020-06-16T07:11:34Z</time>
      </trkpt>
      <trkpt lat="48.1773" lon="2.86687">
        <ele>102.31</ele>
        <time>2020-06-16T07:11:39Z</time>
      </trkpt>
      <trkpt lat="48.17732" lon="2.86681">
        <ele>102.39</ele>
        <time>2020-06-16T07:11:44Z</time>
      </trkpt>
      <trkpt lat="48.17738" lon="2.86676">
        <ele>102.32</ele>
        <time>2020-06-16T07:11:49Z</time>
      </trkpt>
      <trkpt lat="48.17741" lon="2.86672">
        <ele>102.27</ele>
        <time>2020-06-16T07:11:54Z</time>
      </trkpt>
      <trkpt lat="48.17747" lon="2.86667">
        <ele>102.2</ele>
        <time>2020-06-16T07:11:59Z</time>
      </trkpt>
      <trkpt lat="48.17751" lon="2.86663">
        <ele>102.2</ele>
        <time>2020-06-16T07:12:04Z</time>
      </trkpt>
      <trkpt lat="48.17754" lon="2.86657">
        <ele>102.17</ele>
        <time>2020-06-16T07:12:09Z</time>
      </trkpt>
      <trkpt lat="48.17756" lon="2.86649">
        <ele>102.2</ele>
        <time>2020-06-16T07:12:14Z</time>
      </trkpt>
      <trkpt lat="48.17757" lon="2.86643">
        <ele>102.34</ele>
        <time>2020-06-16T07:12:19Z</time>
      </trkpt>
      <trkpt lat="48.17759" lon="2.86636">
        <ele>102.32</ele>
        <time>2020-06-16T07:12:24Z</time>
      </trkpt>
      <trkpt lat="48.17759" lon="2.86628">
        <ele>102.28</ele>
        <time>2020-06-16T07:12:29Z</time>
      </trkpt>
      <trkpt lat="48.17758" lon="2.86618">
        <ele>102.37</ele>
        <time>2020-06-16T07:12:34Z</time>
      </trkpt>
      <trkpt lat="48.17759" lon="2.86609">
        <ele>102.57</ele>
        <time>2020-06-16T07:12:39Z</time>
      </trkpt>
      <trkpt lat="48.17764" lon="2.86601">
        <ele>102.59</ele>
        <time>2020-06-16T07:12:44Z</time>
      </trkpt>
      <trkpt lat="48.17769" lon="2.86593">
        <ele>102.66</ele>
        <time>2020-06-16T07:12:49Z</time>
      </trkpt>
      <trkpt lat="48.17777" lon="2.86585">
        <ele>102.79</ele>
        <time>2020-06-16T07:12:54Z</time>
      </trkpt>
      <trkpt lat="48.17782" lon="2.8658">
        <ele>103.11</ele>
        <time>2020-06-16T07:12:59Z</time>
      </trkpt>
      <trkpt lat="48.17785" lon="2.86579">
        <ele>103.18</ele>
        <time>2020-06-16T07:13:04Z</time>
      </trkpt>
      <trkpt lat="48.17792" lon="2.8658">
        <ele>103.22</ele>
        <time>2020-06-16T07:13:09Z</time>
      </trkpt>
      <trkpt lat="48.17798" lon="2.8658">
        <ele>103.22</ele>
        <time>2020-06-16T07:13:14Z</time>
      </trkpt>
      <trkpt lat="48.17803" lon="2.86581">
        <ele>103.22</ele>
        <time>2020-06-16T07:13:19Z</time>
      </trkpt>
      <trkpt lat="48.17809" lon="2.86583">
        <ele>103.3</ele>
        <time>2020-06-16T07:13:24Z</time>
      </trkpt>
      <trkpt lat="48.17815" lon="2.86584">
        <ele>103.3</ele>
        <time>2020-06-16T07:13:29Z</time>
      </trkpt>
      <trkpt lat="48.17821" lon="2.86585">
        <ele>103.32</ele>
        <time>2020-06-16T07:13:34Z</time>
      </trkpt>
      <trkpt lat="48.17827" lon="2.86587">
        <ele>103.44</ele>
        <time>2020-06-16T07:13:39Z</time>
      </trkpt>
      <trkpt lat="48.17833" lon="2.86588">
        <ele>103.73</ele>
        <time>2020-06-16T07:13:44Z</time>
      </trkpt>
      <trkpt lat="48.1784" lon="2.86589">
        <ele>103.82</ele>
        <time>2020-06-16T07:13:49Z</time>
      </trkpt>
      <trkpt lat="48.17845" lon="2.86589">
        <ele>103.85</ele>
        <time>2020-06-16T07:13:54Z</time>
      </trkpt>
      <trkpt lat="48.1785" lon="2.86589">
        <ele>103.97</ele>
        <time>2020-06-16T07:13:59Z</time>
      </trkpt>
      <trkpt lat="48.17853" lon="2.86587">
        <ele>104.19</ele>
        <time>2020-06-16T07:14:04Z</time>
      </trkpt>
      <trkpt lat="48.17857" lon="2.86587">
        <ele>104.23</ele>
        <time>2020-06-16T07:14:09Z</time>
      </trkpt>
      <trkpt lat="48.17863" lon="2.86589">
        <ele>104.36</ele>
        <time>2020-06-16T07:14:14Z</time>
      </trkpt>
      <trkpt lat="48.17869" lon="2.86589">
        <ele>104.59</ele>
        <time>2020-06-16T07:14:19Z</time>
      </trkpt>
      <trkpt lat="48.17873" lon="2.86591">
        <ele>104.61</ele>
        <time>2020-06-16T07:14:24Z</time>
      </trkpt>
      <trkpt lat="48.17878" lon="2.86591">
        <ele>104.66</ele>
        <time>2020-06-16T07:14:29Z</time>
      </trkpt>
      <trkpt lat="48.17882" lon="2.86594">
        <ele>104.69</ele>
        <time>2020-06-16T07:14:34Z</time>
      </trkpt>
      <trkpt lat="48.17888" lon="2.86598">
        <ele>104.65</ele>
        <time>2020-06-16T07:14:39Z</time>
      </trkpt>
      <trkpt lat="48.17892" lon="2.86599">
        <ele>104.73</ele>
        <time>2020-06-16T07:14:44Z</time>
      </trkpt>
      <trkpt lat="48.17898" lon="2.86602">
        <ele>104.78</ele>
        <time>2020-06-16T07:14:49Z</time>
      </trkpt>
      <trkpt lat="48.17906" lon="2.86605">
        <ele>104.82</ele>
        <time>2020-06-16T07:14:54Z</time>
      </trkpt>
      <trkpt lat="48.17911" lon="2.86606">
        <ele>105.01</ele>
        <time>2020-06-16T07:14:59Z</time>
      </trkpt>
      <trkpt lat="48.17917" lon="2.86609">
        <ele>105.26</ele>
        <time>2020-06-16T07:15:04Z</time>
      </trkpt>
      <trkpt lat="48.17924" lon="2.86611">
        <ele>105.38</ele>
        <time>2020-06-16T07:15:09Z</time>
      </trkpt>
      <trkpt lat="48.17927" lon="2.86609">
        <ele>105.55</ele>
        <time>2020-06-16T07:15:14Z</time>
      </trkpt>
      <trkpt lat="48.17932" lon="2.86605">
        <ele>105.53</ele>
        <time>2020-06-16T07:15:19Z</time>
      </trkpt>
      <trkpt lat="48.17938" lon="2.86598">
        <ele>105.57</ele>
        <time>2020-06-16T07:15:24Z</time>
      </trkpt>
      <trkpt lat="48.17942" lon="2.86591">
        <ele>105.68</ele>
        <time>2020-06-16T07:15:29Z</time>
      </trkpt>
      <trkpt lat="48.17945" lon="2.86583">
        <ele>105.67</ele>
        <time>2020-06-16T07:15:34Z</time>
      </trkpt>
      <trkpt lat="48.17949" lon="2.86575">
        <ele>105.39</ele>
        <time>2020-06-16T07:15:39Z</time>
      </trkpt>
      <trkpt lat="48.17952" lon="2.86566">
        <ele>105.21</ele>
        <time>2020-06-16T07:15:44Z</time>
      </trkpt>
      <trkpt lat="48.17953" lon="2.86558">
        <ele>105.25</ele>
        <time>2020-06-16T07:15:49Z</time>
      </trkpt>
      <trkpt lat="48.17956" lon="2.86552">
        <ele>105.29</ele>
        <time>2020-06-16T07:15:54Z</time>
      </trkpt>
      <trkpt lat="48.17957" lon="2.86544">
        <ele>105.32</ele>
        <time>2020-06-16T07:15:59Z</time>
      </trkpt>
      <trkpt lat="48.17958" lon="2.86536">
        <ele>105.37</ele>
        <time>2020-06-16T07:16:04Z</time>
      </trkpt>
      <trkpt lat="48.1796" lon="2.86525">
        <ele>105.11</ele>
        <time>2020-06-16T07:16:09Z</time>
      </trkpt>
      <trkpt lat="48.17962" lon="2.86514">
        <ele>105.07</ele>
        <time>2020-06-16T07:16:14Z</time>
      </trkpt>
      <trkpt lat="48.17964" lon="2.86507">
        <ele>105.09</ele>
        <time>2020-06-16T07:16:19Z</time>
      </trkpt>
      <trkpt lat="48.17965" lon="2.86498">
        <ele>105.1</ele>
        <time>2020-06-16T07:16:24Z</time>
      </trkpt>
      <trkpt lat="48.17967" lon="2.86488">
        <ele>105.03</ele>
        <time>2020-06-16T07:16:29Z</time>
      </trkpt>
      <trkpt lat="48.17968" lon="2.86481">
        <ele>105.03</ele>
        <time>2020-06-16T07:16:34Z</time>
      </trkpt>
      <trkpt lat="48.1797" lon="2.86475">
        <ele>105.06</ele>
        <time>2020-06-16T07:16:39Z</time>
      </trkpt>
      <trkpt lat="48.17971" lon="2.86467">
        <ele>104.84</ele>
        <time>2020-06-16T07:16:44Z</time>
      </trkpt>
      <trkpt lat="48.17974" lon="2.8646">
        <ele>104.79</ele>
        <time>2020-06-16T07:16:49Z</time>
      </trkpt>
      <trkpt lat="48.17978" lon="2.86452">
        <ele>104.82</ele>
        <time>2020-06-16T07:16:54Z</time>
      </trkpt>
      <trkpt lat="48.17982" lon="2.86445">
        <ele>104.87</ele>
        <time>2020-06-16T07:16:59Z</time>
      </trkpt>
      <trkpt lat="48.17984" lon="2.86437">
        <ele>104.87</ele>
        <time>2020-06-16T07:17:04Z</time>
      </trkpt>
      <trkpt lat="48.17987" lon="2.86428">
        <ele>104.7</ele>
        <time>2020-06-16T07:17:09Z</time>
      </trkpt>
      <trkpt lat="48.1799" lon="2.8642">
        <ele>104.58</ele>
        <time>2020-06-16T07:17:14Z</time>
      </trkpt>
      <trkpt lat="48.17995" lon="2.86411">
        <ele>104.55</ele>
        <time>2020-06-16T07:17:19Z</time>
      </trkpt>
      <trkpt lat="48.17998" lon="2.86403">
        <ele>104.56</ele>
        <time>2020-06-16T07:17:24Z</time>
      </trkpt>
      <trkpt lat="48.18" lon="2.86395">
        <ele>104.59</ele>
        <time>2020-06-16T07:17:29Z</time>
      </trkpt>
      <trkpt lat="48.18002" lon="2.86385">
        <ele>104.59</ele>
        <time>2020-06-16T07:17:34Z</time>
      </trkpt>
      <trkpt lat="48.18005" lon="2.86376">
        <ele>104.4</ele>
        <time>2020-06-16T07:17:39Z</time>
      </trkpt>
      <trkpt lat="48.18011" lon="2.86367">
        <ele>104.24</ele>
        <time>2020-06-16T07:17:44Z</time>
      </trkpt>
      <trkpt lat="48.18015" lon="2.8636">
        <ele>104.17</ele>
        <time>2020-06-16T07:17:49Z</time>
      </trkpt>
      <trkpt lat="48.18018" lon="2.86354">
        <ele>104.08</ele>
        <time>2020-06-16T07:17:54Z</time>
      </trkpt>
      <trkpt lat="48.1802" lon="2.86348">
        <ele>103.98</ele>
        <time>2020-06-16T07:17:59Z</time>
      </trkpt>
      <trkpt lat="48.18022" lon="2.86341">
        <ele>103.96</ele>
        <time>2020-06-16T07:18:04Z</time>
      </trkpt>
      <trkpt lat="48.18024" lon="2.86334">
        <ele>103.84</ele>
        <time>2020-06-16T07:18:09Z</time>
      </trkpt>
      <trkpt lat="48.18026" lon="2.86327">
        <ele>103.89</ele>
        <time>2020-06-16T07:18:14Z</time>
      </trkpt>
      <trkpt lat="48.18028" lon="2.86319">
        <ele>103.78</ele>
        <time>2020-06-16T07:18:19Z</time>
      </trkpt>
      <trkpt lat="48.18031" lon="2.86309">
        <ele>103.71</ele>
        <time>2020-06-16T07:18:24Z</time>
      </trkpt>
      <trkpt lat="48.18032" lon="2.86301">
        <ele>103.69</ele>
        <time>2020-06-16T07:18:29Z</time>
      </trkpt>
      <trkpt lat="48.18035" lon="2.86293">
        <ele>103.66</ele>
        <time>2020-06-16T07:18:34Z</time>
      </trkpt>
      <trkpt lat="48.18037" lon="2.86285">
        <ele>103.51</ele>
        <time>2020-06-16T07:18:39Z</time>
      </trkpt>
      <trkpt lat="48.18039" lon="2.86275">
        <ele>103.29</ele>
        <time>2020-06-16T07:18:44Z</time>
      </trkpt>
      <trkpt lat="48.1804" lon="2.86265">
        <ele>103.1</ele>
        <time>2020-06-16T07:18:49Z</time>
      </trkpt>
      <trkpt lat="48.18042" lon="2.86257">
        <ele>102.9</ele>
        <time>2020-06-16T07:18:54Z</time>
      </trkpt>
      <trkpt lat="48.18045" lon="2.86247">
        <ele>102.79</ele>
        <time>2020-06-16T07:18:59Z</time>
      </trkpt>
      <trkpt lat="48.18048" lon="2.86239">
        <ele>102.74</ele>
        <time>2020-06-16T07:19:04Z</time>
      </trkpt>
      <trkpt lat="48.1805" lon="2.86231">
        <ele>102.51</ele>
        <time>2020-06-16T07:19:09Z</time>
      </trkpt>
      <trkpt lat="48.18053" lon="2.86224">
        <ele>102.46</ele>
        <time>2020-06-16T07:19:14Z</time>
      </trkpt>
      <trkpt lat="48.18056" lon="2.86216">
        <ele>102.59</ele>
        <time>2020-06-16T07:19:19Z</time>
      </trkpt>
      <trkpt lat="48.1806" lon="2.8621">
        <ele>102.62</ele>
        <time>2020-06-16T07:19:24Z</time>
      </trkpt>
      <trkpt lat="48.18064" lon="2.86203">
        <ele>102.67</ele>
        <time>2020-06-16T07:19:29Z</time>
      </trkpt>
      <trkpt lat="48.18067" lon="2.86193">
        <ele>102.52</ele>
        <time>2020-06-16T07:19:34Z</time>
      </trkpt>
      <trkpt lat="48.1807" lon="2.86186">
        <ele>102.64</ele>
        <time>2020-06-16T07:19:39Z</time>
      </trkpt>
      <trkpt lat="48.18073" lon="2.86177">
        <ele>102.71</ele>
        <time>2020-06-16T07:19:44Z</time>
      </trkpt>
      <trkpt lat="48.18076" lon="2.8617">
        <ele>102.67</ele>
        <time>2020-06-16T07:19:49Z</time>
      </trkpt>
      <trkpt lat="48.18078" lon="2.86164">
        <ele>102.65</ele>
        <time>2020-06-16T07:19:54Z</time>
      </trkpt>
      <trkpt lat="48.1808" lon="2.86153">
        <ele>102.58</ele>
        <time>2020-06-16T07:19:59Z</time>
      </trkpt>
      <trkpt lat="48.18083" lon="2.86144">
        <ele>102.77</ele>
        <time>2020-06-16T07:20:04Z</time>
      </trkpt>
      <trkpt lat="48.18085" lon="2.86133">
        <ele>102.95</ele>
        <time>2020-06-16T07:20:09Z</time>
      </trkpt>
      <trkpt lat="48.18087" lon="2.86124">
        <ele>103.14</ele>
        <time>2020-06-16T07:20:14Z</time>
      </trkpt>
      <trkpt lat="48.1809" lon="2.86115">
        <ele>103.2</ele>
        <time>2020-06-16T07:20:19Z</time>
      </trkpt>
      <trkpt lat="48.18094" lon="2.86105">
        <ele>103.27</ele>
        <time>2020-06-16T07:20:24Z</time>
      </trkpt>
      <trkpt lat="48.18095" lon="2.86095">
        <ele>103.27</ele>
        <time>2020-06-16T07:20:29Z</time>
      </trkpt>
      <trkpt lat="48.18096" lon="2.86087">
        <ele>103.3</ele>
        <time>2020-06-16T07:20:34Z</time>
      </trkpt>
      <trkpt lat="48.18096" lon="2.86079">
        <ele>103.64</ele>
        <time>2020-06-16T07:20:39Z</time>
      </trkpt>
      <trkpt lat="48.18098" lon="2.8607">
        <ele>103.81</ele>
        <time>2020-06-16T07:20:44Z</time>
      </trkpt>
      <trkpt lat="48.18101" lon="2.86063">
        <ele>103.8</ele>
        <time>2020-06-16T07:20:49Z</time>
      </trkpt>
      <trkpt lat="48.18104" lon="2.86058">
        <ele>103.69</ele>
        <time>2020-06-16T07:20:54Z</time>
      </trkpt>
      <trkpt lat="48.18108" lon="2.8605">
        <ele>103.62</ele>
        <time>2020-06-16T07:20:59Z</time>
      </trkpt>
      <trkpt lat="48.18111" lon="2.86041">
        <ele>103.55</ele>
        <time>2020-06-16T07:21:04Z</time>
      </trkpt>
      <trkpt lat="48.18114" lon="2.86034">
        <ele>103.49</ele>
        <time>2020-06-16T07:21:09Z</time>
      </trkpt>
      <trkpt lat="48.18117" lon="2.86026">
        <ele>103.53</ele>
        <time>2020-06-16T07:21:14Z</time>
      </trkpt>
      <trkpt lat="48.1812" lon="2.86017">
        <ele>103.6</ele>
        <time>2020-06-16T07:21:19Z</time>
      </trkpt>
      <trkpt lat="48.18122" lon="2.8601">
        <ele>103.7</ele>
        <time>2020-06-16T07:21:24Z</time>
      </trkpt>
      <trkpt lat="48.18124" lon="2.85998">
        <ele>103.98</ele>
        <time>2020-06-16T07:21:29Z</time>
      </trkpt>
      <trkpt lat="48.18126" lon="2.85989">
        <ele>104.11</ele>
        <time>2020-06-16T07:21:34Z</time>
      </trkpt>
      <trkpt lat="48.18128" lon="2.85981">
        <ele>104.19</ele>
        <time>2020-06-16T07:21:39Z</time>
      </trkpt>
      <trkpt lat="48.18131" lon="2.85973">
        <ele>104.27</ele>
        <time>2020-06-16T07:21:44Z</time>
      </trkpt>
      <trkpt lat="48.18134" lon="2.85965">
        <ele>104.46</ele>
        <time>2020-06-16T07:21:49Z</time>
      </trkpt>
      <trkpt lat="48.18137" lon="2.85958">
        <ele>104.46</ele>
        <time>2020-06-16T07:21:54Z</time>
      </trkpt>
      <trkpt lat="48.18139" lon="2.85948">
        <ele>104.43</ele>
        <time>2020-06-16T07:21:59Z</time>
      </trkpt>
      <trkpt lat="48.18142" lon="2.85941">
        <ele>104.55</ele>
        <time>2020-06-16T07:22:04Z</time>
      </trkpt>
      <trkpt lat="48.18144" lon="2.85931">
        <ele>104.61</ele>
        <time>2020-06-16T07:22:09Z</time>
      </trkpt>
      <trkpt lat="48.18146" lon="2.85922">
        <ele>104.77</ele>
        <time>2020-06-16T07:22:14Z</time>
      </trkpt>
      <trkpt lat="48.18149" lon="2.85913">
        <ele>104.87</ele>
        <time>2020-06-16T07:22:19Z</time>
      </trkpt>
      <trkpt lat="48.18152" lon="2.85907">
        <ele>105.12</ele>
        <time>2020-06-16T07:22:24Z</time>
      </trkpt>
      <trkpt lat="48.18154" lon="2.859">
        <ele>105.23</ele>
        <time>2020-06-16T07:22:29Z</time>
      </trkpt>
      <trkpt lat="48.18156" lon="2.85893">
        <ele>105.39</ele>
        <time>2020-06-16T07:22:34Z</time>
      </trkpt>
      <trkpt lat="48.18157" lon="2.85885">
        <ele>105.39</ele>
        <time>2020-06-16T07:22:39Z</time>
      </trkpt>
      <trkpt lat="48.18159" lon="2.85878">
        <ele>105.39</ele>
        <time>2020-06-16T07:22:44Z</time>
      </trkpt>
      <trkpt lat="48.18161" lon="2.85871">
        <ele>105.36</ele>
        <time>2020-06-16T07:22:49Z</time>
      </trkpt>
      <trkpt lat="48.18165" lon="2.85865">
        <ele>105.4</ele>
        <time>2020-06-16T07:22:54Z</time>
      </trkpt>
      <trkpt lat="48.18167" lon="2.85855">
        <ele>105.66</ele>
        <time>2020-06-16T07:22:59Z</time>
      </trkpt>
      <trkpt lat="48.18169" lon="2.85846">
        <ele>105.68</ele>
        <time>2020-06-16T07:23:04Z</time>
      </trkpt>
      <trkpt lat="48.18172" lon="2.85839">
        <ele>105.75</ele>
        <time>2020-06-16T07:23:09Z</time>
      </trkpt>
      <trkpt lat="48.18174" lon="2.8583">
        <ele>105.77</ele>
        <time>2020-06-16T07:23:14Z</time>
      </trkpt>
      <trkpt lat="48.18176" lon="2.85823">
        <ele>105.81</ele>
        <time>2020-06-16T07:23:19Z</time>
      </trkpt>
      <trkpt lat="48.18178" lon="2.85817">
        <ele>105.88</ele>
        <time>2020-06-16T07:23:24Z</time>
      </trkpt>
      <trkpt lat="48.1818" lon="2.85809">
        <ele>106.05</ele>
        <time>2020-06-16T07:23:29Z</time>
      </trkpt>
      <trkpt lat="48.18183" lon="2.85802">
        <ele>106.21</ele>
        <time>2020-06-16T07:23:34Z</time>
      </trkpt>
      <trkpt lat="48.18186" lon="2.85795">
        <ele>106.25</ele>
        <time>2020-06-16T07:23:39Z</time>
      </trkpt>
      <trkpt lat="48.18188" lon="2.85788">
        <ele>106.45</ele>
        <time>2020-06-16T07:23:44Z</time>
      </trkpt>
      <trkpt lat="48.1819" lon="2.85783">
        <ele>106.49</ele>
        <time>2020-06-16T07:23:49Z</time>
      </trkpt>
      <trkpt lat="48.18192" lon="2.85778">
        <ele>106.45</ele>
        <time>2020-06-16T07:23:54Z</time>
      </trkpt>
      <trkpt lat="48.18194" lon="2.85772">
        <ele>106.55</ele>
        <time>2020-06-16T07:23:59Z</time>
      </trkpt>
      <trkpt lat="48.18196" lon="2.85766">
        <ele>106.73</ele>
        <time>2020-06-16T07:24:04Z</time>
      </trkpt>
      <trkpt lat="48.18198" lon="2.85759">
        <ele>106.76</ele>
        <time>2020-06-16T07:24:09Z</time>
      </trkpt>
      <trkpt lat="48.182" lon="2.85752">
        <ele>106.57</ele>
        <time>2020-06-16T07:24:14Z</time>
      </trkpt>
      <trkpt lat="48.18203" lon="2.85746">
        <ele>106.4</ele>
        <time>2020-06-16T07:24:19Z</time>
      </trkpt>
      <trkpt lat="48.18205" lon="2.85739">
        <ele>106.4</ele>
        <time>2020-06-16T07:24:24Z</time>
      </trkpt>
      <trkpt lat="48.18207" lon="2.85734">
        <ele>106.5</ele>
        <time>2020-06-16T07:24:29Z</time>
      </trkpt>
      <trkpt lat="48.18209" lon="2.85726">
        <ele>106.68</ele>
        <time>2020-06-16T07:24:34Z</time>
      </trkpt>
      <trkpt lat="48.18212" lon="2.85717">
        <ele>106.76</ele>
        <time>2020-06-16T07:24:39Z</time>
      </trkpt>
      <trkpt lat="48.18214" lon="2.85709">
        <ele>106.78</ele>
        <time>2020-06-16T07:24:44Z</time>
      </trkpt>
      <trkpt lat="48.18216" lon="2.85702">
        <ele>106.85</ele>
        <time>2020-06-16T07:24:49Z</time>
      </trkpt>
      <trkpt lat="48.18218" lon="2.85696">
        <ele>106.85</ele>
        <time>2020-06-16T07:24:54Z</time>
      </trkpt>
      <trkpt lat="48.1822" lon="2.85688">
        <ele>106.86</ele>
        <time>2020-06-16T07:24:59Z</time>
      </trkpt>
      <trkpt lat="48.18222" lon="2.85679">
        <ele>106.91</ele>
        <time>2020-06-16T07:25:04Z</time>
      </trkpt>
      <trkpt lat="48.18225" lon="2.85673">
        <ele>106.96</ele>
        <time>2020-06-16T07:25:09Z</time>
      </trkpt>
      <trkpt lat="48.18227" lon="2.85664">
        <ele>106.97</ele>
        <time>2020-06-16T07:25:14Z</time>
      </trkpt>
      <trkpt lat="48.1823" lon="2.85657">
        <ele>106.97</ele>
        <time>2020-06-16T07:25:19Z</time>
      </trkpt>
      <trkpt lat="48.18232" lon="2.8565">
        <ele>106.93</ele>
        <time>2020-06-16T07:25:24Z</time>
      </trkpt>
      <trkpt lat="48.18235" lon="2.85644">
        <ele>106.93</ele>
        <time>2020-06-16T07:25:29Z</time>
      </trkpt>
      <trkpt lat="48.18237" lon="2.85637">
        <ele>107.06</ele>
        <time>2020-06-16T07:25:34Z</time>
      </trkpt>
      <trkpt lat="48.18239" lon="2.8563">
        <ele>107.22</ele>
        <time>2020-06-16T07:25:39Z</time>
      </trkpt>
      <trkpt lat="48.18241" lon="2.85623">
        <ele>107.33</ele>
        <time>2020-06-16T07:25:44Z</time>
      </trkpt>
      <trkpt lat="48.18244" lon="2.85614">
        <ele>107.24</ele>
        <time>2020-06-16T07:25:49Z</time>
      </trkpt>
      <trkpt lat="48.18245" lon="2.85608">
        <ele>107.26</ele>
        <time>2020-06-16T07:25:54Z</time>
      </trkpt>
      <trkpt lat="48.18248" lon="2.85601">
        <ele>107.25</ele>
        <time>2020-06-16T07:25:59Z</time>
      </trkpt>
      <trkpt lat="48.1825" lon="2.85593">
        <ele>107.2</ele>
        <time>2020-06-16T07:26:04Z</time>
      </trkpt>
      <trkpt lat="48.18252" lon="2.85588">
        <ele>107.2</ele>
        <time>2020-06-16T07:26:09Z</time>
      </trkpt>
      <trkpt lat="48.18254" lon="2.85582">
        <ele>107.29</ele>
        <time>2020-06-16T07:26:14Z</time>
      </trkpt>
      <trkpt lat="48.18257" lon="2.85574">
        <ele>107.34</ele>
        <time>2020-06-16T07:26:19Z</time>
      </trkpt>
      <trkpt lat="48.18258" lon="2.85569">
        <ele>107.24</ele>
        <time>2020-06-16T07:26:24Z</time>
      </trkpt>
      <trkpt lat="48.18259" lon="2.85567">
        <ele>107.13</ele>
        <time>2020-06-16T07:26:29Z</time>
      </trkpt>
      <trkpt lat="48.18262" lon="2.8556">
        <ele>107.13</ele>
        <time>2020-06-16T07:26:34Z</time>
      </trkpt>
      <trkpt lat="48.18264" lon="2.85551">
        <ele>106.99</ele>
        <time>2020-06-16T07:26:39Z</time>
      </trkpt>
      <trkpt lat="48.18266" lon="2.85543">
        <ele>106.96</ele>
        <time>2020-06-16T07:26:44Z</time>
      </trkpt>
      <trkpt lat="48.18268" lon="2.85535">
        <ele>106.89</ele>
        <time>2020-06-16T07:26:49Z</time>
      </trkpt>
      <trkpt lat="48.1827" lon="2.85527">
        <ele>106.89</ele>
        <time>2020-06-16T07:26:54Z</time>
      </trkpt>
      <trkpt lat="48.18273" lon="2.8552">
        <ele>107.03</ele>
        <time>2020-06-16T07:26:59Z</time>
      </trkpt>
      <trkpt lat="48.18277" lon="2.85513">
        <ele>107.09</ele>
        <time>2020-06-16T07:27:04Z</time>
      </trkpt>
      <trkpt lat="48.18279" lon="2.85514">
        <ele>107.43</ele>
        <time>2020-06-16T07:27:09Z</time>
      </trkpt>
      <trkpt lat="48.18279" lon="2.85517">
        <ele>107.76</ele>
        <time>2020-06-16T07:27:14Z</time>
      </trkpt>
      <trkpt lat="48.18278" lon="2.85524">
        <ele>107.87</ele>
        <time>2020-06-16T07:27:19Z</time>
      </trkpt>
      <trkpt lat="48.18278" lon="2.85531">
        <ele>107.76</ele>
        <time>2020-06-16T07:27:24Z</time>
      </trkpt>
      <trkpt lat="48.18278" lon="2.8554">
        <ele>107.63</ele>
        <time>2020-06-16T07:27:29Z</time>
      </trkpt>
      <trkpt lat="48.18277" lon="2.85549">
        <ele>107.62</ele>
        <time>2020-06-16T07:27:34Z</time>
      </trkpt>
      <trkpt lat="48.18276" lon="2.85558">
        <ele>107.6</ele>
        <time>2020-06-16T07:27:39Z</time>
      </trkpt>
      <trkpt lat="48.18277" lon="2.85567">
        <ele>107.56</ele>
        <time>2020-06-16T07:27:44Z</time>
      </trkpt>
      <trkpt lat="48.18279" lon="2.85575">
        <ele>107.54</ele>
        <time>2020-06-16T07:27:49Z</time>
      </trkpt>
      <trkpt lat="48.18283" lon="2.85584">
        <ele>107.5</ele>
        <time>2020-06-16T07:27:54Z</time>
      </trkpt>
      <trkpt lat="48.18288" lon="2.85591">
        <ele>107.44</ele>
        <time>2020-06-16T07:27:59Z</time>
      </trkpt>
      <trkpt lat="48.18293" lon="2.85597">
        <ele>107.34</ele>
        <time>2020-06-16T07:28:04Z</time>
      </trkpt>
      <trkpt lat="48.18299" lon="2.85601">
        <ele>107.33</ele>
        <time>2020-06-16T07:28:09Z</time>
      </trkpt>
      <trkpt lat="48.18306" lon="2.85604">
        <ele>107.33</ele>
        <time>2020-06-16T07:28:14Z</time>
      </trkpt>
      <trkpt lat="48.18312" lon="2.85606">
        <ele>107.27</ele>
        <time>2020-06-16T07:28:19Z</time>
      </trkpt>
      <trkpt lat="48.18317" lon="2.85608">
        <ele>107.36</ele>
        <time>2020-06-16T07:28:24Z</time>
      </trkpt>
      <trkpt lat="48.18323" lon="2.8561">
        <ele>107.4</ele>
        <time>2020-06-16T07:28:29Z</time>
      </trkpt>
      <trkpt lat="48.18329" lon="2.85614">
        <ele>107.36</ele>
        <time>2020-06-16T07:28:34Z</time>
      </trkpt>
      <trkpt lat="48.18335" lon="2.85619">
        <ele>107.35</ele>
        <time>2020-06-16T07:28:39Z</time>
      </trkpt>
      <trkpt lat="48.18339" lon="2.85623">
        <ele>107.39</ele>
        <time>2020-06-16T07:28:44Z</time>
      </trkpt>
      <trkpt lat="48.18344" lon="2.85627">
        <ele>107.59</ele>
        <time>2020-06-16T07:28:49Z</time>
      </trkpt>
      <trkpt lat="48.18349" lon="2.85632">
        <ele>107.77</ele>
        <time>2020-06-16T07:28:54Z</time>
      </trkpt>
      <trkpt lat="48.18354" lon="2.85636">
        <ele>107.83</ele>
        <time>2020-06-16T07:28:59Z</time>
      </trkpt>
      <trkpt lat="48.18358" lon="2.85641">
        <ele>107.89</ele>
        <time>2020-06-16T07:29:04Z</time>
      </trkpt>
      <trkpt lat="48.18361" lon="2.85644">
        <ele>107.69</ele>
        <time>2020-06-16T07:29:09Z</time>
      </trkpt>
      <trkpt lat="48.18366" lon="2.85646">
        <ele>107.64</ele>
        <time>2020-06-16T07:29:14Z</time>
      </trkpt>
      <trkpt lat="48.18368" lon="2.85647">
        <ele>107.75</ele>
        <time>2020-06-16T07:29:19Z</time>
      </trkpt>
      <trkpt lat="48.18371" lon="2.8565">
        <ele>107.78</ele>
        <time>2020-06-16T07:29:24Z</time>
      </trkpt>
      <trkpt lat="48.18376" lon="2.85653">
        <ele>107.79</ele>
        <time>2020-06-16T07:29:29Z</time>
      </trkpt>
      <trkpt lat="48.1838" lon="2.85657">
        <ele>107.8</ele>
        <time>2020-06-16T07:29:34Z</time>
      </trkpt>
      <trkpt lat="48.18388" lon="2.85659">
        <ele>108.02</ele>
        <time>2020-06-16T07:29:39Z</time>
      </trkpt>
      <trkpt lat="48.18393" lon="2.85661">
        <ele>108.13</ele>
        <time>2020-06-16T07:29:44Z</time>
      </trkpt>
      <trkpt lat="48.18393" lon="2.85661">
        <ele>107.97</ele>
        <time>2020-06-16T07:29:49Z</time>
      </trkpt>
      <trkpt lat="48.18393" lon="2.8566">
        <ele>107.97</ele>
        <time>2020-06-16T07:29:54Z</time>
      </trkpt>
      <trkpt lat="48.18393" lon="2.85661">
        <ele>108.02</ele>
        <time>2020-06-16T07:29:59Z</time>
      </trkpt>
      <trkpt lat="48.18393" lon="2.85661">
        <ele>108.01</ele>
        <time>2020-06-16T07:30:04Z</time>
      </trkpt>
      <trkpt lat="48.18393" lon="2.85661">
        <ele>107.94</ele>
        <time>2020-06-16T07:30:09Z</time>
      </trkpt>
      <trkpt lat="48.18393" lon="2.85661">
        <ele>107.94</ele>
        <time>2020-06-16T07:30:14Z</time>
      </trkpt>
      <trkpt lat="48.18393" lon="2.85661">
        <ele>107.94</ele>
        <time>2020-06-16T07:30:19Z</time>
      </trkpt>
      <trkpt lat="48.18393" lon="2.85661">
        <ele>107.97</ele>
        <time>2020-06-16T07:30:24Z</time>
      </trkpt>
      <trkpt lat="48.18393" lon="2.85661">
        <ele>107.97</ele>
        <time>2020-06-16T07:30:29Z</time>
      </trkpt>
      <trkpt lat="48.18393" lon="2.85662">
        <ele>107.97</ele>
        <time>2020-06-16T07:30:34Z</time>
      </trkpt>
      <trkpt lat="48.18396" lon="2.85667">
        <ele>107.97</ele>
        <time>2020-06-16T07:30:39Z</time>
      </trkpt>
      <trkpt lat="48.18401" lon="2.85677">
        <ele>107.95</ele>
        <time>2020-06-16T07:30:44Z</time>
      </trkpt>
      <trkpt lat="48.18408" lon="2.85685">
        <ele>107.88</ele>
        <time>2020-06-16T07:30:49Z</time>
      </trkpt>
      <trkpt lat="48.18414" lon="2.85693">
        <ele>107.9</ele>
        <time>2020-06-16T07:30:54Z</time>
      </trkpt>
      <trkpt lat="48.18417" lon="2.85701">
        <ele>108.09</ele>
        <time>2020-06-16T07:30:59Z</time>
      </trkpt>
      <trkpt lat="48.18421" lon="2.85709">
        <ele>108.2</ele>
        <time>2020-06-16T07:31:04Z</time>
      </trkpt>
      <trkpt lat="48.18425" lon="2.85717">
        <ele>108.13</ele>
        <time>2020-06-16T07:31:09Z</time>
      </trkpt>
      <trkpt lat="48.18429" lon="2.85725">
        <ele>108.08</ele>
        <time>2020-06-16T07:31:14Z</time>
      </trkpt>
      <trkpt lat="48.18433" lon="2.85734">
        <ele>107.89</ele>
        <time>2020-06-16T07:31:19Z</time>
      </trkpt>
      <trkpt lat="48.18436" lon="2.85742">
        <ele>108.32</ele>
        <time>2020-06-16T07:31:24Z</time>
      </trkpt>
      <trkpt lat="48.1844" lon="2.85753">
        <ele>108.42</ele>
        <time>2020-06-16T07:31:29Z</time>
      </trkpt>
      <trkpt lat="48.18443" lon="2.85762">
        <ele>108.1</ele>
        <time>2020-06-16T07:31:34Z</time>
      </trkpt>
      <trkpt lat="48.18447" lon="2.85772">
        <ele>108.03</ele>
        <time>2020-06-16T07:31:39Z</time>
      </trkpt>
      <trkpt lat="48.18449" lon="2.85781">
        <ele>108.04</ele>
        <time>2020-06-16T07:31:44Z</time>
      </trkpt>
      <trkpt lat="48.18451" lon="2.85791">
        <ele>107.99</ele>
        <time>2020-06-16T07:31:49Z</time>
      </trkpt>
      <trkpt lat="48.18451" lon="2.858">
        <ele>107.9</ele>
        <time>2020-06-16T07:31:54Z</time>
      </trkpt>
      <trkpt lat="48.18452" lon="2.8581">
        <ele>107.83</ele>
        <time>2020-06-16T07:31:59Z</time>
      </trkpt>
      <trkpt lat="48.18452" lon="2.8582">
        <ele>107.84</ele>
        <time>2020-06-16T07:32:04Z</time>
      </trkpt>
      <trkpt lat="48.18452" lon="2.85829">
        <ele>107.9</ele>
        <time>2020-06-16T07:32:09Z</time>
      </trkpt>
      <trkpt lat="48.18451" lon="2.8584">
        <ele>107.82</ele>
        <time>2020-06-16T07:32:14Z</time>
      </trkpt>
      <trkpt lat="48.18451" lon="2.85851">
        <ele>107.89</ele>
        <time>2020-06-16T07:32:19Z</time>
      </trkpt>
      <trkpt lat="48.18451" lon="2.85855">
        <ele>107.91</ele>
        <time>2020-06-16T07:32:24Z</time>
      </trkpt>
      <trkpt lat="48.1845" lon="2.85859">
        <ele>107.89</ele>
        <time>2020-06-16T07:32:29Z</time>
      </trkpt>
      <trkpt lat="48.18449" lon="2.85867">
        <ele>107.93</ele>
        <time>2020-06-16T07:32:34Z</time>
      </trkpt>
      <trkpt lat="48.18448" lon="2.85875">
        <ele>108.04</ele>
        <time>2020-06-16T07:32:39Z</time>
      </trkpt>
      <trkpt lat="48.18447" lon="2.85884">
        <ele>108.37</ele>
        <time>2020-06-16T07:32:44Z</time>
      </trkpt>
      <trkpt lat="48.18445" lon="2.85892">
        <ele>108.47</ele>
        <time>2020-06-16T07:32:49Z</time>
      </trkpt>
      <trkpt lat="48.18444" lon="2.85899">
        <ele>108.17</ele>
        <time>2020-06-16T07:32:54Z</time>
      </trkpt>
      <trkpt lat="48.18442" lon="2.85906">
        <ele>108.13</ele>
        <time>2020-06-16T07:32:59Z</time>
      </trkpt>
      <trkpt lat="48.18442" lon="2.8591">
        <ele>108.2</ele>
        <time>2020-06-16T07:33:04Z</time>
      </trkpt>
      <trkpt lat="48.18441" lon="2.8591">
        <ele>108.2</ele>
        <time>2020-06-16T07:33:24Z</time>
      </trkpt>
      <trkpt lat="48.18441" lon="2.8591">
        <ele>108.2</ele>
        <time>2020-06-16T07:33:29Z</time>
      </trkpt>
      <trkpt lat="48.18441" lon="2.85909">
        <ele>108.2</ele>
        <time>2020-06-16T07:33:34Z</time>
      </trkpt>
      <trkpt lat="48.1844" lon="2.85908">
        <ele>108.2</ele>
        <time>2020-06-16T07:33:39Z</time>
      </trkpt>
      <trkpt lat="48.18438" lon="2.85907">
        <ele>108.2</ele>
        <time>2020-06-16T07:33:44Z</time>
      </trkpt>
      <trkpt lat="48.18437" lon="2.85908">
        <ele>108.2</ele>
        <time>2020-06-16T07:33:49Z</time>
      </trkpt>
      <trkpt lat="48.18437" lon="2.85907">
        <ele>108.2</ele>
        <time>2020-06-16T07:33:54Z</time>
      </trkpt>
      <trkpt lat="48.18437" lon="2.85907">
        <ele>108.2</ele>
        <time>2020-06-16T07:33:59Z</time>
      </trkpt>
      <trkpt lat="48.18437" lon="2.85907">
        <ele>108.2</ele>
        <time>2020-06-16T07:34:04Z</time>
      </trkpt>
      <trkpt lat="48.18438" lon="2.85909">
        <ele>108.2</ele>
        <time>2020-06-16T07:34:09Z</time>
      </trkpt>
      <trkpt lat="48.18436" lon="2.85916">
        <ele>108.2</ele>
        <time>2020-06-16T07:34:14Z</time>
      </trkpt>
      <trkpt lat="48.18435" lon="2.85925">
        <ele>108.06</ele>
        <time>2020-06-16T07:34:19Z</time>
      </trkpt>
      <trkpt lat="48.18434" lon="2.85934">
        <ele>107.9</ele>
        <time>2020-06-16T07:34:24Z</time>
      </trkpt>
      <trkpt lat="48.18432" lon="2.85942">
        <ele>108.04</ele>
        <time>2020-06-16T07:34:29Z</time>
      </trkpt>
      <trkpt lat="48.18429" lon="2.85951">
        <ele>107.8</ele>
        <time>2020-06-16T07:34:34Z</time>
      </trkpt>
      <trkpt lat="48.18427" lon="2.85961">
        <ele>107.74</ele>
        <time>2020-06-16T07:34:39Z</time>
      </trkpt>
      <trkpt lat="48.18426" lon="2.8597">
        <ele>107.84</ele>
        <time>2020-06-16T07:34:44Z</time>
      </trkpt>
      <trkpt lat="48.18426" lon="2.85978">
        <ele>107.94</ele>
        <time>2020-06-16T07:34:49Z</time>
      </trkpt>
      <trkpt lat="48.18424" lon="2.85987">
        <ele>107.79</ele>
        <time>2020-06-16T07:34:54Z</time>
      </trkpt>
      <trkpt lat="48.18422" lon="2.85995">
        <ele>107.8</ele>
        <time>2020-06-16T07:34:59Z</time>
      </trkpt>
      <trkpt lat="48.18421" lon="2.86003">
        <ele>107.76</ele>
        <time>2020-06-16T07:35:04Z</time>
      </trkpt>
      <trkpt lat="48.18411" lon="2.86013">
        <ele>107.45</ele>
        <time>2020-06-16T07:35:39Z</time>
      </trkpt>
      <trkpt lat="48.18408" lon="2.8601">
        <ele>107.39</ele>
        <time>2020-06-16T07:35:44Z</time>
      </trkpt>
      <trkpt lat="48.18408" lon="2.8601">
        <ele>107.5</ele>
        <time>2020-06-16T07:35:49Z</time>
      </trkpt>
      <trkpt lat="48.18408" lon="2.86011">
        <ele>107.57</ele>
        <time>2020-06-16T07:35:54Z</time>
      </trkpt>
      <trkpt lat="48.18407" lon="2.86011">
        <ele>107.63</ele>
        <time>2020-06-16T07:35:59Z</time>
      </trkpt>
      <trkpt lat="48.18407" lon="2.86011">
        <ele>107.76</ele>
        <time>2020-06-16T07:36:04Z</time>
      </trkpt>
      <trkpt lat="48.18407" lon="2.8601">
        <ele>107.78</ele>
        <time>2020-06-16T07:36:09Z</time>
      </trkpt>
      <trkpt lat="48.18407" lon="2.8601">
        <ele>107.76</ele>
        <time>2020-06-16T07:36:14Z</time>
      </trkpt>
      <trkpt lat="48.18407" lon="2.8601">
        <ele>107.76</ele>
        <time>2020-06-16T07:36:19Z</time>
      </trkpt>
      <trkpt lat="48.18407" lon="2.86009">
        <ele>107.71</ele>
        <time>2020-06-16T07:36:24Z</time>
      </trkpt>
      <trkpt lat="48.18407" lon="2.86009">
        <ele>107.7</ele>
        <time>2020-06-16T07:36:29Z</time>
      </trkpt>
      <trkpt lat="48.18407" lon="2.86009">
        <ele>107.7</ele>
        <time>2020-06-16T07:36:34Z</time>
      </trkpt>
      <trkpt lat="48.18407" lon="2.8601">
        <ele>107.7</ele>
        <time>2020-06-16T07:36:39Z</time>
      </trkpt>
      <trkpt lat="48.18407" lon="2.8601">
        <ele>107.7</ele>
        <time>2020-06-16T07:36:44Z</time>
      </trkpt>
      <trkpt lat="48.18407" lon="2.8601">
        <ele>107.7</ele>
        <time>2020-06-16T07:36:49Z</time>
      </trkpt>
      <trkpt lat="48.18407" lon="2.8601">
        <ele>107.7</ele>
        <time>2020-06-16T07:36:54Z</time>
      </trkpt>
      <trkpt lat="48.18407" lon="2.86011">
        <ele>107.7</ele>
        <time>2020-06-16T07:36:59Z</time>
      </trkpt>
      <trkpt lat="48.18407" lon="2.86011">
        <ele>107.7</ele>
        <time>2020-06-16T07:37:04Z</time>
      </trkpt>
      <trkpt lat="48.18407" lon="2.86011">
        <ele>107.7</ele>
        <time>2020-06-16T07:37:09Z</time>
      </trkpt>
      <trkpt lat="48.18407" lon="2.86011">
        <ele>107.7</ele>
        <time>2020-06-16T07:37:14Z</time>
      </trkpt>
      <trkpt lat="48.18406" lon="2.86011">
        <ele>107.7</ele>
        <time>2020-06-16T07:37:19Z</time>
      </trkpt>
      <trkpt lat="48.18406" lon="2.86011">
        <ele>107.7</ele>
        <time>2020-06-16T07:37:24Z</time>
      </trkpt>
      <trkpt lat="48.18406" lon="2.86011">
        <ele>107.7</ele>
        <time>2020-06-16T07:37:29Z</time>
      </trkpt>
      <trkpt lat="48.18406" lon="2.86012">
        <ele>107.7</ele>
        <time>2020-06-16T07:37:34Z</time>
      </trkpt>
      <trkpt lat="48.18405" lon="2.86011">
        <ele>107.7</ele>
        <time>2020-06-16T07:37:39Z</time>
      </trkpt>
      <trkpt lat="48.18406" lon="2.86011">
        <ele>107.7</ele>
        <time>2020-06-16T07:37:44Z</time>
      </trkpt>
      <trkpt lat="48.18405" lon="2.86012">
        <ele>107.7</ele>
        <time>2020-06-16T07:37:49Z</time>
      </trkpt>
      <trkpt lat="48.18405" lon="2.86015">
        <ele>107.7</ele>
        <time>2020-06-16T07:37:54Z</time>
      </trkpt>
      <trkpt lat="48.18404" lon="2.86019">
        <ele>107.7</ele>
        <time>2020-06-16T07:37:59Z</time>
      </trkpt>
      <trkpt lat="48.18401" lon="2.86021">
        <ele>107.7</ele>
        <time>2020-06-16T07:38:04Z</time>
      </trkpt>
      <trkpt lat="48.18398" lon="2.86022">
        <ele>107.36</ele>
        <time>2020-06-16T07:38:09Z</time>
      </trkpt>
      <trkpt lat="48.18394" lon="2.86022">
        <ele>107.14</ele>
        <time>2020-06-16T07:38:14Z</time>
      </trkpt>
      <trkpt lat="48.18392" lon="2.86023">
        <ele>106.99</ele>
        <time>2020-06-16T07:38:19Z</time>
      </trkpt>
      <trkpt lat="48.18392" lon="2.86022">
        <ele>107</ele>
        <time>2020-06-16T07:38:24Z</time>
      </trkpt>
      <trkpt lat="48.18388" lon="2.86023">
        <ele>106.98</ele>
        <time>2020-06-16T07:38:29Z</time>
      </trkpt>
      <trkpt lat="48.18381" lon="2.86023">
        <ele>106.93</ele>
        <time>2020-06-16T07:38:34Z</time>
      </trkpt>
      <trkpt lat="48.18376" lon="2.86022">
        <ele>106.75</ele>
        <time>2020-06-16T07:38:39Z</time>
      </trkpt>
      <trkpt lat="48.1837" lon="2.86023">
        <ele>106.5</ele>
        <time>2020-06-16T07:38:44Z</time>
      </trkpt>
      <trkpt lat="48.18365" lon="2.86023">
        <ele>106.36</ele>
        <time>2020-06-16T07:38:49Z</time>
      </trkpt>
      <trkpt lat="48.18362" lon="2.86024">
        <ele>106.2</ele>
        <time>2020-06-16T07:38:54Z</time>
      </trkpt>
      <trkpt lat="48.18358" lon="2.86025">
        <ele>106.21</ele>
        <time>2020-06-16T07:38:59Z</time>
      </trkpt>
      <trkpt lat="48.18351" lon="2.86027">
        <ele>106.27</ele>
        <time>2020-06-16T07:39:04Z</time>
      </trkpt>
      <trkpt lat="48.18346" lon="2.86027">
        <ele>106.14</ele>
        <time>2020-06-16T07:39:09Z</time>
      </trkpt>
      <trkpt lat="48.1834" lon="2.86028">
        <ele>106.13</ele>
        <time>2020-06-16T07:39:14Z</time>
      </trkpt>
      <trkpt lat="48.18336" lon="2.86029">
        <ele>106.14</ele>
        <time>2020-06-16T07:39:19Z</time>
      </trkpt>
      <trkpt lat="48.18331" lon="2.86028">
        <ele>106.04</ele>
        <time>2020-06-16T07:39:24Z</time>
      </trkpt>
      <trkpt lat="48.18325" lon="2.8603">
        <ele>105.88</ele>
        <time>2020-06-16T07:39:29Z</time>
      </trkpt>
      <trkpt lat="48.18321" lon="2.86033">
        <ele>105.76</ele>
        <time>2020-06-16T07:39:34Z</time>
      </trkpt>
      <trkpt lat="48.18314" lon="2.86036">
        <ele>105.72</ele>
        <time>2020-06-16T07:39:39Z</time>
      </trkpt>
      <trkpt lat="48.18308" lon="2.86038">
        <ele>105.85</ele>
        <time>2020-06-16T07:39:44Z</time>
      </trkpt>
      <trkpt lat="48.18303" lon="2.86039">
        <ele>105.79</ele>
        <time>2020-06-16T07:39:49Z</time>
      </trkpt>
      <trkpt lat="48.18298" lon="2.86041">
        <ele>105.76</ele>
        <time>2020-06-16T07:39:54Z</time>
      </trkpt>
      <trkpt lat="48.18292" lon="2.86045">
        <ele>105.18</ele>
        <time>2020-06-16T07:39:59Z</time>
      </trkpt>
      <trkpt lat="48.18289" lon="2.86048">
        <ele>104.77</ele>
        <time>2020-06-16T07:40:04Z</time>
      </trkpt>
      <trkpt lat="48.18285" lon="2.86053">
        <ele>104.64</ele>
        <time>2020-06-16T07:40:09Z</time>
      </trkpt>
      <trkpt lat="48.18282" lon="2.86059">
        <ele>104.72</ele>
        <time>2020-06-16T07:40:14Z</time>
      </trkpt>
      <trkpt lat="48.1828" lon="2.86064">
        <ele>104.65</ele>
        <time>2020-06-16T07:40:19Z</time>
      </trkpt>
      <trkpt lat="48.18279" lon="2.86072">
        <ele>104.86</ele>
        <time>2020-06-16T07:40:24Z</time>
      </trkpt>
      <trkpt lat="48.1828" lon="2.86081">
        <ele>104.8</ele>
        <time>2020-06-16T07:40:29Z</time>
      </trkpt>
      <trkpt lat="48.1828" lon="2.86089">
        <ele>104.65</ele>
        <time>2020-06-16T07:40:34Z</time>
      </trkpt>
      <trkpt lat="48.1828" lon="2.86097">
        <ele>104.76</ele>
        <time>2020-06-16T07:40:39Z</time>
      </trkpt>
      <trkpt lat="48.18281" lon="2.86106">
        <ele>104.88</ele>
        <time>2020-06-16T07:40:44Z</time>
      </trkpt>
      <trkpt lat="48.18281" lon="2.86116">
        <ele>104.88</ele>
        <time>2020-06-16T07:40:49Z</time>
      </trkpt>
      <trkpt lat="48.18281" lon="2.86125">
        <ele>104.89</ele>
        <time>2020-06-16T07:40:54Z</time>
      </trkpt>
      <trkpt lat="48.18281" lon="2.86134">
        <ele>104.87</ele>
        <time>2020-06-16T07:40:59Z</time>
      </trkpt>
      <trkpt lat="48.18281" lon="2.86144">
        <ele>104.99</ele>
        <time>2020-06-16T07:41:04Z</time>
      </trkpt>
      <trkpt lat="48.18282" lon="2.86153">
        <ele>104.94</ele>
        <time>2020-06-16T07:41:09Z</time>
      </trkpt>
      <trkpt lat="48.18284" lon="2.86161">
        <ele>104.75</ele>
        <time>2020-06-16T07:41:14Z</time>
      </trkpt>
      <trkpt lat="48.18286" lon="2.86169">
        <ele>104.71</ele>
        <time>2020-06-16T07:41:19Z</time>
      </trkpt>
      <trkpt lat="48.18288" lon="2.86176">
        <ele>104.96</ele>
        <time>2020-06-16T07:41:24Z</time>
      </trkpt>
      <trkpt lat="48.1829" lon="2.86183">
        <ele>104.96</ele>
        <time>2020-06-16T07:41:29Z</time>
      </trkpt>
      <trkpt lat="48.18292" lon="2.86193">
        <ele>104.92</ele>
        <time>2020-06-16T07:41:34Z</time>
      </trkpt>
      <trkpt lat="48.18293" lon="2.86201">
        <ele>104.72</ele>
        <time>2020-06-16T07:41:39Z</time>
      </trkpt>
      <trkpt lat="48.18294" lon="2.86209">
        <ele>104.64</ele>
        <time>2020-06-16T07:41:44Z</time>
      </trkpt>
      <trkpt lat="48.18296" lon="2.86218">
        <ele>104.75</ele>
        <time>2020-06-16T07:41:49Z</time>
      </trkpt>
      <trkpt lat="48.18298" lon="2.86226">
        <ele>104.92</ele>
        <time>2020-06-16T07:41:54Z</time>
      </trkpt>
      <trkpt lat="48.18299" lon="2.86235">
        <ele>105.03</ele>
        <time>2020-06-16T07:41:59Z</time>
      </trkpt>
      <trkpt lat="48.18302" lon="2.86243">
        <ele>105.12</ele>
        <time>2020-06-16T07:42:04Z</time>
      </trkpt>
      <trkpt lat="48.18301" lon="2.86242">
        <ele>105.14</ele>
        <time>2020-06-16T07:42:09Z</time>
      </trkpt>
      <trkpt lat="48.18301" lon="2.86236">
        <ele>105.05</ele>
        <time>2020-06-16T07:42:14Z</time>
      </trkpt>
      <trkpt lat="48.18303" lon="2.86245">
        <ele>105.02</ele>
        <time>2020-06-16T07:42:19Z</time>
      </trkpt>
      <trkpt lat="48.18303" lon="2.86257">
        <ele>104.97</ele>
        <time>2020-06-16T07:42:24Z</time>
      </trkpt>
      <trkpt lat="48.18303" lon="2.86268">
        <ele>104.81</ele>
        <time>2020-06-16T07:42:29Z</time>
      </trkpt>
      <trkpt lat="48.18304" lon="2.86278">
        <ele>104.65</ele>
        <time>2020-06-16T07:42:34Z</time>
      </trkpt>
      <trkpt lat="48.18306" lon="2.86288">
        <ele>104.53</ele>
        <time>2020-06-16T07:42:39Z</time>
      </trkpt>
      <trkpt lat="48.18306" lon="2.86297">
        <ele>104.34</ele>
        <time>2020-06-16T07:42:44Z</time>
      </trkpt>
      <trkpt lat="48.18307" lon="2.86307">
        <ele>104.24</ele>
        <time>2020-06-16T07:42:49Z</time>
      </trkpt>
      <trkpt lat="48.18306" lon="2.86316">
        <ele>104.21</ele>
        <time>2020-06-16T07:42:54Z</time>
      </trkpt>
      <trkpt lat="48.18306" lon="2.86324">
        <ele>104.08</ele>
        <time>2020-06-16T07:42:59Z</time>
      </trkpt>
      <trkpt lat="48.18304" lon="2.86332">
        <ele>104.07</ele>
        <time>2020-06-16T07:43:04Z</time>
      </trkpt>
      <trkpt lat="48.18303" lon="2.86341">
        <ele>104</ele>
        <time>2020-06-16T07:43:09Z</time>
      </trkpt>
      <trkpt lat="48.18303" lon="2.86349">
        <ele>103.72</ele>
        <time>2020-06-16T07:43:14Z</time>
      </trkpt>
      <trkpt lat="48.18303" lon="2.86357">
        <ele>103.66</ele>
        <time>2020-06-16T07:43:19Z</time>
      </trkpt>
      <trkpt lat="48.18303" lon="2.86366">
        <ele>103.66</ele>
        <time>2020-06-16T07:43:24Z</time>
      </trkpt>
      <trkpt lat="48.18301" lon="2.86376">
        <ele>103.65</ele>
        <time>2020-06-16T07:43:29Z</time>
      </trkpt>
      <trkpt lat="48.18301" lon="2.86385">
        <ele>103.47</ele>
        <time>2020-06-16T07:43:34Z</time>
      </trkpt>
      <trkpt lat="48.18301" lon="2.86394">
        <ele>103.56</ele>
        <time>2020-06-16T07:43:39Z</time>
      </trkpt>
      <trkpt lat="48.18301" lon="2.86398">
        <ele>103.67</ele>
        <time>2020-06-16T07:43:44Z</time>
      </trkpt>
      <trkpt lat="48.18299" lon="2.86401">
        <ele>103.33</ele>
        <time>2020-06-16T07:43:49Z</time>
      </trkpt>
      <trkpt lat="48.18299" lon="2.864">
        <ele>103.3</ele>
        <time>2020-06-16T07:43:54Z</time>
      </trkpt>
      <trkpt lat="48.183" lon="2.864">
        <ele>103.34</ele>
        <time>2020-06-16T07:43:59Z</time>
      </trkpt>
      <trkpt lat="48.183" lon="2.864">
        <ele>103.44</ele>
        <time>2020-06-16T07:44:04Z</time>
      </trkpt>
      <trkpt lat="48.183" lon="2.86408">
        <ele>103.49</ele>
        <time>2020-06-16T07:44:09Z</time>
      </trkpt>
      <trkpt lat="48.18299" lon="2.86415">
        <ele>103.3</ele>
        <time>2020-06-16T07:44:14Z</time>
      </trkpt>
      <trkpt lat="48.18298" lon="2.86419">
        <ele>103.44</ele>
        <time>2020-06-16T07:44:19Z</time>
      </trkpt>
      <trkpt lat="48.18297" lon="2.86426">
        <ele>103.56</ele>
        <time>2020-06-16T07:44:24Z</time>
      </trkpt>
      <trkpt lat="48.18297" lon="2.86434">
        <ele>103.6</ele>
        <time>2020-06-16T07:44:29Z</time>
      </trkpt>
      <trkpt lat="48.18297" lon="2.86442">
        <ele>103.5</ele>
        <time>2020-06-16T07:44:34Z</time>
      </trkpt>
      <trkpt lat="48.18296" lon="2.8645">
        <ele>103.64</ele>
        <time>2020-06-16T07:44:39Z</time>
      </trkpt>
      <trkpt lat="48.18295" lon="2.86459">
        <ele>103.66</ele>
        <time>2020-06-16T07:44:44Z</time>
      </trkpt>
      <trkpt lat="48.18294" lon="2.86464">
        <ele>103.67</ele>
        <time>2020-06-16T07:44:49Z</time>
      </trkpt>
      <trkpt lat="48.18295" lon="2.8647">
        <ele>103.58</ele>
        <time>2020-06-16T07:44:54Z</time>
      </trkpt>
      <trkpt lat="48.18295" lon="2.86479">
        <ele>103.57</ele>
        <time>2020-06-16T07:44:59Z</time>
      </trkpt>
      <trkpt lat="48.18295" lon="2.86488">
        <ele>103.52</ele>
        <time>2020-06-16T07:45:04Z</time>
      </trkpt>
      <trkpt lat="48.18296" lon="2.86496">
        <ele>103.52</ele>
        <time>2020-06-16T07:45:09Z</time>
      </trkpt>
      <trkpt lat="48.18295" lon="2.86505">
        <ele>103.59</ele>
        <time>2020-06-16T07:45:14Z</time>
      </trkpt>
      <trkpt lat="48.18296" lon="2.86513">
        <ele>103.59</ele>
        <time>2020-06-16T07:45:19Z</time>
      </trkpt>
      <trkpt lat="48.18296" lon="2.86522">
        <ele>103.56</ele>
        <time>2020-06-16T07:45:24Z</time>
      </trkpt>
      <trkpt lat="48.18296" lon="2.8653">
        <ele>103.53</ele>
        <time>2020-06-16T07:45:29Z</time>
      </trkpt>
      <trkpt lat="48.18298" lon="2.86539">
        <ele>103.36</ele>
        <time>2020-06-16T07:45:34Z</time>
      </trkpt>
      <trkpt lat="48.18298" lon="2.86548">
        <ele>103.44</ele>
        <time>2020-06-16T07:45:39Z</time>
      </trkpt>
      <trkpt lat="48.18299" lon="2.86555">
        <ele>103.44</ele>
        <time>2020-06-16T07:45:44Z</time>
      </trkpt>
      <trkpt lat="48.183" lon="2.86564">
        <ele>103.41</ele>
        <time>2020-06-16T07:45:49Z</time>
      </trkpt>
      <trkpt lat="48.18302" lon="2.86573">
        <ele>103.38</ele>
        <time>2020-06-16T07:45:54Z</time>
      </trkpt>
      <trkpt lat="48.18303" lon="2.86583">
        <ele>103.45</ele>
        <time>2020-06-16T07:45:59Z</time>
      </trkpt>
      <trkpt lat="48.18304" lon="2.86591">
        <ele>103.52</ele>
        <time>2020-06-16T07:46:04Z</time>
      </trkpt>
      <trkpt lat="48.18305" lon="2.866">
        <ele>103.56</ele>
        <time>2020-06-16T07:46:09Z</time>
      </trkpt>
      <trkpt lat="48.18306" lon="2.86609">
        <ele>103.56</ele>
        <time>2020-06-16T07:46:14Z</time>
      </trkpt>
      <trkpt lat="48.18307" lon="2.86619">
        <ele>103.66</ele>
        <time>2020-06-16T07:46:19Z</time>
      </trkpt>
      <trkpt lat="48.18308" lon="2.86628">
        <ele>103.71</ele>
        <time>2020-06-16T07:46:24Z</time>
      </trkpt>
      <trkpt lat="48.18308" lon="2.86637">
        <ele>103.8</ele>
        <time>2020-06-16T07:46:29Z</time>
      </trkpt>
      <trkpt lat="48.18309" lon="2.86645">
        <ele>103.96</ele>
        <time>2020-06-16T07:46:34Z</time>
      </trkpt>
      <trkpt lat="48.1831" lon="2.86654">
        <ele>104.07</ele>
        <time>2020-06-16T07:46:39Z</time>
      </trkpt>
      <trkpt lat="48.18311" lon="2.86663">
        <ele>104.13</ele>
        <time>2020-06-16T07:46:44Z</time>
      </trkpt>
      <trkpt lat="48.18313" lon="2.86672">
        <ele>104.13</ele>
        <time>2020-06-16T07:46:49Z</time>
      </trkpt>
      <trkpt lat="48.18315" lon="2.86681">
        <ele>104.03</ele>
        <time>2020-06-16T07:46:54Z</time>
      </trkpt>
      <trkpt lat="48.18317" lon="2.8669">
        <ele>104</ele>
        <time>2020-06-16T07:46:59Z</time>
      </trkpt>
      <trkpt lat="48.18318" lon="2.86699">
        <ele>104.13</ele>
        <time>2020-06-16T07:47:04Z</time>
      </trkpt>
      <trkpt lat="48.1832" lon="2.86708">
        <ele>104.14</ele>
        <time>2020-06-16T07:47:09Z</time>
      </trkpt>
      <trkpt lat="48.18321" lon="2.86717">
        <ele>104.22</ele>
        <time>2020-06-16T07:47:14Z</time>
      </trkpt>
      <trkpt lat="48.18322" lon="2.86725">
        <ele>104.4</ele>
        <time>2020-06-16T07:47:19Z</time>
      </trkpt>
      <trkpt lat="48.18322" lon="2.86733">
        <ele>104.42</ele>
        <time>2020-06-16T07:47:24Z</time>
      </trkpt>
      <trkpt lat="48.18322" lon="2.86742">
        <ele>104.41</ele>
        <time>2020-06-16T07:47:29Z</time>
      </trkpt>
      <trkpt lat="48.18323" lon="2.86751">
        <ele>104.58</ele>
        <time>2020-06-16T07:47:34Z</time>
      </trkpt>
      <trkpt lat="48.18324" lon="2.8676">
        <ele>104.84</ele>
        <time>2020-06-16T07:47:39Z</time>
      </trkpt>
      <trkpt lat="48.18324" lon="2.86769">
        <ele>105.1</ele>
        <time>2020-06-16T07:47:44Z</time>
      </trkpt>
      <trkpt lat="48.18327" lon="2.86777">
        <ele>105.44</ele>
        <time>2020-06-16T07:47:49Z</time>
      </trkpt>
      <trkpt lat="48.18328" lon="2.86786">
        <ele>105.47</ele>
        <time>2020-06-16T07:47:54Z</time>
      </trkpt>
      <trkpt lat="48.18327" lon="2.86795">
        <ele>105.44</ele>
        <time>2020-06-16T07:47:59Z</time>
      </trkpt>
      <trkpt lat="48.18327" lon="2.86804">
        <ele>105.38</ele>
        <time>2020-06-16T07:48:04Z</time>
      </trkpt>
      <trkpt lat="48.18328" lon="2.86813">
        <ele>105.21</ele>
        <time>2020-06-16T07:48:09Z</time>
      </trkpt>
      <trkpt lat="48.18328" lon="2.86821">
        <ele>105.15</ele>
        <time>2020-06-16T07:48:14Z</time>
      </trkpt>
      <trkpt lat="48.18329" lon="2.86831">
        <ele>105.15</ele>
        <time>2020-06-16T07:48:19Z</time>
      </trkpt>
      <trkpt lat="48.18329" lon="2.8684">
        <ele>105.29</ele>
        <time>2020-06-16T07:48:24Z</time>
      </trkpt>
      <trkpt lat="48.18331" lon="2.86847">
        <ele>105.62</ele>
        <time>2020-06-16T07:48:29Z</time>
      </trkpt>
      <trkpt lat="48.18332" lon="2.86856">
        <ele>105.68</ele>
        <time>2020-06-16T07:48:34Z</time>
      </trkpt>
      <trkpt lat="48.18333" lon="2.86865">
        <ele>105.38</ele>
        <time>2020-06-16T07:48:39Z</time>
      </trkpt>
      <trkpt lat="48.18333" lon="2.86875">
        <ele>105.3</ele>
        <time>2020-06-16T07:48:44Z</time>
      </trkpt>
      <trkpt lat="48.18334" lon="2.86884">
        <ele>105.32</ele>
        <time>2020-06-16T07:48:49Z</time>
      </trkpt>
      <trkpt lat="48.18334" lon="2.86893">
        <ele>105.46</ele>
        <time>2020-06-16T07:48:54Z</time>
      </trkpt>
      <trkpt lat="48.18336" lon="2.86902">
        <ele>105.57</ele>
        <time>2020-06-16T07:48:59Z</time>
      </trkpt>
      <trkpt lat="48.18337" lon="2.86911">
        <ele>105.61</ele>
        <time>2020-06-16T07:49:04Z</time>
      </trkpt>
      <trkpt lat="48.18337" lon="2.8692">
        <ele>105.53</ele>
        <time>2020-06-16T07:49:09Z</time>
      </trkpt>
      <trkpt lat="48.18338" lon="2.86929">
        <ele>105.38</ele>
        <time>2020-06-16T07:49:14Z</time>
      </trkpt>
      <trkpt lat="48.18338" lon="2.86938">
        <ele>105.3</ele>
        <time>2020-06-16T07:49:19Z</time>
      </trkpt>
      <trkpt lat="48.18338" lon="2.86948">
        <ele>105.3</ele>
        <time>2020-06-16T07:49:24Z</time>
      </trkpt>
      <trkpt lat="48.18338" lon="2.86957">
        <ele>105.36</ele>
        <time>2020-06-16T07:49:29Z</time>
      </trkpt>
      <trkpt lat="48.18338" lon="2.86966">
        <ele>105.46</ele>
        <time>2020-06-16T07:49:34Z</time>
      </trkpt>
      <trkpt lat="48.18338" lon="2.86975">
        <ele>105.5</ele>
        <time>2020-06-16T07:49:39Z</time>
      </trkpt>
      <trkpt lat="48.18338" lon="2.86983">
        <ele>105.55</ele>
        <time>2020-06-16T07:49:44Z</time>
      </trkpt>
      <trkpt lat="48.1834" lon="2.86992">
        <ele>105.51</ele>
        <time>2020-06-16T07:49:49Z</time>
      </trkpt>
      <trkpt lat="48.1834" lon="2.87001">
        <ele>105.5</ele>
        <time>2020-06-16T07:49:54Z</time>
      </trkpt>
      <trkpt lat="48.18339" lon="2.87011">
        <ele>105.47</ele>
        <time>2020-06-16T07:49:59Z</time>
      </trkpt>
      <trkpt lat="48.18337" lon="2.87019">
        <ele>105.39</ele>
        <time>2020-06-16T07:50:04Z</time>
      </trkpt>
      <trkpt lat="48.18336" lon="2.87029">
        <ele>105.36</ele>
        <time>2020-06-16T07:50:09Z</time>
      </trkpt>
      <trkpt lat="48.18336" lon="2.87039">
        <ele>105.27</ele>
        <time>2020-06-16T07:50:14Z</time>
      </trkpt>
      <trkpt lat="48.18335" lon="2.87049">
        <ele>105.16</ele>
        <time>2020-06-16T07:50:19Z</time>
      </trkpt>
      <trkpt lat="48.18334" lon="2.87058">
        <ele>105.06</ele>
        <time>2020-06-16T07:50:24Z</time>
      </trkpt>
      <trkpt lat="48.18334" lon="2.87067">
        <ele>104.89</ele>
        <time>2020-06-16T07:50:29Z</time>
      </trkpt>
      <trkpt lat="48.18334" lon="2.87076">
        <ele>104.64</ele>
        <time>2020-06-16T07:50:34Z</time>
      </trkpt>
      <trkpt lat="48.18333" lon="2.87085">
        <ele>104.88</ele>
        <time>2020-06-16T07:50:39Z</time>
      </trkpt>
      <trkpt lat="48.18333" lon="2.87094">
        <ele>105.11</ele>
        <time>2020-06-16T07:50:44Z</time>
      </trkpt>
      <trkpt lat="48.18332" lon="2.87102">
        <ele>104.99</ele>
        <time>2020-06-16T07:50:49Z</time>
      </trkpt>
      <trkpt lat="48.18332" lon="2.87111">
        <ele>104.92</ele>
        <time>2020-06-16T07:50:54Z</time>
      </trkpt>
      <trkpt lat="48.18332" lon="2.8712">
        <ele>104.97</ele>
        <time>2020-06-16T07:50:59Z</time>
      </trkpt>
      <trkpt lat="48.18331" lon="2.87129">
        <ele>104.99</ele>
        <time>2020-06-16T07:51:04Z</time>
      </trkpt>
      <trkpt lat="48.18329" lon="2.87138">
        <ele>104.99</ele>
        <time>2020-06-16T07:51:09Z</time>
      </trkpt>
      <trkpt lat="48.18329" lon="2.87147">
        <ele>104.99</ele>
        <time>2020-06-16T07:51:14Z</time>
      </trkpt>
      <trkpt lat="48.1833" lon="2.87156">
        <ele>104.97</ele>
        <time>2020-06-16T07:51:19Z</time>
      </trkpt>
      <trkpt lat="48.18329" lon="2.87163">
        <ele>104.91</ele>
        <time>2020-06-16T07:51:24Z</time>
      </trkpt>
      <trkpt lat="48.18328" lon="2.8717">
        <ele>105.17</ele>
        <time>2020-06-16T07:51:29Z</time>
      </trkpt>
      <trkpt lat="48.18328" lon="2.87177">
        <ele>105.23</ele>
        <time>2020-06-16T07:51:34Z</time>
      </trkpt>
      <trkpt lat="48.18328" lon="2.87186">
        <ele>105.15</ele>
        <time>2020-06-16T07:51:39Z</time>
      </trkpt>
      <trkpt lat="48.18329" lon="2.87194">
        <ele>105.08</ele>
        <time>2020-06-16T07:51:44Z</time>
      </trkpt>
      <trkpt lat="48.1833" lon="2.87204">
        <ele>104.94</ele>
        <time>2020-06-16T07:51:49Z</time>
      </trkpt>
      <trkpt lat="48.1833" lon="2.87211">
        <ele>104.91</ele>
        <time>2020-06-16T07:51:54Z</time>
      </trkpt>
      <trkpt lat="48.18331" lon="2.87219">
        <ele>104.77</ele>
        <time>2020-06-16T07:51:59Z</time>
      </trkpt>
      <trkpt lat="48.1833" lon="2.87229">
        <ele>104.82</ele>
        <time>2020-06-16T07:52:04Z</time>
      </trkpt>
      <trkpt lat="48.18328" lon="2.87238">
        <ele>105.04</ele>
        <time>2020-06-16T07:52:09Z</time>
      </trkpt>
      <trkpt lat="48.18326" lon="2.87247">
        <ele>105.15</ele>
        <time>2020-06-16T07:52:14Z</time>
      </trkpt>
      <trkpt lat="48.18326" lon="2.87256">
        <ele>105.17</ele>
        <time>2020-06-16T07:52:19Z</time>
      </trkpt>
      <trkpt lat="48.18326" lon="2.87265">
        <ele>105.23</ele>
        <time>2020-06-16T07:52:24Z</time>
      </trkpt>
      <trkpt lat="48.18326" lon="2.87274">
        <ele>105.35</ele>
        <time>2020-06-16T07:52:29Z</time>
      </trkpt>
      <trkpt lat="48.18327" lon="2.87284">
        <ele>105.35</ele>
        <time>2020-06-16T07:52:34Z</time>
      </trkpt>
      <trkpt lat="48.18327" lon="2.87292">
        <ele>105.23</ele>
        <time>2020-06-16T07:52:39Z</time>
      </trkpt>
      <trkpt lat="48.18327" lon="2.87301">
        <ele>105.13</ele>
        <time>2020-06-16T07:52:44Z</time>
      </trkpt>
      <trkpt lat="48.18328" lon="2.87311">
        <ele>105.26</ele>
        <time>2020-06-16T07:52:49Z</time>
      </trkpt>
      <trkpt lat="48.18328" lon="2.87319">
        <ele>105.42</ele>
        <time>2020-06-16T07:52:54Z</time>
      </trkpt>
      <trkpt lat="48.18328" lon="2.87328">
        <ele>105.48</ele>
        <time>2020-06-16T07:52:59Z</time>
      </trkpt>
      <trkpt lat="48.18329" lon="2.87337">
        <ele>105.35</ele>
        <time>2020-06-16T07:53:04Z</time>
      </trkpt>
      <trkpt lat="48.18329" lon="2.87346">
        <ele>105.22</ele>
        <time>2020-06-16T07:53:09Z</time>
      </trkpt>
      <trkpt lat="48.18332" lon="2.87354">
        <ele>105.23</ele>
        <time>2020-06-16T07:53:14Z</time>
      </trkpt>
      <trkpt lat="48.18333" lon="2.87363">
        <ele>105.23</ele>
        <time>2020-06-16T07:53:19Z</time>
      </trkpt>
      <trkpt lat="48.18334" lon="2.87372">
        <ele>104.99</ele>
        <time>2020-06-16T07:53:24Z</time>
      </trkpt>
      <trkpt lat="48.18335" lon="2.87381">
        <ele>104.67</ele>
        <time>2020-06-16T07:53:29Z</time>
      </trkpt>
      <trkpt lat="48.18336" lon="2.87389">
        <ele>104.64</ele>
        <time>2020-06-16T07:53:34Z</time>
      </trkpt>
      <trkpt lat="48.18333" lon="2.87398">
        <ele>104.55</ele>
        <time>2020-06-16T07:53:39Z</time>
      </trkpt>
      <trkpt lat="48.18331" lon="2.87407">
        <ele>104.46</ele>
        <time>2020-06-16T07:53:44Z</time>
      </trkpt>
      <trkpt lat="48.18331" lon="2.87415">
        <ele>104.58</ele>
        <time>2020-06-16T07:53:49Z</time>
      </trkpt>
      <trkpt lat="48.1833" lon="2.87425">
        <ele>104.59</ele>
        <time>2020-06-16T07:53:54Z</time>
      </trkpt>
      <trkpt lat="48.18329" lon="2.87433">
        <ele>104.56</ele>
        <time>2020-06-16T07:53:59Z</time>
      </trkpt>
      <trkpt lat="48.18328" lon="2.87441">
        <ele>104.58</ele>
        <time>2020-06-16T07:54:04Z</time>
      </trkpt>
      <trkpt lat="48.18327" lon="2.87448">
        <ele>104.77</ele>
        <time>2020-06-16T07:54:09Z</time>
      </trkpt>
      <trkpt lat="48.18328" lon="2.87456">
        <ele>104.87</ele>
        <time>2020-06-16T07:54:14Z</time>
      </trkpt>
      <trkpt lat="48.18329" lon="2.87465">
        <ele>104.7</ele>
        <time>2020-06-16T07:54:19Z</time>
      </trkpt>
      <trkpt lat="48.18331" lon="2.87473">
        <ele>104.57</ele>
        <time>2020-06-16T07:54:24Z</time>
      </trkpt>
      <trkpt lat="48.18332" lon="2.87481">
        <ele>104.77</ele>
        <time>2020-06-16T07:54:29Z</time>
      </trkpt>
      <trkpt lat="48.18334" lon="2.8749">
        <ele>104.9</ele>
        <time>2020-06-16T07:54:34Z</time>
      </trkpt>
      <trkpt lat="48.18334" lon="2.87498">
        <ele>104.85</ele>
        <time>2020-06-16T07:54:39Z</time>
      </trkpt>
      <trkpt lat="48.18334" lon="2.87507">
        <ele>104.84</ele>
        <time>2020-06-16T07:54:44Z</time>
      </trkpt>
      <trkpt lat="48.18334" lon="2.87516">
        <ele>104.94</ele>
        <time>2020-06-16T07:54:49Z</time>
      </trkpt>
      <trkpt lat="48.18333" lon="2.87525">
        <ele>104.94</ele>
        <time>2020-06-16T07:54:54Z</time>
      </trkpt>
      <trkpt lat="48.18331" lon="2.87532">
        <ele>104.97</ele>
        <time>2020-06-16T07:54:59Z</time>
      </trkpt>
      <trkpt lat="48.1833" lon="2.87539">
        <ele>105.25</ele>
        <time>2020-06-16T07:55:04Z</time>
      </trkpt>
      <trkpt lat="48.18331" lon="2.87547">
        <ele>105.53</ele>
        <time>2020-06-16T07:55:09Z</time>
      </trkpt>
      <trkpt lat="48.18332" lon="2.87555">
        <ele>105.64</ele>
        <time>2020-06-16T07:55:14Z</time>
      </trkpt>
      <trkpt lat="48.1833" lon="2.87564">
        <ele>105.37</ele>
        <time>2020-06-16T07:55:19Z</time>
      </trkpt>
      <trkpt lat="48.18327" lon="2.87572">
        <ele>105.3</ele>
        <time>2020-06-16T07:55:24Z</time>
      </trkpt>
      <trkpt lat="48.18327" lon="2.87582">
        <ele>105.33</ele>
        <time>2020-06-16T07:55:29Z</time>
      </trkpt>
      <trkpt lat="48.18326" lon="2.8759">
        <ele>105.32</ele>
        <time>2020-06-16T07:55:34Z</time>
      </trkpt>
      <trkpt lat="48.18324" lon="2.87598">
        <ele>105.25</ele>
        <time>2020-06-16T07:55:39Z</time>
      </trkpt>
      <trkpt lat="48.18323" lon="2.87605">
        <ele>105.38</ele>
        <time>2020-06-16T07:55:44Z</time>
      </trkpt>
      <trkpt lat="48.18323" lon="2.87613">
        <ele>105.58</ele>
        <time>2020-06-16T07:55:49Z</time>
      </trkpt>
      <trkpt lat="48.18322" lon="2.87622">
        <ele>105.58</ele>
        <time>2020-06-16T07:55:54Z</time>
      </trkpt>
      <trkpt lat="48.18321" lon="2.8763">
        <ele>105.6</ele>
        <time>2020-06-16T07:55:59Z</time>
      </trkpt>
      <trkpt lat="48.1832" lon="2.87639">
        <ele>105.6</ele>
        <time>2020-06-16T07:56:04Z</time>
      </trkpt>
      <trkpt lat="48.18319" lon="2.87648">
        <ele>105.6</ele>
        <time>2020-06-16T07:56:09Z</time>
      </trkpt>
      <trkpt lat="48.18319" lon="2.87656">
        <ele>105.8</ele>
        <time>2020-06-16T07:56:14Z</time>
      </trkpt>
      <trkpt lat="48.18318" lon="2.87664">
        <ele>105.91</ele>
        <time>2020-06-16T07:56:19Z</time>
      </trkpt>
      <trkpt lat="48.18318" lon="2.87673">
        <ele>106</ele>
        <time>2020-06-16T07:56:24Z</time>
      </trkpt>
      <trkpt lat="48.18317" lon="2.8768">
        <ele>106.08</ele>
        <time>2020-06-16T07:56:29Z</time>
      </trkpt>
      <trkpt lat="48.18317" lon="2.87688">
        <ele>106.17</ele>
        <time>2020-06-16T07:56:34Z</time>
      </trkpt>
      <trkpt lat="48.18316" lon="2.87696">
        <ele>106.33</ele>
        <time>2020-06-16T07:56:39Z</time>
      </trkpt>
      <trkpt lat="48.18315" lon="2.87705">
        <ele>106.58</ele>
        <time>2020-06-16T07:56:44Z</time>
      </trkpt>
      <trkpt lat="48.18314" lon="2.87713">
        <ele>106.8</ele>
        <time>2020-06-16T07:56:49Z</time>
      </trkpt>
      <trkpt lat="48.18313" lon="2.87722">
        <ele>106.95</ele>
        <time>2020-06-16T07:56:54Z</time>
      </trkpt>
      <trkpt lat="48.18312" lon="2.8773">
        <ele>107.16</ele>
        <time>2020-06-16T07:56:59Z</time>
      </trkpt>
      <trkpt lat="48.18311" lon="2.87738">
        <ele>107.33</ele>
        <time>2020-06-16T07:57:04Z</time>
      </trkpt>
      <trkpt lat="48.1831" lon="2.87747">
        <ele>107.5</ele>
        <time>2020-06-16T07:57:09Z</time>
      </trkpt>
      <trkpt lat="48.1831" lon="2.87755">
        <ele>107.79</ele>
        <time>2020-06-16T07:57:14Z</time>
      </trkpt>
      <trkpt lat="48.18309" lon="2.87764">
        <ele>108.12</ele>
        <time>2020-06-16T07:57:19Z</time>
      </trkpt>
      <trkpt lat="48.18308" lon="2.87772">
        <ele>108.47</ele>
        <time>2020-06-16T07:57:24Z</time>
      </trkpt>
      <trkpt lat="48.18308" lon="2.87781">
        <ele>108.92</ele>
        <time>2020-06-16T07:57:29Z</time>
      </trkpt>
      <trkpt lat="48.18308" lon="2.87789">
        <ele>109.27</ele>
        <time>2020-06-16T07:57:34Z</time>
      </trkpt>
      <trkpt lat="48.18307" lon="2.87797">
        <ele>109.37</ele>
        <time>2020-06-16T07:57:39Z</time>
      </trkpt>
      <trkpt lat="48.18308" lon="2.87806">
        <ele>109.37</ele>
        <time>2020-06-16T07:57:44Z</time>
      </trkpt>
      <trkpt lat="48.18307" lon="2.87815">
        <ele>109.42</ele>
        <time>2020-06-16T07:57:49Z</time>
      </trkpt>
      <trkpt lat="48.18307" lon="2.87823">
        <ele>109.44</ele>
        <time>2020-06-16T07:57:54Z</time>
      </trkpt>
      <trkpt lat="48.18306" lon="2.87832">
        <ele>109.52</ele>
        <time>2020-06-16T07:57:59Z</time>
      </trkpt>
      <trkpt lat="48.18307" lon="2.8784">
        <ele>109.58</ele>
        <time>2020-06-16T07:58:04Z</time>
      </trkpt>
      <trkpt lat="48.18308" lon="2.8785">
        <ele>109.57</ele>
        <time>2020-06-16T07:58:09Z</time>
      </trkpt>
      <trkpt lat="48.18307" lon="2.87857">
        <ele>109.49</ele>
        <time>2020-06-16T07:58:14Z</time>
      </trkpt>
      <trkpt lat="48.18308" lon="2.87864">
        <ele>109.5</ele>
        <time>2020-06-16T07:58:19Z</time>
      </trkpt>
      <trkpt lat="48.18308" lon="2.87873">
        <ele>109.46</ele>
        <time>2020-06-16T07:58:24Z</time>
      </trkpt>
      <trkpt lat="48.18307" lon="2.87882">
        <ele>109.56</ele>
        <time>2020-06-16T07:58:29Z</time>
      </trkpt>
      <trkpt lat="48.18307" lon="2.87891">
        <ele>109.55</ele>
        <time>2020-06-16T07:58:34Z</time>
      </trkpt>
      <trkpt lat="48.18308" lon="2.879">
        <ele>109.49</ele>
        <time>2020-06-16T07:58:39Z</time>
      </trkpt>
      <trkpt lat="48.18308" lon="2.87909">
        <ele>109.43</ele>
        <time>2020-06-16T07:58:44Z</time>
      </trkpt>
      <trkpt lat="48.18307" lon="2.87918">
        <ele>109.43</ele>
        <time>2020-06-16T07:58:49Z</time>
      </trkpt>
      <trkpt lat="48.18308" lon="2.87927">
        <ele>109.41</ele>
        <time>2020-06-16T07:58:54Z</time>
      </trkpt>
      <trkpt lat="48.18308" lon="2.87935">
        <ele>109.43</ele>
        <time>2020-06-16T07:58:59Z</time>
      </trkpt>
      <trkpt lat="48.18308" lon="2.87944">
        <ele>109.49</ele>
        <time>2020-06-16T07:59:04Z</time>
      </trkpt>
      <trkpt lat="48.18308" lon="2.87953">
        <ele>109.51</ele>
        <time>2020-06-16T07:59:09Z</time>
      </trkpt>
      <trkpt lat="48.18307" lon="2.87961">
        <ele>109.53</ele>
        <time>2020-06-16T07:59:14Z</time>
      </trkpt>
      <trkpt lat="48.18308" lon="2.8797">
        <ele>109.57</ele>
        <time>2020-06-16T07:59:19Z</time>
      </trkpt>
      <trkpt lat="48.18308" lon="2.87979">
        <ele>109.61</ele>
        <time>2020-06-16T07:59:24Z</time>
      </trkpt>
      <trkpt lat="48.18307" lon="2.87987">
        <ele>109.63</ele>
        <time>2020-06-16T07:59:29Z</time>
      </trkpt>
      <trkpt lat="48.18308" lon="2.87996">
        <ele>109.78</ele>
        <time>2020-06-16T07:59:34Z</time>
      </trkpt>
      <trkpt lat="48.18308" lon="2.88004">
        <ele>109.93</ele>
        <time>2020-06-16T07:59:39Z</time>
      </trkpt>
      <trkpt lat="48.18309" lon="2.88013">
        <ele>109.94</ele>
        <time>2020-06-16T07:59:44Z</time>
      </trkpt>
      <trkpt lat="48.18309" lon="2.88021">
        <ele>109.96</ele>
        <time>2020-06-16T07:59:49Z</time>
      </trkpt>
      <trkpt lat="48.18309" lon="2.88029">
        <ele>109.95</ele>
        <time>2020-06-16T07:59:54Z</time>
      </trkpt>
      <trkpt lat="48.18308" lon="2.88037">
        <ele>110.01</ele>
        <time>2020-06-16T07:59:59Z</time>
      </trkpt>
      <trkpt lat="48.18308" lon="2.88045">
        <ele>110.11</ele>
        <time>2020-06-16T08:00:04Z</time>
      </trkpt>
      <trkpt lat="48.18308" lon="2.88053">
        <ele>110.23</ele>
        <time>2020-06-16T08:00:09Z</time>
      </trkpt>
      <trkpt lat="48.18308" lon="2.88061">
        <ele>110.43</ele>
        <time>2020-06-16T08:00:14Z</time>
      </trkpt>
      <trkpt lat="48.18307" lon="2.88068">
        <ele>110.47</ele>
        <time>2020-06-16T08:00:19Z</time>
      </trkpt>
      <trkpt lat="48.18307" lon="2.88076">
        <ele>110.55</ele>
        <time>2020-06-16T08:00:24Z</time>
      </trkpt>
      <trkpt lat="48.18307" lon="2.88084">
        <ele>110.63</ele>
        <time>2020-06-16T08:00:29Z</time>
      </trkpt>
      <trkpt lat="48.18307" lon="2.88091">
        <ele>110.63</ele>
        <time>2020-06-16T08:00:34Z</time>
      </trkpt>
      <trkpt lat="48.18307" lon="2.88099">
        <ele>110.63</ele>
        <time>2020-06-16T08:00:39Z</time>
      </trkpt>
      <trkpt lat="48.18308" lon="2.88107">
        <ele>110.63</ele>
        <time>2020-06-16T08:00:44Z</time>
      </trkpt>
      <trkpt lat="48.18308" lon="2.88114">
        <ele>110.79</ele>
        <time>2020-06-16T08:00:49Z</time>
      </trkpt>
      <trkpt lat="48.18308" lon="2.8812">
        <ele>110.97</ele>
        <time>2020-06-16T08:00:54Z</time>
      </trkpt>
      <trkpt lat="48.18308" lon="2.88127">
        <ele>111</ele>
        <time>2020-06-16T08:00:59Z</time>
      </trkpt>
      <trkpt lat="48.18307" lon="2.88134">
        <ele>111.2</ele>
        <time>2020-06-16T08:01:04Z</time>
      </trkpt>
      <trkpt lat="48.18307" lon="2.88141">
        <ele>111.22</ele>
        <time>2020-06-16T08:01:09Z</time>
      </trkpt>
      <trkpt lat="48.18307" lon="2.88149">
        <ele>111.21</ele>
        <time>2020-06-16T08:01:14Z</time>
      </trkpt>
      <trkpt lat="48.18307" lon="2.88157">
        <ele>111.27</ele>
        <time>2020-06-16T08:01:19Z</time>
      </trkpt>
      <trkpt lat="48.18306" lon="2.88163">
        <ele>111.27</ele>
        <time>2020-06-16T08:01:24Z</time>
      </trkpt>
      <trkpt lat="48.18306" lon="2.88171">
        <ele>111.31</ele>
        <time>2020-06-16T08:01:29Z</time>
      </trkpt>
      <trkpt lat="48.18306" lon="2.88179">
        <ele>111.41</ele>
        <time>2020-06-16T08:01:34Z</time>
      </trkpt>
      <trkpt lat="48.18306" lon="2.88185">
        <ele>111.46</ele>
        <time>2020-06-16T08:01:39Z</time>
      </trkpt>
      <trkpt lat="48.18306" lon="2.88192">
        <ele>111.52</ele>
        <time>2020-06-16T08:01:44Z</time>
      </trkpt>
      <trkpt lat="48.18307" lon="2.88199">
        <ele>111.62</ele>
        <time>2020-06-16T08:01:49Z</time>
      </trkpt>
      <trkpt lat="48.18305" lon="2.88202">
        <ele>111.66</ele>
        <time>2020-06-16T08:01:54Z</time>
      </trkpt>
      <trkpt lat="48.18305" lon="2.88201">
        <ele>111.77</ele>
        <time>2020-06-16T08:01:59Z</time>
      </trkpt>
      <trkpt lat="48.18305" lon="2.882">
        <ele>111.87</ele>
        <time>2020-06-16T08:02:04Z</time>
      </trkpt>
      <trkpt lat="48.18305" lon="2.882">
        <ele>111.88</ele>
        <time>2020-06-16T08:02:09Z</time>
      </trkpt>
      <trkpt lat="48.18305" lon="2.882">
        <ele>111.94</ele>
        <time>2020-06-16T08:02:14Z</time>
      </trkpt>
      <trkpt lat="48.18305" lon="2.882">
        <ele>111.99</ele>
        <time>2020-06-16T08:02:19Z</time>
      </trkpt>
      <trkpt lat="48.18305" lon="2.882">
        <ele>111.97</ele>
        <time>2020-06-16T08:02:24Z</time>
      </trkpt>
      <trkpt lat="48.18305" lon="2.882">
        <ele>112.04</ele>
        <time>2020-06-16T08:02:29Z</time>
      </trkpt>
      <trkpt lat="48.18305" lon="2.882">
        <ele>112.03</ele>
        <time>2020-06-16T08:02:34Z</time>
      </trkpt>
      <trkpt lat="48.18305" lon="2.88201">
        <ele>112.02</ele>
        <time>2020-06-16T08:02:39Z</time>
      </trkpt>
      <trkpt lat="48.18305" lon="2.88201">
        <ele>111.97</ele>
        <time>2020-06-16T08:02:44Z</time>
      </trkpt>
      <trkpt lat="48.18305" lon="2.88201">
        <ele>111.96</ele>
        <time>2020-06-16T08:02:49Z</time>
      </trkpt>
      <trkpt lat="48.18305" lon="2.882">
        <ele>111.94</ele>
        <time>2020-06-16T08:02:54Z</time>
      </trkpt>
      <trkpt lat="48.18305" lon="2.88201">
        <ele>112.25</ele>
        <time>2020-06-16T08:02:59Z</time>
      </trkpt>
      <trkpt lat="48.18307" lon="2.88206">
        <ele>112.25</ele>
        <time>2020-06-16T08:03:04Z</time>
      </trkpt>
      <trkpt lat="48.18309" lon="2.88214">
        <ele>112.12</ele>
        <time>2020-06-16T08:03:09Z</time>
      </trkpt>
      <trkpt lat="48.18311" lon="2.88222">
        <ele>112.2</ele>
        <time>2020-06-16T08:03:14Z</time>
      </trkpt>
      <trkpt lat="48.18313" lon="2.88231">
        <ele>112.32</ele>
        <time>2020-06-16T08:03:19Z</time>
      </trkpt>
      <trkpt lat="48.18315" lon="2.88239">
        <ele>112.63</ele>
        <time>2020-06-16T08:03:24Z</time>
      </trkpt>
      <trkpt lat="48.18316" lon="2.88246">
        <ele>112.74</ele>
        <time>2020-06-16T08:03:29Z</time>
      </trkpt>
      <trkpt lat="48.18318" lon="2.88255">
        <ele>112.82</ele>
        <time>2020-06-16T08:03:34Z</time>
      </trkpt>
      <trkpt lat="48.18319" lon="2.88262">
        <ele>112.83</ele>
        <time>2020-06-16T08:03:39Z</time>
      </trkpt>
      <trkpt lat="48.1832" lon="2.88266">
        <ele>112.93</ele>
        <time>2020-06-16T08:03:44Z</time>
      </trkpt>
      <trkpt lat="48.18322" lon="2.88274">
        <ele>112.95</ele>
        <time>2020-06-16T08:03:49Z</time>
      </trkpt>
      <trkpt lat="48.18323" lon="2.88282">
        <ele>113</ele>
        <time>2020-06-16T08:03:54Z</time>
      </trkpt>
      <trkpt lat="48.18325" lon="2.88289">
        <ele>113.05</ele>
        <time>2020-06-16T08:03:59Z</time>
      </trkpt>
      <trkpt lat="48.18326" lon="2.88297">
        <ele>113.22</ele>
        <time>2020-06-16T08:04:04Z</time>
      </trkpt>
      <trkpt lat="48.18327" lon="2.88306">
        <ele>113.34</ele>
        <time>2020-06-16T08:04:09Z</time>
      </trkpt>
      <trkpt lat="48.18329" lon="2.88314">
        <ele>113.45</ele>
        <time>2020-06-16T08:04:14Z</time>
      </trkpt>
      <trkpt lat="48.18331" lon="2.88322">
        <ele>113.35</ele>
        <time>2020-06-16T08:04:19Z</time>
      </trkpt>
      <trkpt lat="48.18332" lon="2.8833">
        <ele>113.33</ele>
        <time>2020-06-16T08:04:24Z</time>
      </trkpt>
      <trkpt lat="48.18334" lon="2.8834">
        <ele>113.7</ele>
        <time>2020-06-16T08:04:30Z</time>
      </trkpt>
      <trkpt lat="48.18335" lon="2.88347">
        <ele>113.61</ele>
        <time>2020-06-16T08:04:35Z</time>
      </trkpt>
      <trkpt lat="48.18337" lon="2.88355">
        <ele>113.76</ele>
        <time>2020-06-16T08:04:40Z</time>
      </trkpt>
      <trkpt lat="48.1834" lon="2.88363">
        <ele>113.81</ele>
        <time>2020-06-16T08:04:45Z</time>
      </trkpt>
      <trkpt lat="48.18342" lon="2.88371">
        <ele>113.72</ele>
        <time>2020-06-16T08:04:50Z</time>
      </trkpt>
      <trkpt lat="48.18344" lon="2.8838">
        <ele>113.5</ele>
        <time>2020-06-16T08:04:55Z</time>
      </trkpt>
      <trkpt lat="48.18345" lon="2.88388">
        <ele>113.44</ele>
        <time>2020-06-16T08:05:00Z</time>
      </trkpt>
      <trkpt lat="48.18346" lon="2.88396">
        <ele>113.44</ele>
        <time>2020-06-16T08:05:05Z</time>
      </trkpt>
      <trkpt lat="48.18347" lon="2.88402">
        <ele>113.43</ele>
        <time>2020-06-16T08:05:10Z</time>
      </trkpt>
      <trkpt lat="48.1835" lon="2.8841">
        <ele>113.32</ele>
        <time>2020-06-16T08:05:15Z</time>
      </trkpt>
      <trkpt lat="48.18351" lon="2.88418">
        <ele>113.37</ele>
        <time>2020-06-16T08:05:20Z</time>
      </trkpt>
      <trkpt lat="48.18353" lon="2.88426">
        <ele>113.3</ele>
        <time>2020-06-16T08:05:25Z</time>
      </trkpt>
      <trkpt lat="48.18355" lon="2.88435">
        <ele>113.27</ele>
        <time>2020-06-16T08:05:30Z</time>
      </trkpt>
      <trkpt lat="48.18356" lon="2.88443">
        <ele>113.27</ele>
        <time>2020-06-16T08:05:35Z</time>
      </trkpt>
      <trkpt lat="48.18358" lon="2.8845">
        <ele>113.26</ele>
        <time>2020-06-16T08:05:40Z</time>
      </trkpt>
      <trkpt lat="48.1836" lon="2.88459">
        <ele>113.3</ele>
        <time>2020-06-16T08:05:45Z</time>
      </trkpt>
      <trkpt lat="48.18361" lon="2.88466">
        <ele>113.33</ele>
        <time>2020-06-16T08:05:50Z</time>
      </trkpt>
      <trkpt lat="48.18363" lon="2.88474">
        <ele>113.44</ele>
        <time>2020-06-16T08:05:55Z</time>
      </trkpt>
      <trkpt lat="48.18365" lon="2.88482">
        <ele>113.45</ele>
        <time>2020-06-16T08:06:00Z</time>
      </trkpt>
      <trkpt lat="48.18367" lon="2.8849">
        <ele>113.41</ele>
        <time>2020-06-16T08:06:05Z</time>
      </trkpt>
      <trkpt lat="48.18368" lon="2.88498">
        <ele>113.45</ele>
        <time>2020-06-16T08:06:10Z</time>
      </trkpt>
      <trkpt lat="48.1837" lon="2.88506">
        <ele>113.51</ele>
        <time>2020-06-16T08:06:15Z</time>
      </trkpt>
      <trkpt lat="48.18372" lon="2.88514">
        <ele>113.54</ele>
        <time>2020-06-16T08:06:20Z</time>
      </trkpt>
      <trkpt lat="48.18374" lon="2.88522">
        <ele>113.64</ele>
        <time>2020-06-16T08:06:25Z</time>
      </trkpt>
      <trkpt lat="48.18375" lon="2.8853">
        <ele>113.79</ele>
        <time>2020-06-16T08:06:30Z</time>
      </trkpt>
      <trkpt lat="48.18377" lon="2.88538">
        <ele>113.68</ele>
        <time>2020-06-16T08:06:35Z</time>
      </trkpt>
      <trkpt lat="48.18379" lon="2.88547">
        <ele>113.44</ele>
        <time>2020-06-16T08:06:40Z</time>
      </trkpt>
      <trkpt lat="48.18381" lon="2.88555">
        <ele>113.46</ele>
        <time>2020-06-16T08:06:45Z</time>
      </trkpt>
      <trkpt lat="48.18383" lon="2.88563">
        <ele>113.46</ele>
        <time>2020-06-16T08:06:50Z</time>
      </trkpt>
      <trkpt lat="48.18385" lon="2.88572">
        <ele>113.51</ele>
        <time>2020-06-16T08:06:55Z</time>
      </trkpt>
      <trkpt lat="48.18386" lon="2.8858">
        <ele>113.54</ele>
        <time>2020-06-16T08:07:00Z</time>
      </trkpt>
      <trkpt lat="48.18387" lon="2.88589">
        <ele>113.47</ele>
        <time>2020-06-16T08:07:05Z</time>
      </trkpt>
      <trkpt lat="48.18389" lon="2.88597">
        <ele>113.55</ele>
        <time>2020-06-16T08:07:10Z</time>
      </trkpt>
      <trkpt lat="48.18392" lon="2.88603">
        <ele>113.53</ele>
        <time>2020-06-16T08:07:15Z</time>
      </trkpt>
      <trkpt lat="48.18396" lon="2.88608">
        <ele>113.47</ele>
        <time>2020-06-16T08:07:20Z</time>
      </trkpt>
      <trkpt lat="48.18401" lon="2.88607">
        <ele>113.41</ele>
        <time>2020-06-16T08:07:25Z</time>
      </trkpt>
      <trkpt lat="48.18407" lon="2.88606">
        <ele>113.46</ele>
        <time>2020-06-16T08:07:30Z</time>
      </trkpt>
      <trkpt lat="48.18414" lon="2.88605">
        <ele>113.42</ele>
        <time>2020-06-16T08:07:35Z</time>
      </trkpt>
      <trkpt lat="48.1842" lon="2.88604">
        <ele>113.52</ele>
        <time>2020-06-16T08:07:40Z</time>
      </trkpt>
      <trkpt lat="48.18425" lon="2.88604">
        <ele>113.69</ele>
        <time>2020-06-16T08:07:45Z</time>
      </trkpt>
      <trkpt lat="48.18431" lon="2.88604">
        <ele>113.84</ele>
        <time>2020-06-16T08:07:50Z</time>
      </trkpt>
      <trkpt lat="48.18436" lon="2.88604">
        <ele>113.95</ele>
        <time>2020-06-16T08:07:55Z</time>
      </trkpt>
      <trkpt lat="48.18442" lon="2.88603">
        <ele>113.75</ele>
        <time>2020-06-16T08:08:00Z</time>
      </trkpt>
      <trkpt lat="48.18448" lon="2.88603">
        <ele>113.82</ele>
        <time>2020-06-16T08:08:05Z</time>
      </trkpt>
      <trkpt lat="48.18453" lon="2.88603">
        <ele>113.89</ele>
        <time>2020-06-16T08:08:10Z</time>
      </trkpt>
      <trkpt lat="48.18459" lon="2.88604">
        <ele>113.89</ele>
        <time>2020-06-16T08:08:15Z</time>
      </trkpt>
      <trkpt lat="48.18464" lon="2.88604">
        <ele>113.93</ele>
        <time>2020-06-16T08:08:20Z</time>
      </trkpt>
      <trkpt lat="48.1847" lon="2.88604">
        <ele>113.99</ele>
        <time>2020-06-16T08:08:25Z</time>
      </trkpt>
      <trkpt lat="48.18475" lon="2.88603">
        <ele>113.99</ele>
        <time>2020-06-16T08:08:30Z</time>
      </trkpt>
      <trkpt lat="48.18479" lon="2.88603">
        <ele>114.23</ele>
        <time>2020-06-16T08:08:35Z</time>
      </trkpt>
      <trkpt lat="48.18481" lon="2.88604">
        <ele>114.05</ele>
        <time>2020-06-16T08:08:40Z</time>
      </trkpt>
      <trkpt lat="48.18483" lon="2.88604">
        <ele>114.05</ele>
        <time>2020-06-16T08:08:45Z</time>
      </trkpt>
      <trkpt lat="48.18489" lon="2.88604">
        <ele>114.04</ele>
        <time>2020-06-16T08:08:50Z</time>
      </trkpt>
      <trkpt lat="48.18495" lon="2.88605">
        <ele>113.89</ele>
        <time>2020-06-16T08:08:55Z</time>
      </trkpt>
      <trkpt lat="48.18501" lon="2.88605">
        <ele>113.89</ele>
        <time>2020-06-16T08:09:00Z</time>
      </trkpt>
      <trkpt lat="48.18507" lon="2.88605">
        <ele>114</ele>
        <time>2020-06-16T08:09:05Z</time>
      </trkpt>
      <trkpt lat="48.18512" lon="2.88605">
        <ele>114.12</ele>
        <time>2020-06-16T08:09:10Z</time>
      </trkpt>
      <trkpt lat="48.18515" lon="2.88606">
        <ele>114.14</ele>
        <time>2020-06-16T08:09:15Z</time>
      </trkpt>
      <trkpt lat="48.18521" lon="2.88604">
        <ele>114.34</ele>
        <time>2020-06-16T08:09:20Z</time>
      </trkpt>
      <trkpt lat="48.18527" lon="2.88604">
        <ele>114.26</ele>
        <time>2020-06-16T08:09:25Z</time>
      </trkpt>
      <trkpt lat="48.18533" lon="2.88603">
        <ele>114.17</ele>
        <time>2020-06-16T08:09:30Z</time>
      </trkpt>
      <trkpt lat="48.18538" lon="2.88604">
        <ele>114.17</ele>
        <time>2020-06-16T08:09:35Z</time>
      </trkpt>
      <trkpt lat="48.18544" lon="2.88605">
        <ele>114.12</ele>
        <time>2020-06-16T08:09:40Z</time>
      </trkpt>
      <trkpt lat="48.1855" lon="2.88605">
        <ele>114.08</ele>
        <time>2020-06-16T08:09:45Z</time>
      </trkpt>
      <trkpt lat="48.18556" lon="2.88605">
        <ele>114.03</ele>
        <time>2020-06-16T08:09:50Z</time>
      </trkpt>
      <trkpt lat="48.18562" lon="2.88605">
        <ele>113.99</ele>
        <time>2020-06-16T08:09:55Z</time>
      </trkpt>
      <trkpt lat="48.18569" lon="2.88605">
        <ele>113.99</ele>
        <time>2020-06-16T08:10:00Z</time>
      </trkpt>
      <trkpt lat="48.18575" lon="2.88605">
        <ele>113.97</ele>
        <time>2020-06-16T08:10:05Z</time>
      </trkpt>
      <trkpt lat="48.1858" lon="2.88605">
        <ele>113.94</ele>
        <time>2020-06-16T08:10:10Z</time>
      </trkpt>
      <trkpt lat="48.18586" lon="2.88605">
        <ele>113.85</ele>
        <time>2020-06-16T08:10:15Z</time>
      </trkpt>
      <trkpt lat="48.18591" lon="2.88605">
        <ele>113.68</ele>
        <time>2020-06-16T08:10:20Z</time>
      </trkpt>
      <trkpt lat="48.18597" lon="2.88605">
        <ele>113.66</ele>
        <time>2020-06-16T08:10:25Z</time>
      </trkpt>
      <trkpt lat="48.18603" lon="2.88606">
        <ele>113.69</ele>
        <time>2020-06-16T08:10:30Z</time>
      </trkpt>
      <trkpt lat="48.18608" lon="2.88606">
        <ele>113.74</ele>
        <time>2020-06-16T08:10:35Z</time>
      </trkpt>
      <trkpt lat="48.18614" lon="2.88606">
        <ele>113.81</ele>
        <time>2020-06-16T08:10:40Z</time>
      </trkpt>
      <trkpt lat="48.18621" lon="2.88606">
        <ele>113.84</ele>
        <time>2020-06-16T08:10:45Z</time>
      </trkpt>
      <trkpt lat="48.18628" lon="2.88605">
        <ele>113.95</ele>
        <time>2020-06-16T08:10:50Z</time>
      </trkpt>
      <trkpt lat="48.18632" lon="2.88606">
        <ele>113.97</ele>
        <time>2020-06-16T08:10:55Z</time>
      </trkpt>
      <trkpt lat="48.18639" lon="2.88605">
        <ele>114.08</ele>
        <time>2020-06-16T08:11:00Z</time>
      </trkpt>
      <trkpt lat="48.18645" lon="2.88606">
        <ele>114.18</ele>
        <time>2020-06-16T08:11:05Z</time>
      </trkpt>
      <trkpt lat="48.18651" lon="2.88606">
        <ele>114.44</ele>
        <time>2020-06-16T08:11:10Z</time>
      </trkpt>
      <trkpt lat="48.18657" lon="2.88605">
        <ele>114.39</ele>
        <time>2020-06-16T08:11:15Z</time>
      </trkpt>
      <trkpt lat="48.18663" lon="2.88605">
        <ele>114.48</ele>
        <time>2020-06-16T08:11:20Z</time>
      </trkpt>
      <trkpt lat="48.18669" lon="2.88605">
        <ele>114.58</ele>
        <time>2020-06-16T08:11:25Z</time>
      </trkpt>
      <trkpt lat="48.18674" lon="2.88606">
        <ele>114.6</ele>
        <time>2020-06-16T08:11:30Z</time>
      </trkpt>
      <trkpt lat="48.1868" lon="2.88605">
        <ele>114.6</ele>
        <time>2020-06-16T08:11:35Z</time>
      </trkpt>
      <trkpt lat="48.18686" lon="2.88606">
        <ele>114.55</ele>
        <time>2020-06-16T08:11:40Z</time>
      </trkpt>
      <trkpt lat="48.18692" lon="2.88605">
        <ele>114.7</ele>
        <time>2020-06-16T08:11:45Z</time>
      </trkpt>
      <trkpt lat="48.18697" lon="2.88606">
        <ele>114.68</ele>
        <time>2020-06-16T08:11:50Z</time>
      </trkpt>
      <trkpt lat="48.18703" lon="2.88606">
        <ele>114.68</ele>
        <time>2020-06-16T08:11:55Z</time>
      </trkpt>
      <trkpt lat="48.18709" lon="2.88605">
        <ele>114.73</ele>
        <time>2020-06-16T08:12:00Z</time>
      </trkpt>
      <trkpt lat="48.18714" lon="2.88605">
        <ele>114.73</ele>
        <time>2020-06-16T08:12:05Z</time>
      </trkpt>
      <trkpt lat="48.18719" lon="2.88604">
        <ele>114.7</ele>
        <time>2020-06-16T08:12:10Z</time>
      </trkpt>
      <trkpt lat="48.18725" lon="2.88605">
        <ele>114.74</ele>
        <time>2020-06-16T08:12:15Z</time>
      </trkpt>
      <trkpt lat="48.18731" lon="2.88605">
        <ele>114.46</ele>
        <time>2020-06-16T08:12:20Z</time>
      </trkpt>
      <trkpt lat="48.18738" lon="2.88605">
        <ele>114.4</ele>
        <time>2020-06-16T08:12:25Z</time>
      </trkpt>
      <trkpt lat="48.18743" lon="2.88606">
        <ele>114.3</ele>
        <time>2020-06-16T08:12:30Z</time>
      </trkpt>
      <trkpt lat="48.18748" lon="2.88606">
        <ele>114.21</ele>
        <time>2020-06-16T08:12:35Z</time>
      </trkpt>
      <trkpt lat="48.18754" lon="2.88606">
        <ele>114.09</ele>
        <time>2020-06-16T08:12:40Z</time>
      </trkpt>
      <trkpt lat="48.18761" lon="2.88606">
        <ele>113.87</ele>
        <time>2020-06-16T08:12:45Z</time>
      </trkpt>
      <trkpt lat="48.18767" lon="2.88606">
        <ele>113.72</ele>
        <time>2020-06-16T08:12:50Z</time>
      </trkpt>
      <trkpt lat="48.18773" lon="2.88605">
        <ele>113.6</ele>
        <time>2020-06-16T08:12:55Z</time>
      </trkpt>
      <trkpt lat="48.18779" lon="2.88606">
        <ele>113.54</ele>
        <time>2020-06-16T08:13:00Z</time>
      </trkpt>
      <trkpt lat="48.18785" lon="2.88606">
        <ele>113.52</ele>
        <time>2020-06-16T08:13:05Z</time>
      </trkpt>
      <trkpt lat="48.1879" lon="2.88607">
        <ele>113.64</ele>
        <time>2020-06-16T08:13:10Z</time>
      </trkpt>
      <trkpt lat="48.18797" lon="2.88607">
        <ele>113.87</ele>
        <time>2020-06-16T08:13:15Z</time>
      </trkpt>
      <trkpt lat="48.18802" lon="2.88606">
        <ele>113.75</ele>
        <time>2020-06-16T08:13:20Z</time>
      </trkpt>
      <trkpt lat="48.18808" lon="2.88607">
        <ele>113.66</ele>
        <time>2020-06-16T08:13:25Z</time>
      </trkpt>
      <trkpt lat="48.18814" lon="2.88607">
        <ele>113.78</ele>
        <time>2020-06-16T08:13:30Z</time>
      </trkpt>
      <trkpt lat="48.18819" lon="2.88607">
        <ele>113.93</ele>
        <time>2020-06-16T08:13:35Z</time>
      </trkpt>
      <trkpt lat="48.18825" lon="2.88607">
        <ele>113.89</ele>
        <time>2020-06-16T08:13:40Z</time>
      </trkpt>
      <trkpt lat="48.1883" lon="2.88606">
        <ele>113.8</ele>
        <time>2020-06-16T08:13:45Z</time>
      </trkpt>
      <trkpt lat="48.18836" lon="2.88607">
        <ele>113.74</ele>
        <time>2020-06-16T08:13:50Z</time>
      </trkpt>
      <trkpt lat="48.18842" lon="2.88607">
        <ele>113.74</ele>
        <time>2020-06-16T08:13:55Z</time>
      </trkpt>
      <trkpt lat="48.18848" lon="2.88607">
        <ele>113.67</ele>
        <time>2020-06-16T08:14:00Z</time>
      </trkpt>
      <trkpt lat="48.18854" lon="2.88607">
        <ele>113.62</ele>
        <time>2020-06-16T08:14:05Z</time>
      </trkpt>
      <trkpt lat="48.18857" lon="2.88607">
        <ele>113.63</ele>
        <time>2020-06-16T08:14:10Z</time>
      </trkpt>
      <trkpt lat="48.18862" lon="2.88608">
        <ele>113.67</ele>
        <time>2020-06-16T08:14:15Z</time>
      </trkpt>
      <trkpt lat="48.18868" lon="2.88607">
        <ele>113.66</ele>
        <time>2020-06-16T08:14:20Z</time>
      </trkpt>
      <trkpt lat="48.18873" lon="2.88607">
        <ele>113.72</ele>
        <time>2020-06-16T08:14:25Z</time>
      </trkpt>
      <trkpt lat="48.18878" lon="2.88607">
        <ele>113.85</ele>
        <time>2020-06-16T08:14:30Z</time>
      </trkpt>
      <trkpt lat="48.18885" lon="2.88606">
        <ele>113.88</ele>
        <time>2020-06-16T08:14:35Z</time>
      </trkpt>
      <trkpt lat="48.18891" lon="2.88607">
        <ele>113.89</ele>
        <time>2020-06-16T08:14:40Z</time>
      </trkpt>
      <trkpt lat="48.18896" lon="2.88607">
        <ele>113.89</ele>
        <time>2020-06-16T08:14:45Z</time>
      </trkpt>
      <trkpt lat="48.18901" lon="2.88608">
        <ele>113.95</ele>
        <time>2020-06-16T08:14:50Z</time>
      </trkpt>
      <trkpt lat="48.18908" lon="2.88607">
        <ele>114.08</ele>
        <time>2020-06-16T08:14:55Z</time>
      </trkpt>
      <trkpt lat="48.18914" lon="2.88607">
        <ele>114.24</ele>
        <time>2020-06-16T08:15:00Z</time>
      </trkpt>
      <trkpt lat="48.1892" lon="2.88607">
        <ele>114.15</ele>
        <time>2020-06-16T08:15:05Z</time>
      </trkpt>
      <trkpt lat="48.18926" lon="2.88607">
        <ele>114.17</ele>
        <time>2020-06-16T08:15:10Z</time>
      </trkpt>
      <trkpt lat="48.18932" lon="2.88608">
        <ele>114.18</ele>
        <time>2020-06-16T08:15:15Z</time>
      </trkpt>
      <trkpt lat="48.18938" lon="2.88607">
        <ele>114.19</ele>
        <time>2020-06-16T08:15:20Z</time>
      </trkpt>
      <trkpt lat="48.18943" lon="2.88607">
        <ele>114.23</ele>
        <time>2020-06-16T08:15:25Z</time>
      </trkpt>
      <trkpt lat="48.18948" lon="2.88607">
        <ele>114.26</ele>
        <time>2020-06-16T08:15:30Z</time>
      </trkpt>
      <trkpt lat="48.18954" lon="2.88608">
        <ele>114.44</ele>
        <time>2020-06-16T08:15:35Z</time>
      </trkpt>
      <trkpt lat="48.18961" lon="2.88607">
        <ele>114.4</ele>
        <time>2020-06-16T08:15:40Z</time>
      </trkpt>
      <trkpt lat="48.18967" lon="2.88607">
        <ele>114.33</ele>
        <time>2020-06-16T08:15:45Z</time>
      </trkpt>
      <trkpt lat="48.18973" lon="2.88607">
        <ele>114.35</ele>
        <time>2020-06-16T08:15:50Z</time>
      </trkpt>
      <trkpt lat="48.18979" lon="2.88607">
        <ele>114.4</ele>
        <time>2020-06-16T08:15:55Z</time>
      </trkpt>
      <trkpt lat="48.18984" lon="2.88608">
        <ele>114.5</ele>
        <time>2020-06-16T08:16:00Z</time>
      </trkpt>
      <trkpt lat="48.1899" lon="2.88609">
        <ele>114.53</ele>
        <time>2020-06-16T08:16:05Z</time>
      </trkpt>
      <trkpt lat="48.18996" lon="2.8861">
        <ele>114.51</ele>
        <time>2020-06-16T08:16:10Z</time>
      </trkpt>
      <trkpt lat="48.19002" lon="2.88609">
        <ele>114.61</ele>
        <time>2020-06-16T08:16:15Z</time>
      </trkpt>
      <trkpt lat="48.19008" lon="2.88609">
        <ele>114.63</ele>
        <time>2020-06-16T08:16:20Z</time>
      </trkpt>
      <trkpt lat="48.19015" lon="2.8861">
        <ele>114.69</ele>
        <time>2020-06-16T08:16:25Z</time>
      </trkpt>
      <trkpt lat="48.1902" lon="2.88609">
        <ele>114.74</ele>
        <time>2020-06-16T08:16:30Z</time>
      </trkpt>
      <trkpt lat="48.19026" lon="2.88609">
        <ele>114.82</ele>
        <time>2020-06-16T08:16:35Z</time>
      </trkpt>
      <trkpt lat="48.19033" lon="2.88609">
        <ele>114.82</ele>
        <time>2020-06-16T08:16:40Z</time>
      </trkpt>
      <trkpt lat="48.19039" lon="2.88609">
        <ele>114.77</ele>
        <time>2020-06-16T08:16:45Z</time>
      </trkpt>
      <trkpt lat="48.19044" lon="2.88609">
        <ele>114.8</ele>
        <time>2020-06-16T08:16:50Z</time>
      </trkpt>
      <trkpt lat="48.19051" lon="2.88609">
        <ele>114.84</ele>
        <time>2020-06-16T08:16:55Z</time>
      </trkpt>
      <trkpt lat="48.19057" lon="2.88609">
        <ele>114.82</ele>
        <time>2020-06-16T08:17:00Z</time>
      </trkpt>
      <trkpt lat="48.19062" lon="2.88608">
        <ele>114.71</ele>
        <time>2020-06-16T08:17:05Z</time>
      </trkpt>
      <trkpt lat="48.19069" lon="2.88609">
        <ele>114.68</ele>
        <time>2020-06-16T08:17:10Z</time>
      </trkpt>
      <trkpt lat="48.19076" lon="2.8861">
        <ele>114.63</ele>
        <time>2020-06-16T08:17:15Z</time>
      </trkpt>
      <trkpt lat="48.19081" lon="2.8861">
        <ele>114.5</ele>
        <time>2020-06-16T08:17:20Z</time>
      </trkpt>
      <trkpt lat="48.19086" lon="2.8861">
        <ele>114.36</ele>
        <time>2020-06-16T08:17:25Z</time>
      </trkpt>
      <trkpt lat="48.19093" lon="2.88609">
        <ele>114.23</ele>
        <time>2020-06-16T08:17:30Z</time>
      </trkpt>
      <trkpt lat="48.191" lon="2.88609">
        <ele>114.2</ele>
        <time>2020-06-16T08:17:35Z</time>
      </trkpt>
      <trkpt lat="48.19106" lon="2.88609">
        <ele>114.16</ele>
        <time>2020-06-16T08:17:40Z</time>
      </trkpt>
      <trkpt lat="48.19112" lon="2.88609">
        <ele>114.07</ele>
        <time>2020-06-16T08:17:45Z</time>
      </trkpt>
      <trkpt lat="48.19118" lon="2.88609">
        <ele>114.05</ele>
        <time>2020-06-16T08:17:50Z</time>
      </trkpt>
      <trkpt lat="48.19124" lon="2.8861">
        <ele>113.94</ele>
        <time>2020-06-16T08:17:55Z</time>
      </trkpt>
      <trkpt lat="48.1913" lon="2.88609">
        <ele>114.01</ele>
        <time>2020-06-16T08:18:00Z</time>
      </trkpt>
      <trkpt lat="48.19136" lon="2.8861">
        <ele>114.01</ele>
        <time>2020-06-16T08:18:05Z</time>
      </trkpt>
      <trkpt lat="48.19142" lon="2.8861">
        <ele>114.03</ele>
        <time>2020-06-16T08:18:10Z</time>
      </trkpt>
      <trkpt lat="48.19148" lon="2.88609">
        <ele>114.07</ele>
        <time>2020-06-16T08:18:15Z</time>
      </trkpt>
      <trkpt lat="48.19154" lon="2.88609">
        <ele>114</ele>
        <time>2020-06-16T08:18:20Z</time>
      </trkpt>
      <trkpt lat="48.19161" lon="2.88609">
        <ele>114.12</ele>
        <time>2020-06-16T08:18:25Z</time>
      </trkpt>
      <trkpt lat="48.19167" lon="2.8861">
        <ele>113.99</ele>
        <time>2020-06-16T08:18:30Z</time>
      </trkpt>
      <trkpt lat="48.19172" lon="2.88609">
        <ele>113.97</ele>
        <time>2020-06-16T08:18:35Z</time>
      </trkpt>
      <trkpt lat="48.19179" lon="2.8861">
        <ele>114.01</ele>
        <time>2020-06-16T08:18:40Z</time>
      </trkpt>
      <trkpt lat="48.19185" lon="2.8861">
        <ele>113.99</ele>
        <time>2020-06-16T08:18:45Z</time>
      </trkpt>
      <trkpt lat="48.1919" lon="2.88609">
        <ele>113.93</ele>
        <time>2020-06-16T08:18:50Z</time>
      </trkpt>
      <trkpt lat="48.19195" lon="2.8861">
        <ele>114.02</ele>
        <time>2020-06-16T08:18:55Z</time>
      </trkpt>
      <trkpt lat="48.19203" lon="2.8861">
        <ele>114.03</ele>
        <time>2020-06-16T08:19:00Z</time>
      </trkpt>
      <trkpt lat="48.19209" lon="2.8861">
        <ele>114.09</ele>
        <time>2020-06-16T08:19:05Z</time>
      </trkpt>
      <trkpt lat="48.19215" lon="2.8861">
        <ele>114.17</ele>
        <time>2020-06-16T08:19:10Z</time>
      </trkpt>
      <trkpt lat="48.19222" lon="2.8861">
        <ele>114.2</ele>
        <time>2020-06-16T08:19:15Z</time>
      </trkpt>
      <trkpt lat="48.19227" lon="2.88611">
        <ele>114.17</ele>
        <time>2020-06-16T08:19:20Z</time>
      </trkpt>
      <trkpt lat="48.19233" lon="2.88609">
        <ele>114.23</ele>
        <time>2020-06-16T08:19:25Z</time>
      </trkpt>
      <trkpt lat="48.1924" lon="2.8861">
        <ele>114.26</ele>
        <time>2020-06-16T08:19:30Z</time>
      </trkpt>
      <trkpt lat="48.19245" lon="2.8861">
        <ele>114.39</ele>
        <time>2020-06-16T08:19:35Z</time>
      </trkpt>
      <trkpt lat="48.19252" lon="2.8861">
        <ele>114.47</ele>
        <time>2020-06-16T08:19:40Z</time>
      </trkpt>
      <trkpt lat="48.19257" lon="2.8861">
        <ele>114.64</ele>
        <time>2020-06-16T08:19:45Z</time>
      </trkpt>
      <trkpt lat="48.19262" lon="2.8861">
        <ele>114.73</ele>
        <time>2020-06-16T08:19:50Z</time>
      </trkpt>
      <trkpt lat="48.19268" lon="2.8861">
        <ele>114.82</ele>
        <time>2020-06-16T08:19:55Z</time>
      </trkpt>
      <trkpt lat="48.19269" lon="2.8861">
        <ele>115.15</ele>
        <time>2020-06-16T08:20:00Z</time>
      </trkpt>
      <trkpt lat="48.19274" lon="2.8861">
        <ele>115.07</ele>
        <time>2020-06-16T08:20:05Z</time>
      </trkpt>
      <trkpt lat="48.1928" lon="2.8861">
        <ele>115.14</ele>
        <time>2020-06-16T08:20:10Z</time>
      </trkpt>
      <trkpt lat="48.19286" lon="2.88609">
        <ele>115.2</ele>
        <time>2020-06-16T08:20:15Z</time>
      </trkpt>
      <trkpt lat="48.19292" lon="2.8861">
        <ele>115.22</ele>
        <time>2020-06-16T08:20:20Z</time>
      </trkpt>
      <trkpt lat="48.19297" lon="2.88609">
        <ele>115.22</ele>
        <time>2020-06-16T08:20:25Z</time>
      </trkpt>
      <trkpt lat="48.19302" lon="2.8861">
        <ele>115.1</ele>
        <time>2020-06-16T08:20:30Z</time>
      </trkpt>
      <trkpt lat="48.19304" lon="2.88611">
        <ele>115.09</ele>
        <time>2020-06-16T08:20:35Z</time>
      </trkpt>
      <trkpt lat="48.19309" lon="2.8861">
        <ele>114.89</ele>
        <time>2020-06-16T08:20:40Z</time>
      </trkpt>
      <trkpt lat="48.1931" lon="2.88611">
        <ele>114.69</ele>
        <time>2020-06-16T08:20:45Z</time>
      </trkpt>
      <trkpt lat="48.19311" lon="2.8861">
        <ele>114.63</ele>
        <time>2020-06-16T08:20:50Z</time>
      </trkpt>
      <trkpt lat="48.19315" lon="2.88611">
        <ele>114.57</ele>
        <time>2020-06-16T08:20:55Z</time>
      </trkpt>
      <trkpt lat="48.19318" lon="2.88611">
        <ele>114.57</ele>
        <time>2020-06-16T08:21:00Z</time>
      </trkpt>
      <trkpt lat="48.19324" lon="2.88612">
        <ele>114.53</ele>
        <time>2020-06-16T08:21:05Z</time>
      </trkpt>
      <trkpt lat="48.1933" lon="2.88612">
        <ele>114.34</ele>
        <time>2020-06-16T08:21:10Z</time>
      </trkpt>
      <trkpt lat="48.19336" lon="2.88611">
        <ele>114.14</ele>
        <time>2020-06-16T08:21:15Z</time>
      </trkpt>
      <trkpt lat="48.19342" lon="2.88609">
        <ele>114.09</ele>
        <time>2020-06-16T08:21:20Z</time>
      </trkpt>
      <trkpt lat="48.19349" lon="2.8861">
        <ele>113.97</ele>
        <time>2020-06-16T08:21:25Z</time>
      </trkpt>
      <trkpt lat="48.19357" lon="2.88609">
        <ele>113.84</ele>
        <time>2020-06-16T08:21:30Z</time>
      </trkpt>
      <trkpt lat="48.19365" lon="2.8861">
        <ele>113.77</ele>
        <time>2020-06-16T08:21:35Z</time>
      </trkpt>
      <trkpt lat="48.19373" lon="2.88611">
        <ele>113.65</ele>
        <time>2020-06-16T08:21:40Z</time>
      </trkpt>
      <trkpt lat="48.1938" lon="2.88612">
        <ele>113.57</ele>
        <time>2020-06-16T08:21:45Z</time>
      </trkpt>
      <trkpt lat="48.19386" lon="2.88613">
        <ele>113.42</ele>
        <time>2020-06-16T08:21:50Z</time>
      </trkpt>
      <trkpt lat="48.19392" lon="2.88613">
        <ele>113.42</ele>
        <time>2020-06-16T08:21:55Z</time>
      </trkpt>
      <trkpt lat="48.19398" lon="2.88613">
        <ele>113.33</ele>
        <time>2020-06-16T08:22:00Z</time>
      </trkpt>
      <trkpt lat="48.19405" lon="2.88613">
        <ele>113.29</ele>
        <time>2020-06-16T08:22:05Z</time>
      </trkpt>
      <trkpt lat="48.19411" lon="2.88613">
        <ele>113.36</ele>
        <time>2020-06-16T08:22:10Z</time>
      </trkpt>
      <trkpt lat="48.19417" lon="2.88615">
        <ele>113.32</ele>
        <time>2020-06-16T08:22:15Z</time>
      </trkpt>
      <trkpt lat="48.1942" lon="2.88622">
        <ele>113.29</ele>
        <time>2020-06-16T08:22:20Z</time>
      </trkpt>
      <trkpt lat="48.19419" lon="2.88631">
        <ele>113.27</ele>
        <time>2020-06-16T08:22:25Z</time>
      </trkpt>
      <trkpt lat="48.19419" lon="2.8864">
        <ele>113.34</ele>
        <time>2020-06-16T08:22:30Z</time>
      </trkpt>
      <trkpt lat="48.19418" lon="2.88648">
        <ele>113.34</ele>
        <time>2020-06-16T08:22:35Z</time>
      </trkpt>
      <trkpt lat="48.19418" lon="2.88657">
        <ele>113.61</ele>
        <time>2020-06-16T08:22:40Z</time>
      </trkpt>
      <trkpt lat="48.19417" lon="2.88665">
        <ele>113.68</ele>
        <time>2020-06-16T08:22:45Z</time>
      </trkpt>
      <trkpt lat="48.19416" lon="2.88674">
        <ele>113.71</ele>
        <time>2020-06-16T08:22:50Z</time>
      </trkpt>
      <trkpt lat="48.19415" lon="2.88682">
        <ele>113.79</ele>
        <time>2020-06-16T08:22:55Z</time>
      </trkpt>
      <trkpt lat="48.19415" lon="2.8869">
        <ele>114.07</ele>
        <time>2020-06-16T08:23:00Z</time>
      </trkpt>
      <trkpt lat="48.19413" lon="2.88699">
        <ele>114.35</ele>
        <time>2020-06-16T08:23:05Z</time>
      </trkpt>
      <trkpt lat="48.19413" lon="2.88707">
        <ele>114.35</ele>
        <time>2020-06-16T08:23:10Z</time>
      </trkpt>
      <trkpt lat="48.19412" lon="2.88716">
        <ele>114.44</ele>
        <time>2020-06-16T08:23:15Z</time>
      </trkpt>
      <trkpt lat="48.19411" lon="2.88724">
        <ele>114.43</ele>
        <time>2020-06-16T08:23:20Z</time>
      </trkpt>
      <trkpt lat="48.1941" lon="2.88733">
        <ele>114.38</ele>
        <time>2020-06-16T08:23:25Z</time>
      </trkpt>
      <trkpt lat="48.19409" lon="2.88741">
        <ele>114.4</ele>
        <time>2020-06-16T08:23:30Z</time>
      </trkpt>
      <trkpt lat="48.19408" lon="2.88749">
        <ele>114.45</ele>
        <time>2020-06-16T08:23:35Z</time>
      </trkpt>
      <trkpt lat="48.19407" lon="2.88757">
        <ele>114.43</ele>
        <time>2020-06-16T08:23:40Z</time>
      </trkpt>
      <trkpt lat="48.19406" lon="2.88765">
        <ele>114.5</ele>
        <time>2020-06-16T08:23:45Z</time>
      </trkpt>
      <trkpt lat="48.19405" lon="2.88773">
        <ele>114.66</ele>
        <time>2020-06-16T08:23:50Z</time>
      </trkpt>
      <trkpt lat="48.19404" lon="2.8878">
        <ele>114.79</ele>
        <time>2020-06-16T08:23:55Z</time>
      </trkpt>
      <trkpt lat="48.19403" lon="2.88787">
        <ele>114.82</ele>
        <time>2020-06-16T08:24:00Z</time>
      </trkpt>
      <trkpt lat="48.19402" lon="2.88795">
        <ele>115</ele>
        <time>2020-06-16T08:24:05Z</time>
      </trkpt>
      <trkpt lat="48.19401" lon="2.88803">
        <ele>115.05</ele>
        <time>2020-06-16T08:24:10Z</time>
      </trkpt>
      <trkpt lat="48.19401" lon="2.88811">
        <ele>115.08</ele>
        <time>2020-06-16T08:24:15Z</time>
      </trkpt>
      <trkpt lat="48.19399" lon="2.88819">
        <ele>115.19</ele>
        <time>2020-06-16T08:24:20Z</time>
      </trkpt>
      <trkpt lat="48.194" lon="2.88829">
        <ele>115.12</ele>
        <time>2020-06-16T08:24:25Z</time>
      </trkpt>
      <trkpt lat="48.19399" lon="2.88839">
        <ele>115.01</ele>
        <time>2020-06-16T08:24:30Z</time>
      </trkpt>
      <trkpt lat="48.19397" lon="2.88847">
        <ele>114.88</ele>
        <time>2020-06-16T08:24:35Z</time>
      </trkpt>
      <trkpt lat="48.19397" lon="2.88855">
        <ele>114.88</ele>
        <time>2020-06-16T08:24:40Z</time>
      </trkpt>
      <trkpt lat="48.19396" lon="2.88863">
        <ele>114.85</ele>
        <time>2020-06-16T08:24:45Z</time>
      </trkpt>
      <trkpt lat="48.19395" lon="2.88871">
        <ele>114.71</ele>
        <time>2020-06-16T08:24:50Z</time>
      </trkpt>
      <trkpt lat="48.19395" lon="2.8888">
        <ele>114.65</ele>
        <time>2020-06-16T08:24:55Z</time>
      </trkpt>
      <trkpt lat="48.19395" lon="2.8889">
        <ele>114.58</ele>
        <time>2020-06-16T08:25:00Z</time>
      </trkpt>
      <trkpt lat="48.19393" lon="2.88898">
        <ele>114.57</ele>
        <time>2020-06-16T08:25:05Z</time>
      </trkpt>
      <trkpt lat="48.19392" lon="2.88906">
        <ele>114.59</ele>
        <time>2020-06-16T08:25:10Z</time>
      </trkpt>
      <trkpt lat="48.19391" lon="2.88914">
        <ele>114.58</ele>
        <time>2020-06-16T08:25:15Z</time>
      </trkpt>
      <trkpt lat="48.1939" lon="2.88923">
        <ele>114.53</ele>
        <time>2020-06-16T08:25:20Z</time>
      </trkpt>
      <trkpt lat="48.19388" lon="2.88932">
        <ele>114.51</ele>
        <time>2020-06-16T08:25:25Z</time>
      </trkpt>
      <trkpt lat="48.19387" lon="2.88941">
        <ele>114.35</ele>
        <time>2020-06-16T08:25:30Z</time>
      </trkpt>
      <trkpt lat="48.19387" lon="2.88949">
        <ele>114.22</ele>
        <time>2020-06-16T08:25:35Z</time>
      </trkpt>
      <trkpt lat="48.19387" lon="2.88958">
        <ele>114.17</ele>
        <time>2020-06-16T08:25:40Z</time>
      </trkpt>
      <trkpt lat="48.19385" lon="2.88967">
        <ele>113.91</ele>
        <time>2020-06-16T08:25:46Z</time>
      </trkpt>
      <trkpt lat="48.19385" lon="2.88974">
        <ele>113.85</ele>
        <time>2020-06-16T08:25:50Z</time>
      </trkpt>
      <trkpt lat="48.19384" lon="2.88984">
        <ele>113.76</ele>
        <time>2020-06-16T08:25:56Z</time>
      </trkpt>
      <trkpt lat="48.19383" lon="2.88993">
        <ele>113.73</ele>
        <time>2020-06-16T08:26:01Z</time>
      </trkpt>
      <trkpt lat="48.19382" lon="2.89002">
        <ele>113.59</ele>
        <time>2020-06-16T08:26:06Z</time>
      </trkpt>
      <trkpt lat="48.19381" lon="2.89014">
        <ele>113.39</ele>
        <time>2020-06-16T08:26:12Z</time>
      </trkpt>
      <trkpt lat="48.1938" lon="2.89025">
        <ele>113.32</ele>
        <time>2020-06-16T08:26:18Z</time>
      </trkpt>
      <trkpt lat="48.19379" lon="2.89034">
        <ele>113.29</ele>
        <time>2020-06-16T08:26:23Z</time>
      </trkpt>
      <trkpt lat="48.19379" lon="2.89043">
        <ele>113.29</ele>
        <time>2020-06-16T08:26:28Z</time>
      </trkpt>
      <trkpt lat="48.19378" lon="2.89053">
        <ele>113.19</ele>
        <time>2020-06-16T08:26:33Z</time>
      </trkpt>
      <trkpt lat="48.19377" lon="2.89063">
        <ele>112.96</ele>
        <time>2020-06-16T08:26:38Z</time>
      </trkpt>
      <trkpt lat="48.19377" lon="2.89072">
        <ele>113.11</ele>
        <time>2020-06-16T08:26:43Z</time>
      </trkpt>
      <trkpt lat="48.19376" lon="2.89081">
        <ele>113.17</ele>
        <time>2020-06-16T08:26:48Z</time>
      </trkpt>
      <trkpt lat="48.19376" lon="2.8909">
        <ele>113.09</ele>
        <time>2020-06-16T08:26:53Z</time>
      </trkpt>
      <trkpt lat="48.19376" lon="2.89098">
        <ele>112.96</ele>
        <time>2020-06-16T08:26:58Z</time>
      </trkpt>
      <trkpt lat="48.19375" lon="2.89108">
        <ele>113.03</ele>
        <time>2020-06-16T08:27:03Z</time>
      </trkpt>
      <trkpt lat="48.19374" lon="2.89117">
        <ele>113.02</ele>
        <time>2020-06-16T08:27:08Z</time>
      </trkpt>
      <trkpt lat="48.19374" lon="2.89127">
        <ele>113.05</ele>
        <time>2020-06-16T08:27:13Z</time>
      </trkpt>
      <trkpt lat="48.19374" lon="2.89136">
        <ele>112.94</ele>
        <time>2020-06-16T08:27:18Z</time>
      </trkpt>
      <trkpt lat="48.19373" lon="2.89145">
        <ele>112.9</ele>
        <time>2020-06-16T08:27:23Z</time>
      </trkpt>
      <trkpt lat="48.19373" lon="2.89154">
        <ele>112.85</ele>
        <time>2020-06-16T08:27:28Z</time>
      </trkpt>
      <trkpt lat="48.19372" lon="2.89162">
        <ele>112.73</ele>
        <time>2020-06-16T08:27:33Z</time>
      </trkpt>
      <trkpt lat="48.19371" lon="2.8917">
        <ele>112.75</ele>
        <time>2020-06-16T08:27:38Z</time>
      </trkpt>
      <trkpt lat="48.1937" lon="2.89179">
        <ele>112.78</ele>
        <time>2020-06-16T08:27:43Z</time>
      </trkpt>
      <trkpt lat="48.1937" lon="2.89187">
        <ele>112.78</ele>
        <time>2020-06-16T08:27:48Z</time>
      </trkpt>
      <trkpt lat="48.1937" lon="2.89194">
        <ele>112.86</ele>
        <time>2020-06-16T08:27:53Z</time>
      </trkpt>
      <trkpt lat="48.1937" lon="2.89203">
        <ele>113.05</ele>
        <time>2020-06-16T08:27:58Z</time>
      </trkpt>
      <trkpt lat="48.19371" lon="2.8921">
        <ele>112.97</ele>
        <time>2020-06-16T08:28:03Z</time>
      </trkpt>
      <trkpt lat="48.1937" lon="2.8922">
        <ele>112.91</ele>
        <time>2020-06-16T08:28:08Z</time>
      </trkpt>
      <trkpt lat="48.1937" lon="2.89227">
        <ele>112.9</ele>
        <time>2020-06-16T08:28:13Z</time>
      </trkpt>
      <trkpt lat="48.19369" lon="2.89236">
        <ele>112.96</ele>
        <time>2020-06-16T08:28:18Z</time>
      </trkpt>
      <trkpt lat="48.19367" lon="2.89245">
        <ele>113.04</ele>
        <time>2020-06-16T08:28:23Z</time>
      </trkpt>
      <trkpt lat="48.19366" lon="2.89254">
        <ele>113.09</ele>
        <time>2020-06-16T08:28:28Z</time>
      </trkpt>
      <trkpt lat="48.19365" lon="2.89265">
        <ele>113.05</ele>
        <time>2020-06-16T08:28:33Z</time>
      </trkpt>
      <trkpt lat="48.19365" lon="2.89274">
        <ele>113.09</ele>
        <time>2020-06-16T08:28:38Z</time>
      </trkpt>
      <trkpt lat="48.19365" lon="2.89284">
        <ele>112.85</ele>
        <time>2020-06-16T08:28:43Z</time>
      </trkpt>
      <trkpt lat="48.19365" lon="2.89293">
        <ele>112.84</ele>
        <time>2020-06-16T08:28:48Z</time>
      </trkpt>
      <trkpt lat="48.19365" lon="2.89302">
        <ele>112.95</ele>
        <time>2020-06-16T08:28:53Z</time>
      </trkpt>
      <trkpt lat="48.19365" lon="2.8931">
        <ele>112.96</ele>
        <time>2020-06-16T08:28:58Z</time>
      </trkpt>
      <trkpt lat="48.19365" lon="2.89318">
        <ele>113</ele>
        <time>2020-06-16T08:29:03Z</time>
      </trkpt>
      <trkpt lat="48.19365" lon="2.89327">
        <ele>113.02</ele>
        <time>2020-06-16T08:29:08Z</time>
      </trkpt>
      <trkpt lat="48.19364" lon="2.89336">
        <ele>113.05</ele>
        <time>2020-06-16T08:29:13Z</time>
      </trkpt>
      <trkpt lat="48.19364" lon="2.89345">
        <ele>113.03</ele>
        <time>2020-06-16T08:29:18Z</time>
      </trkpt>
      <trkpt lat="48.19364" lon="2.89354">
        <ele>112.95</ele>
        <time>2020-06-16T08:29:23Z</time>
      </trkpt>
      <trkpt lat="48.19364" lon="2.89363">
        <ele>113.03</ele>
        <time>2020-06-16T08:29:28Z</time>
      </trkpt>
      <trkpt lat="48.19364" lon="2.89372">
        <ele>113.05</ele>
        <time>2020-06-16T08:29:33Z</time>
      </trkpt>
      <trkpt lat="48.19364" lon="2.89381">
        <ele>113.05</ele>
        <time>2020-06-16T08:29:38Z</time>
      </trkpt>
      <trkpt lat="48.19365" lon="2.89389">
        <ele>113.06</ele>
        <time>2020-06-16T08:29:43Z</time>
      </trkpt>
      <trkpt lat="48.19366" lon="2.89397">
        <ele>113.17</ele>
        <time>2020-06-16T08:29:48Z</time>
      </trkpt>
      <trkpt lat="48.19366" lon="2.89405">
        <ele>113.23</ele>
        <time>2020-06-16T08:29:53Z</time>
      </trkpt>
      <trkpt lat="48.19367" lon="2.89414">
        <ele>113.39</ele>
        <time>2020-06-16T08:29:58Z</time>
      </trkpt>
      <trkpt lat="48.19369" lon="2.89422">
        <ele>113.44</ele>
        <time>2020-06-16T08:30:03Z</time>
      </trkpt>
      <trkpt lat="48.1937" lon="2.89431">
        <ele>113.43</ele>
        <time>2020-06-16T08:30:08Z</time>
      </trkpt>
      <trkpt lat="48.19371" lon="2.8944">
        <ele>113.47</ele>
        <time>2020-06-16T08:30:13Z</time>
      </trkpt>
      <trkpt lat="48.19373" lon="2.89449">
        <ele>113.43</ele>
        <time>2020-06-16T08:30:18Z</time>
      </trkpt>
      <trkpt lat="48.19373" lon="2.89457">
        <ele>113.33</ele>
        <time>2020-06-16T08:30:23Z</time>
      </trkpt>
      <trkpt lat="48.19374" lon="2.89467">
        <ele>113.24</ele>
        <time>2020-06-16T08:30:28Z</time>
      </trkpt>
      <trkpt lat="48.19375" lon="2.89475">
        <ele>113.15</ele>
        <time>2020-06-16T08:30:33Z</time>
      </trkpt>
      <trkpt lat="48.19376" lon="2.89484">
        <ele>113.05</ele>
        <time>2020-06-16T08:30:38Z</time>
      </trkpt>
      <trkpt lat="48.19377" lon="2.89492">
        <ele>113.02</ele>
        <time>2020-06-16T08:30:43Z</time>
      </trkpt>
      <trkpt lat="48.19379" lon="2.89501">
        <ele>113.1</ele>
        <time>2020-06-16T08:30:48Z</time>
      </trkpt>
      <trkpt lat="48.1938" lon="2.8951">
        <ele>113.05</ele>
        <time>2020-06-16T08:30:53Z</time>
      </trkpt>
      <trkpt lat="48.19381" lon="2.89517">
        <ele>113.02</ele>
        <time>2020-06-16T08:30:58Z</time>
      </trkpt>
      <trkpt lat="48.19382" lon="2.89526">
        <ele>113.23</ele>
        <time>2020-06-16T08:31:03Z</time>
      </trkpt>
      <trkpt lat="48.19384" lon="2.89534">
        <ele>113.16</ele>
        <time>2020-06-16T08:31:08Z</time>
      </trkpt>
      <trkpt lat="48.19389" lon="2.89539">
        <ele>113.17</ele>
        <time>2020-06-16T08:31:13Z</time>
      </trkpt>
      <trkpt lat="48.19394" lon="2.89546">
        <ele>113.13</ele>
        <time>2020-06-16T08:31:18Z</time>
      </trkpt>
      <trkpt lat="48.19399" lon="2.89553">
        <ele>113.08</ele>
        <time>2020-06-16T08:31:23Z</time>
      </trkpt>
      <trkpt lat="48.19403" lon="2.89559">
        <ele>113.02</ele>
        <time>2020-06-16T08:31:28Z</time>
      </trkpt>
      <trkpt lat="48.19407" lon="2.89565">
        <ele>112.95</ele>
        <time>2020-06-16T08:31:33Z</time>
      </trkpt>
      <trkpt lat="48.19411" lon="2.89572">
        <ele>112.95</ele>
        <time>2020-06-16T08:31:38Z</time>
      </trkpt>
      <trkpt lat="48.19415" lon="2.89578">
        <ele>112.95</ele>
        <time>2020-06-16T08:31:43Z</time>
      </trkpt>
      <trkpt lat="48.1942" lon="2.89584">
        <ele>112.95</ele>
        <time>2020-06-16T08:31:48Z</time>
      </trkpt>
      <trkpt lat="48.19424" lon="2.8959">
        <ele>112.93</ele>
        <time>2020-06-16T08:31:53Z</time>
      </trkpt>
      <trkpt lat="48.19428" lon="2.89596">
        <ele>113.05</ele>
        <time>2020-06-16T08:31:58Z</time>
      </trkpt>
      <trkpt lat="48.19431" lon="2.89601">
        <ele>112.95</ele>
        <time>2020-06-16T08:32:03Z</time>
      </trkpt>
      <trkpt lat="48.19435" lon="2.89608">
        <ele>112.98</ele>
        <time>2020-06-16T08:32:08Z</time>
      </trkpt>
      <trkpt lat="48.19439" lon="2.89615">
        <ele>113.01</ele>
        <time>2020-06-16T08:32:13Z</time>
      </trkpt>
      <trkpt lat="48.19443" lon="2.89621">
        <ele>113.22</ele>
        <time>2020-06-16T08:32:18Z</time>
      </trkpt>
      <trkpt lat="48.19446" lon="2.89625">
        <ele>113.44</ele>
        <time>2020-06-16T08:32:23Z</time>
      </trkpt>
      <trkpt lat="48.1945" lon="2.89632">
        <ele>113.36</ele>
        <time>2020-06-16T08:32:28Z</time>
      </trkpt>
      <trkpt lat="48.19455" lon="2.89637">
        <ele>113.4</ele>
        <time>2020-06-16T08:32:33Z</time>
      </trkpt>
      <trkpt lat="48.1946" lon="2.89642">
        <ele>113.61</ele>
        <time>2020-06-16T08:32:38Z</time>
      </trkpt>
      <trkpt lat="48.19464" lon="2.89647">
        <ele>113.74</ele>
        <time>2020-06-16T08:32:43Z</time>
      </trkpt>
      <trkpt lat="48.19468" lon="2.89653">
        <ele>113.85</ele>
        <time>2020-06-16T08:32:48Z</time>
      </trkpt>
      <trkpt lat="48.19472" lon="2.89658">
        <ele>113.92</ele>
        <time>2020-06-16T08:32:53Z</time>
      </trkpt>
      <trkpt lat="48.19476" lon="2.89664">
        <ele>114.07</ele>
        <time>2020-06-16T08:32:58Z</time>
      </trkpt>
      <trkpt lat="48.1948" lon="2.8967">
        <ele>114.23</ele>
        <time>2020-06-16T08:33:03Z</time>
      </trkpt>
      <trkpt lat="48.19484" lon="2.89676">
        <ele>114.24</ele>
        <time>2020-06-16T08:33:08Z</time>
      </trkpt>
      <trkpt lat="48.19488" lon="2.89681">
        <ele>114.28</ele>
        <time>2020-06-16T08:33:13Z</time>
      </trkpt>
      <trkpt lat="48.19492" lon="2.89687">
        <ele>114.46</ele>
        <time>2020-06-16T08:33:18Z</time>
      </trkpt>
      <trkpt lat="48.19496" lon="2.89693">
        <ele>114.54</ele>
        <time>2020-06-16T08:33:23Z</time>
      </trkpt>
      <trkpt lat="48.195" lon="2.89699">
        <ele>114.5</ele>
        <time>2020-06-16T08:33:28Z</time>
      </trkpt>
      <trkpt lat="48.19504" lon="2.89704">
        <ele>114.57</ele>
        <time>2020-06-16T08:33:33Z</time>
      </trkpt>
      <trkpt lat="48.19506" lon="2.8971">
        <ele>114.64</ele>
        <time>2020-06-16T08:33:38Z</time>
      </trkpt>
      <trkpt lat="48.19508" lon="2.89713">
        <ele>114.81</ele>
        <time>2020-06-16T08:33:43Z</time>
      </trkpt>
      <trkpt lat="48.19511" lon="2.89719">
        <ele>114.95</ele>
        <time>2020-06-16T08:33:48Z</time>
      </trkpt>
      <trkpt lat="48.19515" lon="2.89722">
        <ele>115.01</ele>
        <time>2020-06-16T08:33:53Z</time>
      </trkpt>
      <trkpt lat="48.1952" lon="2.89727">
        <ele>114.97</ele>
        <time>2020-06-16T08:33:58Z</time>
      </trkpt>
      <trkpt lat="48.19524" lon="2.89733">
        <ele>114.96</ele>
        <time>2020-06-16T08:34:03Z</time>
      </trkpt>
      <trkpt lat="48.19528" lon="2.8974">
        <ele>115</ele>
        <time>2020-06-16T08:34:08Z</time>
      </trkpt>
      <trkpt lat="48.19533" lon="2.89746">
        <ele>114.97</ele>
        <time>2020-06-16T08:34:13Z</time>
      </trkpt>
      <trkpt lat="48.19536" lon="2.89752">
        <ele>114.9</ele>
        <time>2020-06-16T08:34:18Z</time>
      </trkpt>
      <trkpt lat="48.1954" lon="2.89758">
        <ele>115.05</ele>
        <time>2020-06-16T08:34:23Z</time>
      </trkpt>
      <trkpt lat="48.19545" lon="2.89764">
        <ele>115.22</ele>
        <time>2020-06-16T08:34:28Z</time>
      </trkpt>
      <trkpt lat="48.19549" lon="2.8977">
        <ele>115.46</ele>
        <time>2020-06-16T08:34:33Z</time>
      </trkpt>
      <trkpt lat="48.19553" lon="2.89775">
        <ele>115.6</ele>
        <time>2020-06-16T08:34:38Z</time>
      </trkpt>
      <trkpt lat="48.19557" lon="2.89781">
        <ele>115.57</ele>
        <time>2020-06-16T08:34:43Z</time>
      </trkpt>
      <trkpt lat="48.19561" lon="2.89787">
        <ele>115.67</ele>
        <time>2020-06-16T08:34:48Z</time>
      </trkpt>
      <trkpt lat="48.19565" lon="2.89794">
        <ele>115.85</ele>
        <time>2020-06-16T08:34:53Z</time>
      </trkpt>
      <trkpt lat="48.19569" lon="2.898">
        <ele>115.92</ele>
        <time>2020-06-16T08:34:58Z</time>
      </trkpt>
      <trkpt lat="48.19574" lon="2.89806">
        <ele>116.01</ele>
        <time>2020-06-16T08:35:03Z</time>
      </trkpt>
      <trkpt lat="48.19579" lon="2.89812">
        <ele>116.27</ele>
        <time>2020-06-16T08:35:08Z</time>
      </trkpt>
      <trkpt lat="48.19583" lon="2.89818">
        <ele>116.43</ele>
        <time>2020-06-16T08:35:13Z</time>
      </trkpt>
      <trkpt lat="48.19588" lon="2.89825">
        <ele>116.43</ele>
        <time>2020-06-16T08:35:18Z</time>
      </trkpt>
      <trkpt lat="48.19591" lon="2.89831">
        <ele>116.52</ele>
        <time>2020-06-16T08:35:23Z</time>
      </trkpt>
      <trkpt lat="48.19595" lon="2.89837">
        <ele>116.59</ele>
        <time>2020-06-16T08:35:28Z</time>
      </trkpt>
      <trkpt lat="48.19599" lon="2.89843">
        <ele>116.7</ele>
        <time>2020-06-16T08:35:33Z</time>
      </trkpt>
      <trkpt lat="48.19603" lon="2.89849">
        <ele>116.77</ele>
        <time>2020-06-16T08:35:38Z</time>
      </trkpt>
      <trkpt lat="48.19608" lon="2.89855">
        <ele>116.94</ele>
        <time>2020-06-16T08:35:43Z</time>
      </trkpt>
      <trkpt lat="48.19613" lon="2.89861">
        <ele>117.01</ele>
        <time>2020-06-16T08:35:48Z</time>
      </trkpt>
      <trkpt lat="48.19617" lon="2.89867">
        <ele>117.09</ele>
        <time>2020-06-16T08:35:53Z</time>
      </trkpt>
      <trkpt lat="48.19622" lon="2.8987">
        <ele>117.13</ele>
        <time>2020-06-16T08:35:58Z</time>
      </trkpt>
      <trkpt lat="48.19626" lon="2.89876">
        <ele>117.2</ele>
        <time>2020-06-16T08:36:03Z</time>
      </trkpt>
      <trkpt lat="48.19629" lon="2.89881">
        <ele>117.27</ele>
        <time>2020-06-16T08:36:08Z</time>
      </trkpt>
      <trkpt lat="48.19631" lon="2.89884">
        <ele>117.31</ele>
        <time>2020-06-16T08:36:13Z</time>
      </trkpt>
      <trkpt lat="48.19636" lon="2.89891">
        <ele>117.38</ele>
        <time>2020-06-16T08:36:18Z</time>
      </trkpt>
      <trkpt lat="48.1964" lon="2.89896">
        <ele>117.36</ele>
        <time>2020-06-16T08:36:23Z</time>
      </trkpt>
      <trkpt lat="48.19644" lon="2.89902">
        <ele>117.33</ele>
        <time>2020-06-16T08:36:28Z</time>
      </trkpt>
      <trkpt lat="48.19646" lon="2.89906">
        <ele>117.55</ele>
        <time>2020-06-16T08:36:33Z</time>
      </trkpt>
      <trkpt lat="48.1965" lon="2.8991">
        <ele>117.72</ele>
        <time>2020-06-16T08:36:38Z</time>
      </trkpt>
      <trkpt lat="48.19654" lon="2.89916">
        <ele>117.7</ele>
        <time>2020-06-16T08:36:43Z</time>
      </trkpt>
      <trkpt lat="48.19657" lon="2.89922">
        <ele>117.72</ele>
        <time>2020-06-16T08:36:48Z</time>
      </trkpt>
      <trkpt lat="48.19661" lon="2.89929">
        <ele>117.74</ele>
        <time>2020-06-16T08:36:53Z</time>
      </trkpt>
      <trkpt lat="48.19666" lon="2.89935">
        <ele>117.89</ele>
        <time>2020-06-16T08:36:58Z</time>
      </trkpt>
      <trkpt lat="48.19669" lon="2.89942">
        <ele>118.02</ele>
        <time>2020-06-16T08:37:03Z</time>
      </trkpt>
      <trkpt lat="48.19674" lon="2.89948">
        <ele>118.07</ele>
        <time>2020-06-16T08:37:08Z</time>
      </trkpt>
      <trkpt lat="48.19678" lon="2.89954">
        <ele>118.11</ele>
        <time>2020-06-16T08:37:13Z</time>
      </trkpt>
      <trkpt lat="48.19682" lon="2.8996">
        <ele>118.2</ele>
        <time>2020-06-16T08:37:18Z</time>
      </trkpt>
      <trkpt lat="48.19685" lon="2.89966">
        <ele>118.25</ele>
        <time>2020-06-16T08:37:23Z</time>
      </trkpt>
      <trkpt lat="48.19689" lon="2.89973">
        <ele>118.49</ele>
        <time>2020-06-16T08:37:28Z</time>
      </trkpt>
      <trkpt lat="48.19694" lon="2.89981">
        <ele>118.6</ele>
        <time>2020-06-16T08:37:33Z</time>
      </trkpt>
      <trkpt lat="48.19697" lon="2.89988">
        <ele>118.65</ele>
        <time>2020-06-16T08:37:38Z</time>
      </trkpt>
      <trkpt lat="48.19701" lon="2.89995">
        <ele>118.65</ele>
        <time>2020-06-16T08:37:43Z</time>
      </trkpt>
      <trkpt lat="48.19706" lon="2.90003">
        <ele>118.65</ele>
        <time>2020-06-16T08:37:48Z</time>
      </trkpt>
      <trkpt lat="48.19709" lon="2.9001">
        <ele>118.72</ele>
        <time>2020-06-16T08:37:53Z</time>
      </trkpt>
      <trkpt lat="48.19712" lon="2.90017">
        <ele>118.81</ele>
        <time>2020-06-16T08:37:58Z</time>
      </trkpt>
      <trkpt lat="48.19715" lon="2.90023">
        <ele>118.88</ele>
        <time>2020-06-16T08:38:03Z</time>
      </trkpt>
      <trkpt lat="48.19715" lon="2.90024">
        <ele>118.9</ele>
        <time>2020-06-16T08:38:08Z</time>
      </trkpt>
      <trkpt lat="48.19716" lon="2.90023">
        <ele>118.84</ele>
        <time>2020-06-16T08:38:13Z</time>
      </trkpt>
      <trkpt lat="48.19717" lon="2.90023">
        <ele>118.83</ele>
        <time>2020-06-16T08:38:18Z</time>
      </trkpt>
      <trkpt lat="48.19718" lon="2.90023">
        <ele>118.84</ele>
        <time>2020-06-16T08:38:23Z</time>
      </trkpt>
      <trkpt lat="48.19724" lon="2.90021">
        <ele>118.7</ele>
        <time>2020-06-16T08:38:28Z</time>
      </trkpt>
      <trkpt lat="48.19731" lon="2.90019">
        <ele>118.59</ele>
        <time>2020-06-16T08:38:33Z</time>
      </trkpt>
      <trkpt lat="48.19737" lon="2.90017">
        <ele>118.65</ele>
        <time>2020-06-16T08:38:38Z</time>
      </trkpt>
      <trkpt lat="48.19743" lon="2.90016">
        <ele>118.65</ele>
        <time>2020-06-16T08:38:43Z</time>
      </trkpt>
      <trkpt lat="48.19749" lon="2.90016">
        <ele>118.63</ele>
        <time>2020-06-16T08:38:48Z</time>
      </trkpt>
      <trkpt lat="48.19755" lon="2.90015">
        <ele>118.63</ele>
        <time>2020-06-16T08:38:53Z</time>
      </trkpt>
      <trkpt lat="48.1976" lon="2.90015">
        <ele>118.54</ele>
        <time>2020-06-16T08:38:58Z</time>
      </trkpt>
      <trkpt lat="48.19766" lon="2.90014">
        <ele>118.45</ele>
        <time>2020-06-16T08:39:03Z</time>
      </trkpt>
      <trkpt lat="48.19772" lon="2.90013">
        <ele>118.33</ele>
        <time>2020-06-16T08:39:08Z</time>
      </trkpt>
      <trkpt lat="48.19779" lon="2.90012">
        <ele>118.23</ele>
        <time>2020-06-16T08:39:13Z</time>
      </trkpt>
      <trkpt lat="48.19785" lon="2.90012">
        <ele>118.26</ele>
        <time>2020-06-16T08:39:18Z</time>
      </trkpt>
      <trkpt lat="48.19791" lon="2.90011">
        <ele>118.3</ele>
        <time>2020-06-16T08:39:23Z</time>
      </trkpt>
      <trkpt lat="48.19798" lon="2.90011">
        <ele>118.18</ele>
        <time>2020-06-16T08:39:28Z</time>
      </trkpt>
      <trkpt lat="48.19805" lon="2.9001">
        <ele>118.15</ele>
        <time>2020-06-16T08:39:33Z</time>
      </trkpt>
      <trkpt lat="48.19811" lon="2.90009">
        <ele>118.43</ele>
        <time>2020-06-16T08:39:38Z</time>
      </trkpt>
      <trkpt lat="48.19817" lon="2.90008">
        <ele>118.36</ele>
        <time>2020-06-16T08:39:43Z</time>
      </trkpt>
      <trkpt lat="48.19823" lon="2.90008">
        <ele>118.24</ele>
        <time>2020-06-16T08:39:48Z</time>
      </trkpt>
      <trkpt lat="48.19828" lon="2.90007">
        <ele>118.18</ele>
        <time>2020-06-16T08:39:53Z</time>
      </trkpt>
      <trkpt lat="48.19834" lon="2.90006">
        <ele>118.07</ele>
        <time>2020-06-16T08:39:58Z</time>
      </trkpt>
      <trkpt lat="48.19841" lon="2.90006">
        <ele>118.08</ele>
        <time>2020-06-16T08:40:03Z</time>
      </trkpt>
      <trkpt lat="48.19847" lon="2.90005">
        <ele>118.09</ele>
        <time>2020-06-16T08:40:08Z</time>
      </trkpt>
      <trkpt lat="48.19853" lon="2.90004">
        <ele>118.02</ele>
        <time>2020-06-16T08:40:13Z</time>
      </trkpt>
      <trkpt lat="48.1986" lon="2.90003">
        <ele>117.72</ele>
        <time>2020-06-16T08:40:18Z</time>
      </trkpt>
      <trkpt lat="48.19867" lon="2.90002">
        <ele>117.53</ele>
        <time>2020-06-16T08:40:23Z</time>
      </trkpt>
      <trkpt lat="48.19873" lon="2.90001">
        <ele>117.38</ele>
        <time>2020-06-16T08:40:28Z</time>
      </trkpt>
      <trkpt lat="48.19879" lon="2.90001">
        <ele>117.16</ele>
        <time>2020-06-16T08:40:33Z</time>
      </trkpt>
      <trkpt lat="48.19885" lon="2.9">
        <ele>117.09</ele>
        <time>2020-06-16T08:40:38Z</time>
      </trkpt>
      <trkpt lat="48.19891" lon="2.89999">
        <ele>117.02</ele>
        <time>2020-06-16T08:40:43Z</time>
      </trkpt>
      <trkpt lat="48.19897" lon="2.89999">
        <ele>116.89</ele>
        <time>2020-06-16T08:40:48Z</time>
      </trkpt>
      <trkpt lat="48.19903" lon="2.89998">
        <ele>116.95</ele>
        <time>2020-06-16T08:40:53Z</time>
      </trkpt>
      <trkpt lat="48.19909" lon="2.89998">
        <ele>116.75</ele>
        <time>2020-06-16T08:40:58Z</time>
      </trkpt>
      <trkpt lat="48.19915" lon="2.89998">
        <ele>116.55</ele>
        <time>2020-06-16T08:41:03Z</time>
      </trkpt>
      <trkpt lat="48.19921" lon="2.89997">
        <ele>116.52</ele>
        <time>2020-06-16T08:41:08Z</time>
      </trkpt>
      <trkpt lat="48.19928" lon="2.89998">
        <ele>116.49</ele>
        <time>2020-06-16T08:41:13Z</time>
      </trkpt>
      <trkpt lat="48.19934" lon="2.89998">
        <ele>116.52</ele>
        <time>2020-06-16T08:41:18Z</time>
      </trkpt>
      <trkpt lat="48.1994" lon="2.89998">
        <ele>116.5</ele>
        <time>2020-06-16T08:41:23Z</time>
      </trkpt>
      <trkpt lat="48.19947" lon="2.89999">
        <ele>116.28</ele>
        <time>2020-06-16T08:41:28Z</time>
      </trkpt>
      <trkpt lat="48.19952" lon="2.9">
        <ele>116.36</ele>
        <time>2020-06-16T08:41:33Z</time>
      </trkpt>
      <trkpt lat="48.19957" lon="2.9">
        <ele>116.5</ele>
        <time>2020-06-16T08:41:38Z</time>
      </trkpt>
      <trkpt lat="48.19962" lon="2.89998">
        <ele>116.52</ele>
        <time>2020-06-16T08:41:43Z</time>
      </trkpt>
      <trkpt lat="48.19966" lon="2.89998">
        <ele>116.58</ele>
        <time>2020-06-16T08:41:48Z</time>
      </trkpt>
      <trkpt lat="48.19973" lon="2.89999">
        <ele>116.57</ele>
        <time>2020-06-16T08:41:53Z</time>
      </trkpt>
      <trkpt lat="48.19978" lon="2.9">
        <ele>116.52</ele>
        <time>2020-06-16T08:41:58Z</time>
      </trkpt>
      <trkpt lat="48.19985" lon="2.9">
        <ele>116.52</ele>
        <time>2020-06-16T08:42:03Z</time>
      </trkpt>
      <trkpt lat="48.19992" lon="2.90001">
        <ele>116.56</ele>
        <time>2020-06-16T08:42:08Z</time>
      </trkpt>
      <trkpt lat="48.19998" lon="2.90001">
        <ele>116.58</ele>
        <time>2020-06-16T08:42:13Z</time>
      </trkpt>
      <trkpt lat="48.20005" lon="2.90001">
        <ele>116.64</ele>
        <time>2020-06-16T08:42:18Z</time>
      </trkpt>
      <trkpt lat="48.20011" lon="2.9">
        <ele>116.73</ele>
        <time>2020-06-16T08:42:23Z</time>
      </trkpt>
      <trkpt lat="48.20017" lon="2.90001">
        <ele>116.79</ele>
        <time>2020-06-16T08:42:28Z</time>
      </trkpt>
      <trkpt lat="48.20023" lon="2.90001">
        <ele>116.82</ele>
        <time>2020-06-16T08:42:33Z</time>
      </trkpt>
      <trkpt lat="48.20029" lon="2.90002">
        <ele>116.84</ele>
        <time>2020-06-16T08:42:38Z</time>
      </trkpt>
      <trkpt lat="48.20035" lon="2.90003">
        <ele>116.95</ele>
        <time>2020-06-16T08:42:43Z</time>
      </trkpt>
      <trkpt lat="48.20041" lon="2.90004">
        <ele>116.96</ele>
        <time>2020-06-16T08:42:48Z</time>
      </trkpt>
      <trkpt lat="48.20046" lon="2.90003">
        <ele>117</ele>
        <time>2020-06-16T08:42:53Z</time>
      </trkpt>
      <trkpt lat="48.20051" lon="2.90003">
        <ele>117.01</ele>
        <time>2020-06-16T08:42:58Z</time>
      </trkpt>
      <trkpt lat="48.20058" lon="2.90006">
        <ele>117.05</ele>
        <time>2020-06-16T08:43:03Z</time>
      </trkpt>
      <trkpt lat="48.20065" lon="2.90007">
        <ele>117.1</ele>
        <time>2020-06-16T08:43:08Z</time>
      </trkpt>
      <trkpt lat="48.20073" lon="2.90008">
        <ele>117.23</ele>
        <time>2020-06-16T08:43:13Z</time>
      </trkpt>
      <trkpt lat="48.20081" lon="2.90009">
        <ele>117.26</ele>
        <time>2020-06-16T08:43:18Z</time>
      </trkpt>
      <trkpt lat="48.20087" lon="2.9001">
        <ele>117.29</ele>
        <time>2020-06-16T08:43:23Z</time>
      </trkpt>
      <trkpt lat="48.20094" lon="2.90011">
        <ele>117.36</ele>
        <time>2020-06-16T08:43:28Z</time>
      </trkpt>
      <trkpt lat="48.201" lon="2.90013">
        <ele>117.44</ele>
        <time>2020-06-16T08:43:33Z</time>
      </trkpt>
      <trkpt lat="48.20106" lon="2.90015">
        <ele>117.45</ele>
        <time>2020-06-16T08:43:38Z</time>
      </trkpt>
      <trkpt lat="48.20111" lon="2.90017">
        <ele>117.4</ele>
        <time>2020-06-16T08:43:43Z</time>
      </trkpt>
      <trkpt lat="48.20117" lon="2.90019">
        <ele>117.33</ele>
        <time>2020-06-16T08:43:48Z</time>
      </trkpt>
      <trkpt lat="48.20124" lon="2.9002">
        <ele>117.31</ele>
        <time>2020-06-16T08:43:53Z</time>
      </trkpt>
      <trkpt lat="48.20129" lon="2.90022">
        <ele>117.3</ele>
        <time>2020-06-16T08:43:58Z</time>
      </trkpt>
      <trkpt lat="48.20135" lon="2.90022">
        <ele>117.12</ele>
        <time>2020-06-16T08:44:03Z</time>
      </trkpt>
      <trkpt lat="48.20141" lon="2.90023">
        <ele>117.19</ele>
        <time>2020-06-16T08:44:08Z</time>
      </trkpt>
      <trkpt lat="48.20147" lon="2.90025">
        <ele>116.97</ele>
        <time>2020-06-16T08:44:13Z</time>
      </trkpt>
      <trkpt lat="48.20153" lon="2.90027">
        <ele>116.78</ele>
        <time>2020-06-16T08:44:18Z</time>
      </trkpt>
      <trkpt lat="48.20158" lon="2.90029">
        <ele>116.51</ele>
        <time>2020-06-16T08:44:23Z</time>
      </trkpt>
      <trkpt lat="48.20164" lon="2.90032">
        <ele>116.4</ele>
        <time>2020-06-16T08:44:28Z</time>
      </trkpt>
      <trkpt lat="48.20171" lon="2.90033">
        <ele>116.19</ele>
        <time>2020-06-16T08:44:33Z</time>
      </trkpt>
      <trkpt lat="48.20176" lon="2.90035">
        <ele>116.05</ele>
        <time>2020-06-16T08:44:38Z</time>
      </trkpt>
      <trkpt lat="48.20182" lon="2.90038">
        <ele>115.94</ele>
        <time>2020-06-16T08:44:43Z</time>
      </trkpt>
      <trkpt lat="48.20189" lon="2.90041">
        <ele>115.97</ele>
        <time>2020-06-16T08:44:48Z</time>
      </trkpt>
      <trkpt lat="48.20196" lon="2.90043">
        <ele>115.8</ele>
        <time>2020-06-16T08:44:53Z</time>
      </trkpt>
      <trkpt lat="48.20204" lon="2.90044">
        <ele>115.57</ele>
        <time>2020-06-16T08:44:58Z</time>
      </trkpt>
      <trkpt lat="48.20211" lon="2.90045">
        <ele>115.48</ele>
        <time>2020-06-16T08:45:03Z</time>
      </trkpt>
      <trkpt lat="48.20218" lon="2.90047">
        <ele>115.51</ele>
        <time>2020-06-16T08:45:08Z</time>
      </trkpt>
      <trkpt lat="48.20224" lon="2.90049">
        <ele>115.47</ele>
        <time>2020-06-16T08:45:13Z</time>
      </trkpt>
      <trkpt lat="48.2023" lon="2.90051">
        <ele>115.42</ele>
        <time>2020-06-16T08:45:18Z</time>
      </trkpt>
      <trkpt lat="48.20236" lon="2.90053">
        <ele>115.44</ele>
        <time>2020-06-16T08:45:23Z</time>
      </trkpt>
      <trkpt lat="48.20242" lon="2.90054">
        <ele>115.54</ele>
        <time>2020-06-16T08:45:28Z</time>
      </trkpt>
      <trkpt lat="48.20247" lon="2.90055">
        <ele>115.46</ele>
        <time>2020-06-16T08:45:33Z</time>
      </trkpt>
      <trkpt lat="48.20253" lon="2.90057">
        <ele>115.44</ele>
        <time>2020-06-16T08:45:38Z</time>
      </trkpt>
      <trkpt lat="48.20258" lon="2.9006">
        <ele>115.31</ele>
        <time>2020-06-16T08:45:43Z</time>
      </trkpt>
      <trkpt lat="48.20263" lon="2.90063">
        <ele>115.32</ele>
        <time>2020-06-16T08:45:48Z</time>
      </trkpt>
      <trkpt lat="48.20268" lon="2.90068">
        <ele>115.25</ele>
        <time>2020-06-16T08:45:53Z</time>
      </trkpt>
      <trkpt lat="48.20272" lon="2.90069">
        <ele>115.03</ele>
        <time>2020-06-16T08:45:58Z</time>
      </trkpt>
      <trkpt lat="48.20272" lon="2.90069">
        <ele>115</ele>
        <time>2020-06-16T08:46:03Z</time>
      </trkpt>
      <trkpt lat="48.20272" lon="2.90069">
        <ele>115.14</ele>
        <time>2020-06-16T08:46:08Z</time>
      </trkpt>
      <trkpt lat="48.20277" lon="2.90072">
        <ele>115.13</ele>
        <time>2020-06-16T08:46:13Z</time>
      </trkpt>
      <trkpt lat="48.20284" lon="2.90077">
        <ele>115.05</ele>
        <time>2020-06-16T08:46:18Z</time>
      </trkpt>
      <trkpt lat="48.20289" lon="2.90084">
        <ele>114.99</ele>
        <time>2020-06-16T08:46:23Z</time>
      </trkpt>
      <trkpt lat="48.20294" lon="2.90089">
        <ele>115.06</ele>
        <time>2020-06-16T08:46:28Z</time>
      </trkpt>
      <trkpt lat="48.20297" lon="2.90095">
        <ele>114.99</ele>
        <time>2020-06-16T08:46:33Z</time>
      </trkpt>
      <trkpt lat="48.203" lon="2.90102">
        <ele>114.99</ele>
        <time>2020-06-16T08:46:38Z</time>
      </trkpt>
      <trkpt lat="48.20302" lon="2.90108">
        <ele>115.01</ele>
        <time>2020-06-16T08:46:43Z</time>
      </trkpt>
      <trkpt lat="48.20304" lon="2.90113">
        <ele>115</ele>
        <time>2020-06-16T08:46:48Z</time>
      </trkpt>
      <trkpt lat="48.20306" lon="2.90119">
        <ele>114.85</ele>
        <time>2020-06-16T08:46:53Z</time>
      </trkpt>
      <trkpt lat="48.2031" lon="2.90125">
        <ele>114.71</ele>
        <time>2020-06-16T08:46:58Z</time>
      </trkpt>
      <trkpt lat="48.20313" lon="2.90132">
        <ele>114.54</ele>
        <time>2020-06-16T08:47:03Z</time>
      </trkpt>
      <trkpt lat="48.20316" lon="2.90138">
        <ele>114.45</ele>
        <time>2020-06-16T08:47:08Z</time>
      </trkpt>
      <trkpt lat="48.2032" lon="2.90145">
        <ele>114.39</ele>
        <time>2020-06-16T08:47:13Z</time>
      </trkpt>
      <trkpt lat="48.20324" lon="2.90153">
        <ele>114.25</ele>
        <time>2020-06-16T08:47:18Z</time>
      </trkpt>
      <trkpt lat="48.20327" lon="2.90161">
        <ele>114.12</ele>
        <time>2020-06-16T08:47:23Z</time>
      </trkpt>
      <trkpt lat="48.20331" lon="2.90167">
        <ele>113.94</ele>
        <time>2020-06-16T08:47:28Z</time>
      </trkpt>
      <trkpt lat="48.20335" lon="2.90174">
        <ele>113.81</ele>
        <time>2020-06-16T08:47:33Z</time>
      </trkpt>
      <trkpt lat="48.20339" lon="2.90181">
        <ele>113.79</ele>
        <time>2020-06-16T08:47:38Z</time>
      </trkpt>
      <trkpt lat="48.20346" lon="2.90189">
        <ele>113.74</ele>
        <time>2020-06-16T08:47:43Z</time>
      </trkpt>
      <trkpt lat="48.2035" lon="2.90192">
        <ele>113.89</ele>
        <time>2020-06-16T08:47:48Z</time>
      </trkpt>
      <trkpt lat="48.20354" lon="2.90194">
        <ele>113.8</ele>
        <time>2020-06-16T08:47:53Z</time>
      </trkpt>
      <trkpt lat="48.20359" lon="2.90197">
        <ele>113.77</ele>
        <time>2020-06-16T08:47:58Z</time>
      </trkpt>
      <trkpt lat="48.20364" lon="2.90203">
        <ele>113.76</ele>
        <time>2020-06-16T08:48:03Z</time>
      </trkpt>
      <trkpt lat="48.20368" lon="2.90207">
        <ele>113.82</ele>
        <time>2020-06-16T08:48:08Z</time>
      </trkpt>
      <trkpt lat="48.20373" lon="2.90211">
        <ele>113.82</ele>
        <time>2020-06-16T08:48:13Z</time>
      </trkpt>
      <trkpt lat="48.20379" lon="2.90216">
        <ele>113.93</ele>
        <time>2020-06-16T08:48:18Z</time>
      </trkpt>
      <trkpt lat="48.20385" lon="2.90222">
        <ele>113.94</ele>
        <time>2020-06-16T08:48:23Z</time>
      </trkpt>
      <trkpt lat="48.20389" lon="2.90224">
        <ele>113.97</ele>
        <time>2020-06-16T08:48:28Z</time>
      </trkpt>
      <trkpt lat="48.20393" lon="2.90228">
        <ele>113.98</ele>
        <time>2020-06-16T08:48:33Z</time>
      </trkpt>
      <trkpt lat="48.20401" lon="2.90233">
        <ele>113.97</ele>
        <time>2020-06-16T08:48:38Z</time>
      </trkpt>
      <trkpt lat="48.20406" lon="2.90238">
        <ele>113.94</ele>
        <time>2020-06-16T08:48:43Z</time>
      </trkpt>
      <trkpt lat="48.20413" lon="2.90242">
        <ele>114.07</ele>
        <time>2020-06-16T08:48:48Z</time>
      </trkpt>
      <trkpt lat="48.20418" lon="2.90243">
        <ele>113.89</ele>
        <time>2020-06-16T08:48:53Z</time>
      </trkpt>
      <trkpt lat="48.20424" lon="2.90244">
        <ele>113.6</ele>
        <time>2020-06-16T08:48:58Z</time>
      </trkpt>
      <trkpt lat="48.20431" lon="2.90244">
        <ele>113.69</ele>
        <time>2020-06-16T08:49:03Z</time>
      </trkpt>
      <trkpt lat="48.20438" lon="2.90247">
        <ele>113.76</ele>
        <time>2020-06-16T08:49:08Z</time>
      </trkpt>
      <trkpt lat="48.20443" lon="2.9025">
        <ele>113.72</ele>
        <time>2020-06-16T08:49:13Z</time>
      </trkpt>
      <trkpt lat="48.20449" lon="2.90253">
        <ele>113.75</ele>
        <time>2020-06-16T08:49:18Z</time>
      </trkpt>
      <trkpt lat="48.20456" lon="2.90256">
        <ele>113.97</ele>
        <time>2020-06-16T08:49:23Z</time>
      </trkpt>
      <trkpt lat="48.20462" lon="2.9026">
        <ele>114.05</ele>
        <time>2020-06-16T08:49:28Z</time>
      </trkpt>
      <trkpt lat="48.20468" lon="2.90264">
        <ele>113.96</ele>
        <time>2020-06-16T08:49:33Z</time>
      </trkpt>
      <trkpt lat="48.20474" lon="2.90268">
        <ele>113.89</ele>
        <time>2020-06-16T08:49:38Z</time>
      </trkpt>
      <trkpt lat="48.20479" lon="2.90274">
        <ele>113.85</ele>
        <time>2020-06-16T08:49:43Z</time>
      </trkpt>
      <trkpt lat="48.20484" lon="2.9028">
        <ele>113.63</ele>
        <time>2020-06-16T08:49:48Z</time>
      </trkpt>
      <trkpt lat="48.20489" lon="2.90286">
        <ele>113.61</ele>
        <time>2020-06-16T08:49:53Z</time>
      </trkpt>
      <trkpt lat="48.20493" lon="2.90293">
        <ele>113.21</ele>
        <time>2020-06-16T08:49:58Z</time>
      </trkpt>
      <trkpt lat="48.20497" lon="2.90298">
        <ele>112.98</ele>
        <time>2020-06-16T08:50:03Z</time>
      </trkpt>
      <trkpt lat="48.20503" lon="2.90302">
        <ele>112.78</ele>
        <time>2020-06-16T08:50:08Z</time>
      </trkpt>
      <trkpt lat="48.20504" lon="2.90304">
        <ele>112.81</ele>
        <time>2020-06-16T08:50:13Z</time>
      </trkpt>
      <trkpt lat="48.20509" lon="2.90308">
        <ele>112.59</ele>
        <time>2020-06-16T08:50:18Z</time>
      </trkpt>
      <trkpt lat="48.20514" lon="2.90311">
        <ele>112.51</ele>
        <time>2020-06-16T08:50:23Z</time>
      </trkpt>
      <trkpt lat="48.20521" lon="2.90314">
        <ele>112.25</ele>
        <time>2020-06-16T08:50:28Z</time>
      </trkpt>
      <trkpt lat="48.20527" lon="2.90317">
        <ele>112.09</ele>
        <time>2020-06-16T08:50:33Z</time>
      </trkpt>
      <trkpt lat="48.20532" lon="2.9032">
        <ele>111.94</ele>
        <time>2020-06-16T08:50:38Z</time>
      </trkpt>
      <trkpt lat="48.20538" lon="2.90322">
        <ele>111.82</ele>
        <time>2020-06-16T08:50:43Z</time>
      </trkpt>
      <trkpt lat="48.20545" lon="2.90323">
        <ele>111.85</ele>
        <time>2020-06-16T08:50:48Z</time>
      </trkpt>
      <trkpt lat="48.20552" lon="2.90324">
        <ele>111.82</ele>
        <time>2020-06-16T08:50:53Z</time>
      </trkpt>
      <trkpt lat="48.20558" lon="2.90325">
        <ele>111.86</ele>
        <time>2020-06-16T08:50:58Z</time>
      </trkpt>
      <trkpt lat="48.20564" lon="2.90326">
        <ele>111.54</ele>
        <time>2020-06-16T08:51:03Z</time>
      </trkpt>
      <trkpt lat="48.20568" lon="2.90326">
        <ele>111.48</ele>
        <time>2020-06-16T08:51:08Z</time>
      </trkpt>
      <trkpt lat="48.20575" lon="2.90327">
        <ele>111.33</ele>
        <time>2020-06-16T08:51:13Z</time>
      </trkpt>
      <trkpt lat="48.20581" lon="2.9033">
        <ele>111.24</ele>
        <time>2020-06-16T08:51:18Z</time>
      </trkpt>
      <trkpt lat="48.20585" lon="2.90333">
        <ele>111.19</ele>
        <time>2020-06-16T08:51:23Z</time>
      </trkpt>
      <trkpt lat="48.20593" lon="2.90335">
        <ele>111.14</ele>
        <time>2020-06-16T08:51:28Z</time>
      </trkpt>
      <trkpt lat="48.20599" lon="2.90337">
        <ele>111.1</ele>
        <time>2020-06-16T08:51:33Z</time>
      </trkpt>
      <trkpt lat="48.20605" lon="2.9034">
        <ele>111.1</ele>
        <time>2020-06-16T08:51:38Z</time>
      </trkpt>
      <trkpt lat="48.2061" lon="2.90344">
        <ele>111.01</ele>
        <time>2020-06-16T08:51:43Z</time>
      </trkpt>
      <trkpt lat="48.20616" lon="2.90348">
        <ele>110.86</ele>
        <time>2020-06-16T08:51:48Z</time>
      </trkpt>
      <trkpt lat="48.20622" lon="2.90352">
        <ele>110.84</ele>
        <time>2020-06-16T08:51:53Z</time>
      </trkpt>
      <trkpt lat="48.20627" lon="2.90356">
        <ele>110.73</ele>
        <time>2020-06-16T08:51:58Z</time>
      </trkpt>
      <trkpt lat="48.20634" lon="2.9036">
        <ele>110.66</ele>
        <time>2020-06-16T08:52:03Z</time>
      </trkpt>
      <trkpt lat="48.2064" lon="2.90364">
        <ele>110.4</ele>
        <time>2020-06-16T08:52:08Z</time>
      </trkpt>
      <trkpt lat="48.20645" lon="2.90369">
        <ele>110.23</ele>
        <time>2020-06-16T08:52:13Z</time>
      </trkpt>
      <trkpt lat="48.2065" lon="2.90373">
        <ele>110.21</ele>
        <time>2020-06-16T08:52:18Z</time>
      </trkpt>
      <trkpt lat="48.20655" lon="2.90378">
        <ele>110.28</ele>
        <time>2020-06-16T08:52:23Z</time>
      </trkpt>
      <trkpt lat="48.20659" lon="2.90383">
        <ele>110.4</ele>
        <time>2020-06-16T08:52:28Z</time>
      </trkpt>
      <trkpt lat="48.20665" lon="2.90387">
        <ele>110.41</ele>
        <time>2020-06-16T08:52:33Z</time>
      </trkpt>
      <trkpt lat="48.2067" lon="2.90392">
        <ele>110.28</ele>
        <time>2020-06-16T08:52:38Z</time>
      </trkpt>
      <trkpt lat="48.20674" lon="2.90396">
        <ele>110.32</ele>
        <time>2020-06-16T08:52:43Z</time>
      </trkpt>
      <trkpt lat="48.20679" lon="2.90399">
        <ele>110.35</ele>
        <time>2020-06-16T08:52:48Z</time>
      </trkpt>
      <trkpt lat="48.20684" lon="2.90404">
        <ele>110.39</ele>
        <time>2020-06-16T08:52:53Z</time>
      </trkpt>
      <trkpt lat="48.20689" lon="2.90409">
        <ele>110.28</ele>
        <time>2020-06-16T08:52:58Z</time>
      </trkpt>
      <trkpt lat="48.20693" lon="2.90415">
        <ele>110.16</ele>
        <time>2020-06-16T08:53:03Z</time>
      </trkpt>
      <trkpt lat="48.20696" lon="2.90424">
        <ele>110.27</ele>
        <time>2020-06-16T08:53:08Z</time>
      </trkpt>
      <trkpt lat="48.20697" lon="2.90433">
        <ele>110.55</ele>
        <time>2020-06-16T08:53:13Z</time>
      </trkpt>
      <trkpt lat="48.20698" lon="2.90442">
        <ele>110.63</ele>
        <time>2020-06-16T08:53:18Z</time>
      </trkpt>
      <trkpt lat="48.20699" lon="2.90451">
        <ele>110.96</ele>
        <time>2020-06-16T08:53:23Z</time>
      </trkpt>
      <trkpt lat="48.20702" lon="2.90459">
        <ele>111.16</ele>
        <time>2020-06-16T08:53:28Z</time>
      </trkpt>
      <trkpt lat="48.20705" lon="2.90468">
        <ele>111.02</ele>
        <time>2020-06-16T08:53:33Z</time>
      </trkpt>
      <trkpt lat="48.20708" lon="2.90476">
        <ele>110.99</ele>
        <time>2020-06-16T08:53:38Z</time>
      </trkpt>
      <trkpt lat="48.2071" lon="2.90483">
        <ele>111.02</ele>
        <time>2020-06-16T08:53:43Z</time>
      </trkpt>
      <trkpt lat="48.20713" lon="2.90491">
        <ele>110.88</ele>
        <time>2020-06-16T08:53:48Z</time>
      </trkpt>
      <trkpt lat="48.20715" lon="2.90499">
        <ele>110.82</ele>
        <time>2020-06-16T08:53:53Z</time>
      </trkpt>
      <trkpt lat="48.20716" lon="2.90507">
        <ele>110.75</ele>
        <time>2020-06-16T08:53:58Z</time>
      </trkpt>
      <trkpt lat="48.20716" lon="2.90515">
        <ele>110.74</ele>
        <time>2020-06-16T08:54:03Z</time>
      </trkpt>
      <trkpt lat="48.20718" lon="2.90524">
        <ele>110.74</ele>
        <time>2020-06-16T08:54:08Z</time>
      </trkpt>
      <trkpt lat="48.2072" lon="2.90532">
        <ele>110.96</ele>
        <time>2020-06-16T08:54:13Z</time>
      </trkpt>
      <trkpt lat="48.20723" lon="2.9054">
        <ele>111.02</ele>
        <time>2020-06-16T08:54:18Z</time>
      </trkpt>
      <trkpt lat="48.20725" lon="2.9055">
        <ele>110.98</ele>
        <time>2020-06-16T08:54:23Z</time>
      </trkpt>
      <trkpt lat="48.20726" lon="2.90558">
        <ele>110.86</ele>
        <time>2020-06-16T08:54:28Z</time>
      </trkpt>
      <trkpt lat="48.20728" lon="2.90566">
        <ele>110.91</ele>
        <time>2020-06-16T08:54:33Z</time>
      </trkpt>
      <trkpt lat="48.20728" lon="2.90575">
        <ele>110.79</ele>
        <time>2020-06-16T08:54:38Z</time>
      </trkpt>
      <trkpt lat="48.2073" lon="2.90584">
        <ele>110.73</ele>
        <time>2020-06-16T08:54:43Z</time>
      </trkpt>
      <trkpt lat="48.20732" lon="2.90592">
        <ele>110.66</ele>
        <time>2020-06-16T08:54:48Z</time>
      </trkpt>
      <trkpt lat="48.20732" lon="2.90603">
        <ele>110.53</ele>
        <time>2020-06-16T08:54:53Z</time>
      </trkpt>
      <trkpt lat="48.20733" lon="2.90612">
        <ele>110.35</ele>
        <time>2020-06-16T08:54:58Z</time>
      </trkpt>
      <trkpt lat="48.20735" lon="2.9062">
        <ele>110.13</ele>
        <time>2020-06-16T08:55:03Z</time>
      </trkpt>
      <trkpt lat="48.20738" lon="2.9063">
        <ele>109.99</ele>
        <time>2020-06-16T08:55:08Z</time>
      </trkpt>
      <trkpt lat="48.20739" lon="2.90639">
        <ele>109.86</ele>
        <time>2020-06-16T08:55:13Z</time>
      </trkpt>
      <trkpt lat="48.20741" lon="2.90648">
        <ele>109.52</ele>
        <time>2020-06-16T08:55:18Z</time>
      </trkpt>
      <trkpt lat="48.20743" lon="2.90657">
        <ele>109.21</ele>
        <time>2020-06-16T08:55:23Z</time>
      </trkpt>
      <trkpt lat="48.20744" lon="2.90666">
        <ele>109</ele>
        <time>2020-06-16T08:55:28Z</time>
      </trkpt>
      <trkpt lat="48.20744" lon="2.90676">
        <ele>108.81</ele>
        <time>2020-06-16T08:55:33Z</time>
      </trkpt>
      <trkpt lat="48.20743" lon="2.90684">
        <ele>108.84</ele>
        <time>2020-06-16T08:55:38Z</time>
      </trkpt>
      <trkpt lat="48.20741" lon="2.90693">
        <ele>108.89</ele>
        <time>2020-06-16T08:55:43Z</time>
      </trkpt>
      <trkpt lat="48.20738" lon="2.907">
        <ele>108.85</ele>
        <time>2020-06-16T08:55:48Z</time>
      </trkpt>
      <trkpt lat="48.20734" lon="2.90707">
        <ele>108.74</ele>
        <time>2020-06-16T08:55:53Z</time>
      </trkpt>
      <trkpt lat="48.20731" lon="2.90714">
        <ele>108.59</ele>
        <time>2020-06-16T08:55:58Z</time>
      </trkpt>
      <trkpt lat="48.20727" lon="2.90722">
        <ele>108.17</ele>
        <time>2020-06-16T08:56:03Z</time>
      </trkpt>
      <trkpt lat="48.20724" lon="2.9073">
        <ele>107.93</ele>
        <time>2020-06-16T08:56:08Z</time>
      </trkpt>
      <trkpt lat="48.20722" lon="2.90738">
        <ele>107.76</ele>
        <time>2020-06-16T08:56:13Z</time>
      </trkpt>
      <trkpt lat="48.2072" lon="2.90747">
        <ele>107.35</ele>
        <time>2020-06-16T08:56:18Z</time>
      </trkpt>
      <trkpt lat="48.20721" lon="2.90756">
        <ele>106.94</ele>
        <time>2020-06-16T08:56:23Z</time>
      </trkpt>
      <trkpt lat="48.20722" lon="2.90765">
        <ele>106.58</ele>
        <time>2020-06-16T08:56:28Z</time>
      </trkpt>
      <trkpt lat="48.20724" lon="2.90774">
        <ele>105.95</ele>
        <time>2020-06-16T08:56:33Z</time>
      </trkpt>
      <trkpt lat="48.20725" lon="2.90783">
        <ele>105.59</ele>
        <time>2020-06-16T08:56:38Z</time>
      </trkpt>
      <trkpt lat="48.20727" lon="2.90791">
        <ele>105.09</ele>
        <time>2020-06-16T08:56:43Z</time>
      </trkpt>
      <trkpt lat="48.20729" lon="2.90799">
        <ele>104.56</ele>
        <time>2020-06-16T08:56:48Z</time>
      </trkpt>
      <trkpt lat="48.20729" lon="2.90808">
        <ele>103.97</ele>
        <time>2020-06-16T08:56:53Z</time>
      </trkpt>
      <trkpt lat="48.20732" lon="2.90815">
        <ele>103.54</ele>
        <time>2020-06-16T08:56:58Z</time>
      </trkpt>
      <trkpt lat="48.20735" lon="2.90822">
        <ele>103.07</ele>
        <time>2020-06-16T08:57:03Z</time>
      </trkpt>
      <trkpt lat="48.20737" lon="2.90829">
        <ele>102.66</ele>
        <time>2020-06-16T08:57:08Z</time>
      </trkpt>
      <trkpt lat="48.20742" lon="2.90836">
        <ele>102.3</ele>
        <time>2020-06-16T08:57:13Z</time>
      </trkpt>
      <trkpt lat="48.20744" lon="2.90844">
        <ele>101.86</ele>
        <time>2020-06-16T08:57:18Z</time>
      </trkpt>
      <trkpt lat="48.20747" lon="2.90851">
        <ele>101.41</ele>
        <time>2020-06-16T08:57:23Z</time>
      </trkpt>
      <trkpt lat="48.2075" lon="2.90856">
        <ele>101.07</ele>
        <time>2020-06-16T08:57:28Z</time>
      </trkpt>
      <trkpt lat="48.20754" lon="2.90863">
        <ele>100.79</ele>
        <time>2020-06-16T08:57:33Z</time>
      </trkpt>
      <trkpt lat="48.20758" lon="2.90871">
        <ele>100.68</ele>
        <time>2020-06-16T08:57:38Z</time>
      </trkpt>
      <trkpt lat="48.20763" lon="2.90877">
        <ele>100.37</ele>
        <time>2020-06-16T08:57:43Z</time>
      </trkpt>
      <trkpt lat="48.20768" lon="2.90882">
        <ele>100.15</ele>
        <time>2020-06-16T08:57:48Z</time>
      </trkpt>
      <trkpt lat="48.20772" lon="2.90887">
        <ele>99.88</ele>
        <time>2020-06-16T08:57:53Z</time>
      </trkpt>
      <trkpt lat="48.20776" lon="2.90893">
        <ele>99.65</ele>
        <time>2020-06-16T08:57:58Z</time>
      </trkpt>
      <trkpt lat="48.20779" lon="2.90899">
        <ele>99.46</ele>
        <time>2020-06-16T08:58:03Z</time>
      </trkpt>
      <trkpt lat="48.20783" lon="2.90906">
        <ele>99.2</ele>
        <time>2020-06-16T08:58:08Z</time>
      </trkpt>
      <trkpt lat="48.20786" lon="2.90911">
        <ele>99.02</ele>
        <time>2020-06-16T08:58:13Z</time>
      </trkpt>
      <trkpt lat="48.2079" lon="2.90918">
        <ele>98.99</ele>
        <time>2020-06-16T08:58:18Z</time>
      </trkpt>
      <trkpt lat="48.20793" lon="2.90926">
        <ele>98.81</ele>
        <time>2020-06-16T08:58:23Z</time>
      </trkpt>
      <trkpt lat="48.20797" lon="2.90932">
        <ele>98.55</ele>
        <time>2020-06-16T08:58:28Z</time>
      </trkpt>
      <trkpt lat="48.20802" lon="2.90938">
        <ele>98.36</ele>
        <time>2020-06-16T08:58:33Z</time>
      </trkpt>
      <trkpt lat="48.20805" lon="2.90944">
        <ele>98.11</ele>
        <time>2020-06-16T08:58:38Z</time>
      </trkpt>
      <trkpt lat="48.20807" lon="2.90948">
        <ele>97.5</ele>
        <time>2020-06-16T08:58:43Z</time>
      </trkpt>
      <trkpt lat="48.20813" lon="2.90954">
        <ele>97.11</ele>
        <time>2020-06-16T08:58:48Z</time>
      </trkpt>
      <trkpt lat="48.20819" lon="2.90959">
        <ele>96.57</ele>
        <time>2020-06-16T08:58:53Z</time>
      </trkpt>
      <trkpt lat="48.20823" lon="2.90967">
        <ele>96.15</ele>
        <time>2020-06-16T08:58:58Z</time>
      </trkpt>
      <trkpt lat="48.20827" lon="2.90974">
        <ele>95.77</ele>
        <time>2020-06-16T08:59:03Z</time>
      </trkpt>
      <trkpt lat="48.20831" lon="2.90981">
        <ele>95.59</ele>
        <time>2020-06-16T08:59:08Z</time>
      </trkpt>
      <trkpt lat="48.20835" lon="2.90988">
        <ele>95.07</ele>
        <time>2020-06-16T08:59:13Z</time>
      </trkpt>
      <trkpt lat="48.20838" lon="2.90994">
        <ele>94.71</ele>
        <time>2020-06-16T08:59:18Z</time>
      </trkpt>
      <trkpt lat="48.2084" lon="2.91002">
        <ele>94.45</ele>
        <time>2020-06-16T08:59:23Z</time>
      </trkpt>
      <trkpt lat="48.20843" lon="2.91009">
        <ele>94.28</ele>
        <time>2020-06-16T08:59:28Z</time>
      </trkpt>
      <trkpt lat="48.20845" lon="2.91017">
        <ele>94.08</ele>
        <time>2020-06-16T08:59:33Z</time>
      </trkpt>
      <trkpt lat="48.20849" lon="2.91024">
        <ele>93.86</ele>
        <time>2020-06-16T08:59:38Z</time>
      </trkpt>
      <trkpt lat="48.20852" lon="2.9103">
        <ele>93.8</ele>
        <time>2020-06-16T08:59:43Z</time>
      </trkpt>
      <trkpt lat="48.20857" lon="2.91037">
        <ele>93.74</ele>
        <time>2020-06-16T08:59:48Z</time>
      </trkpt>
      <trkpt lat="48.20861" lon="2.91045">
        <ele>93.72</ele>
        <time>2020-06-16T08:59:53Z</time>
      </trkpt>
      <trkpt lat="48.20862" lon="2.91052">
        <ele>93.7</ele>
        <time>2020-06-16T08:59:58Z</time>
      </trkpt>
      <trkpt lat="48.20865" lon="2.91061">
        <ele>93.64</ele>
        <time>2020-06-16T09:00:03Z</time>
      </trkpt>
      <trkpt lat="48.20864" lon="2.91068">
        <ele>93.72</ele>
        <time>2020-06-16T09:00:08Z</time>
      </trkpt>
      <trkpt lat="48.20859" lon="2.91073">
        <ele>93.73</ele>
        <time>2020-06-16T09:00:13Z</time>
      </trkpt>
      <trkpt lat="48.20853" lon="2.91076">
        <ele>93.84</ele>
        <time>2020-06-16T09:00:18Z</time>
      </trkpt>
      <trkpt lat="48.20847" lon="2.91078">
        <ele>93.92</ele>
        <time>2020-06-16T09:00:23Z</time>
      </trkpt>
      <trkpt lat="48.20843" lon="2.91083">
        <ele>93.92</ele>
        <time>2020-06-16T09:00:28Z</time>
      </trkpt>
      <trkpt lat="48.20838" lon="2.91087">
        <ele>93.89</ele>
        <time>2020-06-16T09:00:33Z</time>
      </trkpt>
      <trkpt lat="48.20833" lon="2.91092">
        <ele>93.91</ele>
        <time>2020-06-16T09:00:38Z</time>
      </trkpt>
      <trkpt lat="48.20827" lon="2.91096">
        <ele>93.94</ele>
        <time>2020-06-16T09:00:43Z</time>
      </trkpt>
      <trkpt lat="48.20823" lon="2.91101">
        <ele>94.05</ele>
        <time>2020-06-16T09:00:48Z</time>
      </trkpt>
      <trkpt lat="48.20817" lon="2.91103">
        <ele>94.08</ele>
        <time>2020-06-16T09:00:53Z</time>
      </trkpt>
      <trkpt lat="48.20813" lon="2.91105">
        <ele>94.19</ele>
        <time>2020-06-16T09:00:58Z</time>
      </trkpt>
      <trkpt lat="48.2081" lon="2.91109">
        <ele>94.44</ele>
        <time>2020-06-16T09:01:03Z</time>
      </trkpt>
      <trkpt lat="48.20805" lon="2.91112">
        <ele>94.51</ele>
        <time>2020-06-16T09:01:08Z</time>
      </trkpt>
      <trkpt lat="48.20799" lon="2.91116">
        <ele>94.53</ele>
        <time>2020-06-16T09:01:13Z</time>
      </trkpt>
      <trkpt lat="48.20795" lon="2.9112">
        <ele>94.57</ele>
        <time>2020-06-16T09:01:18Z</time>
      </trkpt>
      <trkpt lat="48.20792" lon="2.91124">
        <ele>94.51</ele>
        <time>2020-06-16T09:01:23Z</time>
      </trkpt>
      <trkpt lat="48.20786" lon="2.91128">
        <ele>94.47</ele>
        <time>2020-06-16T09:01:28Z</time>
      </trkpt>
      <trkpt lat="48.2078" lon="2.91132">
        <ele>94.47</ele>
        <time>2020-06-16T09:01:33Z</time>
      </trkpt>
      <trkpt lat="48.20776" lon="2.91136">
        <ele>94.43</ele>
        <time>2020-06-16T09:01:38Z</time>
      </trkpt>
      <trkpt lat="48.20771" lon="2.9114">
        <ele>94.4</ele>
        <time>2020-06-16T09:01:43Z</time>
      </trkpt>
      <trkpt lat="48.20767" lon="2.91147">
        <ele>94.42</ele>
        <time>2020-06-16T09:01:48Z</time>
      </trkpt>
      <trkpt lat="48.20763" lon="2.91152">
        <ele>94.42</ele>
        <time>2020-06-16T09:01:53Z</time>
      </trkpt>
      <trkpt lat="48.20759" lon="2.91155">
        <ele>94.4</ele>
        <time>2020-06-16T09:01:58Z</time>
      </trkpt>
      <trkpt lat="48.20754" lon="2.91162">
        <ele>94.39</ele>
        <time>2020-06-16T09:02:03Z</time>
      </trkpt>
      <trkpt lat="48.2075" lon="2.91172">
        <ele>94.37</ele>
        <time>2020-06-16T09:02:08Z</time>
      </trkpt>
      <trkpt lat="48.20747" lon="2.9118">
        <ele>94.36</ele>
        <time>2020-06-16T09:02:13Z</time>
      </trkpt>
      <trkpt lat="48.20745" lon="2.9119">
        <ele>94.51</ele>
        <time>2020-06-16T09:02:18Z</time>
      </trkpt>
      <trkpt lat="48.2074" lon="2.91199">
        <ele>94.52</ele>
        <time>2020-06-16T09:02:23Z</time>
      </trkpt>
      <trkpt lat="48.20734" lon="2.9121">
        <ele>94.46</ele>
        <time>2020-06-16T09:02:28Z</time>
      </trkpt>
      <trkpt lat="48.20729" lon="2.91219">
        <ele>94.54</ele>
        <time>2020-06-16T09:02:33Z</time>
      </trkpt>
      <trkpt lat="48.20725" lon="2.91226">
        <ele>94.51</ele>
        <time>2020-06-16T09:02:38Z</time>
      </trkpt>
      <trkpt lat="48.2072" lon="2.91236">
        <ele>94.51</ele>
        <time>2020-06-16T09:02:43Z</time>
      </trkpt>
      <trkpt lat="48.20716" lon="2.91244">
        <ele>94.51</ele>
        <time>2020-06-16T09:02:48Z</time>
      </trkpt>
      <trkpt lat="48.20712" lon="2.9125">
        <ele>94.63</ele>
        <time>2020-06-16T09:02:53Z</time>
      </trkpt>
      <trkpt lat="48.20709" lon="2.91259">
        <ele>94.59</ele>
        <time>2020-06-16T09:02:58Z</time>
      </trkpt>
      <trkpt lat="48.20706" lon="2.91267">
        <ele>94.54</ele>
        <time>2020-06-16T09:03:03Z</time>
      </trkpt>
      <trkpt lat="48.20705" lon="2.91275">
        <ele>94.54</ele>
        <time>2020-06-16T09:03:08Z</time>
      </trkpt>
      <trkpt lat="48.20703" lon="2.91282">
        <ele>94.43</ele>
        <time>2020-06-16T09:03:13Z</time>
      </trkpt>
      <trkpt lat="48.20702" lon="2.9129">
        <ele>94.42</ele>
        <time>2020-06-16T09:03:18Z</time>
      </trkpt>
      <trkpt lat="48.20701" lon="2.91298">
        <ele>94.39</ele>
        <time>2020-06-16T09:03:23Z</time>
      </trkpt>
      <trkpt lat="48.207" lon="2.91306">
        <ele>94.37</ele>
        <time>2020-06-16T09:03:28Z</time>
      </trkpt>
      <trkpt lat="48.20699" lon="2.91313">
        <ele>94.37</ele>
        <time>2020-06-16T09:03:33Z</time>
      </trkpt>
      <trkpt lat="48.20698" lon="2.9132">
        <ele>94.51</ele>
        <time>2020-06-16T09:03:38Z</time>
      </trkpt>
      <trkpt lat="48.20698" lon="2.9133">
        <ele>94.65</ele>
        <time>2020-06-16T09:03:43Z</time>
      </trkpt>
      <trkpt lat="48.20696" lon="2.91338">
        <ele>94.79</ele>
        <time>2020-06-16T09:03:48Z</time>
      </trkpt>
      <trkpt lat="48.20694" lon="2.91345">
        <ele>94.8</ele>
        <time>2020-06-16T09:03:53Z</time>
      </trkpt>
      <trkpt lat="48.20692" lon="2.91354">
        <ele>94.7</ele>
        <time>2020-06-16T09:03:58Z</time>
      </trkpt>
      <trkpt lat="48.20693" lon="2.9136">
        <ele>94.9</ele>
        <time>2020-06-16T09:04:03Z</time>
      </trkpt>
      <trkpt lat="48.2069" lon="2.91365">
        <ele>94.99</ele>
        <time>2020-06-16T09:04:08Z</time>
      </trkpt>
      <trkpt lat="48.20688" lon="2.91373">
        <ele>94.89</ele>
        <time>2020-06-16T09:04:13Z</time>
      </trkpt>
      <trkpt lat="48.20687" lon="2.91381">
        <ele>94.88</ele>
        <time>2020-06-16T09:04:18Z</time>
      </trkpt>
      <trkpt lat="48.20686" lon="2.91389">
        <ele>94.89</ele>
        <time>2020-06-16T09:04:23Z</time>
      </trkpt>
      <trkpt lat="48.20683" lon="2.91397">
        <ele>94.91</ele>
        <time>2020-06-16T09:04:28Z</time>
      </trkpt>
      <trkpt lat="48.20682" lon="2.91407">
        <ele>94.96</ele>
        <time>2020-06-16T09:04:33Z</time>
      </trkpt>
      <trkpt lat="48.2068" lon="2.91415">
        <ele>94.98</ele>
        <time>2020-06-16T09:04:38Z</time>
      </trkpt>
      <trkpt lat="48.20678" lon="2.91423">
        <ele>94.98</ele>
        <time>2020-06-16T09:04:43Z</time>
      </trkpt>
      <trkpt lat="48.20673" lon="2.91433">
        <ele>94.99</ele>
        <time>2020-06-16T09:04:48Z</time>
      </trkpt>
      <trkpt lat="48.20669" lon="2.91442">
        <ele>95.04</ele>
        <time>2020-06-16T09:04:53Z</time>
      </trkpt>
      <trkpt lat="48.20666" lon="2.91452">
        <ele>95.11</ele>
        <time>2020-06-16T09:04:58Z</time>
      </trkpt>
      <trkpt lat="48.20662" lon="2.9146">
        <ele>95.12</ele>
        <time>2020-06-16T09:05:03Z</time>
      </trkpt>
      <trkpt lat="48.20658" lon="2.91468">
        <ele>95.15</ele>
        <time>2020-06-16T09:05:08Z</time>
      </trkpt>
      <trkpt lat="48.20653" lon="2.91475">
        <ele>95.19</ele>
        <time>2020-06-16T09:05:13Z</time>
      </trkpt>
      <trkpt lat="48.20649" lon="2.91482">
        <ele>95.28</ele>
        <time>2020-06-16T09:05:18Z</time>
      </trkpt>
      <trkpt lat="48.20645" lon="2.91488">
        <ele>95.37</ele>
        <time>2020-06-16T09:05:23Z</time>
      </trkpt>
      <trkpt lat="48.20641" lon="2.91495">
        <ele>95.4</ele>
        <time>2020-06-16T09:05:28Z</time>
      </trkpt>
      <trkpt lat="48.20639" lon="2.91501">
        <ele>95.74</ele>
        <time>2020-06-16T09:05:33Z</time>
      </trkpt>
      <trkpt lat="48.20636" lon="2.91506">
        <ele>95.79</ele>
        <time>2020-06-16T09:05:38Z</time>
      </trkpt>
      <trkpt lat="48.20631" lon="2.91513">
        <ele>95.79</ele>
        <time>2020-06-16T09:05:43Z</time>
      </trkpt>
      <trkpt lat="48.20627" lon="2.91519">
        <ele>95.88</ele>
        <time>2020-06-16T09:05:48Z</time>
      </trkpt>
      <trkpt lat="48.20622" lon="2.91525">
        <ele>96.01</ele>
        <time>2020-06-16T09:05:53Z</time>
      </trkpt>
      <trkpt lat="48.20618" lon="2.91531">
        <ele>96.11</ele>
        <time>2020-06-16T09:05:58Z</time>
      </trkpt>
      <trkpt lat="48.20614" lon="2.91538">
        <ele>96.13</ele>
        <time>2020-06-16T09:06:03Z</time>
      </trkpt>
      <trkpt lat="48.2061" lon="2.91544">
        <ele>96.06</ele>
        <time>2020-06-16T09:06:08Z</time>
      </trkpt>
      <trkpt lat="48.20606" lon="2.9155">
        <ele>95.97</ele>
        <time>2020-06-16T09:06:13Z</time>
      </trkpt>
      <trkpt lat="48.206" lon="2.91553">
        <ele>95.91</ele>
        <time>2020-06-16T09:06:18Z</time>
      </trkpt>
      <trkpt lat="48.20596" lon="2.91557">
        <ele>95.9</ele>
        <time>2020-06-16T09:06:23Z</time>
      </trkpt>
      <trkpt lat="48.2059" lon="2.9156">
        <ele>95.9</ele>
        <time>2020-06-16T09:06:28Z</time>
      </trkpt>
      <trkpt lat="48.20585" lon="2.91565">
        <ele>95.92</ele>
        <time>2020-06-16T09:06:33Z</time>
      </trkpt>
      <trkpt lat="48.2058" lon="2.91572">
        <ele>96.07</ele>
        <time>2020-06-16T09:06:38Z</time>
      </trkpt>
      <trkpt lat="48.20575" lon="2.91576">
        <ele>96.18</ele>
        <time>2020-06-16T09:06:43Z</time>
      </trkpt>
      <trkpt lat="48.20571" lon="2.91582">
        <ele>96.26</ele>
        <time>2020-06-16T09:06:48Z</time>
      </trkpt>
      <trkpt lat="48.20567" lon="2.91586">
        <ele>96.37</ele>
        <time>2020-06-16T09:06:53Z</time>
      </trkpt>
      <trkpt lat="48.20562" lon="2.91592">
        <ele>96.56</ele>
        <time>2020-06-16T09:06:58Z</time>
      </trkpt>
      <trkpt lat="48.20559" lon="2.91599">
        <ele>96.66</ele>
        <time>2020-06-16T09:07:03Z</time>
      </trkpt>
      <trkpt lat="48.20557" lon="2.91605">
        <ele>96.71</ele>
        <time>2020-06-16T09:07:08Z</time>
      </trkpt>
      <trkpt lat="48.20554" lon="2.91612">
        <ele>96.86</ele>
        <time>2020-06-16T09:07:13Z</time>
      </trkpt>
      <trkpt lat="48.20552" lon="2.91618">
        <ele>96.95</ele>
        <time>2020-06-16T09:07:18Z</time>
      </trkpt>
      <trkpt lat="48.2055" lon="2.91625">
        <ele>97.09</ele>
        <time>2020-06-16T09:07:23Z</time>
      </trkpt>
      <trkpt lat="48.20548" lon="2.91634">
        <ele>97.12</ele>
        <time>2020-06-16T09:07:28Z</time>
      </trkpt>
      <trkpt lat="48.20546" lon="2.91642">
        <ele>97.11</ele>
        <time>2020-06-16T09:07:33Z</time>
      </trkpt>
      <trkpt lat="48.20544" lon="2.9165">
        <ele>97.11</ele>
        <time>2020-06-16T09:07:38Z</time>
      </trkpt>
      <trkpt lat="48.20543" lon="2.91658">
        <ele>97.12</ele>
        <time>2020-06-16T09:07:43Z</time>
      </trkpt>
      <trkpt lat="48.20541" lon="2.91666">
        <ele>97.22</ele>
        <time>2020-06-16T09:07:48Z</time>
      </trkpt>
      <trkpt lat="48.20538" lon="2.91674">
        <ele>97.29</ele>
        <time>2020-06-16T09:07:53Z</time>
      </trkpt>
      <trkpt lat="48.20537" lon="2.91683">
        <ele>97.23</ele>
        <time>2020-06-16T09:07:58Z</time>
      </trkpt>
      <trkpt lat="48.20536" lon="2.91692">
        <ele>97.11</ele>
        <time>2020-06-16T09:08:03Z</time>
      </trkpt>
      <trkpt lat="48.20535" lon="2.91703">
        <ele>97.3</ele>
        <time>2020-06-16T09:08:08Z</time>
      </trkpt>
      <trkpt lat="48.20533" lon="2.91714">
        <ele>97.34</ele>
        <time>2020-06-16T09:08:13Z</time>
      </trkpt>
      <trkpt lat="48.20532" lon="2.91724">
        <ele>97.39</ele>
        <time>2020-06-16T09:08:18Z</time>
      </trkpt>
      <trkpt lat="48.20531" lon="2.91734">
        <ele>97.42</ele>
        <time>2020-06-16T09:08:23Z</time>
      </trkpt>
      <trkpt lat="48.20528" lon="2.91744">
        <ele>97.42</ele>
        <time>2020-06-16T09:08:28Z</time>
      </trkpt>
      <trkpt lat="48.20524" lon="2.91753">
        <ele>97.42</ele>
        <time>2020-06-16T09:08:33Z</time>
      </trkpt>
      <trkpt lat="48.20521" lon="2.91762">
        <ele>97.45</ele>
        <time>2020-06-16T09:08:38Z</time>
      </trkpt>
      <trkpt lat="48.2052" lon="2.91771">
        <ele>97.48</ele>
        <time>2020-06-16T09:08:43Z</time>
      </trkpt>
      <trkpt lat="48.20518" lon="2.9178">
        <ele>97.5</ele>
        <time>2020-06-16T09:08:48Z</time>
      </trkpt>
      <trkpt lat="48.20517" lon="2.91789">
        <ele>97.51</ele>
        <time>2020-06-16T09:08:53Z</time>
      </trkpt>
      <trkpt lat="48.20514" lon="2.91799">
        <ele>97.63</ele>
        <time>2020-06-16T09:08:58Z</time>
      </trkpt>
      <trkpt lat="48.20512" lon="2.91807">
        <ele>97.71</ele>
        <time>2020-06-16T09:09:03Z</time>
      </trkpt>
      <trkpt lat="48.2051" lon="2.91817">
        <ele>97.76</ele>
        <time>2020-06-16T09:09:08Z</time>
      </trkpt>
      <trkpt lat="48.20508" lon="2.91824">
        <ele>97.88</ele>
        <time>2020-06-16T09:09:13Z</time>
      </trkpt>
      <trkpt lat="48.20506" lon="2.91831">
        <ele>97.88</ele>
        <time>2020-06-16T09:09:18Z</time>
      </trkpt>
      <trkpt lat="48.20501" lon="2.91839">
        <ele>97.98</ele>
        <time>2020-06-16T09:09:23Z</time>
      </trkpt>
      <trkpt lat="48.20498" lon="2.91848">
        <ele>98.08</ele>
        <time>2020-06-16T09:09:28Z</time>
      </trkpt>
      <trkpt lat="48.20495" lon="2.91856">
        <ele>98</ele>
        <time>2020-06-16T09:09:33Z</time>
      </trkpt>
      <trkpt lat="48.20491" lon="2.91863">
        <ele>97.96</ele>
        <time>2020-06-16T09:09:38Z</time>
      </trkpt>
      <trkpt lat="48.20486" lon="2.9187">
        <ele>97.94</ele>
        <time>2020-06-16T09:09:43Z</time>
      </trkpt>
      <trkpt lat="48.20481" lon="2.91878">
        <ele>98</ele>
        <time>2020-06-16T09:09:48Z</time>
      </trkpt>
      <trkpt lat="48.20475" lon="2.91883">
        <ele>98.02</ele>
        <time>2020-06-16T09:09:53Z</time>
      </trkpt>
      <trkpt lat="48.2047" lon="2.91889">
        <ele>98.12</ele>
        <time>2020-06-16T09:09:58Z</time>
      </trkpt>
      <trkpt lat="48.20465" lon="2.91895">
        <ele>98.12</ele>
        <time>2020-06-16T09:10:03Z</time>
      </trkpt>
      <trkpt lat="48.20462" lon="2.91902">
        <ele>98.19</ele>
        <time>2020-06-16T09:10:08Z</time>
      </trkpt>
      <trkpt lat="48.20457" lon="2.91908">
        <ele>98.19</ele>
        <time>2020-06-16T09:10:13Z</time>
      </trkpt>
      <trkpt lat="48.20453" lon="2.91915">
        <ele>98.3</ele>
        <time>2020-06-16T09:10:18Z</time>
      </trkpt>
      <trkpt lat="48.20451" lon="2.91923">
        <ele>98.44</ele>
        <time>2020-06-16T09:10:23Z</time>
      </trkpt>
      <trkpt lat="48.20447" lon="2.9193">
        <ele>98.41</ele>
        <time>2020-06-16T09:10:28Z</time>
      </trkpt>
      <trkpt lat="48.20445" lon="2.91936">
        <ele>98.51</ele>
        <time>2020-06-16T09:10:33Z</time>
      </trkpt>
      <trkpt lat="48.20442" lon="2.91944">
        <ele>98.53</ele>
        <time>2020-06-16T09:10:38Z</time>
      </trkpt>
      <trkpt lat="48.20437" lon="2.91951">
        <ele>98.51</ele>
        <time>2020-06-16T09:10:43Z</time>
      </trkpt>
      <trkpt lat="48.20434" lon="2.91958">
        <ele>98.68</ele>
        <time>2020-06-16T09:10:48Z</time>
      </trkpt>
      <trkpt lat="48.2043" lon="2.91964">
        <ele>98.94</ele>
        <time>2020-06-16T09:10:53Z</time>
      </trkpt>
      <trkpt lat="48.20427" lon="2.91971">
        <ele>98.87</ele>
        <time>2020-06-16T09:10:58Z</time>
      </trkpt>
      <trkpt lat="48.20424" lon="2.91979">
        <ele>98.84</ele>
        <time>2020-06-16T09:11:03Z</time>
      </trkpt>
      <trkpt lat="48.2042" lon="2.91987">
        <ele>98.86</ele>
        <time>2020-06-16T09:11:08Z</time>
      </trkpt>
      <trkpt lat="48.20416" lon="2.91994">
        <ele>99.03</ele>
        <time>2020-06-16T09:11:13Z</time>
      </trkpt>
      <trkpt lat="48.20413" lon="2.92001">
        <ele>99.04</ele>
        <time>2020-06-16T09:11:18Z</time>
      </trkpt>
      <trkpt lat="48.2041" lon="2.92008">
        <ele>99.07</ele>
        <time>2020-06-16T09:11:23Z</time>
      </trkpt>
      <trkpt lat="48.20407" lon="2.92016">
        <ele>99.11</ele>
        <time>2020-06-16T09:11:28Z</time>
      </trkpt>
      <trkpt lat="48.20403" lon="2.92023">
        <ele>99.16</ele>
        <time>2020-06-16T09:11:33Z</time>
      </trkpt>
      <trkpt lat="48.20399" lon="2.9203">
        <ele>99.21</ele>
        <time>2020-06-16T09:11:38Z</time>
      </trkpt>
      <trkpt lat="48.20395" lon="2.92036">
        <ele>99.32</ele>
        <time>2020-06-16T09:11:43Z</time>
      </trkpt>
      <trkpt lat="48.20391" lon="2.92043">
        <ele>99.38</ele>
        <time>2020-06-16T09:11:48Z</time>
      </trkpt>
      <trkpt lat="48.20388" lon="2.92049">
        <ele>99.46</ele>
        <time>2020-06-16T09:11:53Z</time>
      </trkpt>
      <trkpt lat="48.20384" lon="2.92054">
        <ele>99.53</ele>
        <time>2020-06-16T09:11:58Z</time>
      </trkpt>
      <trkpt lat="48.20381" lon="2.92059">
        <ele>99.67</ele>
        <time>2020-06-16T09:12:03Z</time>
      </trkpt>
      <trkpt lat="48.20377" lon="2.92065">
        <ele>99.89</ele>
        <time>2020-06-16T09:12:08Z</time>
      </trkpt>
      <trkpt lat="48.20373" lon="2.9207">
        <ele>100.09</ele>
        <time>2020-06-16T09:12:13Z</time>
      </trkpt>
      <trkpt lat="48.20369" lon="2.92076">
        <ele>100.12</ele>
        <time>2020-06-16T09:12:18Z</time>
      </trkpt>
      <trkpt lat="48.20365" lon="2.92082">
        <ele>100.21</ele>
        <time>2020-06-16T09:12:23Z</time>
      </trkpt>
      <trkpt lat="48.20363" lon="2.92086">
        <ele>100.75</ele>
        <time>2020-06-16T09:12:28Z</time>
      </trkpt>
      <trkpt lat="48.20362" lon="2.92094">
        <ele>100.99</ele>
        <time>2020-06-16T09:12:33Z</time>
      </trkpt>
      <trkpt lat="48.20362" lon="2.92102">
        <ele>101.03</ele>
        <time>2020-06-16T09:12:38Z</time>
      </trkpt>
      <trkpt lat="48.20358" lon="2.92106">
        <ele>101.03</ele>
        <time>2020-06-16T09:12:43Z</time>
      </trkpt>
      <trkpt lat="48.2036" lon="2.92109">
        <ele>101.03</ele>
        <time>2020-06-16T09:12:48Z</time>
      </trkpt>
      <trkpt lat="48.20362" lon="2.92114">
        <ele>100.95</ele>
        <time>2020-06-16T09:12:53Z</time>
      </trkpt>
      <trkpt lat="48.20363" lon="2.92122">
        <ele>101.06</ele>
        <time>2020-06-16T09:12:58Z</time>
      </trkpt>
      <trkpt lat="48.20365" lon="2.92131">
        <ele>100.97</ele>
        <time>2020-06-16T09:13:03Z</time>
      </trkpt>
      <trkpt lat="48.20366" lon="2.9214">
        <ele>100.96</ele>
        <time>2020-06-16T09:13:08Z</time>
      </trkpt>
      <trkpt lat="48.20368" lon="2.92149">
        <ele>100.97</ele>
        <time>2020-06-16T09:13:13Z</time>
      </trkpt>
      <trkpt lat="48.20369" lon="2.92157">
        <ele>100.99</ele>
        <time>2020-06-16T09:13:18Z</time>
      </trkpt>
      <trkpt lat="48.20369" lon="2.92165">
        <ele>100.95</ele>
        <time>2020-06-16T09:13:23Z</time>
      </trkpt>
      <trkpt lat="48.20371" lon="2.92173">
        <ele>100.94</ele>
        <time>2020-06-16T09:13:28Z</time>
      </trkpt>
      <trkpt lat="48.20373" lon="2.92182">
        <ele>101.05</ele>
        <time>2020-06-16T09:13:33Z</time>
      </trkpt>
      <trkpt lat="48.20375" lon="2.9219">
        <ele>101.37</ele>
        <time>2020-06-16T09:13:38Z</time>
      </trkpt>
      <trkpt lat="48.20378" lon="2.92198">
        <ele>101.24</ele>
        <time>2020-06-16T09:13:43Z</time>
      </trkpt>
      <trkpt lat="48.2038" lon="2.92206">
        <ele>101.24</ele>
        <time>2020-06-16T09:13:48Z</time>
      </trkpt>
      <trkpt lat="48.2038" lon="2.92213">
        <ele>101.41</ele>
        <time>2020-06-16T09:13:53Z</time>
      </trkpt>
      <trkpt lat="48.20385" lon="2.92219">
        <ele>101.4</ele>
        <time>2020-06-16T09:13:58Z</time>
      </trkpt>
      <trkpt lat="48.20388" lon="2.92226">
        <ele>101.42</ele>
        <time>2020-06-16T09:14:03Z</time>
      </trkpt>
      <trkpt lat="48.20393" lon="2.92235">
        <ele>101.59</ele>
        <time>2020-06-16T09:14:08Z</time>
      </trkpt>
      <trkpt lat="48.20391" lon="2.92242">
        <ele>101.67</ele>
        <time>2020-06-16T09:14:13Z</time>
      </trkpt>
      <trkpt lat="48.20384" lon="2.92245">
        <ele>101.6</ele>
        <time>2020-06-16T09:14:18Z</time>
      </trkpt>
      <trkpt lat="48.20378" lon="2.92248">
        <ele>101.29</ele>
        <time>2020-06-16T09:14:23Z</time>
      </trkpt>
      <trkpt lat="48.20371" lon="2.9225">
        <ele>101.04</ele>
        <time>2020-06-16T09:14:28Z</time>
      </trkpt>
      <trkpt lat="48.20365" lon="2.92251">
        <ele>100.88</ele>
        <time>2020-06-16T09:14:33Z</time>
      </trkpt>
      <trkpt lat="48.20359" lon="2.92252">
        <ele>100.82</ele>
        <time>2020-06-16T09:14:38Z</time>
      </trkpt>
      <trkpt lat="48.20353" lon="2.92253">
        <ele>100.69</ele>
        <time>2020-06-16T09:14:43Z</time>
      </trkpt>
      <trkpt lat="48.20347" lon="2.92256">
        <ele>100.59</ele>
        <time>2020-06-16T09:14:48Z</time>
      </trkpt>
      <trkpt lat="48.20341" lon="2.92257">
        <ele>100.56</ele>
        <time>2020-06-16T09:14:53Z</time>
      </trkpt>
      <trkpt lat="48.20337" lon="2.92258">
        <ele>100.59</ele>
        <time>2020-06-16T09:14:58Z</time>
      </trkpt>
      <trkpt lat="48.20332" lon="2.92257">
        <ele>100.49</ele>
        <time>2020-06-16T09:15:03Z</time>
      </trkpt>
      <trkpt lat="48.20327" lon="2.92257">
        <ele>100.48</ele>
        <time>2020-06-16T09:15:08Z</time>
      </trkpt>
      <trkpt lat="48.20324" lon="2.92256">
        <ele>100.45</ele>
        <time>2020-06-16T09:15:13Z</time>
      </trkpt>
      <trkpt lat="48.20319" lon="2.92257">
        <ele>100.44</ele>
        <time>2020-06-16T09:15:18Z</time>
      </trkpt>
      <trkpt lat="48.20314" lon="2.92255">
        <ele>100.36</ele>
        <time>2020-06-16T09:15:23Z</time>
      </trkpt>
      <trkpt lat="48.20308" lon="2.92253">
        <ele>100.33</ele>
        <time>2020-06-16T09:15:28Z</time>
      </trkpt>
      <trkpt lat="48.203" lon="2.92253">
        <ele>100.25</ele>
        <time>2020-06-16T09:15:33Z</time>
      </trkpt>
      <trkpt lat="48.20295" lon="2.92252">
        <ele>100.22</ele>
        <time>2020-06-16T09:15:38Z</time>
      </trkpt>
      <trkpt lat="48.20288" lon="2.92251">
        <ele>100.16</ele>
        <time>2020-06-16T09:15:43Z</time>
      </trkpt>
      <trkpt lat="48.20283" lon="2.9225">
        <ele>100.16</ele>
        <time>2020-06-16T09:15:48Z</time>
      </trkpt>
      <trkpt lat="48.20277" lon="2.92249">
        <ele>100.16</ele>
        <time>2020-06-16T09:15:53Z</time>
      </trkpt>
      <trkpt lat="48.20272" lon="2.92251">
        <ele>100.12</ele>
        <time>2020-06-16T09:15:58Z</time>
      </trkpt>
      <trkpt lat="48.20264" lon="2.92251">
        <ele>100.16</ele>
        <time>2020-06-16T09:16:03Z</time>
      </trkpt>
      <trkpt lat="48.20258" lon="2.92252">
        <ele>100.18</ele>
        <time>2020-06-16T09:16:08Z</time>
      </trkpt>
      <trkpt lat="48.20254" lon="2.9225">
        <ele>100.29</ele>
        <time>2020-06-16T09:16:13Z</time>
      </trkpt>
      <trkpt lat="48.20248" lon="2.92248">
        <ele>100.48</ele>
        <time>2020-06-16T09:16:18Z</time>
      </trkpt>
      <trkpt lat="48.20244" lon="2.92245">
        <ele>100.52</ele>
        <time>2020-06-16T09:16:23Z</time>
      </trkpt>
      <trkpt lat="48.20239" lon="2.92243">
        <ele>100.55</ele>
        <time>2020-06-16T09:16:28Z</time>
      </trkpt>
      <trkpt lat="48.20233" lon="2.92243">
        <ele>100.63</ele>
        <time>2020-06-16T09:16:33Z</time>
      </trkpt>
      <trkpt lat="48.20227" lon="2.92248">
        <ele>100.63</ele>
        <time>2020-06-16T09:16:38Z</time>
      </trkpt>
      <trkpt lat="48.2022" lon="2.9225">
        <ele>100.64</ele>
        <time>2020-06-16T09:16:43Z</time>
      </trkpt>
      <trkpt lat="48.20214" lon="2.92256">
        <ele>100.73</ele>
        <time>2020-06-16T09:16:48Z</time>
      </trkpt>
      <trkpt lat="48.20209" lon="2.92263">
        <ele>100.76</ele>
        <time>2020-06-16T09:16:53Z</time>
      </trkpt>
      <trkpt lat="48.20204" lon="2.92266">
        <ele>100.76</ele>
        <time>2020-06-16T09:16:58Z</time>
      </trkpt>
      <trkpt lat="48.20199" lon="2.9227">
        <ele>100.77</ele>
        <time>2020-06-16T09:17:03Z</time>
      </trkpt>
      <trkpt lat="48.20194" lon="2.92275">
        <ele>100.9</ele>
        <time>2020-06-16T09:17:08Z</time>
      </trkpt>
      <trkpt lat="48.20189" lon="2.92279">
        <ele>100.98</ele>
        <time>2020-06-16T09:17:13Z</time>
      </trkpt>
      <trkpt lat="48.20185" lon="2.92285">
        <ele>101.07</ele>
        <time>2020-06-16T09:17:18Z</time>
      </trkpt>
      <trkpt lat="48.2018" lon="2.92292">
        <ele>101.09</ele>
        <time>2020-06-16T09:17:23Z</time>
      </trkpt>
      <trkpt lat="48.20175" lon="2.92297">
        <ele>101.11</ele>
        <time>2020-06-16T09:17:28Z</time>
      </trkpt>
      <trkpt lat="48.20169" lon="2.92305">
        <ele>101.05</ele>
        <time>2020-06-16T09:17:33Z</time>
      </trkpt>
      <trkpt lat="48.20165" lon="2.92311">
        <ele>101.06</ele>
        <time>2020-06-16T09:17:38Z</time>
      </trkpt>
      <trkpt lat="48.20161" lon="2.9232">
        <ele>101.19</ele>
        <time>2020-06-16T09:17:43Z</time>
      </trkpt>
      <trkpt lat="48.20156" lon="2.92327">
        <ele>101.25</ele>
        <time>2020-06-16T09:17:48Z</time>
      </trkpt>
      <trkpt lat="48.20153" lon="2.92333">
        <ele>101.28</ele>
        <time>2020-06-16T09:17:53Z</time>
      </trkpt>
      <trkpt lat="48.20149" lon="2.9234">
        <ele>101.61</ele>
        <time>2020-06-16T09:17:58Z</time>
      </trkpt>
      <trkpt lat="48.20145" lon="2.92346">
        <ele>101.71</ele>
        <time>2020-06-16T09:18:03Z</time>
      </trkpt>
      <trkpt lat="48.20139" lon="2.92348">
        <ele>101.67</ele>
        <time>2020-06-16T09:18:08Z</time>
      </trkpt>
      <trkpt lat="48.20132" lon="2.92351">
        <ele>101.6</ele>
        <time>2020-06-16T09:18:13Z</time>
      </trkpt>
      <trkpt lat="48.20126" lon="2.92352">
        <ele>101.53</ele>
        <time>2020-06-16T09:18:18Z</time>
      </trkpt>
      <trkpt lat="48.20121" lon="2.92353">
        <ele>101.55</ele>
        <time>2020-06-16T09:18:23Z</time>
      </trkpt>
      <trkpt lat="48.20116" lon="2.92354">
        <ele>101.59</ele>
        <time>2020-06-16T09:18:28Z</time>
      </trkpt>
      <trkpt lat="48.2011" lon="2.92356">
        <ele>101.5</ele>
        <time>2020-06-16T09:18:33Z</time>
      </trkpt>
      <trkpt lat="48.20105" lon="2.92355">
        <ele>101.43</ele>
        <time>2020-06-16T09:18:38Z</time>
      </trkpt>
      <trkpt lat="48.20098" lon="2.92355">
        <ele>101.36</ele>
        <time>2020-06-16T09:18:43Z</time>
      </trkpt>
      <trkpt lat="48.20092" lon="2.92359">
        <ele>101.49</ele>
        <time>2020-06-16T09:18:48Z</time>
      </trkpt>
      <trkpt lat="48.20086" lon="2.92359">
        <ele>101.58</ele>
        <time>2020-06-16T09:18:53Z</time>
      </trkpt>
      <trkpt lat="48.20079" lon="2.92358">
        <ele>101.53</ele>
        <time>2020-06-16T09:18:58Z</time>
      </trkpt>
      <trkpt lat="48.20074" lon="2.92358">
        <ele>101.59</ele>
        <time>2020-06-16T09:19:03Z</time>
      </trkpt>
      <trkpt lat="48.20068" lon="2.92358">
        <ele>101.63</ele>
        <time>2020-06-16T09:19:08Z</time>
      </trkpt>
      <trkpt lat="48.20061" lon="2.92358">
        <ele>101.7</ele>
        <time>2020-06-16T09:19:13Z</time>
      </trkpt>
      <trkpt lat="48.20055" lon="2.92357">
        <ele>101.64</ele>
        <time>2020-06-16T09:19:18Z</time>
      </trkpt>
      <trkpt lat="48.20051" lon="2.92357">
        <ele>101.62</ele>
        <time>2020-06-16T09:19:23Z</time>
      </trkpt>
      <trkpt lat="48.20044" lon="2.92357">
        <ele>101.74</ele>
        <time>2020-06-16T09:19:28Z</time>
      </trkpt>
      <trkpt lat="48.20038" lon="2.92356">
        <ele>101.66</ele>
        <time>2020-06-16T09:19:33Z</time>
      </trkpt>
      <trkpt lat="48.20032" lon="2.92355">
        <ele>101.64</ele>
        <time>2020-06-16T09:19:38Z</time>
      </trkpt>
      <trkpt lat="48.20026" lon="2.92352">
        <ele>101.7</ele>
        <time>2020-06-16T09:19:43Z</time>
      </trkpt>
      <trkpt lat="48.2002" lon="2.92355">
        <ele>101.74</ele>
        <time>2020-06-16T09:19:48Z</time>
      </trkpt>
      <trkpt lat="48.20014" lon="2.92352">
        <ele>101.77</ele>
        <time>2020-06-16T09:19:53Z</time>
      </trkpt>
      <trkpt lat="48.20007" lon="2.92355">
        <ele>101.9</ele>
        <time>2020-06-16T09:19:58Z</time>
      </trkpt>
      <trkpt lat="48.2" lon="2.92355">
        <ele>101.9</ele>
        <time>2020-06-16T09:20:03Z</time>
      </trkpt>
      <trkpt lat="48.19995" lon="2.92357">
        <ele>102.09</ele>
        <time>2020-06-16T09:20:08Z</time>
      </trkpt>
      <trkpt lat="48.19988" lon="2.92357">
        <ele>102.11</ele>
        <time>2020-06-16T09:20:13Z</time>
      </trkpt>
      <trkpt lat="48.19983" lon="2.92356">
        <ele>102.08</ele>
        <time>2020-06-16T09:20:18Z</time>
      </trkpt>
      <trkpt lat="48.19977" lon="2.92354">
        <ele>102.06</ele>
        <time>2020-06-16T09:20:23Z</time>
      </trkpt>
      <trkpt lat="48.1997" lon="2.92352">
        <ele>102.06</ele>
        <time>2020-06-16T09:20:28Z</time>
      </trkpt>
      <trkpt lat="48.19965" lon="2.92355">
        <ele>102.05</ele>
        <time>2020-06-16T09:20:33Z</time>
      </trkpt>
      <trkpt lat="48.19958" lon="2.92353">
        <ele>102.06</ele>
        <time>2020-06-16T09:20:38Z</time>
      </trkpt>
      <trkpt lat="48.19954" lon="2.92354">
        <ele>102.13</ele>
        <time>2020-06-16T09:20:43Z</time>
      </trkpt>
      <trkpt lat="48.1995" lon="2.92357">
        <ele>102.36</ele>
        <time>2020-06-16T09:20:48Z</time>
      </trkpt>
      <trkpt lat="48.19945" lon="2.92362">
        <ele>102.3</ele>
        <time>2020-06-16T09:20:53Z</time>
      </trkpt>
      <trkpt lat="48.19942" lon="2.92367">
        <ele>102.25</ele>
        <time>2020-06-16T09:20:58Z</time>
      </trkpt>
      <trkpt lat="48.19937" lon="2.92373">
        <ele>102.25</ele>
        <time>2020-06-16T09:21:03Z</time>
      </trkpt>
      <trkpt lat="48.19932" lon="2.92381">
        <ele>102.25</ele>
        <time>2020-06-16T09:21:08Z</time>
      </trkpt>
      <trkpt lat="48.19927" lon="2.92389">
        <ele>102.24</ele>
        <time>2020-06-16T09:21:13Z</time>
      </trkpt>
      <trkpt lat="48.19923" lon="2.92397">
        <ele>102.32</ele>
        <time>2020-06-16T09:21:18Z</time>
      </trkpt>
      <trkpt lat="48.19921" lon="2.92404">
        <ele>102.5</ele>
        <time>2020-06-16T09:21:23Z</time>
      </trkpt>
      <trkpt lat="48.19919" lon="2.92411">
        <ele>102.59</ele>
        <time>2020-06-16T09:21:28Z</time>
      </trkpt>
      <trkpt lat="48.19917" lon="2.92418">
        <ele>102.6</ele>
        <time>2020-06-16T09:21:33Z</time>
      </trkpt>
      <trkpt lat="48.19916" lon="2.92424">
        <ele>102.69</ele>
        <time>2020-06-16T09:21:38Z</time>
      </trkpt>
      <trkpt lat="48.19916" lon="2.92424">
        <ele>102.89</ele>
        <time>2020-06-16T09:21:43Z</time>
      </trkpt>
      <trkpt lat="48.19916" lon="2.92424">
        <ele>102.89</ele>
        <time>2020-06-16T09:21:48Z</time>
      </trkpt>
      <trkpt lat="48.19916" lon="2.92424">
        <ele>102.89</ele>
        <time>2020-06-16T09:21:53Z</time>
      </trkpt>
      <trkpt lat="48.19916" lon="2.92423">
        <ele>102.89</ele>
        <time>2020-06-16T09:21:58Z</time>
      </trkpt>
      <trkpt lat="48.19915" lon="2.92422">
        <ele>102.89</ele>
        <time>2020-06-16T09:22:03Z</time>
      </trkpt>
      <trkpt lat="48.19915" lon="2.92422">
        <ele>102.89</ele>
        <time>2020-06-16T09:22:08Z</time>
      </trkpt>
      <trkpt lat="48.19915" lon="2.92423">
        <ele>102.89</ele>
        <time>2020-06-16T09:22:13Z</time>
      </trkpt>
      <trkpt lat="48.19914" lon="2.92423">
        <ele>102.89</ele>
        <time>2020-06-16T09:22:18Z</time>
      </trkpt>
      <trkpt lat="48.19914" lon="2.92425">
        <ele>102.89</ele>
        <time>2020-06-16T09:22:23Z</time>
      </trkpt>
      <trkpt lat="48.19914" lon="2.92427">
        <ele>102.89</ele>
        <time>2020-06-16T09:22:28Z</time>
      </trkpt>
      <trkpt lat="48.19913" lon="2.92429">
        <ele>102.89</ele>
        <time>2020-06-16T09:22:33Z</time>
      </trkpt>
      <trkpt lat="48.19912" lon="2.92434">
        <ele>102.89</ele>
        <time>2020-06-16T09:22:38Z</time>
      </trkpt>
      <trkpt lat="48.19911" lon="2.92441">
        <ele>102.89</ele>
        <time>2020-06-16T09:22:43Z</time>
      </trkpt>
      <trkpt lat="48.19911" lon="2.92448">
        <ele>102.89</ele>
        <time>2020-06-16T09:22:48Z</time>
      </trkpt>
      <trkpt lat="48.1991" lon="2.92456">
        <ele>102.89</ele>
        <time>2020-06-16T09:22:53Z</time>
      </trkpt>
      <trkpt lat="48.19909" lon="2.92464">
        <ele>103.14</ele>
        <time>2020-06-16T09:22:58Z</time>
      </trkpt>
      <trkpt lat="48.19909" lon="2.92473">
        <ele>103.28</ele>
        <time>2020-06-16T09:23:03Z</time>
      </trkpt>
      <trkpt lat="48.19908" lon="2.92482">
        <ele>103.21</ele>
        <time>2020-06-16T09:23:08Z</time>
      </trkpt>
      <trkpt lat="48.19908" lon="2.92491">
        <ele>103.34</ele>
        <time>2020-06-16T09:23:13Z</time>
      </trkpt>
      <trkpt lat="48.19908" lon="2.92498">
        <ele>103.42</ele>
        <time>2020-06-16T09:23:18Z</time>
      </trkpt>
      <trkpt lat="48.19909" lon="2.92505">
        <ele>103.4</ele>
        <time>2020-06-16T09:23:23Z</time>
      </trkpt>
      <trkpt lat="48.19909" lon="2.92514">
        <ele>103.4</ele>
        <time>2020-06-16T09:23:28Z</time>
      </trkpt>
      <trkpt lat="48.1991" lon="2.92522">
        <ele>103.42</ele>
        <time>2020-06-16T09:23:33Z</time>
      </trkpt>
      <trkpt lat="48.1991" lon="2.9253">
        <ele>103.4</ele>
        <time>2020-06-16T09:23:38Z</time>
      </trkpt>
      <trkpt lat="48.1991" lon="2.92538">
        <ele>103.48</ele>
        <time>2020-06-16T09:23:43Z</time>
      </trkpt>
      <trkpt lat="48.19909" lon="2.92547">
        <ele>103.61</ele>
        <time>2020-06-16T09:23:48Z</time>
      </trkpt>
      <trkpt lat="48.19909" lon="2.92556">
        <ele>103.62</ele>
        <time>2020-06-16T09:23:53Z</time>
      </trkpt>
      <trkpt lat="48.1991" lon="2.92563">
        <ele>103.56</ele>
        <time>2020-06-16T09:23:58Z</time>
      </trkpt>
      <trkpt lat="48.19911" lon="2.9257">
        <ele>103.61</ele>
        <time>2020-06-16T09:24:03Z</time>
      </trkpt>
      <trkpt lat="48.19913" lon="2.92578">
        <ele>103.63</ele>
        <time>2020-06-16T09:24:08Z</time>
      </trkpt>
      <trkpt lat="48.19913" lon="2.92587">
        <ele>103.61</ele>
        <time>2020-06-16T09:24:13Z</time>
      </trkpt>
      <trkpt lat="48.19912" lon="2.92598">
        <ele>103.61</ele>
        <time>2020-06-16T09:24:18Z</time>
      </trkpt>
      <trkpt lat="48.19911" lon="2.92606">
        <ele>103.68</ele>
        <time>2020-06-16T09:24:23Z</time>
      </trkpt>
      <trkpt lat="48.19911" lon="2.92614">
        <ele>103.71</ele>
        <time>2020-06-16T09:24:28Z</time>
      </trkpt>
      <trkpt lat="48.19908" lon="2.92624">
        <ele>103.79</ele>
        <time>2020-06-16T09:24:33Z</time>
      </trkpt>
      <trkpt lat="48.19905" lon="2.92632">
        <ele>103.58</ele>
        <time>2020-06-16T09:24:38Z</time>
      </trkpt>
      <trkpt lat="48.19902" lon="2.92642">
        <ele>103.42</ele>
        <time>2020-06-16T09:24:43Z</time>
      </trkpt>
      <trkpt lat="48.19899" lon="2.9265">
        <ele>103.41</ele>
        <time>2020-06-16T09:24:48Z</time>
      </trkpt>
      <trkpt lat="48.19896" lon="2.92658">
        <ele>103.45</ele>
        <time>2020-06-16T09:24:53Z</time>
      </trkpt>
      <trkpt lat="48.19893" lon="2.92666">
        <ele>103.52</ele>
        <time>2020-06-16T09:24:58Z</time>
      </trkpt>
      <trkpt lat="48.19889" lon="2.92673">
        <ele>103.57</ele>
        <time>2020-06-16T09:25:03Z</time>
      </trkpt>
      <trkpt lat="48.19886" lon="2.92679">
        <ele>103.57</ele>
        <time>2020-06-16T09:25:08Z</time>
      </trkpt>
      <trkpt lat="48.19882" lon="2.92686">
        <ele>103.66</ele>
        <time>2020-06-16T09:25:13Z</time>
      </trkpt>
      <trkpt lat="48.19879" lon="2.92694">
        <ele>103.72</ele>
        <time>2020-06-16T09:25:18Z</time>
      </trkpt>
      <trkpt lat="48.19875" lon="2.92701">
        <ele>103.8</ele>
        <time>2020-06-16T09:25:23Z</time>
      </trkpt>
      <trkpt lat="48.19871" lon="2.92709">
        <ele>103.84</ele>
        <time>2020-06-16T09:25:28Z</time>
      </trkpt>
      <trkpt lat="48.19867" lon="2.92716">
        <ele>103.96</ele>
        <time>2020-06-16T09:25:33Z</time>
      </trkpt>
      <trkpt lat="48.19862" lon="2.9272">
        <ele>103.97</ele>
        <time>2020-06-16T09:25:38Z</time>
      </trkpt>
      <trkpt lat="48.19857" lon="2.92726">
        <ele>103.96</ele>
        <time>2020-06-16T09:25:43Z</time>
      </trkpt>
      <trkpt lat="48.19852" lon="2.92733">
        <ele>103.99</ele>
        <time>2020-06-16T09:25:48Z</time>
      </trkpt>
      <trkpt lat="48.19846" lon="2.92738">
        <ele>103.92</ele>
        <time>2020-06-16T09:25:53Z</time>
      </trkpt>
      <trkpt lat="48.19841" lon="2.92742">
        <ele>103.94</ele>
        <time>2020-06-16T09:25:58Z</time>
      </trkpt>
      <trkpt lat="48.19835" lon="2.92745">
        <ele>103.91</ele>
        <time>2020-06-16T09:26:03Z</time>
      </trkpt>
      <trkpt lat="48.19829" lon="2.9275">
        <ele>103.9</ele>
        <time>2020-06-16T09:26:08Z</time>
      </trkpt>
      <trkpt lat="48.19824" lon="2.92754">
        <ele>103.9</ele>
        <time>2020-06-16T09:26:13Z</time>
      </trkpt>
      <trkpt lat="48.19821" lon="2.92761">
        <ele>103.91</ele>
        <time>2020-06-16T09:26:18Z</time>
      </trkpt>
      <trkpt lat="48.19817" lon="2.92767">
        <ele>103.98</ele>
        <time>2020-06-16T09:26:23Z</time>
      </trkpt>
      <trkpt lat="48.19812" lon="2.92771">
        <ele>103.93</ele>
        <time>2020-06-16T09:26:28Z</time>
      </trkpt>
      <trkpt lat="48.19806" lon="2.92774">
        <ele>103.96</ele>
        <time>2020-06-16T09:26:33Z</time>
      </trkpt>
      <trkpt lat="48.198" lon="2.92778">
        <ele>104.07</ele>
        <time>2020-06-16T09:26:38Z</time>
      </trkpt>
      <trkpt lat="48.19795" lon="2.92782">
        <ele>104.08</ele>
        <time>2020-06-16T09:26:43Z</time>
      </trkpt>
      <trkpt lat="48.19788" lon="2.92786">
        <ele>104.06</ele>
        <time>2020-06-16T09:26:48Z</time>
      </trkpt>
      <trkpt lat="48.19785" lon="2.92788">
        <ele>104.17</ele>
        <time>2020-06-16T09:26:53Z</time>
      </trkpt>
      <trkpt lat="48.1978" lon="2.92788">
        <ele>104.17</ele>
        <time>2020-06-16T09:26:58Z</time>
      </trkpt>
      <trkpt lat="48.19774" lon="2.92793">
        <ele>104.17</ele>
        <time>2020-06-16T09:27:03Z</time>
      </trkpt>
      <trkpt lat="48.19769" lon="2.92799">
        <ele>104.26</ele>
        <time>2020-06-16T09:27:08Z</time>
      </trkpt>
      <trkpt lat="48.19765" lon="2.92806">
        <ele>104.32</ele>
        <time>2020-06-16T09:27:13Z</time>
      </trkpt>
      <trkpt lat="48.1976" lon="2.92812">
        <ele>104.34</ele>
        <time>2020-06-16T09:27:18Z</time>
      </trkpt>
      <trkpt lat="48.19755" lon="2.92816">
        <ele>104.31</ele>
        <time>2020-06-16T09:27:23Z</time>
      </trkpt>
      <trkpt lat="48.19751" lon="2.92821">
        <ele>104.35</ele>
        <time>2020-06-16T09:27:28Z</time>
      </trkpt>
      <trkpt lat="48.19747" lon="2.92824">
        <ele>104.4</ele>
        <time>2020-06-16T09:27:33Z</time>
      </trkpt>
      <trkpt lat="48.19742" lon="2.92829">
        <ele>104.41</ele>
        <time>2020-06-16T09:27:38Z</time>
      </trkpt>
      <trkpt lat="48.19737" lon="2.92834">
        <ele>104.41</ele>
        <time>2020-06-16T09:27:43Z</time>
      </trkpt>
      <trkpt lat="48.19733" lon="2.92841">
        <ele>104.51</ele>
        <time>2020-06-16T09:27:48Z</time>
      </trkpt>
      <trkpt lat="48.1973" lon="2.92846">
        <ele>104.49</ele>
        <time>2020-06-16T09:27:53Z</time>
      </trkpt>
      <trkpt lat="48.19728" lon="2.92853">
        <ele>104.6</ele>
        <time>2020-06-16T09:27:58Z</time>
      </trkpt>
      <trkpt lat="48.19725" lon="2.9286">
        <ele>104.96</ele>
        <time>2020-06-16T09:28:03Z</time>
      </trkpt>
      <trkpt lat="48.19722" lon="2.92867">
        <ele>104.87</ele>
        <time>2020-06-16T09:28:08Z</time>
      </trkpt>
      <trkpt lat="48.19721" lon="2.92874">
        <ele>104.69</ele>
        <time>2020-06-16T09:28:13Z</time>
      </trkpt>
      <trkpt lat="48.19721" lon="2.92881">
        <ele>104.69</ele>
        <time>2020-06-16T09:28:18Z</time>
      </trkpt>
      <trkpt lat="48.19721" lon="2.9289">
        <ele>104.69</ele>
        <time>2020-06-16T09:28:23Z</time>
      </trkpt>
      <trkpt lat="48.1972" lon="2.92899">
        <ele>104.77</ele>
        <time>2020-06-16T09:28:28Z</time>
      </trkpt>
      <trkpt lat="48.1972" lon="2.92908">
        <ele>104.79</ele>
        <time>2020-06-16T09:28:33Z</time>
      </trkpt>
      <trkpt lat="48.1972" lon="2.92917">
        <ele>104.95</ele>
        <time>2020-06-16T09:28:38Z</time>
      </trkpt>
      <trkpt lat="48.19719" lon="2.92925">
        <ele>104.99</ele>
        <time>2020-06-16T09:28:43Z</time>
      </trkpt>
      <trkpt lat="48.1972" lon="2.92934">
        <ele>105.06</ele>
        <time>2020-06-16T09:28:48Z</time>
      </trkpt>
      <trkpt lat="48.19721" lon="2.92943">
        <ele>105.09</ele>
        <time>2020-06-16T09:28:53Z</time>
      </trkpt>
      <trkpt lat="48.19721" lon="2.92951">
        <ele>105.11</ele>
        <time>2020-06-16T09:28:58Z</time>
      </trkpt>
      <trkpt lat="48.19721" lon="2.92957">
        <ele>105.16</ele>
        <time>2020-06-16T09:29:03Z</time>
      </trkpt>
      <trkpt lat="48.19723" lon="2.92966">
        <ele>105.2</ele>
        <time>2020-06-16T09:29:08Z</time>
      </trkpt>
      <trkpt lat="48.19724" lon="2.92973">
        <ele>105.26</ele>
        <time>2020-06-16T09:29:13Z</time>
      </trkpt>
      <trkpt lat="48.19725" lon="2.92983">
        <ele>105.31</ele>
        <time>2020-06-16T09:29:18Z</time>
      </trkpt>
      <trkpt lat="48.19725" lon="2.92992">
        <ele>105.39</ele>
        <time>2020-06-16T09:29:23Z</time>
      </trkpt>
      <trkpt lat="48.19725" lon="2.93">
        <ele>105.41</ele>
        <time>2020-06-16T09:29:28Z</time>
      </trkpt>
      <trkpt lat="48.19724" lon="2.93009">
        <ele>105.49</ele>
        <time>2020-06-16T09:29:33Z</time>
      </trkpt>
      <trkpt lat="48.19725" lon="2.93018">
        <ele>105.61</ele>
        <time>2020-06-16T09:29:38Z</time>
      </trkpt>
      <trkpt lat="48.19726" lon="2.93028">
        <ele>105.59</ele>
        <time>2020-06-16T09:29:43Z</time>
      </trkpt>
      <trkpt lat="48.19727" lon="2.93037">
        <ele>105.62</ele>
        <time>2020-06-16T09:29:48Z</time>
      </trkpt>
      <trkpt lat="48.19727" lon="2.93045">
        <ele>105.65</ele>
        <time>2020-06-16T09:29:53Z</time>
      </trkpt>
      <trkpt lat="48.19725" lon="2.93052">
        <ele>105.82</ele>
        <time>2020-06-16T09:29:58Z</time>
      </trkpt>
      <trkpt lat="48.19721" lon="2.9306">
        <ele>106.03</ele>
        <time>2020-06-16T09:30:03Z</time>
      </trkpt>
      <trkpt lat="48.19715" lon="2.93065">
        <ele>106</ele>
        <time>2020-06-16T09:30:08Z</time>
      </trkpt>
      <trkpt lat="48.1971" lon="2.93069">
        <ele>105.82</ele>
        <time>2020-06-16T09:30:13Z</time>
      </trkpt>
      <trkpt lat="48.19708" lon="2.93071">
        <ele>105.75</ele>
        <time>2020-06-16T09:30:18Z</time>
      </trkpt>
      <trkpt lat="48.19708" lon="2.93072">
        <ele>105.71</ele>
        <time>2020-06-16T09:30:23Z</time>
      </trkpt>
      <trkpt lat="48.19704" lon="2.93075">
        <ele>105.71</ele>
        <time>2020-06-16T09:30:28Z</time>
      </trkpt>
      <trkpt lat="48.19699" lon="2.93081">
        <ele>105.68</ele>
        <time>2020-06-16T09:30:33Z</time>
      </trkpt>
      <trkpt lat="48.19694" lon="2.93086">
        <ele>105.61</ele>
        <time>2020-06-16T09:30:38Z</time>
      </trkpt>
      <trkpt lat="48.19689" lon="2.93091">
        <ele>105.57</ele>
        <time>2020-06-16T09:30:43Z</time>
      </trkpt>
      <trkpt lat="48.19685" lon="2.93098">
        <ele>105.53</ele>
        <time>2020-06-16T09:30:48Z</time>
      </trkpt>
      <trkpt lat="48.19679" lon="2.93102">
        <ele>105.5</ele>
        <time>2020-06-16T09:30:53Z</time>
      </trkpt>
      <trkpt lat="48.19674" lon="2.93108">
        <ele>105.47</ele>
        <time>2020-06-16T09:30:58Z</time>
      </trkpt>
      <trkpt lat="48.19669" lon="2.93115">
        <ele>105.36</ele>
        <time>2020-06-16T09:31:03Z</time>
      </trkpt>
      <trkpt lat="48.19664" lon="2.93121">
        <ele>105.34</ele>
        <time>2020-06-16T09:31:08Z</time>
      </trkpt>
      <trkpt lat="48.19661" lon="2.93129">
        <ele>105.35</ele>
        <time>2020-06-16T09:31:13Z</time>
      </trkpt>
      <trkpt lat="48.19657" lon="2.93135">
        <ele>105.42</ele>
        <time>2020-06-16T09:31:18Z</time>
      </trkpt>
      <trkpt lat="48.19651" lon="2.93141">
        <ele>105.49</ele>
        <time>2020-06-16T09:31:23Z</time>
      </trkpt>
      <trkpt lat="48.19648" lon="2.93146">
        <ele>105.48</ele>
        <time>2020-06-16T09:31:28Z</time>
      </trkpt>
      <trkpt lat="48.19644" lon="2.9315">
        <ele>105.55</ele>
        <time>2020-06-16T09:31:33Z</time>
      </trkpt>
      <trkpt lat="48.19639" lon="2.93154">
        <ele>105.51</ele>
        <time>2020-06-16T09:31:38Z</time>
      </trkpt>
      <trkpt lat="48.19636" lon="2.9316">
        <ele>105.5</ele>
        <time>2020-06-16T09:31:43Z</time>
      </trkpt>
      <trkpt lat="48.19631" lon="2.93164">
        <ele>105.49</ele>
        <time>2020-06-16T09:31:48Z</time>
      </trkpt>
      <trkpt lat="48.19627" lon="2.93171">
        <ele>105.52</ele>
        <time>2020-06-16T09:31:53Z</time>
      </trkpt>
      <trkpt lat="48.19622" lon="2.93176">
        <ele>105.5</ele>
        <time>2020-06-16T09:31:58Z</time>
      </trkpt>
      <trkpt lat="48.19617" lon="2.93179">
        <ele>105.44</ele>
        <time>2020-06-16T09:32:03Z</time>
      </trkpt>
      <trkpt lat="48.19612" lon="2.93183">
        <ele>105.54</ele>
        <time>2020-06-16T09:32:08Z</time>
      </trkpt>
      <trkpt lat="48.19607" lon="2.93185">
        <ele>105.62</ele>
        <time>2020-06-16T09:32:13Z</time>
      </trkpt>
      <trkpt lat="48.196" lon="2.93186">
        <ele>105.62</ele>
        <time>2020-06-16T09:32:18Z</time>
      </trkpt>
      <trkpt lat="48.19595" lon="2.93189">
        <ele>105.62</ele>
        <time>2020-06-16T09:32:23Z</time>
      </trkpt>
      <trkpt lat="48.19588" lon="2.93192">
        <ele>105.69</ele>
        <time>2020-06-16T09:32:28Z</time>
      </trkpt>
      <trkpt lat="48.19582" lon="2.93194">
        <ele>105.88</ele>
        <time>2020-06-16T09:32:33Z</time>
      </trkpt>
      <trkpt lat="48.19576" lon="2.93197">
        <ele>105.91</ele>
        <time>2020-06-16T09:32:38Z</time>
      </trkpt>
      <trkpt lat="48.1957" lon="2.93199">
        <ele>105.81</ele>
        <time>2020-06-16T09:32:43Z</time>
      </trkpt>
      <trkpt lat="48.19564" lon="2.93202">
        <ele>105.7</ele>
        <time>2020-06-16T09:32:48Z</time>
      </trkpt>
      <trkpt lat="48.19558" lon="2.93204">
        <ele>105.72</ele>
        <time>2020-06-16T09:32:53Z</time>
      </trkpt>
      <trkpt lat="48.19552" lon="2.93205">
        <ele>105.81</ele>
        <time>2020-06-16T09:32:58Z</time>
      </trkpt>
      <trkpt lat="48.19547" lon="2.93206">
        <ele>105.83</ele>
        <time>2020-06-16T09:33:03Z</time>
      </trkpt>
      <trkpt lat="48.19543" lon="2.93207">
        <ele>106.01</ele>
        <time>2020-06-16T09:33:08Z</time>
      </trkpt>
      <trkpt lat="48.19538" lon="2.93208">
        <ele>106.09</ele>
        <time>2020-06-16T09:33:13Z</time>
      </trkpt>
      <trkpt lat="48.19532" lon="2.9321">
        <ele>106.27</ele>
        <time>2020-06-16T09:33:18Z</time>
      </trkpt>
      <trkpt lat="48.19528" lon="2.93211">
        <ele>106.28</ele>
        <time>2020-06-16T09:33:23Z</time>
      </trkpt>
      <trkpt lat="48.19523" lon="2.93211">
        <ele>106.48</ele>
        <time>2020-06-16T09:33:28Z</time>
      </trkpt>
      <trkpt lat="48.19516" lon="2.93215">
        <ele>106.58</ele>
        <time>2020-06-16T09:33:33Z</time>
      </trkpt>
      <trkpt lat="48.19511" lon="2.93218">
        <ele>106.62</ele>
        <time>2020-06-16T09:33:38Z</time>
      </trkpt>
      <trkpt lat="48.19505" lon="2.9322">
        <ele>106.51</ele>
        <time>2020-06-16T09:33:43Z</time>
      </trkpt>
      <trkpt lat="48.19501" lon="2.93221">
        <ele>106.61</ele>
        <time>2020-06-16T09:33:48Z</time>
      </trkpt>
      <trkpt lat="48.19495" lon="2.93221">
        <ele>106.64</ele>
        <time>2020-06-16T09:33:53Z</time>
      </trkpt>
      <trkpt lat="48.1949" lon="2.93222">
        <ele>106.63</ele>
        <time>2020-06-16T09:33:58Z</time>
      </trkpt>
      <trkpt lat="48.19485" lon="2.93223">
        <ele>106.63</ele>
        <time>2020-06-16T09:34:03Z</time>
      </trkpt>
      <trkpt lat="48.19479" lon="2.93224">
        <ele>106.66</ele>
        <time>2020-06-16T09:34:08Z</time>
      </trkpt>
      <trkpt lat="48.19473" lon="2.93226">
        <ele>106.75</ele>
        <time>2020-06-16T09:34:13Z</time>
      </trkpt>
      <trkpt lat="48.19467" lon="2.93226">
        <ele>106.72</ele>
        <time>2020-06-16T09:34:18Z</time>
      </trkpt>
      <trkpt lat="48.19463" lon="2.93228">
        <ele>106.68</ele>
        <time>2020-06-16T09:34:23Z</time>
      </trkpt>
      <trkpt lat="48.19457" lon="2.93233">
        <ele>106.58</ele>
        <time>2020-06-16T09:34:28Z</time>
      </trkpt>
      <trkpt lat="48.19452" lon="2.93236">
        <ele>106.5</ele>
        <time>2020-06-16T09:34:33Z</time>
      </trkpt>
      <trkpt lat="48.19447" lon="2.9324">
        <ele>106.5</ele>
        <time>2020-06-16T09:34:38Z</time>
      </trkpt>
      <trkpt lat="48.19441" lon="2.93244">
        <ele>106.42</ele>
        <time>2020-06-16T09:34:43Z</time>
      </trkpt>
      <trkpt lat="48.19436" lon="2.93246">
        <ele>106.39</ele>
        <time>2020-06-16T09:34:48Z</time>
      </trkpt>
      <trkpt lat="48.19431" lon="2.93248">
        <ele>106.45</ele>
        <time>2020-06-16T09:34:53Z</time>
      </trkpt>
      <trkpt lat="48.19425" lon="2.93253">
        <ele>106.68</ele>
        <time>2020-06-16T09:34:58Z</time>
      </trkpt>
      <trkpt lat="48.1942" lon="2.9326">
        <ele>106.72</ele>
        <time>2020-06-16T09:35:03Z</time>
      </trkpt>
      <trkpt lat="48.19415" lon="2.93263">
        <ele>106.68</ele>
        <time>2020-06-16T09:35:08Z</time>
      </trkpt>
      <trkpt lat="48.1941" lon="2.93266">
        <ele>106.62</ele>
        <time>2020-06-16T09:35:13Z</time>
      </trkpt>
      <trkpt lat="48.19404" lon="2.93269">
        <ele>106.48</ele>
        <time>2020-06-16T09:35:18Z</time>
      </trkpt>
      <trkpt lat="48.19398" lon="2.93274">
        <ele>106.36</ele>
        <time>2020-06-16T09:35:23Z</time>
      </trkpt>
      <trkpt lat="48.19393" lon="2.93278">
        <ele>106.34</ele>
        <time>2020-06-16T09:35:28Z</time>
      </trkpt>
      <trkpt lat="48.19388" lon="2.93286">
        <ele>106.27</ele>
        <time>2020-06-16T09:35:33Z</time>
      </trkpt>
      <trkpt lat="48.19383" lon="2.93294">
        <ele>106.13</ele>
        <time>2020-06-16T09:35:38Z</time>
      </trkpt>
      <trkpt lat="48.19378" lon="2.93301">
        <ele>106.13</ele>
        <time>2020-06-16T09:35:43Z</time>
      </trkpt>
      <trkpt lat="48.19373" lon="2.93304">
        <ele>106.14</ele>
        <time>2020-06-16T09:35:48Z</time>
      </trkpt>
      <trkpt lat="48.19366" lon="2.9331">
        <ele>106.11</ele>
        <time>2020-06-16T09:35:53Z</time>
      </trkpt>
      <trkpt lat="48.19362" lon="2.93316">
        <ele>106.08</ele>
        <time>2020-06-16T09:35:58Z</time>
      </trkpt>
      <trkpt lat="48.19357" lon="2.9332">
        <ele>106.13</ele>
        <time>2020-06-16T09:36:03Z</time>
      </trkpt>
      <trkpt lat="48.19352" lon="2.93325">
        <ele>106.28</ele>
        <time>2020-06-16T09:36:08Z</time>
      </trkpt>
      <trkpt lat="48.19347" lon="2.93329">
        <ele>106.31</ele>
        <time>2020-06-16T09:36:13Z</time>
      </trkpt>
      <trkpt lat="48.19342" lon="2.93334">
        <ele>106.36</ele>
        <time>2020-06-16T09:36:18Z</time>
      </trkpt>
      <trkpt lat="48.19336" lon="2.93337">
        <ele>106.46</ele>
        <time>2020-06-16T09:36:23Z</time>
      </trkpt>
      <trkpt lat="48.19332" lon="2.9334">
        <ele>106.54</ele>
        <time>2020-06-16T09:36:28Z</time>
      </trkpt>
      <trkpt lat="48.19326" lon="2.93345">
        <ele>106.54</ele>
        <time>2020-06-16T09:36:33Z</time>
      </trkpt>
      <trkpt lat="48.19322" lon="2.93352">
        <ele>106.5</ele>
        <time>2020-06-16T09:36:38Z</time>
      </trkpt>
      <trkpt lat="48.19317" lon="2.93357">
        <ele>106.5</ele>
        <time>2020-06-16T09:36:43Z</time>
      </trkpt>
      <trkpt lat="48.19312" lon="2.93361">
        <ele>106.56</ele>
        <time>2020-06-16T09:36:48Z</time>
      </trkpt>
      <trkpt lat="48.19307" lon="2.93365">
        <ele>106.56</ele>
        <time>2020-06-16T09:36:53Z</time>
      </trkpt>
      <trkpt lat="48.19302" lon="2.9337">
        <ele>106.5</ele>
        <time>2020-06-16T09:36:58Z</time>
      </trkpt>
      <trkpt lat="48.19296" lon="2.93373">
        <ele>106.44</ele>
        <time>2020-06-16T09:37:03Z</time>
      </trkpt>
      <trkpt lat="48.1929" lon="2.93376">
        <ele>106.56</ele>
        <time>2020-06-16T09:37:08Z</time>
      </trkpt>
      <trkpt lat="48.19284" lon="2.9338">
        <ele>106.58</ele>
        <time>2020-06-16T09:37:13Z</time>
      </trkpt>
      <trkpt lat="48.19277" lon="2.93385">
        <ele>106.53</ele>
        <time>2020-06-16T09:37:18Z</time>
      </trkpt>
      <trkpt lat="48.19272" lon="2.9339">
        <ele>106.49</ele>
        <time>2020-06-16T09:37:23Z</time>
      </trkpt>
      <trkpt lat="48.19266" lon="2.93392">
        <ele>106.41</ele>
        <time>2020-06-16T09:37:28Z</time>
      </trkpt>
      <trkpt lat="48.19261" lon="2.93395">
        <ele>106.36</ele>
        <time>2020-06-16T09:37:33Z</time>
      </trkpt>
      <trkpt lat="48.19256" lon="2.93396">
        <ele>106.36</ele>
        <time>2020-06-16T09:37:38Z</time>
      </trkpt>
      <trkpt lat="48.19251" lon="2.93401">
        <ele>106.25</ele>
        <time>2020-06-16T09:37:43Z</time>
      </trkpt>
      <trkpt lat="48.19246" lon="2.93406">
        <ele>106.31</ele>
        <time>2020-06-16T09:37:48Z</time>
      </trkpt>
      <trkpt lat="48.1924" lon="2.9341">
        <ele>106.47</ele>
        <time>2020-06-16T09:37:53Z</time>
      </trkpt>
      <trkpt lat="48.19236" lon="2.93411">
        <ele>106.29</ele>
        <time>2020-06-16T09:37:58Z</time>
      </trkpt>
      <trkpt lat="48.19231" lon="2.93416">
        <ele>106.24</ele>
        <time>2020-06-16T09:38:03Z</time>
      </trkpt>
      <trkpt lat="48.19226" lon="2.9342">
        <ele>106.22</ele>
        <time>2020-06-16T09:38:08Z</time>
      </trkpt>
      <trkpt lat="48.19222" lon="2.93423">
        <ele>106.22</ele>
        <time>2020-06-16T09:38:13Z</time>
      </trkpt>
      <trkpt lat="48.19216" lon="2.93427">
        <ele>106.28</ele>
        <time>2020-06-16T09:38:18Z</time>
      </trkpt>
      <trkpt lat="48.19211" lon="2.93428">
        <ele>106.38</ele>
        <time>2020-06-16T09:38:23Z</time>
      </trkpt>
      <trkpt lat="48.19206" lon="2.93431">
        <ele>106.52</ele>
        <time>2020-06-16T09:38:28Z</time>
      </trkpt>
      <trkpt lat="48.192" lon="2.93432">
        <ele>106.64</ele>
        <time>2020-06-16T09:38:33Z</time>
      </trkpt>
      <trkpt lat="48.19196" lon="2.93433">
        <ele>106.67</ele>
        <time>2020-06-16T09:38:38Z</time>
      </trkpt>
      <trkpt lat="48.1919" lon="2.93436">
        <ele>106.68</ele>
        <time>2020-06-16T09:38:43Z</time>
      </trkpt>
      <trkpt lat="48.19185" lon="2.93439">
        <ele>106.68</ele>
        <time>2020-06-16T09:38:48Z</time>
      </trkpt>
      <trkpt lat="48.1918" lon="2.93441">
        <ele>106.65</ele>
        <time>2020-06-16T09:38:53Z</time>
      </trkpt>
      <trkpt lat="48.19174" lon="2.93443">
        <ele>106.53</ele>
        <time>2020-06-16T09:38:58Z</time>
      </trkpt>
      <trkpt lat="48.19169" lon="2.93446">
        <ele>106.51</ele>
        <time>2020-06-16T09:39:03Z</time>
      </trkpt>
      <trkpt lat="48.19162" lon="2.9345">
        <ele>106.64</ele>
        <time>2020-06-16T09:39:08Z</time>
      </trkpt>
      <trkpt lat="48.19157" lon="2.93455">
        <ele>106.71</ele>
        <time>2020-06-16T09:39:13Z</time>
      </trkpt>
      <trkpt lat="48.19151" lon="2.9346">
        <ele>107.02</ele>
        <time>2020-06-16T09:39:18Z</time>
      </trkpt>
      <trkpt lat="48.19147" lon="2.93462">
        <ele>107.39</ele>
        <time>2020-06-16T09:39:23Z</time>
      </trkpt>
      <trkpt lat="48.19142" lon="2.93464">
        <ele>107.58</ele>
        <time>2020-06-16T09:39:28Z</time>
      </trkpt>
      <trkpt lat="48.19136" lon="2.93468">
        <ele>107.89</ele>
        <time>2020-06-16T09:39:33Z</time>
      </trkpt>
      <trkpt lat="48.19131" lon="2.93471">
        <ele>108.04</ele>
        <time>2020-06-16T09:39:38Z</time>
      </trkpt>
      <trkpt lat="48.19126" lon="2.93475">
        <ele>108.38</ele>
        <time>2020-06-16T09:39:43Z</time>
      </trkpt>
      <trkpt lat="48.19119" lon="2.93479">
        <ele>108.45</ele>
        <time>2020-06-16T09:39:48Z</time>
      </trkpt>
      <trkpt lat="48.19113" lon="2.93481">
        <ele>108.4</ele>
        <time>2020-06-16T09:39:53Z</time>
      </trkpt>
      <trkpt lat="48.19109" lon="2.93485">
        <ele>108.57</ele>
        <time>2020-06-16T09:39:58Z</time>
      </trkpt>
      <trkpt lat="48.19104" lon="2.93492">
        <ele>108.58</ele>
        <time>2020-06-16T09:40:03Z</time>
      </trkpt>
      <trkpt lat="48.19099" lon="2.93497">
        <ele>108.59</ele>
        <time>2020-06-16T09:40:08Z</time>
      </trkpt>
      <trkpt lat="48.19093" lon="2.93502">
        <ele>108.56</ele>
        <time>2020-06-16T09:40:13Z</time>
      </trkpt>
      <trkpt lat="48.19088" lon="2.9351">
        <ele>108.43</ele>
        <time>2020-06-16T09:40:18Z</time>
      </trkpt>
      <trkpt lat="48.19084" lon="2.93515">
        <ele>108.42</ele>
        <time>2020-06-16T09:40:23Z</time>
      </trkpt>
      <trkpt lat="48.1908" lon="2.93521">
        <ele>108.35</ele>
        <time>2020-06-16T09:40:28Z</time>
      </trkpt>
      <trkpt lat="48.19079" lon="2.93528">
        <ele>108.18</ele>
        <time>2020-06-16T09:40:33Z</time>
      </trkpt>
      <trkpt lat="48.19074" lon="2.93534">
        <ele>108.17</ele>
        <time>2020-06-16T09:40:38Z</time>
      </trkpt>
      <trkpt lat="48.19072" lon="2.93543">
        <ele>108.16</ele>
        <time>2020-06-16T09:40:43Z</time>
      </trkpt>
      <trkpt lat="48.19071" lon="2.9355">
        <ele>108.54</ele>
        <time>2020-06-16T09:40:48Z</time>
      </trkpt>
      <trkpt lat="48.19072" lon="2.93554">
        <ele>108.64</ele>
        <time>2020-06-16T09:40:53Z</time>
      </trkpt>
      <trkpt lat="48.1907" lon="2.93563">
        <ele>108.68</ele>
        <time>2020-06-16T09:40:58Z</time>
      </trkpt>
      <trkpt lat="48.19067" lon="2.93574">
        <ele>108.78</ele>
        <time>2020-06-16T09:41:03Z</time>
      </trkpt>
      <trkpt lat="48.19063" lon="2.93581">
        <ele>108.89</ele>
        <time>2020-06-16T09:41:08Z</time>
      </trkpt>
      <trkpt lat="48.19059" lon="2.93588">
        <ele>108.88</ele>
        <time>2020-06-16T09:41:13Z</time>
      </trkpt>
      <trkpt lat="48.19055" lon="2.93596">
        <ele>108.79</ele>
        <time>2020-06-16T09:41:18Z</time>
      </trkpt>
      <trkpt lat="48.1905" lon="2.93603">
        <ele>108.68</ele>
        <time>2020-06-16T09:41:23Z</time>
      </trkpt>
      <trkpt lat="48.19047" lon="2.93609">
        <ele>108.73</ele>
        <time>2020-06-16T09:41:28Z</time>
      </trkpt>
      <trkpt lat="48.19042" lon="2.93615">
        <ele>108.78</ele>
        <time>2020-06-16T09:41:33Z</time>
      </trkpt>
      <trkpt lat="48.19035" lon="2.93622">
        <ele>108.76</ele>
        <time>2020-06-16T09:41:38Z</time>
      </trkpt>
      <trkpt lat="48.19029" lon="2.93626">
        <ele>108.67</ele>
        <time>2020-06-16T09:41:43Z</time>
      </trkpt>
      <trkpt lat="48.19025" lon="2.93629">
        <ele>108.64</ele>
        <time>2020-06-16T09:41:48Z</time>
      </trkpt>
      <trkpt lat="48.19021" lon="2.93633">
        <ele>108.76</ele>
        <time>2020-06-16T09:41:53Z</time>
      </trkpt>
      <trkpt lat="48.19015" lon="2.93638">
        <ele>108.75</ele>
        <time>2020-06-16T09:41:58Z</time>
      </trkpt>
      <trkpt lat="48.1901" lon="2.93642">
        <ele>108.75</ele>
        <time>2020-06-16T09:42:03Z</time>
      </trkpt>
      <trkpt lat="48.19006" lon="2.93647">
        <ele>108.94</ele>
        <time>2020-06-16T09:42:08Z</time>
      </trkpt>
      <trkpt lat="48.19002" lon="2.93652">
        <ele>108.95</ele>
        <time>2020-06-16T09:42:13Z</time>
      </trkpt>
      <trkpt lat="48.18995" lon="2.93657">
        <ele>108.95</ele>
        <time>2020-06-16T09:42:18Z</time>
      </trkpt>
      <trkpt lat="48.18991" lon="2.93661">
        <ele>108.96</ele>
        <time>2020-06-16T09:42:23Z</time>
      </trkpt>
      <trkpt lat="48.18987" lon="2.93667">
        <ele>108.92</ele>
        <time>2020-06-16T09:42:28Z</time>
      </trkpt>
      <trkpt lat="48.18982" lon="2.93668">
        <ele>108.84</ele>
        <time>2020-06-16T09:42:33Z</time>
      </trkpt>
      <trkpt lat="48.18978" lon="2.93666">
        <ele>108.69</ele>
        <time>2020-06-16T09:42:38Z</time>
      </trkpt>
      <trkpt lat="48.18975" lon="2.93665">
        <ele>108.58</ele>
        <time>2020-06-16T09:42:43Z</time>
      </trkpt>
      <trkpt lat="48.18975" lon="2.93665">
        <ele>108.9</ele>
        <time>2020-06-16T09:42:48Z</time>
      </trkpt>
      <trkpt lat="48.18976" lon="2.93664">
        <ele>108.8</ele>
        <time>2020-06-16T09:42:53Z</time>
      </trkpt>
      <trkpt lat="48.18977" lon="2.93666">
        <ele>108.87</ele>
        <time>2020-06-16T09:42:58Z</time>
      </trkpt>
      <trkpt lat="48.18977" lon="2.93665">
        <ele>108.99</ele>
        <time>2020-06-16T09:43:03Z</time>
      </trkpt>
      <trkpt lat="48.18973" lon="2.93666">
        <ele>108.79</ele>
        <time>2020-06-16T09:43:08Z</time>
      </trkpt>
      <trkpt lat="48.18966" lon="2.93668">
        <ele>108.67</ele>
        <time>2020-06-16T09:43:13Z</time>
      </trkpt>
      <trkpt lat="48.18959" lon="2.93671">
        <ele>108.59</ele>
        <time>2020-06-16T09:43:18Z</time>
      </trkpt>
      <trkpt lat="48.18954" lon="2.93674">
        <ele>108.59</ele>
        <time>2020-06-16T09:43:23Z</time>
      </trkpt>
      <trkpt lat="48.18951" lon="2.93675">
        <ele>108.91</ele>
        <time>2020-06-16T09:43:28Z</time>
      </trkpt>
      <trkpt lat="48.18949" lon="2.93676">
        <ele>109.1</ele>
        <time>2020-06-16T09:43:33Z</time>
      </trkpt>
      <trkpt lat="48.18947" lon="2.93675">
        <ele>109.29</ele>
        <time>2020-06-16T09:43:38Z</time>
      </trkpt>
      <trkpt lat="48.18947" lon="2.93675">
        <ele>109.48</ele>
        <time>2020-06-16T09:43:43Z</time>
      </trkpt>
      <trkpt lat="48.18946" lon="2.93677">
        <ele>109.52</ele>
        <time>2020-06-16T09:43:48Z</time>
      </trkpt>
      <trkpt lat="48.18943" lon="2.93681">
        <ele>109.65</ele>
        <time>2020-06-16T09:43:53Z</time>
      </trkpt>
      <trkpt lat="48.1894" lon="2.93681">
        <ele>109.77</ele>
        <time>2020-06-16T09:43:58Z</time>
      </trkpt>
      <trkpt lat="48.18939" lon="2.93681">
        <ele>110.05</ele>
        <time>2020-06-16T09:44:03Z</time>
      </trkpt>
      <trkpt lat="48.1894" lon="2.9368">
        <ele>110.18</ele>
        <time>2020-06-16T09:44:08Z</time>
      </trkpt>
      <trkpt lat="48.18941" lon="2.93681">
        <ele>110.15</ele>
        <time>2020-06-16T09:44:13Z</time>
      </trkpt>
      <trkpt lat="48.18941" lon="2.9368">
        <ele>110.1</ele>
        <time>2020-06-16T09:44:18Z</time>
      </trkpt>
      <trkpt lat="48.18941" lon="2.93681">
        <ele>110.04</ele>
        <time>2020-06-16T09:44:23Z</time>
      </trkpt>
      <trkpt lat="48.18941" lon="2.93681">
        <ele>110.02</ele>
        <time>2020-06-16T09:44:28Z</time>
      </trkpt>
      <trkpt lat="48.1894" lon="2.9368">
        <ele>110.16</ele>
        <time>2020-06-16T09:44:33Z</time>
      </trkpt>
      <trkpt lat="48.18941" lon="2.9368">
        <ele>110.26</ele>
        <time>2020-06-16T09:44:38Z</time>
      </trkpt>
      <trkpt lat="48.18941" lon="2.93681">
        <ele>109.72</ele>
        <time>2020-06-16T09:44:43Z</time>
      </trkpt>
      <trkpt lat="48.18942" lon="2.93682">
        <ele>109.72</ele>
        <time>2020-06-16T09:44:48Z</time>
      </trkpt>
      <trkpt lat="48.18942" lon="2.93682">
        <ele>109.72</ele>
        <time>2020-06-16T09:44:52Z</time>
      </trkpt>
      <trkpt lat="48.18942" lon="2.93683">
        <ele>109.72</ele>
        <time>2020-06-16T09:44:58Z</time>
      </trkpt>
      <trkpt lat="48.18942" lon="2.93683">
        <ele>109.72</ele>
        <time>2020-06-16T09:45:03Z</time>
      </trkpt>
      <trkpt lat="48.18942" lon="2.93682">
        <ele>109.72</ele>
        <time>2020-06-16T09:45:08Z</time>
      </trkpt>
      <trkpt lat="48.18941" lon="2.93682">
        <ele>109.72</ele>
        <time>2020-06-16T09:45:13Z</time>
      </trkpt>
      <trkpt lat="48.1894" lon="2.93683">
        <ele>109.72</ele>
        <time>2020-06-16T09:45:18Z</time>
      </trkpt>
      <trkpt lat="48.18937" lon="2.93684">
        <ele>109.72</ele>
        <time>2020-06-16T09:45:23Z</time>
      </trkpt>
      <trkpt lat="48.18933" lon="2.93686">
        <ele>109.72</ele>
        <time>2020-06-16T09:45:28Z</time>
      </trkpt>
      <trkpt lat="48.18928" lon="2.93686">
        <ele>109.72</ele>
        <time>2020-06-16T09:45:33Z</time>
      </trkpt>
      <trkpt lat="48.18924" lon="2.93687">
        <ele>109.72</ele>
        <time>2020-06-16T09:45:38Z</time>
      </trkpt>
      <trkpt lat="48.18918" lon="2.9369">
        <ele>113.34</ele>
        <time>2020-06-16T09:45:43Z</time>
      </trkpt>
      <trkpt lat="48.18913" lon="2.9369">
        <ele>114.02</ele>
        <time>2020-06-16T09:45:48Z</time>
      </trkpt>
      <trkpt lat="48.18908" lon="2.93693">
        <ele>114.36</ele>
        <time>2020-06-16T09:45:53Z</time>
      </trkpt>
      <trkpt lat="48.18904" lon="2.93694">
        <ele>115.15</ele>
        <time>2020-06-16T09:45:58Z</time>
      </trkpt>
      <trkpt lat="48.18899" lon="2.93693">
        <ele>115.44</ele>
        <time>2020-06-16T09:46:03Z</time>
      </trkpt>
      <trkpt lat="48.18894" lon="2.93692">
        <ele>115.66</ele>
        <time>2020-06-16T09:46:08Z</time>
      </trkpt>
      <trkpt lat="48.18889" lon="2.93694">
        <ele>116.15</ele>
        <time>2020-06-16T09:46:13Z</time>
      </trkpt>
      <trkpt lat="48.18883" lon="2.93696">
        <ele>116.75</ele>
        <time>2020-06-16T09:46:18Z</time>
      </trkpt>
      <trkpt lat="48.18878" lon="2.93701">
        <ele>117.23</ele>
        <time>2020-06-16T09:46:23Z</time>
      </trkpt>
      <trkpt lat="48.18873" lon="2.93705">
        <ele>117.46</ele>
        <time>2020-06-16T09:46:28Z</time>
      </trkpt>
      <trkpt lat="48.18868" lon="2.93707">
        <ele>117.86</ele>
        <time>2020-06-16T09:46:33Z</time>
      </trkpt>
      <trkpt lat="48.18865" lon="2.93709">
        <ele>118.36</ele>
        <time>2020-06-16T09:46:38Z</time>
      </trkpt>
      <trkpt lat="48.1886" lon="2.93712">
        <ele>118.51</ele>
        <time>2020-06-16T09:46:43Z</time>
      </trkpt>
      <trkpt lat="48.18856" lon="2.93716">
        <ele>119.17</ele>
        <time>2020-06-16T09:46:48Z</time>
      </trkpt>
      <trkpt lat="48.18851" lon="2.93717">
        <ele>119.53</ele>
        <time>2020-06-16T09:46:53Z</time>
      </trkpt>
      <trkpt lat="48.18846" lon="2.9372">
        <ele>119.97</ele>
        <time>2020-06-16T09:46:58Z</time>
      </trkpt>
      <trkpt lat="48.18841" lon="2.93724">
        <ele>120.27</ele>
        <time>2020-06-16T09:47:03Z</time>
      </trkpt>
      <trkpt lat="48.18836" lon="2.93726">
        <ele>120.58</ele>
        <time>2020-06-16T09:47:08Z</time>
      </trkpt>
      <trkpt lat="48.18829" lon="2.93729">
        <ele>120.76</ele>
        <time>2020-06-16T09:47:13Z</time>
      </trkpt>
      <trkpt lat="48.18823" lon="2.9373">
        <ele>120.88</ele>
        <time>2020-06-16T09:47:18Z</time>
      </trkpt>
      <trkpt lat="48.18818" lon="2.93731">
        <ele>121.14</ele>
        <time>2020-06-16T09:47:23Z</time>
      </trkpt>
      <trkpt lat="48.18814" lon="2.93733">
        <ele>121.31</ele>
        <time>2020-06-16T09:47:28Z</time>
      </trkpt>
      <trkpt lat="48.18807" lon="2.93735">
        <ele>121.53</ele>
        <time>2020-06-16T09:47:33Z</time>
      </trkpt>
      <trkpt lat="48.18802" lon="2.93737">
        <ele>121.68</ele>
        <time>2020-06-16T09:47:38Z</time>
      </trkpt>
      <trkpt lat="48.18797" lon="2.93738">
        <ele>121.8</ele>
        <time>2020-06-16T09:47:43Z</time>
      </trkpt>
      <trkpt lat="48.18791" lon="2.93741">
        <ele>121.86</ele>
        <time>2020-06-16T09:47:48Z</time>
      </trkpt>
      <trkpt lat="48.18786" lon="2.93743">
        <ele>121.86</ele>
        <time>2020-06-16T09:47:53Z</time>
      </trkpt>
      <trkpt lat="48.18781" lon="2.93746">
        <ele>122</ele>
        <time>2020-06-16T09:47:58Z</time>
      </trkpt>
      <trkpt lat="48.18776" lon="2.93749">
        <ele>122.17</ele>
        <time>2020-06-16T09:48:03Z</time>
      </trkpt>
      <trkpt lat="48.18771" lon="2.93751">
        <ele>122.33</ele>
        <time>2020-06-16T09:48:08Z</time>
      </trkpt>
      <trkpt lat="48.18765" lon="2.93752">
        <ele>122.54</ele>
        <time>2020-06-16T09:48:13Z</time>
      </trkpt>
      <trkpt lat="48.18759" lon="2.93755">
        <ele>122.65</ele>
        <time>2020-06-16T09:48:18Z</time>
      </trkpt>
      <trkpt lat="48.18754" lon="2.93757">
        <ele>122.73</ele>
        <time>2020-06-16T09:48:23Z</time>
      </trkpt>
      <trkpt lat="48.18749" lon="2.93759">
        <ele>123.16</ele>
        <time>2020-06-16T09:48:28Z</time>
      </trkpt>
      <trkpt lat="48.18743" lon="2.93762">
        <ele>123.03</ele>
        <time>2020-06-16T09:48:33Z</time>
      </trkpt>
      <trkpt lat="48.18738" lon="2.93767">
        <ele>123.03</ele>
        <time>2020-06-16T09:48:38Z</time>
      </trkpt>
      <trkpt lat="48.18731" lon="2.93771">
        <ele>123.07</ele>
        <time>2020-06-16T09:48:43Z</time>
      </trkpt>
      <trkpt lat="48.18727" lon="2.93775">
        <ele>123.08</ele>
        <time>2020-06-16T09:48:48Z</time>
      </trkpt>
      <trkpt lat="48.18721" lon="2.93777">
        <ele>123.1</ele>
        <time>2020-06-16T09:48:53Z</time>
      </trkpt>
      <trkpt lat="48.18716" lon="2.93781">
        <ele>123.14</ele>
        <time>2020-06-16T09:48:58Z</time>
      </trkpt>
      <trkpt lat="48.18712" lon="2.93783">
        <ele>123.24</ele>
        <time>2020-06-16T09:49:03Z</time>
      </trkpt>
      <trkpt lat="48.18712" lon="2.93784">
        <ele>123.41</ele>
        <time>2020-06-16T09:49:08Z</time>
      </trkpt>
      <trkpt lat="48.18707" lon="2.93786">
        <ele>123.41</ele>
        <time>2020-06-16T09:49:13Z</time>
      </trkpt>
      <trkpt lat="48.18702" lon="2.93788">
        <ele>123.37</ele>
        <time>2020-06-16T09:49:18Z</time>
      </trkpt>
      <trkpt lat="48.18697" lon="2.9379">
        <ele>123.47</ele>
        <time>2020-06-16T09:49:23Z</time>
      </trkpt>
      <trkpt lat="48.18692" lon="2.93794">
        <ele>123.56</ele>
        <time>2020-06-16T09:49:28Z</time>
      </trkpt>
      <trkpt lat="48.18686" lon="2.93796">
        <ele>123.62</ele>
        <time>2020-06-16T09:49:33Z</time>
      </trkpt>
      <trkpt lat="48.18681" lon="2.93799">
        <ele>123.65</ele>
        <time>2020-06-16T09:49:38Z</time>
      </trkpt>
      <trkpt lat="48.18675" lon="2.93805">
        <ele>123.67</ele>
        <time>2020-06-16T09:49:43Z</time>
      </trkpt>
      <trkpt lat="48.18669" lon="2.93809">
        <ele>123.82</ele>
        <time>2020-06-16T09:49:48Z</time>
      </trkpt>
      <trkpt lat="48.18665" lon="2.93811">
        <ele>123.93</ele>
        <time>2020-06-16T09:49:53Z</time>
      </trkpt>
      <trkpt lat="48.18662" lon="2.93815">
        <ele>124.32</ele>
        <time>2020-06-16T09:49:58Z</time>
      </trkpt>
      <trkpt lat="48.18656" lon="2.93816">
        <ele>124.34</ele>
        <time>2020-06-16T09:50:03Z</time>
      </trkpt>
      <trkpt lat="48.18649" lon="2.93817">
        <ele>124.08</ele>
        <time>2020-06-16T09:50:08Z</time>
      </trkpt>
      <trkpt lat="48.18642" lon="2.93817">
        <ele>124.07</ele>
        <time>2020-06-16T09:50:13Z</time>
      </trkpt>
      <trkpt lat="48.18635" lon="2.93816">
        <ele>124.06</ele>
        <time>2020-06-16T09:50:18Z</time>
      </trkpt>
      <trkpt lat="48.18628" lon="2.93817">
        <ele>124.03</ele>
        <time>2020-06-16T09:50:23Z</time>
      </trkpt>
      <trkpt lat="48.18622" lon="2.93819">
        <ele>124</ele>
        <time>2020-06-16T09:50:28Z</time>
      </trkpt>
      <trkpt lat="48.18616" lon="2.93819">
        <ele>124.02</ele>
        <time>2020-06-16T09:50:33Z</time>
      </trkpt>
      <trkpt lat="48.18611" lon="2.93822">
        <ele>123.93</ele>
        <time>2020-06-16T09:50:38Z</time>
      </trkpt>
      <trkpt lat="48.18605" lon="2.93824">
        <ele>123.96</ele>
        <time>2020-06-16T09:50:43Z</time>
      </trkpt>
      <trkpt lat="48.186" lon="2.93828">
        <ele>124</ele>
        <time>2020-06-16T09:50:48Z</time>
      </trkpt>
      <trkpt lat="48.18593" lon="2.93829">
        <ele>124.05</ele>
        <time>2020-06-16T09:50:53Z</time>
      </trkpt>
      <trkpt lat="48.18588" lon="2.93832">
        <ele>124.12</ele>
        <time>2020-06-16T09:50:58Z</time>
      </trkpt>
      <trkpt lat="48.18583" lon="2.93835">
        <ele>124.16</ele>
        <time>2020-06-16T09:51:03Z</time>
      </trkpt>
      <trkpt lat="48.18578" lon="2.93836">
        <ele>124.21</ele>
        <time>2020-06-16T09:51:08Z</time>
      </trkpt>
      <trkpt lat="48.18571" lon="2.9384">
        <ele>124.25</ele>
        <time>2020-06-16T09:51:13Z</time>
      </trkpt>
      <trkpt lat="48.18565" lon="2.93845">
        <ele>124.35</ele>
        <time>2020-06-16T09:51:18Z</time>
      </trkpt>
      <trkpt lat="48.1856" lon="2.93851">
        <ele>124.49</ele>
        <time>2020-06-16T09:51:23Z</time>
      </trkpt>
      <trkpt lat="48.18555" lon="2.93855">
        <ele>124.56</ele>
        <time>2020-06-16T09:51:28Z</time>
      </trkpt>
      <trkpt lat="48.18548" lon="2.93859">
        <ele>124.88</ele>
        <time>2020-06-16T09:51:33Z</time>
      </trkpt>
      <trkpt lat="48.18543" lon="2.93862">
        <ele>124.86</ele>
        <time>2020-06-16T09:51:38Z</time>
      </trkpt>
      <trkpt lat="48.18536" lon="2.93864">
        <ele>124.89</ele>
        <time>2020-06-16T09:51:43Z</time>
      </trkpt>
      <trkpt lat="48.18531" lon="2.93868">
        <ele>125.03</ele>
        <time>2020-06-16T09:51:48Z</time>
      </trkpt>
      <trkpt lat="48.18526" lon="2.9387">
        <ele>125.03</ele>
        <time>2020-06-16T09:51:53Z</time>
      </trkpt>
      <trkpt lat="48.1852" lon="2.93872">
        <ele>125.12</ele>
        <time>2020-06-16T09:51:58Z</time>
      </trkpt>
      <trkpt lat="48.18513" lon="2.93876">
        <ele>125.11</ele>
        <time>2020-06-16T09:52:03Z</time>
      </trkpt>
      <trkpt lat="48.18507" lon="2.9388">
        <ele>125.04</ele>
        <time>2020-06-16T09:52:08Z</time>
      </trkpt>
      <trkpt lat="48.185" lon="2.93883">
        <ele>124.95</ele>
        <time>2020-06-16T09:52:13Z</time>
      </trkpt>
      <trkpt lat="48.18494" lon="2.93884">
        <ele>125.11</ele>
        <time>2020-06-16T09:52:18Z</time>
      </trkpt>
      <trkpt lat="48.18488" lon="2.93885">
        <ele>125.23</ele>
        <time>2020-06-16T09:52:23Z</time>
      </trkpt>
      <trkpt lat="48.18482" lon="2.93885">
        <ele>125.07</ele>
        <time>2020-06-16T09:52:28Z</time>
      </trkpt>
      <trkpt lat="48.18476" lon="2.93887">
        <ele>125.21</ele>
        <time>2020-06-16T09:52:33Z</time>
      </trkpt>
      <trkpt lat="48.18469" lon="2.93888">
        <ele>125.22</ele>
        <time>2020-06-16T09:52:38Z</time>
      </trkpt>
      <trkpt lat="48.18462" lon="2.9389">
        <ele>125.11</ele>
        <time>2020-06-16T09:52:43Z</time>
      </trkpt>
      <trkpt lat="48.18457" lon="2.9389">
        <ele>125.02</ele>
        <time>2020-06-16T09:52:48Z</time>
      </trkpt>
      <trkpt lat="48.18451" lon="2.93889">
        <ele>124.98</ele>
        <time>2020-06-16T09:52:53Z</time>
      </trkpt>
      <trkpt lat="48.18446" lon="2.93886">
        <ele>124.94</ele>
        <time>2020-06-16T09:52:58Z</time>
      </trkpt>
      <trkpt lat="48.18439" lon="2.93886">
        <ele>124.79</ele>
        <time>2020-06-16T09:53:03Z</time>
      </trkpt>
      <trkpt lat="48.18434" lon="2.93886">
        <ele>124.63</ele>
        <time>2020-06-16T09:53:08Z</time>
      </trkpt>
      <trkpt lat="48.18428" lon="2.93885">
        <ele>124.52</ele>
        <time>2020-06-16T09:53:13Z</time>
      </trkpt>
      <trkpt lat="48.18425" lon="2.93886">
        <ele>124.48</ele>
        <time>2020-06-16T09:53:18Z</time>
      </trkpt>
      <trkpt lat="48.18419" lon="2.93885">
        <ele>124.48</ele>
        <time>2020-06-16T09:53:23Z</time>
      </trkpt>
      <trkpt lat="48.18412" lon="2.93886">
        <ele>124.47</ele>
        <time>2020-06-16T09:53:28Z</time>
      </trkpt>
      <trkpt lat="48.18406" lon="2.93885">
        <ele>124.33</ele>
        <time>2020-06-16T09:53:33Z</time>
      </trkpt>
      <trkpt lat="48.18401" lon="2.93885">
        <ele>124.21</ele>
        <time>2020-06-16T09:53:38Z</time>
      </trkpt>
      <trkpt lat="48.18395" lon="2.93885">
        <ele>124.05</ele>
        <time>2020-06-16T09:53:43Z</time>
      </trkpt>
      <trkpt lat="48.18389" lon="2.93885">
        <ele>123.83</ele>
        <time>2020-06-16T09:53:48Z</time>
      </trkpt>
      <trkpt lat="48.18385" lon="2.93885">
        <ele>123.55</ele>
        <time>2020-06-16T09:53:53Z</time>
      </trkpt>
      <trkpt lat="48.18383" lon="2.93885">
        <ele>123.44</ele>
        <time>2020-06-16T09:53:58Z</time>
      </trkpt>
      <trkpt lat="48.18383" lon="2.93885">
        <ele>123.96</ele>
        <time>2020-06-16T09:54:03Z</time>
      </trkpt>
      <trkpt lat="48.18383" lon="2.93884">
        <ele>123.96</ele>
        <time>2020-06-16T09:54:08Z</time>
      </trkpt>
      <trkpt lat="48.18383" lon="2.93884">
        <ele>123.96</ele>
        <time>2020-06-16T09:54:13Z</time>
      </trkpt>
      <trkpt lat="48.18384" lon="2.93884">
        <ele>123.96</ele>
        <time>2020-06-16T09:54:19Z</time>
      </trkpt>
      <trkpt lat="48.18383" lon="2.93884">
        <ele>123.96</ele>
        <time>2020-06-16T09:54:24Z</time>
      </trkpt>
      <trkpt lat="48.18382" lon="2.93887">
        <ele>123.96</ele>
        <time>2020-06-16T09:54:29Z</time>
      </trkpt>
      <trkpt lat="48.18382" lon="2.93888">
        <ele>123.96</ele>
        <time>2020-06-16T09:54:34Z</time>
      </trkpt>
      <trkpt lat="48.18381" lon="2.93887">
        <ele>123.96</ele>
        <time>2020-06-16T09:54:39Z</time>
      </trkpt>
      <trkpt lat="48.18381" lon="2.93887">
        <ele>123.96</ele>
        <time>2020-06-16T09:54:44Z</time>
      </trkpt>
      <trkpt lat="48.18381" lon="2.93887">
        <ele>123.96</ele>
        <time>2020-06-16T09:54:49Z</time>
      </trkpt>
      <trkpt lat="48.18382" lon="2.93887">
        <ele>123.96</ele>
        <time>2020-06-16T09:54:54Z</time>
      </trkpt>
      <trkpt lat="48.18383" lon="2.93886">
        <ele>123.96</ele>
        <time>2020-06-16T09:54:59Z</time>
      </trkpt>
      <trkpt lat="48.18383" lon="2.93885">
        <ele>123.96</ele>
        <time>2020-06-16T09:55:04Z</time>
      </trkpt>
      <trkpt lat="48.18384" lon="2.93885">
        <ele>123.96</ele>
        <time>2020-06-16T09:55:09Z</time>
      </trkpt>
      <trkpt lat="48.18383" lon="2.93885">
        <ele>123.96</ele>
        <time>2020-06-16T09:55:15Z</time>
      </trkpt>
      <trkpt lat="48.18383" lon="2.93884">
        <ele>123.96</ele>
        <time>2020-06-16T09:55:21Z</time>
      </trkpt>
      <trkpt lat="48.18383" lon="2.93882">
        <ele>123.96</ele>
        <time>2020-06-16T09:55:26Z</time>
      </trkpt>
      <trkpt lat="48.1838" lon="2.93879">
        <ele>123.96</ele>
        <time>2020-06-16T09:55:31Z</time>
      </trkpt>
      <trkpt lat="48.1838" lon="2.93877">
        <ele>123.08</ele>
        <time>2020-06-16T09:55:36Z</time>
      </trkpt>
      <trkpt lat="48.18381" lon="2.93876">
        <ele>122.73</ele>
        <time>2020-06-16T09:55:41Z</time>
      </trkpt>
      <trkpt lat="48.18381" lon="2.93874">
        <ele>122.58</ele>
        <time>2020-06-16T09:55:46Z</time>
      </trkpt>
      <trkpt lat="48.18381" lon="2.93872">
        <ele>122.44</ele>
        <time>2020-06-16T09:55:51Z</time>
      </trkpt>
      <trkpt lat="48.1838" lon="2.93871">
        <ele>122.4</ele>
        <time>2020-06-16T09:55:56Z</time>
      </trkpt>
      <trkpt lat="48.18378" lon="2.93864">
        <ele>122.12</ele>
        <time>2020-06-16T09:56:01Z</time>
      </trkpt>
      <trkpt lat="48.18375" lon="2.93857">
        <ele>121.85</ele>
        <time>2020-06-16T09:56:06Z</time>
      </trkpt>
      <trkpt lat="48.18375" lon="2.93852">
        <ele>121.47</ele>
        <time>2020-06-16T09:56:11Z</time>
      </trkpt>
      <trkpt lat="48.18374" lon="2.93845">
        <ele>121.15</ele>
        <time>2020-06-16T09:56:16Z</time>
      </trkpt>
      <trkpt lat="48.18373" lon="2.93838">
        <ele>120.58</ele>
        <time>2020-06-16T09:56:21Z</time>
      </trkpt>
      <trkpt lat="48.18373" lon="2.93829">
        <ele>120.22</ele>
        <time>2020-06-16T09:56:26Z</time>
      </trkpt>
      <trkpt lat="48.18373" lon="2.93822">
        <ele>120.01</ele>
        <time>2020-06-16T09:56:31Z</time>
      </trkpt>
      <trkpt lat="48.18374" lon="2.93813">
        <ele>119.82</ele>
        <time>2020-06-16T09:56:36Z</time>
      </trkpt>
      <trkpt lat="48.18376" lon="2.93805">
        <ele>119.71</ele>
        <time>2020-06-16T09:56:41Z</time>
      </trkpt>
      <trkpt lat="48.18379" lon="2.93795">
        <ele>119.69</ele>
        <time>2020-06-16T09:56:46Z</time>
      </trkpt>
      <trkpt lat="48.1838" lon="2.93787">
        <ele>119.85</ele>
        <time>2020-06-16T09:56:51Z</time>
      </trkpt>
      <trkpt lat="48.18381" lon="2.9378">
        <ele>119.91</ele>
        <time>2020-06-16T09:56:56Z</time>
      </trkpt>
      <trkpt lat="48.18383" lon="2.93772">
        <ele>120.01</ele>
        <time>2020-06-16T09:57:01Z</time>
      </trkpt>
      <trkpt lat="48.18385" lon="2.93764">
        <ele>120.18</ele>
        <time>2020-06-16T09:57:06Z</time>
      </trkpt>
      <trkpt lat="48.18387" lon="2.93757">
        <ele>120.58</ele>
        <time>2020-06-16T09:57:11Z</time>
      </trkpt>
      <trkpt lat="48.18389" lon="2.93751">
        <ele>120.72</ele>
        <time>2020-06-16T09:57:16Z</time>
      </trkpt>
      <trkpt lat="48.18392" lon="2.93743">
        <ele>120.9</ele>
        <time>2020-06-16T09:57:21Z</time>
      </trkpt>
      <trkpt lat="48.18394" lon="2.93733">
        <ele>121.37</ele>
        <time>2020-06-16T09:57:26Z</time>
      </trkpt>
      <trkpt lat="48.18395" lon="2.93725">
        <ele>121.62</ele>
        <time>2020-06-16T09:57:31Z</time>
      </trkpt>
      <trkpt lat="48.18397" lon="2.93718">
        <ele>121.92</ele>
        <time>2020-06-16T09:57:36Z</time>
      </trkpt>
      <trkpt lat="48.184" lon="2.93708">
        <ele>122.02</ele>
        <time>2020-06-16T09:57:41Z</time>
      </trkpt>
      <trkpt lat="48.18404" lon="2.93701">
        <ele>122.37</ele>
        <time>2020-06-16T09:57:46Z</time>
      </trkpt>
      <trkpt lat="48.18407" lon="2.93693">
        <ele>122.61</ele>
        <time>2020-06-16T09:57:51Z</time>
      </trkpt>
      <trkpt lat="48.1841" lon="2.93684">
        <ele>122.82</ele>
        <time>2020-06-16T09:57:56Z</time>
      </trkpt>
      <trkpt lat="48.18412" lon="2.93676">
        <ele>122.99</ele>
        <time>2020-06-16T09:58:01Z</time>
      </trkpt>
      <trkpt lat="48.18415" lon="2.93667">
        <ele>123.08</ele>
        <time>2020-06-16T09:58:06Z</time>
      </trkpt>
      <trkpt lat="48.18418" lon="2.93659">
        <ele>123.1</ele>
        <time>2020-06-16T09:58:11Z</time>
      </trkpt>
      <trkpt lat="48.1842" lon="2.93653">
        <ele>123.16</ele>
        <time>2020-06-16T09:58:16Z</time>
      </trkpt>
      <trkpt lat="48.18422" lon="2.93644">
        <ele>123.09</ele>
        <time>2020-06-16T09:58:21Z</time>
      </trkpt>
      <trkpt lat="48.18423" lon="2.93638">
        <ele>122.81</ele>
        <time>2020-06-16T09:58:26Z</time>
      </trkpt>
      <trkpt lat="48.18425" lon="2.93627">
        <ele>122.58</ele>
        <time>2020-06-16T09:58:31Z</time>
      </trkpt>
      <trkpt lat="48.18428" lon="2.93617">
        <ele>122.56</ele>
        <time>2020-06-16T09:58:36Z</time>
      </trkpt>
      <trkpt lat="48.18432" lon="2.93611">
        <ele>122.56</ele>
        <time>2020-06-16T09:58:41Z</time>
      </trkpt>
      <trkpt lat="48.18435" lon="2.93608">
        <ele>122.48</ele>
        <time>2020-06-16T09:58:46Z</time>
      </trkpt>
      <trkpt lat="48.18439" lon="2.93602">
        <ele>122.2</ele>
        <time>2020-06-16T09:58:51Z</time>
      </trkpt>
      <trkpt lat="48.18442" lon="2.93596">
        <ele>122</ele>
        <time>2020-06-16T09:58:56Z</time>
      </trkpt>
      <trkpt lat="48.18442" lon="2.93587">
        <ele>122.05</ele>
        <time>2020-06-16T09:59:01Z</time>
      </trkpt>
      <trkpt lat="48.18441" lon="2.93582">
        <ele>122.24</ele>
        <time>2020-06-16T09:59:06Z</time>
      </trkpt>
      <trkpt lat="48.18443" lon="2.93578">
        <ele>122.58</ele>
        <time>2020-06-16T09:59:11Z</time>
      </trkpt>
      <trkpt lat="48.18447" lon="2.93571">
        <ele>122.54</ele>
        <time>2020-06-16T09:59:16Z</time>
      </trkpt>
      <trkpt lat="48.1845" lon="2.93562">
        <ele>122.7</ele>
        <time>2020-06-16T09:59:21Z</time>
      </trkpt>
      <trkpt lat="48.18454" lon="2.93555">
        <ele>122.92</ele>
        <time>2020-06-16T09:59:26Z</time>
      </trkpt>
      <trkpt lat="48.18458" lon="2.93547">
        <ele>122.96</ele>
        <time>2020-06-16T09:59:31Z</time>
      </trkpt>
      <trkpt lat="48.18459" lon="2.93539">
        <ele>122.83</ele>
        <time>2020-06-16T09:59:36Z</time>
      </trkpt>
      <trkpt lat="48.18461" lon="2.93529">
        <ele>122.94</ele>
        <time>2020-06-16T09:59:41Z</time>
      </trkpt>
      <trkpt lat="48.18462" lon="2.93524">
        <ele>123</ele>
        <time>2020-06-16T09:59:46Z</time>
      </trkpt>
      <trkpt lat="48.18465" lon="2.93516">
        <ele>123.04</ele>
        <time>2020-06-16T09:59:51Z</time>
      </trkpt>
      <trkpt lat="48.18467" lon="2.9351">
        <ele>123.26</ele>
        <time>2020-06-16T09:59:56Z</time>
      </trkpt>
      <trkpt lat="48.18468" lon="2.93502">
        <ele>123.35</ele>
        <time>2020-06-16T10:00:01Z</time>
      </trkpt>
      <trkpt lat="48.18469" lon="2.93494">
        <ele>123.45</ele>
        <time>2020-06-16T10:00:06Z</time>
      </trkpt>
      <trkpt lat="48.18471" lon="2.93486">
        <ele>123.52</ele>
        <time>2020-06-16T10:00:11Z</time>
      </trkpt>
      <trkpt lat="48.18475" lon="2.93476">
        <ele>123.69</ele>
        <time>2020-06-16T10:00:16Z</time>
      </trkpt>
      <trkpt lat="48.18478" lon="2.93466">
        <ele>123.93</ele>
        <time>2020-06-16T10:00:21Z</time>
      </trkpt>
      <trkpt lat="48.1848" lon="2.93458">
        <ele>124.05</ele>
        <time>2020-06-16T10:00:26Z</time>
      </trkpt>
      <trkpt lat="48.18481" lon="2.9345">
        <ele>124.19</ele>
        <time>2020-06-16T10:00:31Z</time>
      </trkpt>
      <trkpt lat="48.18482" lon="2.93442">
        <ele>124.23</ele>
        <time>2020-06-16T10:00:36Z</time>
      </trkpt>
      <trkpt lat="48.18481" lon="2.93433">
        <ele>124.44</ele>
        <time>2020-06-16T10:00:41Z</time>
      </trkpt>
      <trkpt lat="48.18478" lon="2.93428">
        <ele>124.53</ele>
        <time>2020-06-16T10:00:46Z</time>
      </trkpt>
      <trkpt lat="48.18476" lon="2.9342">
        <ele>124.63</ele>
        <time>2020-06-16T10:00:51Z</time>
      </trkpt>
      <trkpt lat="48.18474" lon="2.93416">
        <ele>124.69</ele>
        <time>2020-06-16T10:00:56Z</time>
      </trkpt>
      <trkpt lat="48.18472" lon="2.93408">
        <ele>124.63</ele>
        <time>2020-06-16T10:01:01Z</time>
      </trkpt>
      <trkpt lat="48.18472" lon="2.93402">
        <ele>124.67</ele>
        <time>2020-06-16T10:01:06Z</time>
      </trkpt>
      <trkpt lat="48.18472" lon="2.93394">
        <ele>124.83</ele>
        <time>2020-06-16T10:01:11Z</time>
      </trkpt>
      <trkpt lat="48.18472" lon="2.93386">
        <ele>125.06</ele>
        <time>2020-06-16T10:01:16Z</time>
      </trkpt>
      <trkpt lat="48.1847" lon="2.93379">
        <ele>125.19</ele>
        <time>2020-06-16T10:01:21Z</time>
      </trkpt>
      <trkpt lat="48.18469" lon="2.9337">
        <ele>125.38</ele>
        <time>2020-06-16T10:01:26Z</time>
      </trkpt>
      <trkpt lat="48.18467" lon="2.93362">
        <ele>125.39</ele>
        <time>2020-06-16T10:01:31Z</time>
      </trkpt>
      <trkpt lat="48.18464" lon="2.93351">
        <ele>125.74</ele>
        <time>2020-06-16T10:01:37Z</time>
      </trkpt>
      <trkpt lat="48.18462" lon="2.93342">
        <ele>125.75</ele>
        <time>2020-06-16T10:01:42Z</time>
      </trkpt>
      <trkpt lat="48.1846" lon="2.93334">
        <ele>125.7</ele>
        <time>2020-06-16T10:01:47Z</time>
      </trkpt>
      <trkpt lat="48.18458" lon="2.93325">
        <ele>125.64</ele>
        <time>2020-06-16T10:01:52Z</time>
      </trkpt>
      <trkpt lat="48.18457" lon="2.93316">
        <ele>125.69</ele>
        <time>2020-06-16T10:01:57Z</time>
      </trkpt>
      <trkpt lat="48.18455" lon="2.93309">
        <ele>125.93</ele>
        <time>2020-06-16T10:02:02Z</time>
      </trkpt>
      <trkpt lat="48.18453" lon="2.93299">
        <ele>126.06</ele>
        <time>2020-06-16T10:02:07Z</time>
      </trkpt>
      <trkpt lat="48.18451" lon="2.9329">
        <ele>126.3</ele>
        <time>2020-06-16T10:02:12Z</time>
      </trkpt>
      <trkpt lat="48.1845" lon="2.93279">
        <ele>126.32</ele>
        <time>2020-06-16T10:02:17Z</time>
      </trkpt>
      <trkpt lat="48.1845" lon="2.93271">
        <ele>126.32</ele>
        <time>2020-06-16T10:02:22Z</time>
      </trkpt>
      <trkpt lat="48.18448" lon="2.93263">
        <ele>126.37</ele>
        <time>2020-06-16T10:02:27Z</time>
      </trkpt>
      <trkpt lat="48.18446" lon="2.93255">
        <ele>126.25</ele>
        <time>2020-06-16T10:02:32Z</time>
      </trkpt>
      <trkpt lat="48.18444" lon="2.93247">
        <ele>126.03</ele>
        <time>2020-06-16T10:02:37Z</time>
      </trkpt>
      <trkpt lat="48.18444" lon="2.93237">
        <ele>125.89</ele>
        <time>2020-06-16T10:02:42Z</time>
      </trkpt>
      <trkpt lat="48.18443" lon="2.93227">
        <ele>125.72</ele>
        <time>2020-06-16T10:02:47Z</time>
      </trkpt>
      <trkpt lat="48.1844" lon="2.93218">
        <ele>125.6</ele>
        <time>2020-06-16T10:02:52Z</time>
      </trkpt>
      <trkpt lat="48.18438" lon="2.9321">
        <ele>125.44</ele>
        <time>2020-06-16T10:02:57Z</time>
      </trkpt>
      <trkpt lat="48.18435" lon="2.93201">
        <ele>125.31</ele>
        <time>2020-06-16T10:03:02Z</time>
      </trkpt>
      <trkpt lat="48.18433" lon="2.93192">
        <ele>125.14</ele>
        <time>2020-06-16T10:03:07Z</time>
      </trkpt>
      <trkpt lat="48.18429" lon="2.93183">
        <ele>125</ele>
        <time>2020-06-16T10:03:12Z</time>
      </trkpt>
      <trkpt lat="48.18429" lon="2.93174">
        <ele>124.89</ele>
        <time>2020-06-16T10:03:17Z</time>
      </trkpt>
      <trkpt lat="48.18427" lon="2.93165">
        <ele>124.52</ele>
        <time>2020-06-16T10:03:22Z</time>
      </trkpt>
      <trkpt lat="48.18424" lon="2.93156">
        <ele>124.46</ele>
        <time>2020-06-16T10:03:27Z</time>
      </trkpt>
      <trkpt lat="48.18424" lon="2.93148">
        <ele>124.45</ele>
        <time>2020-06-16T10:03:32Z</time>
      </trkpt>
      <trkpt lat="48.18421" lon="2.93139">
        <ele>124.36</ele>
        <time>2020-06-16T10:03:37Z</time>
      </trkpt>
      <trkpt lat="48.1842" lon="2.9313">
        <ele>124.39</ele>
        <time>2020-06-16T10:03:42Z</time>
      </trkpt>
      <trkpt lat="48.18419" lon="2.9312">
        <ele>124.4</ele>
        <time>2020-06-16T10:03:47Z</time>
      </trkpt>
      <trkpt lat="48.18419" lon="2.93113">
        <ele>124.48</ele>
        <time>2020-06-16T10:03:52Z</time>
      </trkpt>
      <trkpt lat="48.18418" lon="2.93105">
        <ele>124.5</ele>
        <time>2020-06-16T10:03:57Z</time>
      </trkpt>
      <trkpt lat="48.18416" lon="2.93095">
        <ele>124.5</ele>
        <time>2020-06-16T10:04:02Z</time>
      </trkpt>
      <trkpt lat="48.18414" lon="2.93086">
        <ele>124.56</ele>
        <time>2020-06-16T10:04:07Z</time>
      </trkpt>
      <trkpt lat="48.18413" lon="2.93075">
        <ele>124.6</ele>
        <time>2020-06-16T10:04:12Z</time>
      </trkpt>
      <trkpt lat="48.18411" lon="2.93069">
        <ele>124.77</ele>
        <time>2020-06-16T10:04:17Z</time>
      </trkpt>
      <trkpt lat="48.18409" lon="2.93062">
        <ele>124.71</ele>
        <time>2020-06-16T10:04:22Z</time>
      </trkpt>
      <trkpt lat="48.18407" lon="2.93052">
        <ele>124.65</ele>
        <time>2020-06-16T10:04:27Z</time>
      </trkpt>
      <trkpt lat="48.18405" lon="2.93042">
        <ele>124.61</ele>
        <time>2020-06-16T10:04:32Z</time>
      </trkpt>
      <trkpt lat="48.18403" lon="2.93034">
        <ele>124.59</ele>
        <time>2020-06-16T10:04:37Z</time>
      </trkpt>
      <trkpt lat="48.18402" lon="2.93026">
        <ele>124.58</ele>
        <time>2020-06-16T10:04:42Z</time>
      </trkpt>
      <trkpt lat="48.18402" lon="2.93018">
        <ele>124.49</ele>
        <time>2020-06-16T10:04:47Z</time>
      </trkpt>
      <trkpt lat="48.18402" lon="2.9301">
        <ele>124.49</ele>
        <time>2020-06-16T10:04:52Z</time>
      </trkpt>
      <trkpt lat="48.184" lon="2.92999">
        <ele>124.31</ele>
        <time>2020-06-16T10:04:57Z</time>
      </trkpt>
      <trkpt lat="48.184" lon="2.92987">
        <ele>124.12</ele>
        <time>2020-06-16T10:05:02Z</time>
      </trkpt>
      <trkpt lat="48.18399" lon="2.92975">
        <ele>123.79</ele>
        <time>2020-06-16T10:05:07Z</time>
      </trkpt>
      <trkpt lat="48.18399" lon="2.92963">
        <ele>123.54</ele>
        <time>2020-06-16T10:05:12Z</time>
      </trkpt>
      <trkpt lat="48.18397" lon="2.92957">
        <ele>123.33</ele>
        <time>2020-06-16T10:05:17Z</time>
      </trkpt>
      <trkpt lat="48.18397" lon="2.92949">
        <ele>123.17</ele>
        <time>2020-06-16T10:05:22Z</time>
      </trkpt>
      <trkpt lat="48.18396" lon="2.92939">
        <ele>122.92</ele>
        <time>2020-06-16T10:05:27Z</time>
      </trkpt>
      <trkpt lat="48.18395" lon="2.92929">
        <ele>122.84</ele>
        <time>2020-06-16T10:05:32Z</time>
      </trkpt>
      <trkpt lat="48.18394" lon="2.92921">
        <ele>122.78</ele>
        <time>2020-06-16T10:05:37Z</time>
      </trkpt>
      <trkpt lat="48.18394" lon="2.92909">
        <ele>122.7</ele>
        <time>2020-06-16T10:05:42Z</time>
      </trkpt>
      <trkpt lat="48.18394" lon="2.92899">
        <ele>122.67</ele>
        <time>2020-06-16T10:05:47Z</time>
      </trkpt>
      <trkpt lat="48.18395" lon="2.9289">
        <ele>122.56</ele>
        <time>2020-06-16T10:05:52Z</time>
      </trkpt>
      <trkpt lat="48.18395" lon="2.92883">
        <ele>122.49</ele>
        <time>2020-06-16T10:05:57Z</time>
      </trkpt>
      <trkpt lat="48.18395" lon="2.92874">
        <ele>122.57</ele>
        <time>2020-06-16T10:06:02Z</time>
      </trkpt>
      <trkpt lat="48.18395" lon="2.92865">
        <ele>122.65</ele>
        <time>2020-06-16T10:06:07Z</time>
      </trkpt>
      <trkpt lat="48.18396" lon="2.92856">
        <ele>122.94</ele>
        <time>2020-06-16T10:06:12Z</time>
      </trkpt>
      <trkpt lat="48.18395" lon="2.92848">
        <ele>123</ele>
        <time>2020-06-16T10:06:17Z</time>
      </trkpt>
      <trkpt lat="48.18396" lon="2.92838">
        <ele>123.01</ele>
        <time>2020-06-16T10:06:22Z</time>
      </trkpt>
      <trkpt lat="48.18396" lon="2.92828">
        <ele>123.35</ele>
        <time>2020-06-16T10:06:27Z</time>
      </trkpt>
      <trkpt lat="48.18396" lon="2.92821">
        <ele>123.53</ele>
        <time>2020-06-16T10:06:32Z</time>
      </trkpt>
      <trkpt lat="48.18395" lon="2.92812">
        <ele>123.77</ele>
        <time>2020-06-16T10:06:37Z</time>
      </trkpt>
      <trkpt lat="48.18395" lon="2.92803">
        <ele>123.83</ele>
        <time>2020-06-16T10:06:42Z</time>
      </trkpt>
      <trkpt lat="48.18396" lon="2.92793">
        <ele>123.92</ele>
        <time>2020-06-16T10:06:47Z</time>
      </trkpt>
      <trkpt lat="48.18396" lon="2.92784">
        <ele>123.99</ele>
        <time>2020-06-16T10:06:52Z</time>
      </trkpt>
      <trkpt lat="48.18398" lon="2.92775">
        <ele>124.1</ele>
        <time>2020-06-16T10:06:57Z</time>
      </trkpt>
      <trkpt lat="48.18398" lon="2.92765">
        <ele>124.21</ele>
        <time>2020-06-16T10:07:02Z</time>
      </trkpt>
      <trkpt lat="48.18397" lon="2.92757">
        <ele>124.4</ele>
        <time>2020-06-16T10:07:07Z</time>
      </trkpt>
      <trkpt lat="48.18398" lon="2.92748">
        <ele>124.56</ele>
        <time>2020-06-16T10:07:12Z</time>
      </trkpt>
      <trkpt lat="48.18402" lon="2.92749">
        <ele>130.48</ele>
        <time>2020-06-16T11:14:56Z</time>
      </trkpt>
      <trkpt lat="48.18401" lon="2.9275">
        <ele>130.39</ele>
        <time>2020-06-16T11:15:01Z</time>
      </trkpt>
      <trkpt lat="48.18396" lon="2.92749">
        <ele>130.3</ele>
        <time>2020-06-16T11:15:06Z</time>
      </trkpt>
      <trkpt lat="48.1839" lon="2.92748">
        <ele>130.23</ele>
        <time>2020-06-16T11:15:11Z</time>
      </trkpt>
      <trkpt lat="48.18385" lon="2.92747">
        <ele>130.04</ele>
        <time>2020-06-16T11:15:16Z</time>
      </trkpt>
      <trkpt lat="48.18381" lon="2.92744">
        <ele>129.72</ele>
        <time>2020-06-16T11:15:21Z</time>
      </trkpt>
      <trkpt lat="48.18377" lon="2.92741">
        <ele>129.53</ele>
        <time>2020-06-16T11:15:26Z</time>
      </trkpt>
      <trkpt lat="48.18371" lon="2.92738">
        <ele>129.36</ele>
        <time>2020-06-16T11:15:31Z</time>
      </trkpt>
      <trkpt lat="48.18367" lon="2.92735">
        <ele>129.23</ele>
        <time>2020-06-16T11:15:36Z</time>
      </trkpt>
      <trkpt lat="48.18361" lon="2.9273">
        <ele>129.21</ele>
        <time>2020-06-16T11:15:41Z</time>
      </trkpt>
      <trkpt lat="48.18354" lon="2.92727">
        <ele>129.05</ele>
        <time>2020-06-16T11:15:46Z</time>
      </trkpt>
      <trkpt lat="48.18348" lon="2.92725">
        <ele>128.92</ele>
        <time>2020-06-16T11:15:51Z</time>
      </trkpt>
      <trkpt lat="48.18343" lon="2.92724">
        <ele>128.82</ele>
        <time>2020-06-16T11:15:56Z</time>
      </trkpt>
      <trkpt lat="48.18336" lon="2.9272">
        <ele>128.62</ele>
        <time>2020-06-16T11:16:01Z</time>
      </trkpt>
      <trkpt lat="48.1833" lon="2.92716">
        <ele>128.49</ele>
        <time>2020-06-16T11:16:06Z</time>
      </trkpt>
      <trkpt lat="48.18324" lon="2.92713">
        <ele>128.46</ele>
        <time>2020-06-16T11:16:11Z</time>
      </trkpt>
      <trkpt lat="48.18319" lon="2.9271">
        <ele>128.27</ele>
        <time>2020-06-16T11:16:16Z</time>
      </trkpt>
      <trkpt lat="48.18313" lon="2.92708">
        <ele>128.25</ele>
        <time>2020-06-16T11:16:21Z</time>
      </trkpt>
      <trkpt lat="48.18309" lon="2.92703">
        <ele>128.11</ele>
        <time>2020-06-16T11:16:26Z</time>
      </trkpt>
      <trkpt lat="48.18304" lon="2.92701">
        <ele>128.07</ele>
        <time>2020-06-16T11:16:31Z</time>
      </trkpt>
      <trkpt lat="48.18297" lon="2.92699">
        <ele>128</ele>
        <time>2020-06-16T11:16:36Z</time>
      </trkpt>
      <trkpt lat="48.18292" lon="2.92699">
        <ele>127.94</ele>
        <time>2020-06-16T11:16:41Z</time>
      </trkpt>
      <trkpt lat="48.18286" lon="2.92696">
        <ele>127.92</ele>
        <time>2020-06-16T11:16:46Z</time>
      </trkpt>
      <trkpt lat="48.1828" lon="2.92693">
        <ele>127.94</ele>
        <time>2020-06-16T11:16:51Z</time>
      </trkpt>
      <trkpt lat="48.18278" lon="2.9269">
        <ele>128.03</ele>
        <time>2020-06-16T11:16:56Z</time>
      </trkpt>
      <trkpt lat="48.18272" lon="2.92684">
        <ele>127.97</ele>
        <time>2020-06-16T11:17:01Z</time>
      </trkpt>
      <trkpt lat="48.18266" lon="2.92676">
        <ele>127.58</ele>
        <time>2020-06-16T11:17:06Z</time>
      </trkpt>
      <trkpt lat="48.18264" lon="2.92668">
        <ele>127.12</ele>
        <time>2020-06-16T11:17:11Z</time>
      </trkpt>
      <trkpt lat="48.18262" lon="2.9266">
        <ele>126.96</ele>
        <time>2020-06-16T11:17:16Z</time>
      </trkpt>
      <trkpt lat="48.18261" lon="2.92649">
        <ele>126.91</ele>
        <time>2020-06-16T11:17:21Z</time>
      </trkpt>
      <trkpt lat="48.18261" lon="2.92643">
        <ele>127.01</ele>
        <time>2020-06-16T11:17:26Z</time>
      </trkpt>
      <trkpt lat="48.18261" lon="2.92634">
        <ele>127.06</ele>
        <time>2020-06-16T11:17:31Z</time>
      </trkpt>
      <trkpt lat="48.18262" lon="2.92624">
        <ele>127.14</ele>
        <time>2020-06-16T11:17:36Z</time>
      </trkpt>
      <trkpt lat="48.18261" lon="2.92615">
        <ele>127.19</ele>
        <time>2020-06-16T11:17:41Z</time>
      </trkpt>
      <trkpt lat="48.18265" lon="2.92604">
        <ele>127.27</ele>
        <time>2020-06-16T11:17:46Z</time>
      </trkpt>
      <trkpt lat="48.18267" lon="2.92595">
        <ele>127.33</ele>
        <time>2020-06-16T11:17:51Z</time>
      </trkpt>
      <trkpt lat="48.18268" lon="2.92587">
        <ele>127.38</ele>
        <time>2020-06-16T11:17:56Z</time>
      </trkpt>
      <trkpt lat="48.18268" lon="2.9258">
        <ele>127.26</ele>
        <time>2020-06-16T11:18:01Z</time>
      </trkpt>
      <trkpt lat="48.18263" lon="2.92571">
        <ele>127.15</ele>
        <time>2020-06-16T11:18:06Z</time>
      </trkpt>
      <trkpt lat="48.18261" lon="2.92569">
        <ele>126.95</ele>
        <time>2020-06-16T11:18:11Z</time>
      </trkpt>
      <trkpt lat="48.18259" lon="2.92569">
        <ele>126.83</ele>
        <time>2020-06-16T11:18:16Z</time>
      </trkpt>
      <trkpt lat="48.18251" lon="2.92567">
        <ele>126.68</ele>
        <time>2020-06-16T11:18:21Z</time>
      </trkpt>
      <trkpt lat="48.18246" lon="2.92566">
        <ele>126.49</ele>
        <time>2020-06-16T11:18:26Z</time>
      </trkpt>
      <trkpt lat="48.1824" lon="2.92564">
        <ele>126.45</ele>
        <time>2020-06-16T11:18:31Z</time>
      </trkpt>
      <trkpt lat="48.18238" lon="2.92564">
        <ele>126.48</ele>
        <time>2020-06-16T11:18:36Z</time>
      </trkpt>
      <trkpt lat="48.18227" lon="2.92563">
        <ele>126.59</ele>
        <time>2020-06-16T11:18:41Z</time>
      </trkpt>
      <trkpt lat="48.18219" lon="2.92562">
        <ele>126.74</ele>
        <time>2020-06-16T11:18:46Z</time>
      </trkpt>
      <trkpt lat="48.18215" lon="2.92562">
        <ele>126.95</ele>
        <time>2020-06-16T11:18:51Z</time>
      </trkpt>
      <trkpt lat="48.18209" lon="2.92562">
        <ele>127.12</ele>
        <time>2020-06-16T11:18:56Z</time>
      </trkpt>
      <trkpt lat="48.18204" lon="2.92561">
        <ele>127.23</ele>
        <time>2020-06-16T11:19:01Z</time>
      </trkpt>
      <trkpt lat="48.18197" lon="2.92559">
        <ele>127.35</ele>
        <time>2020-06-16T11:19:06Z</time>
      </trkpt>
      <trkpt lat="48.18191" lon="2.92557">
        <ele>127.6</ele>
        <time>2020-06-16T11:19:11Z</time>
      </trkpt>
      <trkpt lat="48.18184" lon="2.92554">
        <ele>127.73</ele>
        <time>2020-06-16T11:19:16Z</time>
      </trkpt>
      <trkpt lat="48.18177" lon="2.92553">
        <ele>127.86</ele>
        <time>2020-06-16T11:19:21Z</time>
      </trkpt>
      <trkpt lat="48.18171" lon="2.9255">
        <ele>127.86</ele>
        <time>2020-06-16T11:19:26Z</time>
      </trkpt>
      <trkpt lat="48.18166" lon="2.92546">
        <ele>127.93</ele>
        <time>2020-06-16T11:19:31Z</time>
      </trkpt>
      <trkpt lat="48.18159" lon="2.92543">
        <ele>128.02</ele>
        <time>2020-06-16T11:19:36Z</time>
      </trkpt>
      <trkpt lat="48.18154" lon="2.9254">
        <ele>128.07</ele>
        <time>2020-06-16T11:19:41Z</time>
      </trkpt>
      <trkpt lat="48.18149" lon="2.92537">
        <ele>128.11</ele>
        <time>2020-06-16T11:19:46Z</time>
      </trkpt>
      <trkpt lat="48.18143" lon="2.92535">
        <ele>128.14</ele>
        <time>2020-06-16T11:19:51Z</time>
      </trkpt>
      <trkpt lat="48.18136" lon="2.92531">
        <ele>128.18</ele>
        <time>2020-06-16T11:19:56Z</time>
      </trkpt>
      <trkpt lat="48.18131" lon="2.92529">
        <ele>128.27</ele>
        <time>2020-06-16T11:20:01Z</time>
      </trkpt>
      <trkpt lat="48.18126" lon="2.92526">
        <ele>128.29</ele>
        <time>2020-06-16T11:20:06Z</time>
      </trkpt>
      <trkpt lat="48.18121" lon="2.92523">
        <ele>128.37</ele>
        <time>2020-06-16T11:20:11Z</time>
      </trkpt>
      <trkpt lat="48.18117" lon="2.9252">
        <ele>128.49</ele>
        <time>2020-06-16T11:20:16Z</time>
      </trkpt>
      <trkpt lat="48.18111" lon="2.92514">
        <ele>128.59</ele>
        <time>2020-06-16T11:20:21Z</time>
      </trkpt>
      <trkpt lat="48.18104" lon="2.92511">
        <ele>128.84</ele>
        <time>2020-06-16T11:20:26Z</time>
      </trkpt>
      <trkpt lat="48.18098" lon="2.92506">
        <ele>129.2</ele>
        <time>2020-06-16T11:20:31Z</time>
      </trkpt>
      <trkpt lat="48.18095" lon="2.925">
        <ele>129.13</ele>
        <time>2020-06-16T11:20:36Z</time>
      </trkpt>
      <trkpt lat="48.1809" lon="2.92493">
        <ele>128.98</ele>
        <time>2020-06-16T11:20:41Z</time>
      </trkpt>
      <trkpt lat="48.18086" lon="2.92485">
        <ele>128.95</ele>
        <time>2020-06-16T11:20:46Z</time>
      </trkpt>
      <trkpt lat="48.18084" lon="2.92477">
        <ele>128.95</ele>
        <time>2020-06-16T11:20:51Z</time>
      </trkpt>
      <trkpt lat="48.18082" lon="2.92469">
        <ele>128.96</ele>
        <time>2020-06-16T11:20:56Z</time>
      </trkpt>
      <trkpt lat="48.1808" lon="2.92459">
        <ele>129.05</ele>
        <time>2020-06-16T11:21:01Z</time>
      </trkpt>
      <trkpt lat="48.18075" lon="2.9245">
        <ele>129.17</ele>
        <time>2020-06-16T11:21:06Z</time>
      </trkpt>
      <trkpt lat="48.18073" lon="2.92441">
        <ele>129.13</ele>
        <time>2020-06-16T11:21:11Z</time>
      </trkpt>
      <trkpt lat="48.18071" lon="2.92432">
        <ele>129.21</ele>
        <time>2020-06-16T11:21:16Z</time>
      </trkpt>
      <trkpt lat="48.18069" lon="2.92423">
        <ele>129.37</ele>
        <time>2020-06-16T11:21:21Z</time>
      </trkpt>
      <trkpt lat="48.18068" lon="2.92413">
        <ele>129.44</ele>
        <time>2020-06-16T11:21:26Z</time>
      </trkpt>
      <trkpt lat="48.18066" lon="2.92404">
        <ele>129.65</ele>
        <time>2020-06-16T11:21:31Z</time>
      </trkpt>
      <trkpt lat="48.18064" lon="2.92395">
        <ele>129.7</ele>
        <time>2020-06-16T11:21:36Z</time>
      </trkpt>
      <trkpt lat="48.18061" lon="2.92386">
        <ele>129.8</ele>
        <time>2020-06-16T11:21:41Z</time>
      </trkpt>
      <trkpt lat="48.18058" lon="2.92378">
        <ele>129.88</ele>
        <time>2020-06-16T11:21:46Z</time>
      </trkpt>
      <trkpt lat="48.18055" lon="2.92368">
        <ele>129.92</ele>
        <time>2020-06-16T11:21:51Z</time>
      </trkpt>
      <trkpt lat="48.18052" lon="2.9236">
        <ele>130.09</ele>
        <time>2020-06-16T11:21:56Z</time>
      </trkpt>
      <trkpt lat="48.18049" lon="2.92352">
        <ele>130.23</ele>
        <time>2020-06-16T11:22:01Z</time>
      </trkpt>
      <trkpt lat="48.18047" lon="2.92344">
        <ele>130.4</ele>
        <time>2020-06-16T11:22:06Z</time>
      </trkpt>
      <trkpt lat="48.18045" lon="2.92335">
        <ele>130.2</ele>
        <time>2020-06-16T11:22:11Z</time>
      </trkpt>
      <trkpt lat="48.18042" lon="2.92327">
        <ele>130.15</ele>
        <time>2020-06-16T11:22:16Z</time>
      </trkpt>
      <trkpt lat="48.18038" lon="2.9232">
        <ele>130.33</ele>
        <time>2020-06-16T11:22:21Z</time>
      </trkpt>
      <trkpt lat="48.18035" lon="2.92312">
        <ele>130.45</ele>
        <time>2020-06-16T11:22:26Z</time>
      </trkpt>
      <trkpt lat="48.18032" lon="2.92303">
        <ele>130.44</ele>
        <time>2020-06-16T11:22:31Z</time>
      </trkpt>
      <trkpt lat="48.1803" lon="2.92299">
        <ele>130.39</ele>
        <time>2020-06-16T11:22:36Z</time>
      </trkpt>
      <trkpt lat="48.18028" lon="2.9229">
        <ele>130.55</ele>
        <time>2020-06-16T11:22:41Z</time>
      </trkpt>
      <trkpt lat="48.18025" lon="2.92282">
        <ele>130.77</ele>
        <time>2020-06-16T11:22:46Z</time>
      </trkpt>
      <trkpt lat="48.18021" lon="2.92277">
        <ele>130.73</ele>
        <time>2020-06-16T11:22:51Z</time>
      </trkpt>
      <trkpt lat="48.18017" lon="2.92271">
        <ele>130.69</ele>
        <time>2020-06-16T11:22:56Z</time>
      </trkpt>
      <trkpt lat="48.18012" lon="2.92266">
        <ele>130.53</ele>
        <time>2020-06-16T11:23:01Z</time>
      </trkpt>
      <trkpt lat="48.18008" lon="2.92261">
        <ele>130.46</ele>
        <time>2020-06-16T11:23:06Z</time>
      </trkpt>
      <trkpt lat="48.18004" lon="2.92258">
        <ele>130.31</ele>
        <time>2020-06-16T11:23:11Z</time>
      </trkpt>
      <trkpt lat="48.17998" lon="2.92255">
        <ele>130.29</ele>
        <time>2020-06-16T11:23:16Z</time>
      </trkpt>
      <trkpt lat="48.17991" lon="2.92254">
        <ele>130.15</ele>
        <time>2020-06-16T11:23:21Z</time>
      </trkpt>
      <trkpt lat="48.17985" lon="2.92251">
        <ele>129.98</ele>
        <time>2020-06-16T11:23:26Z</time>
      </trkpt>
      <trkpt lat="48.17979" lon="2.92248">
        <ele>129.9</ele>
        <time>2020-06-16T11:23:31Z</time>
      </trkpt>
      <trkpt lat="48.17974" lon="2.92246">
        <ele>129.96</ele>
        <time>2020-06-16T11:23:36Z</time>
      </trkpt>
      <trkpt lat="48.17968" lon="2.92242">
        <ele>129.92</ele>
        <time>2020-06-16T11:23:41Z</time>
      </trkpt>
      <trkpt lat="48.17962" lon="2.92239">
        <ele>129.77</ele>
        <time>2020-06-16T11:23:46Z</time>
      </trkpt>
      <trkpt lat="48.17957" lon="2.92237">
        <ele>129.77</ele>
        <time>2020-06-16T11:23:51Z</time>
      </trkpt>
      <trkpt lat="48.17952" lon="2.92233">
        <ele>129.73</ele>
        <time>2020-06-16T11:23:56Z</time>
      </trkpt>
      <trkpt lat="48.17947" lon="2.92229">
        <ele>129.59</ele>
        <time>2020-06-16T11:24:01Z</time>
      </trkpt>
      <trkpt lat="48.17941" lon="2.92226">
        <ele>129.56</ele>
        <time>2020-06-16T11:24:06Z</time>
      </trkpt>
      <trkpt lat="48.17935" lon="2.92222">
        <ele>129.53</ele>
        <time>2020-06-16T11:24:11Z</time>
      </trkpt>
      <trkpt lat="48.1793" lon="2.92219">
        <ele>129.58</ele>
        <time>2020-06-16T11:24:16Z</time>
      </trkpt>
      <trkpt lat="48.17924" lon="2.92216">
        <ele>129.67</ele>
        <time>2020-06-16T11:24:21Z</time>
      </trkpt>
      <trkpt lat="48.17918" lon="2.92213">
        <ele>129.99</ele>
        <time>2020-06-16T11:24:26Z</time>
      </trkpt>
      <trkpt lat="48.17913" lon="2.92208">
        <ele>130.24</ele>
        <time>2020-06-16T11:24:31Z</time>
      </trkpt>
      <trkpt lat="48.17907" lon="2.92204">
        <ele>130.42</ele>
        <time>2020-06-16T11:24:36Z</time>
      </trkpt>
      <trkpt lat="48.17902" lon="2.922">
        <ele>130.48</ele>
        <time>2020-06-16T11:24:41Z</time>
      </trkpt>
      <trkpt lat="48.17896" lon="2.92196">
        <ele>130.56</ele>
        <time>2020-06-16T11:24:46Z</time>
      </trkpt>
      <trkpt lat="48.1789" lon="2.92193">
        <ele>130.55</ele>
        <time>2020-06-16T11:24:51Z</time>
      </trkpt>
      <trkpt lat="48.17884" lon="2.92188">
        <ele>130.49</ele>
        <time>2020-06-16T11:24:57Z</time>
      </trkpt>
      <trkpt lat="48.17879" lon="2.92185">
        <ele>130.9</ele>
        <time>2020-06-16T11:25:02Z</time>
      </trkpt>
      <trkpt lat="48.17875" lon="2.92183">
        <ele>130.86</ele>
        <time>2020-06-16T11:25:07Z</time>
      </trkpt>
      <trkpt lat="48.17869" lon="2.9218">
        <ele>130.86</ele>
        <time>2020-06-16T11:25:12Z</time>
      </trkpt>
      <trkpt lat="48.17863" lon="2.92176">
        <ele>130.91</ele>
        <time>2020-06-16T11:25:17Z</time>
      </trkpt>
      <trkpt lat="48.17857" lon="2.92172">
        <ele>131.04</ele>
        <time>2020-06-16T11:25:22Z</time>
      </trkpt>
      <trkpt lat="48.17851" lon="2.92169">
        <ele>130.96</ele>
        <time>2020-06-16T11:25:27Z</time>
      </trkpt>
      <trkpt lat="48.17846" lon="2.92167">
        <ele>130.98</ele>
        <time>2020-06-16T11:25:32Z</time>
      </trkpt>
      <trkpt lat="48.17841" lon="2.92162">
        <ele>131.04</ele>
        <time>2020-06-16T11:25:37Z</time>
      </trkpt>
      <trkpt lat="48.17836" lon="2.92158">
        <ele>131.1</ele>
        <time>2020-06-16T11:25:42Z</time>
      </trkpt>
      <trkpt lat="48.17829" lon="2.92155">
        <ele>131.12</ele>
        <time>2020-06-16T11:25:47Z</time>
      </trkpt>
      <trkpt lat="48.17823" lon="2.92151">
        <ele>131.14</ele>
        <time>2020-06-16T11:25:52Z</time>
      </trkpt>
      <trkpt lat="48.17817" lon="2.92147">
        <ele>131.26</ele>
        <time>2020-06-16T11:25:57Z</time>
      </trkpt>
      <trkpt lat="48.17812" lon="2.92145">
        <ele>131.34</ele>
        <time>2020-06-16T11:26:02Z</time>
      </trkpt>
      <trkpt lat="48.17807" lon="2.92142">
        <ele>131.57</ele>
        <time>2020-06-16T11:26:07Z</time>
      </trkpt>
      <trkpt lat="48.17802" lon="2.92138">
        <ele>131.87</ele>
        <time>2020-06-16T11:26:12Z</time>
      </trkpt>
      <trkpt lat="48.17797" lon="2.92134">
        <ele>131.94</ele>
        <time>2020-06-16T11:26:17Z</time>
      </trkpt>
      <trkpt lat="48.17791" lon="2.9213">
        <ele>131.98</ele>
        <time>2020-06-16T11:26:22Z</time>
      </trkpt>
      <trkpt lat="48.17785" lon="2.92126">
        <ele>132.17</ele>
        <time>2020-06-16T11:26:27Z</time>
      </trkpt>
      <trkpt lat="48.1778" lon="2.92123">
        <ele>132.08</ele>
        <time>2020-06-16T11:26:32Z</time>
      </trkpt>
      <trkpt lat="48.17775" lon="2.9212">
        <ele>132.24</ele>
        <time>2020-06-16T11:26:37Z</time>
      </trkpt>
      <trkpt lat="48.17768" lon="2.92118">
        <ele>132.34</ele>
        <time>2020-06-16T11:26:42Z</time>
      </trkpt>
      <trkpt lat="48.17762" lon="2.92114">
        <ele>132.27</ele>
        <time>2020-06-16T11:26:47Z</time>
      </trkpt>
      <trkpt lat="48.17757" lon="2.92111">
        <ele>132.27</ele>
        <time>2020-06-16T11:26:52Z</time>
      </trkpt>
      <trkpt lat="48.17751" lon="2.92108">
        <ele>132.35</ele>
        <time>2020-06-16T11:26:57Z</time>
      </trkpt>
      <trkpt lat="48.17745" lon="2.92105">
        <ele>132.44</ele>
        <time>2020-06-16T11:27:02Z</time>
      </trkpt>
      <trkpt lat="48.17739" lon="2.92101">
        <ele>132.54</ele>
        <time>2020-06-16T11:27:07Z</time>
      </trkpt>
      <trkpt lat="48.17734" lon="2.92097">
        <ele>132.59</ele>
        <time>2020-06-16T11:27:12Z</time>
      </trkpt>
      <trkpt lat="48.17728" lon="2.92093">
        <ele>132.57</ele>
        <time>2020-06-16T11:27:17Z</time>
      </trkpt>
      <trkpt lat="48.17722" lon="2.9209">
        <ele>132.57</ele>
        <time>2020-06-16T11:27:22Z</time>
      </trkpt>
      <trkpt lat="48.17716" lon="2.92087">
        <ele>132.53</ele>
        <time>2020-06-16T11:27:27Z</time>
      </trkpt>
      <trkpt lat="48.17711" lon="2.92082">
        <ele>132.57</ele>
        <time>2020-06-16T11:27:32Z</time>
      </trkpt>
      <trkpt lat="48.17705" lon="2.92078">
        <ele>132.78</ele>
        <time>2020-06-16T11:27:37Z</time>
      </trkpt>
      <trkpt lat="48.177" lon="2.92075">
        <ele>133.05</ele>
        <time>2020-06-16T11:27:42Z</time>
      </trkpt>
      <trkpt lat="48.17694" lon="2.92071">
        <ele>133.19</ele>
        <time>2020-06-16T11:27:47Z</time>
      </trkpt>
      <trkpt lat="48.17689" lon="2.92068">
        <ele>133.1</ele>
        <time>2020-06-16T11:27:52Z</time>
      </trkpt>
      <trkpt lat="48.17683" lon="2.92065">
        <ele>133.07</ele>
        <time>2020-06-16T11:27:57Z</time>
      </trkpt>
      <trkpt lat="48.17678" lon="2.92062">
        <ele>133.11</ele>
        <time>2020-06-16T11:28:02Z</time>
      </trkpt>
      <trkpt lat="48.17673" lon="2.92058">
        <ele>133.31</ele>
        <time>2020-06-16T11:28:07Z</time>
      </trkpt>
      <trkpt lat="48.17668" lon="2.92053">
        <ele>133.53</ele>
        <time>2020-06-16T11:28:12Z</time>
      </trkpt>
      <trkpt lat="48.17661" lon="2.9205">
        <ele>133.53</ele>
        <time>2020-06-16T11:28:17Z</time>
      </trkpt>
      <trkpt lat="48.17655" lon="2.92046">
        <ele>133.54</ele>
        <time>2020-06-16T11:28:22Z</time>
      </trkpt>
      <trkpt lat="48.17649" lon="2.92043">
        <ele>133.53</ele>
        <time>2020-06-16T11:28:27Z</time>
      </trkpt>
      <trkpt lat="48.17644" lon="2.92037">
        <ele>133.46</ele>
        <time>2020-06-16T11:28:32Z</time>
      </trkpt>
      <trkpt lat="48.17638" lon="2.92033">
        <ele>133.52</ele>
        <time>2020-06-16T11:28:37Z</time>
      </trkpt>
      <trkpt lat="48.17631" lon="2.92031">
        <ele>133.54</ele>
        <time>2020-06-16T11:28:42Z</time>
      </trkpt>
      <trkpt lat="48.17626" lon="2.92025">
        <ele>133.5</ele>
        <time>2020-06-16T11:28:47Z</time>
      </trkpt>
      <trkpt lat="48.1762" lon="2.92022">
        <ele>133.37</ele>
        <time>2020-06-16T11:28:52Z</time>
      </trkpt>
      <trkpt lat="48.17614" lon="2.9202">
        <ele>133.23</ele>
        <time>2020-06-16T11:28:57Z</time>
      </trkpt>
      <trkpt lat="48.17608" lon="2.92016">
        <ele>133.14</ele>
        <time>2020-06-16T11:29:02Z</time>
      </trkpt>
      <trkpt lat="48.17602" lon="2.92012">
        <ele>133.17</ele>
        <time>2020-06-16T11:29:07Z</time>
      </trkpt>
      <trkpt lat="48.17597" lon="2.92008">
        <ele>133.33</ele>
        <time>2020-06-16T11:29:12Z</time>
      </trkpt>
      <trkpt lat="48.17591" lon="2.92004">
        <ele>133.36</ele>
        <time>2020-06-16T11:29:17Z</time>
      </trkpt>
      <trkpt lat="48.17586" lon="2.91999">
        <ele>133.36</ele>
        <time>2020-06-16T11:29:22Z</time>
      </trkpt>
      <trkpt lat="48.1758" lon="2.91994">
        <ele>133.4</ele>
        <time>2020-06-16T11:29:27Z</time>
      </trkpt>
      <trkpt lat="48.17576" lon="2.91989">
        <ele>133.42</ele>
        <time>2020-06-16T11:29:32Z</time>
      </trkpt>
      <trkpt lat="48.17571" lon="2.91983">
        <ele>133.37</ele>
        <time>2020-06-16T11:29:37Z</time>
      </trkpt>
      <trkpt lat="48.17566" lon="2.91978">
        <ele>133.33</ele>
        <time>2020-06-16T11:29:42Z</time>
      </trkpt>
      <trkpt lat="48.17561" lon="2.91972">
        <ele>133.23</ele>
        <time>2020-06-16T11:29:47Z</time>
      </trkpt>
      <trkpt lat="48.17556" lon="2.91966">
        <ele>133.12</ele>
        <time>2020-06-16T11:29:52Z</time>
      </trkpt>
      <trkpt lat="48.17551" lon="2.9196">
        <ele>133.02</ele>
        <time>2020-06-16T11:29:57Z</time>
      </trkpt>
      <trkpt lat="48.17546" lon="2.91955">
        <ele>132.85</ele>
        <time>2020-06-16T11:30:02Z</time>
      </trkpt>
      <trkpt lat="48.17542" lon="2.91949">
        <ele>132.93</ele>
        <time>2020-06-16T11:30:07Z</time>
      </trkpt>
      <trkpt lat="48.17537" lon="2.91944">
        <ele>133.01</ele>
        <time>2020-06-16T11:30:12Z</time>
      </trkpt>
      <trkpt lat="48.17532" lon="2.91939">
        <ele>132.95</ele>
        <time>2020-06-16T11:30:17Z</time>
      </trkpt>
      <trkpt lat="48.17527" lon="2.91933">
        <ele>132.76</ele>
        <time>2020-06-16T11:30:22Z</time>
      </trkpt>
      <trkpt lat="48.17523" lon="2.91926">
        <ele>132.67</ele>
        <time>2020-06-16T11:30:27Z</time>
      </trkpt>
      <trkpt lat="48.17518" lon="2.9192">
        <ele>132.62</ele>
        <time>2020-06-16T11:30:32Z</time>
      </trkpt>
      <trkpt lat="48.17513" lon="2.91915">
        <ele>132.61</ele>
        <time>2020-06-16T11:30:37Z</time>
      </trkpt>
      <trkpt lat="48.17508" lon="2.91909">
        <ele>132.58</ele>
        <time>2020-06-16T11:30:42Z</time>
      </trkpt>
      <trkpt lat="48.17503" lon="2.91903">
        <ele>132.57</ele>
        <time>2020-06-16T11:30:47Z</time>
      </trkpt>
      <trkpt lat="48.17499" lon="2.91899">
        <ele>132.69</ele>
        <time>2020-06-16T11:30:52Z</time>
      </trkpt>
      <trkpt lat="48.17495" lon="2.91894">
        <ele>132.78</ele>
        <time>2020-06-16T11:30:57Z</time>
      </trkpt>
      <trkpt lat="48.1749" lon="2.91887">
        <ele>132.89</ele>
        <time>2020-06-16T11:31:02Z</time>
      </trkpt>
      <trkpt lat="48.17485" lon="2.91883">
        <ele>132.94</ele>
        <time>2020-06-16T11:31:07Z</time>
      </trkpt>
      <trkpt lat="48.1748" lon="2.91877">
        <ele>132.99</ele>
        <time>2020-06-16T11:31:12Z</time>
      </trkpt>
      <trkpt lat="48.17476" lon="2.91871">
        <ele>133.05</ele>
        <time>2020-06-16T11:31:17Z</time>
      </trkpt>
      <trkpt lat="48.1747" lon="2.91866">
        <ele>133.04</ele>
        <time>2020-06-16T11:31:22Z</time>
      </trkpt>
      <trkpt lat="48.17466" lon="2.91862">
        <ele>132.94</ele>
        <time>2020-06-16T11:31:27Z</time>
      </trkpt>
      <trkpt lat="48.17461" lon="2.91856">
        <ele>132.92</ele>
        <time>2020-06-16T11:31:32Z</time>
      </trkpt>
      <trkpt lat="48.17457" lon="2.9185">
        <ele>132.78</ele>
        <time>2020-06-16T11:31:37Z</time>
      </trkpt>
      <trkpt lat="48.17452" lon="2.91845">
        <ele>132.81</ele>
        <time>2020-06-16T11:31:42Z</time>
      </trkpt>
      <trkpt lat="48.17447" lon="2.91839">
        <ele>132.83</ele>
        <time>2020-06-16T11:31:47Z</time>
      </trkpt>
      <trkpt lat="48.17442" lon="2.91834">
        <ele>132.85</ele>
        <time>2020-06-16T11:31:52Z</time>
      </trkpt>
      <trkpt lat="48.17438" lon="2.91829">
        <ele>132.91</ele>
        <time>2020-06-16T11:31:57Z</time>
      </trkpt>
      <trkpt lat="48.17433" lon="2.91823">
        <ele>132.94</ele>
        <time>2020-06-16T11:32:02Z</time>
      </trkpt>
      <trkpt lat="48.17429" lon="2.91817">
        <ele>132.98</ele>
        <time>2020-06-16T11:32:07Z</time>
      </trkpt>
      <trkpt lat="48.17424" lon="2.91811">
        <ele>133.02</ele>
        <time>2020-06-16T11:32:12Z</time>
      </trkpt>
      <trkpt lat="48.1742" lon="2.91805">
        <ele>133.13</ele>
        <time>2020-06-16T11:32:17Z</time>
      </trkpt>
      <trkpt lat="48.17415" lon="2.91799">
        <ele>133.16</ele>
        <time>2020-06-16T11:32:22Z</time>
      </trkpt>
      <trkpt lat="48.1741" lon="2.91793">
        <ele>133.22</ele>
        <time>2020-06-16T11:32:27Z</time>
      </trkpt>
      <trkpt lat="48.17405" lon="2.91789">
        <ele>133.26</ele>
        <time>2020-06-16T11:32:32Z</time>
      </trkpt>
      <trkpt lat="48.174" lon="2.91783">
        <ele>133.22</ele>
        <time>2020-06-16T11:32:37Z</time>
      </trkpt>
      <trkpt lat="48.17395" lon="2.91778">
        <ele>133.23</ele>
        <time>2020-06-16T11:32:42Z</time>
      </trkpt>
      <trkpt lat="48.17391" lon="2.91772">
        <ele>133.26</ele>
        <time>2020-06-16T11:32:47Z</time>
      </trkpt>
      <trkpt lat="48.17386" lon="2.91766">
        <ele>133.26</ele>
        <time>2020-06-16T11:32:52Z</time>
      </trkpt>
      <trkpt lat="48.17382" lon="2.91761">
        <ele>133.28</ele>
        <time>2020-06-16T11:32:57Z</time>
      </trkpt>
      <trkpt lat="48.17377" lon="2.91756">
        <ele>133.25</ele>
        <time>2020-06-16T11:33:02Z</time>
      </trkpt>
      <trkpt lat="48.17372" lon="2.9175">
        <ele>133.24</ele>
        <time>2020-06-16T11:33:07Z</time>
      </trkpt>
      <trkpt lat="48.17367" lon="2.91746">
        <ele>133.3</ele>
        <time>2020-06-16T11:33:12Z</time>
      </trkpt>
      <trkpt lat="48.17363" lon="2.91741">
        <ele>133.31</ele>
        <time>2020-06-16T11:33:17Z</time>
      </trkpt>
      <trkpt lat="48.17359" lon="2.91736">
        <ele>133.29</ele>
        <time>2020-06-16T11:33:22Z</time>
      </trkpt>
      <trkpt lat="48.17355" lon="2.9173">
        <ele>133.33</ele>
        <time>2020-06-16T11:33:27Z</time>
      </trkpt>
      <trkpt lat="48.17351" lon="2.91724">
        <ele>133.34</ele>
        <time>2020-06-16T11:33:32Z</time>
      </trkpt>
      <trkpt lat="48.17347" lon="2.91717">
        <ele>133.39</ele>
        <time>2020-06-16T11:33:37Z</time>
      </trkpt>
      <trkpt lat="48.17343" lon="2.91709">
        <ele>133.42</ele>
        <time>2020-06-16T11:33:42Z</time>
      </trkpt>
      <trkpt lat="48.1734" lon="2.917">
        <ele>133.59</ele>
        <time>2020-06-16T11:33:47Z</time>
      </trkpt>
      <trkpt lat="48.17338" lon="2.91692">
        <ele>133.75</ele>
        <time>2020-06-16T11:33:52Z</time>
      </trkpt>
      <trkpt lat="48.17337" lon="2.91683">
        <ele>133.75</ele>
        <time>2020-06-16T11:33:57Z</time>
      </trkpt>
      <trkpt lat="48.17335" lon="2.91675">
        <ele>133.59</ele>
        <time>2020-06-16T11:34:02Z</time>
      </trkpt>
      <trkpt lat="48.17334" lon="2.91667">
        <ele>133.62</ele>
        <time>2020-06-16T11:34:07Z</time>
      </trkpt>
      <trkpt lat="48.17332" lon="2.91659">
        <ele>133.74</ele>
        <time>2020-06-16T11:34:12Z</time>
      </trkpt>
      <trkpt lat="48.17331" lon="2.91651">
        <ele>133.83</ele>
        <time>2020-06-16T11:34:17Z</time>
      </trkpt>
      <trkpt lat="48.17329" lon="2.91644">
        <ele>133.77</ele>
        <time>2020-06-16T11:34:22Z</time>
      </trkpt>
      <trkpt lat="48.17327" lon="2.91634">
        <ele>133.84</ele>
        <time>2020-06-16T11:34:27Z</time>
      </trkpt>
      <trkpt lat="48.17325" lon="2.91625">
        <ele>134.05</ele>
        <time>2020-06-16T11:34:32Z</time>
      </trkpt>
      <trkpt lat="48.17324" lon="2.91617">
        <ele>134.03</ele>
        <time>2020-06-16T11:34:37Z</time>
      </trkpt>
      <trkpt lat="48.17322" lon="2.91608">
        <ele>133.93</ele>
        <time>2020-06-16T11:34:42Z</time>
      </trkpt>
      <trkpt lat="48.17319" lon="2.916">
        <ele>133.97</ele>
        <time>2020-06-16T11:34:47Z</time>
      </trkpt>
      <trkpt lat="48.17317" lon="2.91591">
        <ele>134.05</ele>
        <time>2020-06-16T11:34:52Z</time>
      </trkpt>
      <trkpt lat="48.17315" lon="2.91583">
        <ele>134.11</ele>
        <time>2020-06-16T11:34:57Z</time>
      </trkpt>
      <trkpt lat="48.17313" lon="2.91575">
        <ele>134.17</ele>
        <time>2020-06-16T11:35:02Z</time>
      </trkpt>
      <trkpt lat="48.17312" lon="2.91567">
        <ele>134.01</ele>
        <time>2020-06-16T11:35:07Z</time>
      </trkpt>
      <trkpt lat="48.1731" lon="2.91558">
        <ele>133.85</ele>
        <time>2020-06-16T11:35:12Z</time>
      </trkpt>
      <trkpt lat="48.17308" lon="2.9155">
        <ele>133.87</ele>
        <time>2020-06-16T11:35:17Z</time>
      </trkpt>
      <trkpt lat="48.17306" lon="2.91542">
        <ele>133.92</ele>
        <time>2020-06-16T11:35:22Z</time>
      </trkpt>
      <trkpt lat="48.17302" lon="2.91534">
        <ele>133.85</ele>
        <time>2020-06-16T11:35:27Z</time>
      </trkpt>
      <trkpt lat="48.17298" lon="2.91527">
        <ele>133.74</ele>
        <time>2020-06-16T11:35:32Z</time>
      </trkpt>
      <trkpt lat="48.17293" lon="2.91522">
        <ele>133.6</ele>
        <time>2020-06-16T11:35:37Z</time>
      </trkpt>
      <trkpt lat="48.17288" lon="2.91518">
        <ele>133.55</ele>
        <time>2020-06-16T11:35:42Z</time>
      </trkpt>
      <trkpt lat="48.17283" lon="2.91515">
        <ele>133.52</ele>
        <time>2020-06-16T11:35:47Z</time>
      </trkpt>
      <trkpt lat="48.17282" lon="2.91511">
        <ele>133.26</ele>
        <time>2020-06-16T11:35:52Z</time>
      </trkpt>
      <trkpt lat="48.17283" lon="2.91503">
        <ele>133.18</ele>
        <time>2020-06-16T11:35:57Z</time>
      </trkpt>
      <trkpt lat="48.17284" lon="2.91495">
        <ele>133.08</ele>
        <time>2020-06-16T11:36:02Z</time>
      </trkpt>
      <trkpt lat="48.17286" lon="2.91487">
        <ele>133.04</ele>
        <time>2020-06-16T11:36:07Z</time>
      </trkpt>
      <trkpt lat="48.17287" lon="2.91479">
        <ele>133.1</ele>
        <time>2020-06-16T11:36:12Z</time>
      </trkpt>
      <trkpt lat="48.17289" lon="2.9147">
        <ele>132.97</ele>
        <time>2020-06-16T11:36:17Z</time>
      </trkpt>
      <trkpt lat="48.1729" lon="2.91463">
        <ele>133.08</ele>
        <time>2020-06-16T11:36:22Z</time>
      </trkpt>
      <trkpt lat="48.17294" lon="2.91455">
        <ele>133.77</ele>
        <time>2020-06-16T11:37:57Z</time>
      </trkpt>
      <trkpt lat="48.17299" lon="2.91453">
        <ele>133.83</ele>
        <time>2020-06-16T11:38:02Z</time>
      </trkpt>
      <trkpt lat="48.17302" lon="2.91448">
        <ele>133.89</ele>
        <time>2020-06-16T11:38:07Z</time>
      </trkpt>
      <trkpt lat="48.17303" lon="2.91439">
        <ele>133.87</ele>
        <time>2020-06-16T11:38:12Z</time>
      </trkpt>
      <trkpt lat="48.17305" lon="2.91431">
        <ele>133.88</ele>
        <time>2020-06-16T11:38:17Z</time>
      </trkpt>
      <trkpt lat="48.17307" lon="2.91423">
        <ele>133.87</ele>
        <time>2020-06-16T11:38:22Z</time>
      </trkpt>
      <trkpt lat="48.17308" lon="2.91415">
        <ele>133.84</ele>
        <time>2020-06-16T11:38:27Z</time>
      </trkpt>
      <trkpt lat="48.17309" lon="2.91406">
        <ele>133.87</ele>
        <time>2020-06-16T11:38:32Z</time>
      </trkpt>
      <trkpt lat="48.1731" lon="2.91397">
        <ele>133.89</ele>
        <time>2020-06-16T11:38:37Z</time>
      </trkpt>
      <trkpt lat="48.17311" lon="2.91388">
        <ele>133.91</ele>
        <time>2020-06-16T11:38:42Z</time>
      </trkpt>
      <trkpt lat="48.17312" lon="2.91379">
        <ele>133.83</ele>
        <time>2020-06-16T11:38:47Z</time>
      </trkpt>
      <trkpt lat="48.17313" lon="2.91372">
        <ele>133.93</ele>
        <time>2020-06-16T11:38:52Z</time>
      </trkpt>
      <trkpt lat="48.17314" lon="2.91363">
        <ele>133.99</ele>
        <time>2020-06-16T11:38:57Z</time>
      </trkpt>
      <trkpt lat="48.17315" lon="2.91356">
        <ele>133.84</ele>
        <time>2020-06-16T11:39:02Z</time>
      </trkpt>
      <trkpt lat="48.17315" lon="2.91353">
        <ele>134.47</ele>
        <time>2020-06-16T11:39:07Z</time>
      </trkpt>
      <trkpt lat="48.17318" lon="2.91346">
        <ele>134.25</ele>
        <time>2020-06-16T11:39:12Z</time>
      </trkpt>
      <trkpt lat="48.17319" lon="2.91337">
        <ele>134.01</ele>
        <time>2020-06-16T11:39:17Z</time>
      </trkpt>
      <trkpt lat="48.1732" lon="2.91329">
        <ele>133.84</ele>
        <time>2020-06-16T11:39:22Z</time>
      </trkpt>
      <trkpt lat="48.17321" lon="2.9132">
        <ele>133.83</ele>
        <time>2020-06-16T11:39:27Z</time>
      </trkpt>
      <trkpt lat="48.17323" lon="2.91311">
        <ele>133.75</ele>
        <time>2020-06-16T11:39:32Z</time>
      </trkpt>
      <trkpt lat="48.17324" lon="2.91302">
        <ele>133.61</ele>
        <time>2020-06-16T11:39:37Z</time>
      </trkpt>
      <trkpt lat="48.17324" lon="2.91294">
        <ele>133.67</ele>
        <time>2020-06-16T11:39:42Z</time>
      </trkpt>
      <trkpt lat="48.17325" lon="2.91286">
        <ele>133.63</ele>
        <time>2020-06-16T11:39:47Z</time>
      </trkpt>
      <trkpt lat="48.17326" lon="2.91279">
        <ele>133.38</ele>
        <time>2020-06-16T11:39:52Z</time>
      </trkpt>
      <trkpt lat="48.17326" lon="2.91273">
        <ele>133.15</ele>
        <time>2020-06-16T11:39:57Z</time>
      </trkpt>
      <trkpt lat="48.17328" lon="2.91264">
        <ele>132.99</ele>
        <time>2020-06-16T11:40:02Z</time>
      </trkpt>
      <trkpt lat="48.1733" lon="2.91256">
        <ele>132.79</ele>
        <time>2020-06-16T11:40:07Z</time>
      </trkpt>
      <trkpt lat="48.17331" lon="2.91247">
        <ele>132.54</ele>
        <time>2020-06-16T11:40:12Z</time>
      </trkpt>
      <trkpt lat="48.17333" lon="2.9124">
        <ele>132.35</ele>
        <time>2020-06-16T11:40:17Z</time>
      </trkpt>
      <trkpt lat="48.17334" lon="2.91232">
        <ele>132.14</ele>
        <time>2020-06-16T11:40:22Z</time>
      </trkpt>
      <trkpt lat="48.17336" lon="2.91222">
        <ele>131.97</ele>
        <time>2020-06-16T11:40:27Z</time>
      </trkpt>
      <trkpt lat="48.17336" lon="2.91213">
        <ele>131.84</ele>
        <time>2020-06-16T11:40:32Z</time>
      </trkpt>
      <trkpt lat="48.17337" lon="2.91204">
        <ele>131.62</ele>
        <time>2020-06-16T11:40:37Z</time>
      </trkpt>
      <trkpt lat="48.17339" lon="2.91195">
        <ele>131.47</ele>
        <time>2020-06-16T11:40:42Z</time>
      </trkpt>
      <trkpt lat="48.17339" lon="2.91185">
        <ele>131.3</ele>
        <time>2020-06-16T11:40:47Z</time>
      </trkpt>
      <trkpt lat="48.17341" lon="2.91175">
        <ele>131.25</ele>
        <time>2020-06-16T11:40:52Z</time>
      </trkpt>
      <trkpt lat="48.17342" lon="2.91166">
        <ele>131.18</ele>
        <time>2020-06-16T11:40:57Z</time>
      </trkpt>
      <trkpt lat="48.17343" lon="2.91157">
        <ele>131.11</ele>
        <time>2020-06-16T11:41:02Z</time>
      </trkpt>
      <trkpt lat="48.17345" lon="2.9115">
        <ele>131.03</ele>
        <time>2020-06-16T11:41:07Z</time>
      </trkpt>
      <trkpt lat="48.17346" lon="2.91141">
        <ele>130.94</ele>
        <time>2020-06-16T11:41:12Z</time>
      </trkpt>
      <trkpt lat="48.17347" lon="2.91134">
        <ele>130.83</ele>
        <time>2020-06-16T11:41:17Z</time>
      </trkpt>
      <trkpt lat="48.17349" lon="2.91126">
        <ele>130.71</ele>
        <time>2020-06-16T11:41:22Z</time>
      </trkpt>
      <trkpt lat="48.1735" lon="2.91116">
        <ele>130.59</ele>
        <time>2020-06-16T11:41:27Z</time>
      </trkpt>
      <trkpt lat="48.17351" lon="2.91105">
        <ele>130.48</ele>
        <time>2020-06-16T11:41:32Z</time>
      </trkpt>
      <trkpt lat="48.17352" lon="2.91096">
        <ele>130.48</ele>
        <time>2020-06-16T11:41:37Z</time>
      </trkpt>
      <trkpt lat="48.17353" lon="2.91087">
        <ele>130.42</ele>
        <time>2020-06-16T11:41:42Z</time>
      </trkpt>
      <trkpt lat="48.17354" lon="2.91078">
        <ele>130.28</ele>
        <time>2020-06-16T11:41:47Z</time>
      </trkpt>
      <trkpt lat="48.17355" lon="2.91069">
        <ele>130.22</ele>
        <time>2020-06-16T11:41:52Z</time>
      </trkpt>
      <trkpt lat="48.17357" lon="2.91061">
        <ele>130.2</ele>
        <time>2020-06-16T11:41:57Z</time>
      </trkpt>
      <trkpt lat="48.17359" lon="2.91053">
        <ele>130.17</ele>
        <time>2020-06-16T11:42:02Z</time>
      </trkpt>
      <trkpt lat="48.17361" lon="2.91045">
        <ele>130.34</ele>
        <time>2020-06-16T11:42:07Z</time>
      </trkpt>
      <trkpt lat="48.17363" lon="2.91037">
        <ele>130.34</ele>
        <time>2020-06-16T11:42:12Z</time>
      </trkpt>
      <trkpt lat="48.17363" lon="2.91029">
        <ele>130.55</ele>
        <time>2020-06-16T11:42:17Z</time>
      </trkpt>
      <trkpt lat="48.17364" lon="2.91021">
        <ele>131.2</ele>
        <time>2020-06-16T11:42:22Z</time>
      </trkpt>
      <trkpt lat="48.17366" lon="2.91012">
        <ele>131.14</ele>
        <time>2020-06-16T11:42:27Z</time>
      </trkpt>
      <trkpt lat="48.17367" lon="2.91004">
        <ele>131.14</ele>
        <time>2020-06-16T11:42:32Z</time>
      </trkpt>
      <trkpt lat="48.17368" lon="2.90996">
        <ele>131.2</ele>
        <time>2020-06-16T11:42:37Z</time>
      </trkpt>
      <trkpt lat="48.17369" lon="2.90988">
        <ele>131.31</ele>
        <time>2020-06-16T11:42:42Z</time>
      </trkpt>
      <trkpt lat="48.17371" lon="2.9098">
        <ele>131.55</ele>
        <time>2020-06-16T11:42:47Z</time>
      </trkpt>
      <trkpt lat="48.17372" lon="2.90971">
        <ele>131.64</ele>
        <time>2020-06-16T11:42:52Z</time>
      </trkpt>
      <trkpt lat="48.17373" lon="2.90963">
        <ele>131.63</ele>
        <time>2020-06-16T11:42:57Z</time>
      </trkpt>
      <trkpt lat="48.17375" lon="2.90954">
        <ele>131.63</ele>
        <time>2020-06-16T11:43:02Z</time>
      </trkpt>
      <trkpt lat="48.17377" lon="2.90946">
        <ele>131.64</ele>
        <time>2020-06-16T11:43:07Z</time>
      </trkpt>
      <trkpt lat="48.17378" lon="2.90937">
        <ele>131.62</ele>
        <time>2020-06-16T11:43:12Z</time>
      </trkpt>
      <trkpt lat="48.17379" lon="2.90928">
        <ele>131.81</ele>
        <time>2020-06-16T11:43:17Z</time>
      </trkpt>
      <trkpt lat="48.1738" lon="2.90919">
        <ele>131.88</ele>
        <time>2020-06-16T11:43:22Z</time>
      </trkpt>
      <trkpt lat="48.17381" lon="2.90909">
        <ele>131.84</ele>
        <time>2020-06-16T11:43:27Z</time>
      </trkpt>
      <trkpt lat="48.17382" lon="2.909">
        <ele>132.03</ele>
        <time>2020-06-16T11:43:32Z</time>
      </trkpt>
      <trkpt lat="48.17383" lon="2.9089">
        <ele>131.92</ele>
        <time>2020-06-16T11:43:37Z</time>
      </trkpt>
      <trkpt lat="48.17384" lon="2.90881">
        <ele>131.91</ele>
        <time>2020-06-16T11:43:42Z</time>
      </trkpt>
      <trkpt lat="48.17385" lon="2.90872">
        <ele>131.91</ele>
        <time>2020-06-16T11:43:47Z</time>
      </trkpt>
      <trkpt lat="48.17386" lon="2.90864">
        <ele>131.9</ele>
        <time>2020-06-16T11:43:52Z</time>
      </trkpt>
      <trkpt lat="48.17387" lon="2.90855">
        <ele>131.91</ele>
        <time>2020-06-16T11:43:57Z</time>
      </trkpt>
      <trkpt lat="48.17387" lon="2.90846">
        <ele>131.91</ele>
        <time>2020-06-16T11:44:02Z</time>
      </trkpt>
      <trkpt lat="48.17389" lon="2.90836">
        <ele>131.89</ele>
        <time>2020-06-16T11:44:07Z</time>
      </trkpt>
      <trkpt lat="48.17391" lon="2.90827">
        <ele>131.95</ele>
        <time>2020-06-16T11:44:12Z</time>
      </trkpt>
      <trkpt lat="48.17392" lon="2.90818">
        <ele>131.94</ele>
        <time>2020-06-16T11:44:17Z</time>
      </trkpt>
      <trkpt lat="48.17392" lon="2.90808">
        <ele>131.87</ele>
        <time>2020-06-16T11:44:22Z</time>
      </trkpt>
      <trkpt lat="48.17393" lon="2.90799">
        <ele>131.74</ele>
        <time>2020-06-16T11:44:27Z</time>
      </trkpt>
      <trkpt lat="48.17394" lon="2.90789">
        <ele>131.59</ele>
        <time>2020-06-16T11:44:32Z</time>
      </trkpt>
      <trkpt lat="48.17395" lon="2.9078">
        <ele>131.47</ele>
        <time>2020-06-16T11:44:37Z</time>
      </trkpt>
      <trkpt lat="48.17397" lon="2.90772">
        <ele>131.33</ele>
        <time>2020-06-16T11:44:42Z</time>
      </trkpt>
      <trkpt lat="48.17398" lon="2.90761">
        <ele>131.47</ele>
        <time>2020-06-16T11:44:47Z</time>
      </trkpt>
      <trkpt lat="48.17399" lon="2.90751">
        <ele>131.49</ele>
        <time>2020-06-16T11:44:52Z</time>
      </trkpt>
      <trkpt lat="48.174" lon="2.90742">
        <ele>131.5</ele>
        <time>2020-06-16T11:44:57Z</time>
      </trkpt>
      <trkpt lat="48.17402" lon="2.90733">
        <ele>131.64</ele>
        <time>2020-06-16T11:45:02Z</time>
      </trkpt>
      <trkpt lat="48.17402" lon="2.90723">
        <ele>131.74</ele>
        <time>2020-06-16T11:45:07Z</time>
      </trkpt>
      <trkpt lat="48.17403" lon="2.90714">
        <ele>131.76</ele>
        <time>2020-06-16T11:45:12Z</time>
      </trkpt>
      <trkpt lat="48.17404" lon="2.90705">
        <ele>131.75</ele>
        <time>2020-06-16T11:45:17Z</time>
      </trkpt>
      <trkpt lat="48.17406" lon="2.90696">
        <ele>131.76</ele>
        <time>2020-06-16T11:45:22Z</time>
      </trkpt>
      <trkpt lat="48.17407" lon="2.90686">
        <ele>131.88</ele>
        <time>2020-06-16T11:45:27Z</time>
      </trkpt>
      <trkpt lat="48.17407" lon="2.90677">
        <ele>131.92</ele>
        <time>2020-06-16T11:45:32Z</time>
      </trkpt>
      <trkpt lat="48.17408" lon="2.90668">
        <ele>131.81</ele>
        <time>2020-06-16T11:45:37Z</time>
      </trkpt>
      <trkpt lat="48.17409" lon="2.90659">
        <ele>131.68</ele>
        <time>2020-06-16T11:45:42Z</time>
      </trkpt>
      <trkpt lat="48.17411" lon="2.90649">
        <ele>131.67</ele>
        <time>2020-06-16T11:45:47Z</time>
      </trkpt>
      <trkpt lat="48.17412" lon="2.9064">
        <ele>131.83</ele>
        <time>2020-06-16T11:45:52Z</time>
      </trkpt>
      <trkpt lat="48.17414" lon="2.90632">
        <ele>131.78</ele>
        <time>2020-06-16T11:45:57Z</time>
      </trkpt>
      <trkpt lat="48.17415" lon="2.90624">
        <ele>131.71</ele>
        <time>2020-06-16T11:46:02Z</time>
      </trkpt>
      <trkpt lat="48.17416" lon="2.90615">
        <ele>131.87</ele>
        <time>2020-06-16T11:46:07Z</time>
      </trkpt>
      <trkpt lat="48.17418" lon="2.90608">
        <ele>131.74</ele>
        <time>2020-06-16T11:46:12Z</time>
      </trkpt>
      <trkpt lat="48.1742" lon="2.906">
        <ele>131.64</ele>
        <time>2020-06-16T11:46:17Z</time>
      </trkpt>
      <trkpt lat="48.17422" lon="2.90592">
        <ele>131.13</ele>
        <time>2020-06-16T11:46:22Z</time>
      </trkpt>
      <trkpt lat="48.17424" lon="2.90584">
        <ele>131.04</ele>
        <time>2020-06-16T11:46:27Z</time>
      </trkpt>
      <trkpt lat="48.17426" lon="2.90575">
        <ele>131.03</ele>
        <time>2020-06-16T11:46:32Z</time>
      </trkpt>
      <trkpt lat="48.17426" lon="2.90565">
        <ele>131.32</ele>
        <time>2020-06-16T11:46:37Z</time>
      </trkpt>
      <trkpt lat="48.17427" lon="2.90555">
        <ele>131.41</ele>
        <time>2020-06-16T11:46:42Z</time>
      </trkpt>
      <trkpt lat="48.17429" lon="2.90545">
        <ele>131.43</ele>
        <time>2020-06-16T11:46:47Z</time>
      </trkpt>
      <trkpt lat="48.1743" lon="2.90537">
        <ele>131.2</ele>
        <time>2020-06-16T11:46:52Z</time>
      </trkpt>
      <trkpt lat="48.1743" lon="2.90528">
        <ele>131.02</ele>
        <time>2020-06-16T11:46:57Z</time>
      </trkpt>
      <trkpt lat="48.17432" lon="2.9052">
        <ele>131.29</ele>
        <time>2020-06-16T11:47:02Z</time>
      </trkpt>
      <trkpt lat="48.17433" lon="2.9051">
        <ele>131.68</ele>
        <time>2020-06-16T11:47:07Z</time>
      </trkpt>
      <trkpt lat="48.17435" lon="2.905">
        <ele>132.09</ele>
        <time>2020-06-16T11:47:12Z</time>
      </trkpt>
      <trkpt lat="48.17436" lon="2.90491">
        <ele>132.09</ele>
        <time>2020-06-16T11:47:17Z</time>
      </trkpt>
      <trkpt lat="48.17437" lon="2.90481">
        <ele>132.2</ele>
        <time>2020-06-16T11:47:22Z</time>
      </trkpt>
      <trkpt lat="48.17438" lon="2.90472">
        <ele>132.17</ele>
        <time>2020-06-16T11:47:27Z</time>
      </trkpt>
      <trkpt lat="48.1744" lon="2.90462">
        <ele>132.32</ele>
        <time>2020-06-16T11:47:32Z</time>
      </trkpt>
      <trkpt lat="48.17442" lon="2.90452">
        <ele>132.62</ele>
        <time>2020-06-16T11:47:37Z</time>
      </trkpt>
      <trkpt lat="48.17443" lon="2.90443">
        <ele>132.57</ele>
        <time>2020-06-16T11:47:42Z</time>
      </trkpt>
      <trkpt lat="48.17444" lon="2.90437">
        <ele>132.57</ele>
        <time>2020-06-16T11:47:47Z</time>
      </trkpt>
      <trkpt lat="48.17445" lon="2.90431">
        <ele>132.51</ele>
        <time>2020-06-16T11:47:52Z</time>
      </trkpt>
      <trkpt lat="48.17447" lon="2.90421">
        <ele>132.3</ele>
        <time>2020-06-16T11:47:57Z</time>
      </trkpt>
      <trkpt lat="48.17448" lon="2.90412">
        <ele>132.2</ele>
        <time>2020-06-16T11:48:02Z</time>
      </trkpt>
      <trkpt lat="48.1745" lon="2.90404">
        <ele>132.16</ele>
        <time>2020-06-16T11:48:07Z</time>
      </trkpt>
      <trkpt lat="48.17449" lon="2.90397">
        <ele>132.01</ele>
        <time>2020-06-16T11:48:12Z</time>
      </trkpt>
      <trkpt lat="48.17448" lon="2.90395">
        <ele>132.26</ele>
        <time>2020-06-16T11:48:17Z</time>
      </trkpt>
      <trkpt lat="48.17448" lon="2.90395">
        <ele>132.26</ele>
        <time>2020-06-16T11:48:22Z</time>
      </trkpt>
      <trkpt lat="48.17449" lon="2.90395">
        <ele>132.26</ele>
        <time>2020-06-16T11:48:27Z</time>
      </trkpt>
      <trkpt lat="48.1745" lon="2.90397">
        <ele>132.26</ele>
        <time>2020-06-16T11:48:32Z</time>
      </trkpt>
      <trkpt lat="48.1745" lon="2.90396">
        <ele>132.26</ele>
        <time>2020-06-16T11:48:37Z</time>
      </trkpt>
      <trkpt lat="48.1745" lon="2.90395">
        <ele>132.26</ele>
        <time>2020-06-16T11:48:42Z</time>
      </trkpt>
      <trkpt lat="48.17451" lon="2.9039">
        <ele>132.26</ele>
        <time>2020-06-16T11:48:47Z</time>
      </trkpt>
      <trkpt lat="48.17452" lon="2.90384">
        <ele>132.2</ele>
        <time>2020-06-16T11:48:52Z</time>
      </trkpt>
      <trkpt lat="48.17453" lon="2.90376">
        <ele>131.77</ele>
        <time>2020-06-16T11:48:57Z</time>
      </trkpt>
      <trkpt lat="48.17455" lon="2.90367">
        <ele>131.68</ele>
        <time>2020-06-16T11:49:02Z</time>
      </trkpt>
      <trkpt lat="48.17454" lon="2.90357">
        <ele>131.64</ele>
        <time>2020-06-16T11:49:07Z</time>
      </trkpt>
      <trkpt lat="48.17455" lon="2.90348">
        <ele>131.53</ele>
        <time>2020-06-16T11:49:12Z</time>
      </trkpt>
      <trkpt lat="48.17456" lon="2.90338">
        <ele>131.32</ele>
        <time>2020-06-16T11:49:17Z</time>
      </trkpt>
      <trkpt lat="48.17457" lon="2.9033">
        <ele>131.15</ele>
        <time>2020-06-16T11:49:22Z</time>
      </trkpt>
      <trkpt lat="48.17457" lon="2.90322">
        <ele>130.96</ele>
        <time>2020-06-16T11:49:27Z</time>
      </trkpt>
      <trkpt lat="48.17459" lon="2.90313">
        <ele>130.66</ele>
        <time>2020-06-16T11:49:32Z</time>
      </trkpt>
      <trkpt lat="48.1746" lon="2.90304">
        <ele>130.44</ele>
        <time>2020-06-16T11:49:37Z</time>
      </trkpt>
      <trkpt lat="48.17462" lon="2.90297">
        <ele>130.29</ele>
        <time>2020-06-16T11:49:42Z</time>
      </trkpt>
      <trkpt lat="48.17463" lon="2.90288">
        <ele>130.06</ele>
        <time>2020-06-16T11:49:47Z</time>
      </trkpt>
      <trkpt lat="48.17464" lon="2.90279">
        <ele>129.88</ele>
        <time>2020-06-16T11:49:52Z</time>
      </trkpt>
      <trkpt lat="48.17466" lon="2.90269">
        <ele>129.78</ele>
        <time>2020-06-16T11:49:57Z</time>
      </trkpt>
      <trkpt lat="48.17467" lon="2.9026">
        <ele>130.07</ele>
        <time>2020-06-16T11:50:02Z</time>
      </trkpt>
      <trkpt lat="48.17468" lon="2.9025">
        <ele>129.97</ele>
        <time>2020-06-16T11:50:07Z</time>
      </trkpt>
      <trkpt lat="48.17469" lon="2.90242">
        <ele>129.92</ele>
        <time>2020-06-16T11:50:12Z</time>
      </trkpt>
      <trkpt lat="48.1747" lon="2.90233">
        <ele>129.87</ele>
        <time>2020-06-16T11:50:17Z</time>
      </trkpt>
      <trkpt lat="48.17471" lon="2.90224">
        <ele>129.87</ele>
        <time>2020-06-16T11:50:22Z</time>
      </trkpt>
      <trkpt lat="48.17472" lon="2.90217">
        <ele>129.64</ele>
        <time>2020-06-16T11:50:27Z</time>
      </trkpt>
      <trkpt lat="48.17473" lon="2.90208">
        <ele>129.9</ele>
        <time>2020-06-16T11:50:32Z</time>
      </trkpt>
      <trkpt lat="48.17474" lon="2.90198">
        <ele>129.72</ele>
        <time>2020-06-16T11:50:37Z</time>
      </trkpt>
      <trkpt lat="48.17475" lon="2.90189">
        <ele>129.87</ele>
        <time>2020-06-16T11:50:42Z</time>
      </trkpt>
      <trkpt lat="48.17477" lon="2.9018">
        <ele>129.8</ele>
        <time>2020-06-16T11:50:47Z</time>
      </trkpt>
      <trkpt lat="48.17478" lon="2.90172">
        <ele>129.71</ele>
        <time>2020-06-16T11:50:52Z</time>
      </trkpt>
      <trkpt lat="48.17479" lon="2.90162">
        <ele>129.65</ele>
        <time>2020-06-16T11:50:57Z</time>
      </trkpt>
      <trkpt lat="48.1748" lon="2.90154">
        <ele>129.6</ele>
        <time>2020-06-16T11:51:02Z</time>
      </trkpt>
      <trkpt lat="48.17482" lon="2.90145">
        <ele>129.6</ele>
        <time>2020-06-16T11:51:07Z</time>
      </trkpt>
      <trkpt lat="48.17483" lon="2.90137">
        <ele>129.79</ele>
        <time>2020-06-16T11:51:12Z</time>
      </trkpt>
      <trkpt lat="48.17484" lon="2.90129">
        <ele>129.68</ele>
        <time>2020-06-16T11:51:17Z</time>
      </trkpt>
      <trkpt lat="48.17485" lon="2.9012">
        <ele>129.72</ele>
        <time>2020-06-16T11:51:22Z</time>
      </trkpt>
      <trkpt lat="48.17486" lon="2.90111">
        <ele>129.7</ele>
        <time>2020-06-16T11:51:27Z</time>
      </trkpt>
      <trkpt lat="48.17487" lon="2.90102">
        <ele>129.42</ele>
        <time>2020-06-16T11:51:32Z</time>
      </trkpt>
      <trkpt lat="48.17489" lon="2.90094">
        <ele>129.41</ele>
        <time>2020-06-16T11:51:37Z</time>
      </trkpt>
      <trkpt lat="48.17489" lon="2.90085">
        <ele>129.49</ele>
        <time>2020-06-16T11:51:42Z</time>
      </trkpt>
      <trkpt lat="48.17491" lon="2.90076">
        <ele>129.55</ele>
        <time>2020-06-16T11:51:47Z</time>
      </trkpt>
      <trkpt lat="48.17492" lon="2.90067">
        <ele>129.59</ele>
        <time>2020-06-16T11:51:52Z</time>
      </trkpt>
      <trkpt lat="48.17494" lon="2.90058">
        <ele>129.57</ele>
        <time>2020-06-16T11:51:57Z</time>
      </trkpt>
      <trkpt lat="48.17495" lon="2.9005">
        <ele>129.57</ele>
        <time>2020-06-16T11:52:02Z</time>
      </trkpt>
      <trkpt lat="48.17496" lon="2.90041">
        <ele>129.52</ele>
        <time>2020-06-16T11:52:07Z</time>
      </trkpt>
      <trkpt lat="48.17498" lon="2.90032">
        <ele>129.42</ele>
        <time>2020-06-16T11:52:12Z</time>
      </trkpt>
      <trkpt lat="48.17499" lon="2.90024">
        <ele>129.37</ele>
        <time>2020-06-16T11:52:17Z</time>
      </trkpt>
      <trkpt lat="48.17501" lon="2.90016">
        <ele>129.25</ele>
        <time>2020-06-16T11:52:22Z</time>
      </trkpt>
      <trkpt lat="48.17502" lon="2.90008">
        <ele>129.11</ele>
        <time>2020-06-16T11:52:27Z</time>
      </trkpt>
      <trkpt lat="48.17503" lon="2.89999">
        <ele>129.06</ele>
        <time>2020-06-16T11:52:32Z</time>
      </trkpt>
      <trkpt lat="48.17504" lon="2.8999">
        <ele>128.99</ele>
        <time>2020-06-16T11:52:37Z</time>
      </trkpt>
      <trkpt lat="48.17505" lon="2.89982">
        <ele>128.96</ele>
        <time>2020-06-16T11:52:42Z</time>
      </trkpt>
      <trkpt lat="48.17507" lon="2.89973">
        <ele>128.94</ele>
        <time>2020-06-16T11:52:47Z</time>
      </trkpt>
      <trkpt lat="48.17508" lon="2.89964">
        <ele>128.91</ele>
        <time>2020-06-16T11:52:52Z</time>
      </trkpt>
      <trkpt lat="48.17509" lon="2.89955">
        <ele>128.9</ele>
        <time>2020-06-16T11:52:57Z</time>
      </trkpt>
      <trkpt lat="48.1751" lon="2.89947">
        <ele>128.91</ele>
        <time>2020-06-16T11:53:02Z</time>
      </trkpt>
      <trkpt lat="48.17511" lon="2.89938">
        <ele>128.81</ele>
        <time>2020-06-16T11:53:07Z</time>
      </trkpt>
      <trkpt lat="48.17513" lon="2.8993">
        <ele>128.82</ele>
        <time>2020-06-16T11:53:12Z</time>
      </trkpt>
      <trkpt lat="48.17515" lon="2.89922">
        <ele>128.87</ele>
        <time>2020-06-16T11:53:17Z</time>
      </trkpt>
      <trkpt lat="48.17516" lon="2.89914">
        <ele>128.67</ele>
        <time>2020-06-16T11:53:22Z</time>
      </trkpt>
      <trkpt lat="48.17517" lon="2.89907">
        <ele>128.62</ele>
        <time>2020-06-16T11:53:27Z</time>
      </trkpt>
      <trkpt lat="48.17517" lon="2.89904">
        <ele>128.43</ele>
        <time>2020-06-16T11:53:32Z</time>
      </trkpt>
      <trkpt lat="48.17518" lon="2.89895">
        <ele>128.4</ele>
        <time>2020-06-16T11:53:37Z</time>
      </trkpt>
      <trkpt lat="48.17519" lon="2.89886">
        <ele>128.4</ele>
        <time>2020-06-16T11:53:42Z</time>
      </trkpt>
      <trkpt lat="48.1752" lon="2.89877">
        <ele>128.38</ele>
        <time>2020-06-16T11:53:47Z</time>
      </trkpt>
      <trkpt lat="48.17521" lon="2.89869">
        <ele>128.28</ele>
        <time>2020-06-16T11:53:52Z</time>
      </trkpt>
      <trkpt lat="48.17523" lon="2.89861">
        <ele>128.01</ele>
        <time>2020-06-16T11:53:57Z</time>
      </trkpt>
      <trkpt lat="48.17523" lon="2.89852">
        <ele>127.84</ele>
        <time>2020-06-16T11:54:02Z</time>
      </trkpt>
      <trkpt lat="48.17524" lon="2.89845">
        <ele>127.45</ele>
        <time>2020-06-16T11:54:07Z</time>
      </trkpt>
      <trkpt lat="48.17525" lon="2.89836">
        <ele>127.23</ele>
        <time>2020-06-16T11:54:12Z</time>
      </trkpt>
      <trkpt lat="48.17526" lon="2.89828">
        <ele>127.03</ele>
        <time>2020-06-16T11:54:17Z</time>
      </trkpt>
      <trkpt lat="48.17528" lon="2.89819">
        <ele>126.77</ele>
        <time>2020-06-16T11:54:22Z</time>
      </trkpt>
      <trkpt lat="48.1753" lon="2.89811">
        <ele>126.47</ele>
        <time>2020-06-16T11:54:27Z</time>
      </trkpt>
      <trkpt lat="48.1753" lon="2.89801">
        <ele>126.53</ele>
        <time>2020-06-16T11:54:32Z</time>
      </trkpt>
      <trkpt lat="48.1753" lon="2.89791">
        <ele>126.64</ele>
        <time>2020-06-16T11:54:37Z</time>
      </trkpt>
      <trkpt lat="48.17532" lon="2.89781">
        <ele>126.4</ele>
        <time>2020-06-16T11:54:42Z</time>
      </trkpt>
      <trkpt lat="48.17534" lon="2.89771">
        <ele>126.36</ele>
        <time>2020-06-16T11:54:47Z</time>
      </trkpt>
      <trkpt lat="48.17535" lon="2.89762">
        <ele>126.44</ele>
        <time>2020-06-16T11:54:52Z</time>
      </trkpt>
      <trkpt lat="48.17536" lon="2.89754">
        <ele>126.38</ele>
        <time>2020-06-16T11:54:57Z</time>
      </trkpt>
      <trkpt lat="48.17538" lon="2.89745">
        <ele>126.35</ele>
        <time>2020-06-16T11:55:02Z</time>
      </trkpt>
      <trkpt lat="48.17539" lon="2.89737">
        <ele>126.58</ele>
        <time>2020-06-16T11:55:07Z</time>
      </trkpt>
      <trkpt lat="48.17542" lon="2.89729">
        <ele>126.66</ele>
        <time>2020-06-16T11:55:12Z</time>
      </trkpt>
      <trkpt lat="48.17542" lon="2.8972">
        <ele>126.72</ele>
        <time>2020-06-16T11:55:17Z</time>
      </trkpt>
      <trkpt lat="48.17543" lon="2.89712">
        <ele>126.94</ele>
        <time>2020-06-16T11:55:22Z</time>
      </trkpt>
      <trkpt lat="48.17545" lon="2.89702">
        <ele>126.86</ele>
        <time>2020-06-16T11:55:27Z</time>
      </trkpt>
      <trkpt lat="48.17546" lon="2.89693">
        <ele>126.77</ele>
        <time>2020-06-16T11:55:32Z</time>
      </trkpt>
      <trkpt lat="48.17547" lon="2.89683">
        <ele>126.79</ele>
        <time>2020-06-16T11:55:37Z</time>
      </trkpt>
      <trkpt lat="48.17546" lon="2.89674">
        <ele>126.86</ele>
        <time>2020-06-16T11:55:42Z</time>
      </trkpt>
      <trkpt lat="48.17548" lon="2.89666">
        <ele>126.97</ele>
        <time>2020-06-16T11:55:47Z</time>
      </trkpt>
      <trkpt lat="48.17548" lon="2.89656">
        <ele>126.97</ele>
        <time>2020-06-16T11:55:52Z</time>
      </trkpt>
      <trkpt lat="48.17549" lon="2.89647">
        <ele>126.92</ele>
        <time>2020-06-16T11:55:57Z</time>
      </trkpt>
      <trkpt lat="48.17552" lon="2.89638">
        <ele>126.91</ele>
        <time>2020-06-16T11:56:02Z</time>
      </trkpt>
      <trkpt lat="48.17554" lon="2.89629">
        <ele>126.85</ele>
        <time>2020-06-16T11:56:07Z</time>
      </trkpt>
      <trkpt lat="48.17555" lon="2.89621">
        <ele>126.84</ele>
        <time>2020-06-16T11:56:12Z</time>
      </trkpt>
      <trkpt lat="48.17555" lon="2.89613">
        <ele>126.85</ele>
        <time>2020-06-16T11:56:17Z</time>
      </trkpt>
      <trkpt lat="48.17557" lon="2.89606">
        <ele>126.84</ele>
        <time>2020-06-16T11:56:22Z</time>
      </trkpt>
      <trkpt lat="48.17559" lon="2.89597">
        <ele>126.77</ele>
        <time>2020-06-16T11:56:27Z</time>
      </trkpt>
      <trkpt lat="48.17559" lon="2.8959">
        <ele>126.68</ele>
        <time>2020-06-16T11:56:32Z</time>
      </trkpt>
      <trkpt lat="48.17561" lon="2.89582">
        <ele>126.74</ele>
        <time>2020-06-16T11:56:37Z</time>
      </trkpt>
      <trkpt lat="48.17563" lon="2.89574">
        <ele>126.72</ele>
        <time>2020-06-16T11:56:42Z</time>
      </trkpt>
      <trkpt lat="48.17564" lon="2.89565">
        <ele>126.74</ele>
        <time>2020-06-16T11:56:47Z</time>
      </trkpt>
      <trkpt lat="48.17564" lon="2.89556">
        <ele>126.72</ele>
        <time>2020-06-16T11:56:52Z</time>
      </trkpt>
      <trkpt lat="48.17564" lon="2.89547">
        <ele>126.67</ele>
        <time>2020-06-16T11:56:57Z</time>
      </trkpt>
      <trkpt lat="48.17566" lon="2.89539">
        <ele>126.59</ele>
        <time>2020-06-16T11:57:02Z</time>
      </trkpt>
      <trkpt lat="48.17568" lon="2.89531">
        <ele>126.46</ele>
        <time>2020-06-16T11:57:07Z</time>
      </trkpt>
      <trkpt lat="48.17569" lon="2.89526">
        <ele>126.31</ele>
        <time>2020-06-16T11:57:12Z</time>
      </trkpt>
      <trkpt lat="48.17572" lon="2.89518">
        <ele>126.27</ele>
        <time>2020-06-16T11:57:17Z</time>
      </trkpt>
      <trkpt lat="48.17573" lon="2.8951">
        <ele>126.26</ele>
        <time>2020-06-16T11:57:22Z</time>
      </trkpt>
      <trkpt lat="48.17573" lon="2.895">
        <ele>126.19</ele>
        <time>2020-06-16T11:57:27Z</time>
      </trkpt>
      <trkpt lat="48.17573" lon="2.8949">
        <ele>126.08</ele>
        <time>2020-06-16T11:57:32Z</time>
      </trkpt>
      <trkpt lat="48.17575" lon="2.89481">
        <ele>125.95</ele>
        <time>2020-06-16T11:57:37Z</time>
      </trkpt>
      <trkpt lat="48.17577" lon="2.89473">
        <ele>125.88</ele>
        <time>2020-06-16T11:57:42Z</time>
      </trkpt>
      <trkpt lat="48.17578" lon="2.89464">
        <ele>125.86</ele>
        <time>2020-06-16T11:57:47Z</time>
      </trkpt>
      <trkpt lat="48.17578" lon="2.89453">
        <ele>125.84</ele>
        <time>2020-06-16T11:57:52Z</time>
      </trkpt>
      <trkpt lat="48.17579" lon="2.89443">
        <ele>125.87</ele>
        <time>2020-06-16T11:57:57Z</time>
      </trkpt>
      <trkpt lat="48.1758" lon="2.89434">
        <ele>125.86</ele>
        <time>2020-06-16T11:58:02Z</time>
      </trkpt>
      <trkpt lat="48.17582" lon="2.89425">
        <ele>125.9</ele>
        <time>2020-06-16T11:58:07Z</time>
      </trkpt>
      <trkpt lat="48.17584" lon="2.89416">
        <ele>126.02</ele>
        <time>2020-06-16T11:58:12Z</time>
      </trkpt>
      <trkpt lat="48.17585" lon="2.89408">
        <ele>126.11</ele>
        <time>2020-06-16T11:58:17Z</time>
      </trkpt>
      <trkpt lat="48.17586" lon="2.89398">
        <ele>126.23</ele>
        <time>2020-06-16T11:58:22Z</time>
      </trkpt>
      <trkpt lat="48.17587" lon="2.89389">
        <ele>126.4</ele>
        <time>2020-06-16T11:58:27Z</time>
      </trkpt>
      <trkpt lat="48.17588" lon="2.8938">
        <ele>126.54</ele>
        <time>2020-06-16T11:58:32Z</time>
      </trkpt>
      <trkpt lat="48.1759" lon="2.89371">
        <ele>126.53</ele>
        <time>2020-06-16T11:58:37Z</time>
      </trkpt>
      <trkpt lat="48.17591" lon="2.89361">
        <ele>126.5</ele>
        <time>2020-06-16T11:58:42Z</time>
      </trkpt>
      <trkpt lat="48.17592" lon="2.89353">
        <ele>126.62</ele>
        <time>2020-06-16T11:58:47Z</time>
      </trkpt>
      <trkpt lat="48.17593" lon="2.89343">
        <ele>126.53</ele>
        <time>2020-06-16T11:58:52Z</time>
      </trkpt>
      <trkpt lat="48.17594" lon="2.89333">
        <ele>126.62</ele>
        <time>2020-06-16T11:58:57Z</time>
      </trkpt>
      <trkpt lat="48.17596" lon="2.89324">
        <ele>126.86</ele>
        <time>2020-06-16T11:59:02Z</time>
      </trkpt>
      <trkpt lat="48.17596" lon="2.89315">
        <ele>127</ele>
        <time>2020-06-16T11:59:07Z</time>
      </trkpt>
      <trkpt lat="48.17597" lon="2.89306">
        <ele>127.05</ele>
        <time>2020-06-16T11:59:12Z</time>
      </trkpt>
      <trkpt lat="48.17598" lon="2.89296">
        <ele>127.09</ele>
        <time>2020-06-16T11:59:17Z</time>
      </trkpt>
      <trkpt lat="48.17599" lon="2.89287">
        <ele>127.37</ele>
        <time>2020-06-16T11:59:22Z</time>
      </trkpt>
      <trkpt lat="48.176" lon="2.89278">
        <ele>127.52</ele>
        <time>2020-06-16T11:59:27Z</time>
      </trkpt>
      <trkpt lat="48.17602" lon="2.89268">
        <ele>127.57</ele>
        <time>2020-06-16T11:59:32Z</time>
      </trkpt>
      <trkpt lat="48.17603" lon="2.89259">
        <ele>127.7</ele>
        <time>2020-06-16T11:59:37Z</time>
      </trkpt>
      <trkpt lat="48.17605" lon="2.89251">
        <ele>127.75</ele>
        <time>2020-06-16T11:59:42Z</time>
      </trkpt>
      <trkpt lat="48.17606" lon="2.89242">
        <ele>127.89</ele>
        <time>2020-06-16T11:59:47Z</time>
      </trkpt>
      <trkpt lat="48.17607" lon="2.89234">
        <ele>127.95</ele>
        <time>2020-06-16T11:59:52Z</time>
      </trkpt>
      <trkpt lat="48.17609" lon="2.89226">
        <ele>128.02</ele>
        <time>2020-06-16T11:59:57Z</time>
      </trkpt>
      <trkpt lat="48.17611" lon="2.89218">
        <ele>128</ele>
        <time>2020-06-16T12:00:02Z</time>
      </trkpt>
      <trkpt lat="48.17612" lon="2.89209">
        <ele>127.98</ele>
        <time>2020-06-16T12:00:07Z</time>
      </trkpt>
      <trkpt lat="48.17613" lon="2.89201">
        <ele>128.03</ele>
        <time>2020-06-16T12:00:12Z</time>
      </trkpt>
      <trkpt lat="48.17615" lon="2.89193">
        <ele>128.07</ele>
        <time>2020-06-16T12:00:17Z</time>
      </trkpt>
      <trkpt lat="48.17616" lon="2.89184">
        <ele>128.13</ele>
        <time>2020-06-16T12:00:22Z</time>
      </trkpt>
      <trkpt lat="48.17617" lon="2.89175">
        <ele>128.24</ele>
        <time>2020-06-16T12:00:27Z</time>
      </trkpt>
      <trkpt lat="48.17618" lon="2.89166">
        <ele>128.34</ele>
        <time>2020-06-16T12:00:32Z</time>
      </trkpt>
      <trkpt lat="48.17619" lon="2.89156">
        <ele>128.36</ele>
        <time>2020-06-16T12:00:37Z</time>
      </trkpt>
      <trkpt lat="48.1762" lon="2.89147">
        <ele>128.32</ele>
        <time>2020-06-16T12:00:42Z</time>
      </trkpt>
      <trkpt lat="48.17621" lon="2.89139">
        <ele>128.67</ele>
        <time>2020-06-16T12:00:47Z</time>
      </trkpt>
      <trkpt lat="48.17622" lon="2.8913">
        <ele>128.81</ele>
        <time>2020-06-16T12:00:52Z</time>
      </trkpt>
      <trkpt lat="48.17623" lon="2.89122">
        <ele>128.59</ele>
        <time>2020-06-16T12:00:57Z</time>
      </trkpt>
      <trkpt lat="48.17625" lon="2.89114">
        <ele>128.54</ele>
        <time>2020-06-16T12:01:02Z</time>
      </trkpt>
      <trkpt lat="48.17627" lon="2.89105">
        <ele>128.51</ele>
        <time>2020-06-16T12:01:07Z</time>
      </trkpt>
      <trkpt lat="48.17628" lon="2.89096">
        <ele>128.55</ele>
        <time>2020-06-16T12:01:12Z</time>
      </trkpt>
      <trkpt lat="48.17628" lon="2.89088">
        <ele>128.8</ele>
        <time>2020-06-16T12:01:17Z</time>
      </trkpt>
      <trkpt lat="48.1763" lon="2.8908">
        <ele>128.88</ele>
        <time>2020-06-16T12:01:22Z</time>
      </trkpt>
      <trkpt lat="48.17632" lon="2.89071">
        <ele>128.94</ele>
        <time>2020-06-16T12:01:27Z</time>
      </trkpt>
      <trkpt lat="48.17634" lon="2.89064">
        <ele>128.95</ele>
        <time>2020-06-16T12:01:32Z</time>
      </trkpt>
      <trkpt lat="48.17636" lon="2.89055">
        <ele>128.96</ele>
        <time>2020-06-16T12:01:37Z</time>
      </trkpt>
      <trkpt lat="48.17637" lon="2.89046">
        <ele>129.01</ele>
        <time>2020-06-16T12:01:42Z</time>
      </trkpt>
      <trkpt lat="48.17637" lon="2.89036">
        <ele>129.03</ele>
        <time>2020-06-16T12:01:47Z</time>
      </trkpt>
      <trkpt lat="48.17637" lon="2.89026">
        <ele>129.05</ele>
        <time>2020-06-16T12:01:52Z</time>
      </trkpt>
      <trkpt lat="48.17639" lon="2.89017">
        <ele>128.93</ele>
        <time>2020-06-16T12:01:57Z</time>
      </trkpt>
      <trkpt lat="48.1764" lon="2.89007">
        <ele>128.68</ele>
        <time>2020-06-16T12:02:02Z</time>
      </trkpt>
      <trkpt lat="48.17642" lon="2.88999">
        <ele>128.35</ele>
        <time>2020-06-16T12:02:07Z</time>
      </trkpt>
      <trkpt lat="48.17643" lon="2.88989">
        <ele>128.23</ele>
        <time>2020-06-16T12:02:12Z</time>
      </trkpt>
      <trkpt lat="48.17644" lon="2.8898">
        <ele>128.23</ele>
        <time>2020-06-16T12:02:17Z</time>
      </trkpt>
      <trkpt lat="48.17645" lon="2.8897">
        <ele>128.23</ele>
        <time>2020-06-16T12:02:22Z</time>
      </trkpt>
      <trkpt lat="48.17646" lon="2.8896">
        <ele>128.21</ele>
        <time>2020-06-16T12:02:27Z</time>
      </trkpt>
      <trkpt lat="48.17647" lon="2.8895">
        <ele>128.21</ele>
        <time>2020-06-16T12:02:32Z</time>
      </trkpt>
      <trkpt lat="48.17648" lon="2.88941">
        <ele>128.21</ele>
        <time>2020-06-16T12:02:37Z</time>
      </trkpt>
      <trkpt lat="48.17649" lon="2.88932">
        <ele>128.29</ele>
        <time>2020-06-16T12:02:42Z</time>
      </trkpt>
      <trkpt lat="48.1765" lon="2.88923">
        <ele>128.3</ele>
        <time>2020-06-16T12:02:47Z</time>
      </trkpt>
      <trkpt lat="48.17651" lon="2.88913">
        <ele>128.31</ele>
        <time>2020-06-16T12:02:52Z</time>
      </trkpt>
      <trkpt lat="48.17653" lon="2.88904">
        <ele>128.36</ele>
        <time>2020-06-16T12:02:57Z</time>
      </trkpt>
      <trkpt lat="48.17655" lon="2.88894">
        <ele>128.35</ele>
        <time>2020-06-16T12:03:02Z</time>
      </trkpt>
      <trkpt lat="48.17656" lon="2.88885">
        <ele>128.37</ele>
        <time>2020-06-16T12:03:07Z</time>
      </trkpt>
      <trkpt lat="48.17658" lon="2.88875">
        <ele>128.42</ele>
        <time>2020-06-16T12:03:12Z</time>
      </trkpt>
      <trkpt lat="48.17659" lon="2.88866">
        <ele>128.42</ele>
        <time>2020-06-16T12:03:17Z</time>
      </trkpt>
      <trkpt lat="48.17661" lon="2.88857">
        <ele>128.5</ele>
        <time>2020-06-16T12:03:22Z</time>
      </trkpt>
      <trkpt lat="48.17662" lon="2.88849">
        <ele>128.49</ele>
        <time>2020-06-16T12:03:27Z</time>
      </trkpt>
      <trkpt lat="48.17663" lon="2.88839">
        <ele>128.13</ele>
        <time>2020-06-16T12:03:32Z</time>
      </trkpt>
      <trkpt lat="48.17664" lon="2.88829">
        <ele>127.92</ele>
        <time>2020-06-16T12:03:37Z</time>
      </trkpt>
      <trkpt lat="48.17665" lon="2.88821">
        <ele>127.87</ele>
        <time>2020-06-16T12:03:42Z</time>
      </trkpt>
      <trkpt lat="48.17667" lon="2.88811">
        <ele>127.85</ele>
        <time>2020-06-16T12:03:47Z</time>
      </trkpt>
      <trkpt lat="48.17669" lon="2.88802">
        <ele>127.78</ele>
        <time>2020-06-16T12:03:52Z</time>
      </trkpt>
      <trkpt lat="48.1767" lon="2.88794">
        <ele>127.56</ele>
        <time>2020-06-16T12:03:57Z</time>
      </trkpt>
      <trkpt lat="48.1767" lon="2.88784">
        <ele>127.46</ele>
        <time>2020-06-16T12:04:02Z</time>
      </trkpt>
      <trkpt lat="48.1767" lon="2.88774">
        <ele>127.14</ele>
        <time>2020-06-16T12:04:07Z</time>
      </trkpt>
      <trkpt lat="48.17671" lon="2.88765">
        <ele>126.98</ele>
        <time>2020-06-16T12:04:12Z</time>
      </trkpt>
      <trkpt lat="48.17673" lon="2.88757">
        <ele>126.75</ele>
        <time>2020-06-16T12:04:17Z</time>
      </trkpt>
      <trkpt lat="48.17675" lon="2.88748">
        <ele>126.59</ele>
        <time>2020-06-16T12:04:22Z</time>
      </trkpt>
      <trkpt lat="48.17678" lon="2.88739">
        <ele>126.57</ele>
        <time>2020-06-16T12:04:27Z</time>
      </trkpt>
      <trkpt lat="48.1768" lon="2.8873">
        <ele>126.62</ele>
        <time>2020-06-16T12:04:32Z</time>
      </trkpt>
      <trkpt lat="48.17682" lon="2.88721">
        <ele>126.5</ele>
        <time>2020-06-16T12:04:37Z</time>
      </trkpt>
      <trkpt lat="48.17683" lon="2.8871">
        <ele>126.36</ele>
        <time>2020-06-16T12:04:42Z</time>
      </trkpt>
      <trkpt lat="48.17683" lon="2.887">
        <ele>126.3</ele>
        <time>2020-06-16T12:04:47Z</time>
      </trkpt>
      <trkpt lat="48.17683" lon="2.88689">
        <ele>126.34</ele>
        <time>2020-06-16T12:04:52Z</time>
      </trkpt>
      <trkpt lat="48.17684" lon="2.88681">
        <ele>126.44</ele>
        <time>2020-06-16T12:04:57Z</time>
      </trkpt>
      <trkpt lat="48.17686" lon="2.88673">
        <ele>126.57</ele>
        <time>2020-06-16T12:05:02Z</time>
      </trkpt>
      <trkpt lat="48.17688" lon="2.88663">
        <ele>126.67</ele>
        <time>2020-06-16T12:05:07Z</time>
      </trkpt>
      <trkpt lat="48.1769" lon="2.88655">
        <ele>126.73</ele>
        <time>2020-06-16T12:05:12Z</time>
      </trkpt>
      <trkpt lat="48.17691" lon="2.88646">
        <ele>126.75</ele>
        <time>2020-06-16T12:05:17Z</time>
      </trkpt>
      <trkpt lat="48.17692" lon="2.88637">
        <ele>126.85</ele>
        <time>2020-06-16T12:05:22Z</time>
      </trkpt>
      <trkpt lat="48.17693" lon="2.88628">
        <ele>127.04</ele>
        <time>2020-06-16T12:05:27Z</time>
      </trkpt>
      <trkpt lat="48.17695" lon="2.88618">
        <ele>127.07</ele>
        <time>2020-06-16T12:05:32Z</time>
      </trkpt>
      <trkpt lat="48.17696" lon="2.88608">
        <ele>126.98</ele>
        <time>2020-06-16T12:05:37Z</time>
      </trkpt>
      <trkpt lat="48.17697" lon="2.88599">
        <ele>126.93</ele>
        <time>2020-06-16T12:05:42Z</time>
      </trkpt>
      <trkpt lat="48.17699" lon="2.88591">
        <ele>126.84</ele>
        <time>2020-06-16T12:05:47Z</time>
      </trkpt>
      <trkpt lat="48.177" lon="2.88581">
        <ele>126.92</ele>
        <time>2020-06-16T12:05:52Z</time>
      </trkpt>
      <trkpt lat="48.177" lon="2.88572">
        <ele>126.88</ele>
        <time>2020-06-16T12:05:57Z</time>
      </trkpt>
      <trkpt lat="48.17702" lon="2.88562">
        <ele>126.86</ele>
        <time>2020-06-16T12:06:02Z</time>
      </trkpt>
      <trkpt lat="48.17704" lon="2.88553">
        <ele>126.86</ele>
        <time>2020-06-16T12:06:07Z</time>
      </trkpt>
      <trkpt lat="48.17706" lon="2.88545">
        <ele>127</ele>
        <time>2020-06-16T12:06:12Z</time>
      </trkpt>
      <trkpt lat="48.17706" lon="2.88536">
        <ele>127.14</ele>
        <time>2020-06-16T12:06:17Z</time>
      </trkpt>
      <trkpt lat="48.17706" lon="2.88527">
        <ele>127.22</ele>
        <time>2020-06-16T12:06:22Z</time>
      </trkpt>
      <trkpt lat="48.17707" lon="2.88518">
        <ele>127.12</ele>
        <time>2020-06-16T12:06:27Z</time>
      </trkpt>
      <trkpt lat="48.17707" lon="2.88508">
        <ele>127.07</ele>
        <time>2020-06-16T12:06:32Z</time>
      </trkpt>
      <trkpt lat="48.17707" lon="2.88499">
        <ele>127.05</ele>
        <time>2020-06-16T12:06:37Z</time>
      </trkpt>
      <trkpt lat="48.17709" lon="2.88491">
        <ele>127.14</ele>
        <time>2020-06-16T12:06:42Z</time>
      </trkpt>
      <trkpt lat="48.1771" lon="2.88481">
        <ele>127.16</ele>
        <time>2020-06-16T12:06:47Z</time>
      </trkpt>
      <trkpt lat="48.17711" lon="2.88471">
        <ele>127</ele>
        <time>2020-06-16T12:06:52Z</time>
      </trkpt>
      <trkpt lat="48.17712" lon="2.88462">
        <ele>126.99</ele>
        <time>2020-06-16T12:06:57Z</time>
      </trkpt>
      <trkpt lat="48.17712" lon="2.88452">
        <ele>126.78</ele>
        <time>2020-06-16T12:07:02Z</time>
      </trkpt>
      <trkpt lat="48.17714" lon="2.88444">
        <ele>126.77</ele>
        <time>2020-06-16T12:07:07Z</time>
      </trkpt>
      <trkpt lat="48.17716" lon="2.88436">
        <ele>126.81</ele>
        <time>2020-06-16T12:07:12Z</time>
      </trkpt>
      <trkpt lat="48.17717" lon="2.88426">
        <ele>126.81</ele>
        <time>2020-06-16T12:07:17Z</time>
      </trkpt>
      <trkpt lat="48.1772" lon="2.88419">
        <ele>126.71</ele>
        <time>2020-06-16T12:07:22Z</time>
      </trkpt>
      <trkpt lat="48.17721" lon="2.88409">
        <ele>126.65</ele>
        <time>2020-06-16T12:07:27Z</time>
      </trkpt>
      <trkpt lat="48.17723" lon="2.884">
        <ele>126.61</ele>
        <time>2020-06-16T12:07:32Z</time>
      </trkpt>
      <trkpt lat="48.17726" lon="2.88391">
        <ele>126.64</ele>
        <time>2020-06-16T12:07:37Z</time>
      </trkpt>
      <trkpt lat="48.17727" lon="2.88382">
        <ele>126.77</ele>
        <time>2020-06-16T12:07:42Z</time>
      </trkpt>
      <trkpt lat="48.17729" lon="2.88374">
        <ele>126.81</ele>
        <time>2020-06-16T12:07:47Z</time>
      </trkpt>
      <trkpt lat="48.1773" lon="2.88364">
        <ele>126.81</ele>
        <time>2020-06-16T12:07:52Z</time>
      </trkpt>
      <trkpt lat="48.1773" lon="2.88354">
        <ele>126.7</ele>
        <time>2020-06-16T12:07:57Z</time>
      </trkpt>
      <trkpt lat="48.17732" lon="2.88346">
        <ele>126.7</ele>
        <time>2020-06-16T12:08:02Z</time>
      </trkpt>
      <trkpt lat="48.17732" lon="2.88337">
        <ele>126.6</ele>
        <time>2020-06-16T12:08:07Z</time>
      </trkpt>
      <trkpt lat="48.17733" lon="2.88327">
        <ele>126.41</ele>
        <time>2020-06-16T12:08:12Z</time>
      </trkpt>
      <trkpt lat="48.17735" lon="2.88317">
        <ele>126.38</ele>
        <time>2020-06-16T12:08:17Z</time>
      </trkpt>
      <trkpt lat="48.17737" lon="2.88309">
        <ele>126.24</ele>
        <time>2020-06-16T12:08:22Z</time>
      </trkpt>
      <trkpt lat="48.17738" lon="2.88301">
        <ele>126.19</ele>
        <time>2020-06-16T12:08:27Z</time>
      </trkpt>
      <trkpt lat="48.17739" lon="2.88292">
        <ele>126.16</ele>
        <time>2020-06-16T12:08:32Z</time>
      </trkpt>
      <trkpt lat="48.17741" lon="2.88282">
        <ele>126.15</ele>
        <time>2020-06-16T12:08:37Z</time>
      </trkpt>
      <trkpt lat="48.17743" lon="2.88273">
        <ele>126.06</ele>
        <time>2020-06-16T12:08:42Z</time>
      </trkpt>
      <trkpt lat="48.17744" lon="2.88264">
        <ele>126.08</ele>
        <time>2020-06-16T12:08:47Z</time>
      </trkpt>
      <trkpt lat="48.17745" lon="2.88256">
        <ele>126.16</ele>
        <time>2020-06-16T12:08:52Z</time>
      </trkpt>
      <trkpt lat="48.17745" lon="2.88246">
        <ele>126.13</ele>
        <time>2020-06-16T12:08:57Z</time>
      </trkpt>
      <trkpt lat="48.17746" lon="2.88236">
        <ele>126.17</ele>
        <time>2020-06-16T12:09:02Z</time>
      </trkpt>
      <trkpt lat="48.17748" lon="2.88227">
        <ele>126.16</ele>
        <time>2020-06-16T12:09:07Z</time>
      </trkpt>
      <trkpt lat="48.17749" lon="2.88217">
        <ele>126.06</ele>
        <time>2020-06-16T12:09:12Z</time>
      </trkpt>
      <trkpt lat="48.17751" lon="2.88209">
        <ele>126.07</ele>
        <time>2020-06-16T12:09:17Z</time>
      </trkpt>
      <trkpt lat="48.17751" lon="2.88199">
        <ele>125.88</ele>
        <time>2020-06-16T12:09:22Z</time>
      </trkpt>
      <trkpt lat="48.17752" lon="2.88188">
        <ele>125.64</ele>
        <time>2020-06-16T12:09:27Z</time>
      </trkpt>
      <trkpt lat="48.17751" lon="2.88178">
        <ele>125.63</ele>
        <time>2020-06-16T12:09:32Z</time>
      </trkpt>
      <trkpt lat="48.17753" lon="2.88168">
        <ele>125.69</ele>
        <time>2020-06-16T12:09:37Z</time>
      </trkpt>
      <trkpt lat="48.17756" lon="2.88159">
        <ele>125.87</ele>
        <time>2020-06-16T12:09:42Z</time>
      </trkpt>
      <trkpt lat="48.17757" lon="2.8815">
        <ele>125.69</ele>
        <time>2020-06-16T12:09:47Z</time>
      </trkpt>
      <trkpt lat="48.17758" lon="2.8814">
        <ele>125.57</ele>
        <time>2020-06-16T12:09:52Z</time>
      </trkpt>
      <trkpt lat="48.17759" lon="2.88131">
        <ele>125.39</ele>
        <time>2020-06-16T12:09:57Z</time>
      </trkpt>
      <trkpt lat="48.1776" lon="2.88121">
        <ele>125.1</ele>
        <time>2020-06-16T12:10:02Z</time>
      </trkpt>
      <trkpt lat="48.17761" lon="2.88112">
        <ele>125.06</ele>
        <time>2020-06-16T12:10:07Z</time>
      </trkpt>
      <trkpt lat="48.17762" lon="2.88104">
        <ele>124.91</ele>
        <time>2020-06-16T12:10:12Z</time>
      </trkpt>
      <trkpt lat="48.17764" lon="2.88095">
        <ele>124.77</ele>
        <time>2020-06-16T12:10:17Z</time>
      </trkpt>
      <trkpt lat="48.17765" lon="2.88086">
        <ele>124.68</ele>
        <time>2020-06-16T12:10:22Z</time>
      </trkpt>
      <trkpt lat="48.17765" lon="2.88076">
        <ele>124.63</ele>
        <time>2020-06-16T12:10:27Z</time>
      </trkpt>
      <trkpt lat="48.17765" lon="2.88066">
        <ele>124.65</ele>
        <time>2020-06-16T12:10:32Z</time>
      </trkpt>
      <trkpt lat="48.17766" lon="2.88056">
        <ele>124.6</ele>
        <time>2020-06-16T12:10:37Z</time>
      </trkpt>
      <trkpt lat="48.17767" lon="2.88047">
        <ele>124.51</ele>
        <time>2020-06-16T12:10:42Z</time>
      </trkpt>
      <trkpt lat="48.17768" lon="2.88038">
        <ele>124.44</ele>
        <time>2020-06-16T12:10:47Z</time>
      </trkpt>
      <trkpt lat="48.17769" lon="2.88028">
        <ele>124.21</ele>
        <time>2020-06-16T12:10:52Z</time>
      </trkpt>
      <trkpt lat="48.1777" lon="2.88021">
        <ele>124.07</ele>
        <time>2020-06-16T12:10:57Z</time>
      </trkpt>
      <trkpt lat="48.17769" lon="2.88019">
        <ele>124.02</ele>
        <time>2020-06-16T12:11:02Z</time>
      </trkpt>
      <trkpt lat="48.1777" lon="2.88015">
        <ele>124</ele>
        <time>2020-06-16T12:11:07Z</time>
      </trkpt>
      <trkpt lat="48.17773" lon="2.88006">
        <ele>124</ele>
        <time>2020-06-16T12:11:12Z</time>
      </trkpt>
      <trkpt lat="48.17775" lon="2.87997">
        <ele>124</ele>
        <time>2020-06-16T12:11:17Z</time>
      </trkpt>
      <trkpt lat="48.17776" lon="2.87988">
        <ele>124</ele>
        <time>2020-06-16T12:11:22Z</time>
      </trkpt>
      <trkpt lat="48.17779" lon="2.87979">
        <ele>124</ele>
        <time>2020-06-16T12:11:27Z</time>
      </trkpt>
      <trkpt lat="48.1778" lon="2.8797">
        <ele>123.93</ele>
        <time>2020-06-16T12:11:32Z</time>
      </trkpt>
      <trkpt lat="48.17781" lon="2.87962">
        <ele>123.77</ele>
        <time>2020-06-16T12:11:37Z</time>
      </trkpt>
      <trkpt lat="48.17781" lon="2.87953">
        <ele>123.7</ele>
        <time>2020-06-16T12:11:42Z</time>
      </trkpt>
      <trkpt lat="48.17783" lon="2.87944">
        <ele>123.59</ele>
        <time>2020-06-16T12:11:47Z</time>
      </trkpt>
      <trkpt lat="48.17784" lon="2.87934">
        <ele>123.44</ele>
        <time>2020-06-16T12:11:52Z</time>
      </trkpt>
      <trkpt lat="48.17785" lon="2.87926">
        <ele>123.49</ele>
        <time>2020-06-16T12:11:57Z</time>
      </trkpt>
      <trkpt lat="48.17786" lon="2.87917">
        <ele>123.47</ele>
        <time>2020-06-16T12:12:02Z</time>
      </trkpt>
      <trkpt lat="48.17785" lon="2.87905">
        <ele>123.41</ele>
        <time>2020-06-16T12:12:07Z</time>
      </trkpt>
      <trkpt lat="48.17786" lon="2.87896">
        <ele>123.43</ele>
        <time>2020-06-16T12:12:12Z</time>
      </trkpt>
      <trkpt lat="48.17788" lon="2.87887">
        <ele>123.23</ele>
        <time>2020-06-16T12:12:17Z</time>
      </trkpt>
      <trkpt lat="48.17789" lon="2.8788">
        <ele>123.18</ele>
        <time>2020-06-16T12:12:22Z</time>
      </trkpt>
      <trkpt lat="48.17789" lon="2.8787">
        <ele>123.09</ele>
        <time>2020-06-16T12:12:27Z</time>
      </trkpt>
      <trkpt lat="48.17791" lon="2.87862">
        <ele>123.01</ele>
        <time>2020-06-16T12:12:32Z</time>
      </trkpt>
      <trkpt lat="48.1779" lon="2.87852">
        <ele>122.99</ele>
        <time>2020-06-16T12:12:37Z</time>
      </trkpt>
      <trkpt lat="48.17792" lon="2.87844">
        <ele>122.92</ele>
        <time>2020-06-16T12:12:42Z</time>
      </trkpt>
      <trkpt lat="48.17794" lon="2.87836">
        <ele>122.98</ele>
        <time>2020-06-16T12:12:47Z</time>
      </trkpt>
      <trkpt lat="48.17793" lon="2.87824">
        <ele>123.11</ele>
        <time>2020-06-16T12:12:52Z</time>
      </trkpt>
      <trkpt lat="48.17795" lon="2.87815">
        <ele>123.21</ele>
        <time>2020-06-16T12:12:57Z</time>
      </trkpt>
      <trkpt lat="48.17798" lon="2.87807">
        <ele>123.29</ele>
        <time>2020-06-16T12:13:02Z</time>
      </trkpt>
      <trkpt lat="48.17801" lon="2.87799">
        <ele>123.45</ele>
        <time>2020-06-16T12:13:07Z</time>
      </trkpt>
      <trkpt lat="48.17804" lon="2.87792">
        <ele>123.45</ele>
        <time>2020-06-16T12:13:12Z</time>
      </trkpt>
      <trkpt lat="48.17806" lon="2.87783">
        <ele>123.35</ele>
        <time>2020-06-16T12:13:17Z</time>
      </trkpt>
      <trkpt lat="48.17809" lon="2.87775">
        <ele>123.37</ele>
        <time>2020-06-16T12:13:22Z</time>
      </trkpt>
      <trkpt lat="48.1781" lon="2.87769">
        <ele>123.42</ele>
        <time>2020-06-16T12:13:27Z</time>
      </trkpt>
      <trkpt lat="48.17812" lon="2.8776">
        <ele>123.23</ele>
        <time>2020-06-16T12:13:32Z</time>
      </trkpt>
      <trkpt lat="48.17813" lon="2.87752">
        <ele>123.66</ele>
        <time>2020-06-16T12:13:37Z</time>
      </trkpt>
      <trkpt lat="48.17814" lon="2.87744">
        <ele>123.63</ele>
        <time>2020-06-16T12:13:42Z</time>
      </trkpt>
      <trkpt lat="48.17816" lon="2.87736">
        <ele>123.6</ele>
        <time>2020-06-16T12:13:47Z</time>
      </trkpt>
      <trkpt lat="48.17818" lon="2.87728">
        <ele>123.83</ele>
        <time>2020-06-16T12:13:52Z</time>
      </trkpt>
      <trkpt lat="48.1782" lon="2.87719">
        <ele>123.51</ele>
        <time>2020-06-16T12:13:57Z</time>
      </trkpt>
      <trkpt lat="48.17822" lon="2.8771">
        <ele>123.29</ele>
        <time>2020-06-16T12:14:02Z</time>
      </trkpt>
      <trkpt lat="48.17824" lon="2.87701">
        <ele>123.31</ele>
        <time>2020-06-16T12:14:07Z</time>
      </trkpt>
      <trkpt lat="48.17825" lon="2.87692">
        <ele>123.36</ele>
        <time>2020-06-16T12:14:12Z</time>
      </trkpt>
      <trkpt lat="48.17826" lon="2.87683">
        <ele>123.06</ele>
        <time>2020-06-16T12:14:17Z</time>
      </trkpt>
      <trkpt lat="48.17827" lon="2.87674">
        <ele>123.09</ele>
        <time>2020-06-16T12:14:22Z</time>
      </trkpt>
      <trkpt lat="48.17829" lon="2.87665">
        <ele>123.24</ele>
        <time>2020-06-16T12:14:27Z</time>
      </trkpt>
      <trkpt lat="48.17831" lon="2.87657">
        <ele>123.26</ele>
        <time>2020-06-16T12:14:32Z</time>
      </trkpt>
      <trkpt lat="48.17833" lon="2.87649">
        <ele>123.13</ele>
        <time>2020-06-16T12:14:37Z</time>
      </trkpt>
      <trkpt lat="48.17835" lon="2.8764">
        <ele>122.89</ele>
        <time>2020-06-16T12:14:42Z</time>
      </trkpt>
      <trkpt lat="48.17836" lon="2.87631">
        <ele>122.74</ele>
        <time>2020-06-16T12:14:47Z</time>
      </trkpt>
      <trkpt lat="48.17838" lon="2.87622">
        <ele>122.72</ele>
        <time>2020-06-16T12:14:52Z</time>
      </trkpt>
      <trkpt lat="48.17839" lon="2.87613">
        <ele>122.84</ele>
        <time>2020-06-16T12:14:57Z</time>
      </trkpt>
      <trkpt lat="48.1784" lon="2.87605">
        <ele>122.87</ele>
        <time>2020-06-16T12:15:02Z</time>
      </trkpt>
      <trkpt lat="48.17842" lon="2.87596">
        <ele>122.72</ele>
        <time>2020-06-16T12:15:07Z</time>
      </trkpt>
      <trkpt lat="48.17843" lon="2.87586">
        <ele>122.67</ele>
        <time>2020-06-16T12:15:12Z</time>
      </trkpt>
      <trkpt lat="48.17844" lon="2.87577">
        <ele>122.53</ele>
        <time>2020-06-16T12:15:17Z</time>
      </trkpt>
      <trkpt lat="48.17844" lon="2.87568">
        <ele>122.37</ele>
        <time>2020-06-16T12:15:22Z</time>
      </trkpt>
      <trkpt lat="48.17844" lon="2.87559">
        <ele>122.25</ele>
        <time>2020-06-16T12:15:27Z</time>
      </trkpt>
      <trkpt lat="48.17843" lon="2.87551">
        <ele>122.18</ele>
        <time>2020-06-16T12:15:32Z</time>
      </trkpt>
      <trkpt lat="48.17841" lon="2.87543">
        <ele>122.15</ele>
        <time>2020-06-16T12:15:37Z</time>
      </trkpt>
      <trkpt lat="48.17841" lon="2.87535">
        <ele>122.03</ele>
        <time>2020-06-16T12:15:42Z</time>
      </trkpt>
      <trkpt lat="48.17839" lon="2.87527">
        <ele>121.78</ele>
        <time>2020-06-16T12:15:47Z</time>
      </trkpt>
      <trkpt lat="48.17838" lon="2.87519">
        <ele>121.77</ele>
        <time>2020-06-16T12:15:52Z</time>
      </trkpt>
      <trkpt lat="48.17836" lon="2.87511">
        <ele>121.81</ele>
        <time>2020-06-16T12:15:57Z</time>
      </trkpt>
      <trkpt lat="48.17833" lon="2.87503">
        <ele>121.82</ele>
        <time>2020-06-16T12:16:02Z</time>
      </trkpt>
      <trkpt lat="48.17831" lon="2.87496">
        <ele>121.82</ele>
        <time>2020-06-16T12:16:07Z</time>
      </trkpt>
      <trkpt lat="48.17829" lon="2.87486">
        <ele>121.93</ele>
        <time>2020-06-16T12:16:12Z</time>
      </trkpt>
      <trkpt lat="48.17826" lon="2.87479">
        <ele>121.95</ele>
        <time>2020-06-16T12:16:17Z</time>
      </trkpt>
      <trkpt lat="48.17823" lon="2.87473">
        <ele>121.87</ele>
        <time>2020-06-16T12:16:22Z</time>
      </trkpt>
      <trkpt lat="48.17818" lon="2.87467">
        <ele>121.81</ele>
        <time>2020-06-16T12:16:27Z</time>
      </trkpt>
      <trkpt lat="48.17814" lon="2.87461">
        <ele>121.79</ele>
        <time>2020-06-16T12:16:32Z</time>
      </trkpt>
      <trkpt lat="48.1781" lon="2.87456">
        <ele>121.82</ele>
        <time>2020-06-16T12:16:37Z</time>
      </trkpt>
      <trkpt lat="48.17805" lon="2.87448">
        <ele>121.81</ele>
        <time>2020-06-16T12:16:42Z</time>
      </trkpt>
      <trkpt lat="48.17799" lon="2.87443">
        <ele>121.94</ele>
        <time>2020-06-16T12:16:47Z</time>
      </trkpt>
      <trkpt lat="48.17793" lon="2.8744">
        <ele>122</ele>
        <time>2020-06-16T12:16:52Z</time>
      </trkpt>
      <trkpt lat="48.17788" lon="2.87438">
        <ele>122.07</ele>
        <time>2020-06-16T12:16:57Z</time>
      </trkpt>
      <trkpt lat="48.17783" lon="2.87435">
        <ele>122.32</ele>
        <time>2020-06-16T12:17:02Z</time>
      </trkpt>
      <trkpt lat="48.17777" lon="2.87433">
        <ele>122.36</ele>
        <time>2020-06-16T12:17:07Z</time>
      </trkpt>
      <trkpt lat="48.17772" lon="2.87432">
        <ele>122.26</ele>
        <time>2020-06-16T12:17:12Z</time>
      </trkpt>
      <trkpt lat="48.17766" lon="2.87429">
        <ele>122.23</ele>
        <time>2020-06-16T12:17:17Z</time>
      </trkpt>
      <trkpt lat="48.17759" lon="2.87427">
        <ele>122.21</ele>
        <time>2020-06-16T12:17:22Z</time>
      </trkpt>
      <trkpt lat="48.17753" lon="2.87426">
        <ele>122.2</ele>
        <time>2020-06-16T12:17:27Z</time>
      </trkpt>
      <trkpt lat="48.17747" lon="2.87425">
        <ele>122.2</ele>
        <time>2020-06-16T12:17:32Z</time>
      </trkpt>
      <trkpt lat="48.17743" lon="2.87424">
        <ele>122.24</ele>
        <time>2020-06-16T12:17:37Z</time>
      </trkpt>
      <trkpt lat="48.17737" lon="2.87423">
        <ele>122.32</ele>
        <time>2020-06-16T12:17:42Z</time>
      </trkpt>
      <trkpt lat="48.1773" lon="2.87422">
        <ele>122.53</ele>
        <time>2020-06-16T12:17:47Z</time>
      </trkpt>
      <trkpt lat="48.17724" lon="2.87422">
        <ele>122.64</ele>
        <time>2020-06-16T12:17:52Z</time>
      </trkpt>
      <trkpt lat="48.17718" lon="2.87421">
        <ele>122.68</ele>
        <time>2020-06-16T12:17:57Z</time>
      </trkpt>
      <trkpt lat="48.17712" lon="2.87419">
        <ele>122.71</ele>
        <time>2020-06-16T12:18:02Z</time>
      </trkpt>
      <trkpt lat="48.17706" lon="2.87418">
        <ele>122.78</ele>
        <time>2020-06-16T12:18:07Z</time>
      </trkpt>
      <trkpt lat="48.177" lon="2.87417">
        <ele>122.72</ele>
        <time>2020-06-16T12:18:12Z</time>
      </trkpt>
      <trkpt lat="48.17696" lon="2.87415">
        <ele>122.7</ele>
        <time>2020-06-16T12:18:17Z</time>
      </trkpt>
      <trkpt lat="48.17695" lon="2.87407">
        <ele>122.73</ele>
        <time>2020-06-16T12:18:22Z</time>
      </trkpt>
      <trkpt lat="48.17695" lon="2.87398">
        <ele>122.73</ele>
        <time>2020-06-16T12:18:27Z</time>
      </trkpt>
      <trkpt lat="48.17695" lon="2.87389">
        <ele>122.79</ele>
        <time>2020-06-16T12:18:32Z</time>
      </trkpt>
      <trkpt lat="48.17694" lon="2.87381">
        <ele>122.8</ele>
        <time>2020-06-16T12:18:37Z</time>
      </trkpt>
      <trkpt lat="48.17693" lon="2.87375">
        <ele>122.8</ele>
        <time>2020-06-16T12:18:42Z</time>
      </trkpt>
      <trkpt lat="48.17694" lon="2.87367">
        <ele>122.84</ele>
        <time>2020-06-16T12:18:47Z</time>
      </trkpt>
      <trkpt lat="48.17695" lon="2.8736">
        <ele>122.91</ele>
        <time>2020-06-16T12:18:52Z</time>
      </trkpt>
      <trkpt lat="48.17695" lon="2.87351">
        <ele>122.92</ele>
        <time>2020-06-16T12:18:57Z</time>
      </trkpt>
      <trkpt lat="48.17694" lon="2.87342">
        <ele>122.89</ele>
        <time>2020-06-16T12:19:02Z</time>
      </trkpt>
      <trkpt lat="48.17692" lon="2.87333">
        <ele>122.81</ele>
        <time>2020-06-16T12:19:07Z</time>
      </trkpt>
      <trkpt lat="48.17691" lon="2.87325">
        <ele>122.8</ele>
        <time>2020-06-16T12:19:12Z</time>
      </trkpt>
      <trkpt lat="48.1769" lon="2.87316">
        <ele>122.85</ele>
        <time>2020-06-16T12:19:17Z</time>
      </trkpt>
      <trkpt lat="48.1769" lon="2.87307">
        <ele>122.81</ele>
        <time>2020-06-16T12:19:22Z</time>
      </trkpt>
      <trkpt lat="48.1769" lon="2.87298">
        <ele>122.89</ele>
        <time>2020-06-16T12:19:27Z</time>
      </trkpt>
      <trkpt lat="48.17689" lon="2.87291">
        <ele>122.84</ele>
        <time>2020-06-16T12:19:32Z</time>
      </trkpt>
      <trkpt lat="48.17689" lon="2.87283">
        <ele>122.75</ele>
        <time>2020-06-16T12:19:37Z</time>
      </trkpt>
      <trkpt lat="48.17689" lon="2.87274">
        <ele>122.74</ele>
        <time>2020-06-16T12:19:42Z</time>
      </trkpt>
      <trkpt lat="48.1769" lon="2.87266">
        <ele>122.67</ele>
        <time>2020-06-16T12:19:47Z</time>
      </trkpt>
      <trkpt lat="48.1769" lon="2.87259">
        <ele>122.65</ele>
        <time>2020-06-16T12:19:52Z</time>
      </trkpt>
      <trkpt lat="48.1769" lon="2.87252">
        <ele>122.65</ele>
        <time>2020-06-16T12:19:57Z</time>
      </trkpt>
      <trkpt lat="48.17689" lon="2.87245">
        <ele>122.49</ele>
        <time>2020-06-16T12:20:02Z</time>
      </trkpt>
      <trkpt lat="48.17689" lon="2.87237">
        <ele>122.42</ele>
        <time>2020-06-16T12:20:07Z</time>
      </trkpt>
      <trkpt lat="48.17689" lon="2.87228">
        <ele>122.4</ele>
        <time>2020-06-16T12:20:12Z</time>
      </trkpt>
      <trkpt lat="48.1769" lon="2.8722">
        <ele>122.59</ele>
        <time>2020-06-16T12:20:17Z</time>
      </trkpt>
      <trkpt lat="48.17691" lon="2.87214">
        <ele>122.52</ele>
        <time>2020-06-16T12:20:22Z</time>
      </trkpt>
      <trkpt lat="48.1769" lon="2.87213">
        <ele>122.27</ele>
        <time>2020-06-16T12:20:27Z</time>
      </trkpt>
      <trkpt lat="48.17686" lon="2.8721">
        <ele>122.27</ele>
        <time>2020-06-16T12:20:32Z</time>
      </trkpt>
      <trkpt lat="48.17684" lon="2.87206">
        <ele>122.31</ele>
        <time>2020-06-16T12:20:37Z</time>
      </trkpt>
      <trkpt lat="48.17679" lon="2.87207">
        <ele>122.4</ele>
        <time>2020-06-16T12:20:42Z</time>
      </trkpt>
      <trkpt lat="48.17674" lon="2.87201">
        <ele>122.37</ele>
        <time>2020-06-16T12:20:47Z</time>
      </trkpt>
      <trkpt lat="48.17669" lon="2.87195">
        <ele>122.37</ele>
        <time>2020-06-16T12:20:52Z</time>
      </trkpt>
      <trkpt lat="48.17666" lon="2.87188">
        <ele>122.33</ele>
        <time>2020-06-16T12:20:57Z</time>
      </trkpt>
      <trkpt lat="48.17661" lon="2.87184">
        <ele>122.39</ele>
        <time>2020-06-16T12:21:02Z</time>
      </trkpt>
      <trkpt lat="48.17656" lon="2.87183">
        <ele>122.6</ele>
        <time>2020-06-16T12:21:07Z</time>
      </trkpt>
      <trkpt lat="48.17653" lon="2.8718">
        <ele>122.72</ele>
        <time>2020-06-16T12:21:12Z</time>
      </trkpt>
      <trkpt lat="48.17653" lon="2.87175">
        <ele>122.75</ele>
        <time>2020-06-16T12:21:17Z</time>
      </trkpt>
      <trkpt lat="48.17651" lon="2.87169">
        <ele>122.89</ele>
        <time>2020-06-16T12:21:22Z</time>
      </trkpt>
    </trkseg>
  </trk>
</gpx>